Netzneutralität in Gefahr!
ÖsterreichEUDeutschland (aktiv)Geizhals (Deutschland) » Neue Bestpreise (2 Stunden)

Neue Bestpreise

Stunden: 1 2 4 8 12 24

Änderung mind. in Prozent: 0 0.2 0.5 1 2 3 5 10 20

Preistendenz: egal steigend fallend

Kategorien:

30.07.2014, 00:54 -3.15% BFGoodrich All Terrain T/A KO 265/70 R17 112/109R um €150,21 (statt: €155,10) bei ReifenSuche.com
30.07.2014, 00:54 -5.02% Hankook Ventus S1 evo K107 215/40 R17 87Y XL um €92,98 (statt: €97,89) bei ReifenSuche.com
30.07.2014, 00:54 -1.47% Bridgestone Turanza ER300 205/45 R16 87W XL um €86,07 (statt: €87,35) bei ReifenSuche.com
30.07.2014, 00:54 -11.97% Goodyear EfficientGrip 255/45 R20 101Y um €271,13 (statt: €308,--) bei ReifenSuche.com
30.07.2014, 00:54 -1.38% Fulda EcoControl 155/65 R14 75T um €35,84 (statt: €36,34) bei ReifenSuche.com
30.07.2014, 00:54 -3.20% Michelin Primacy HP 215/50 R17 95W XL um €143,37 (statt: €148,11) bei ReifenSuche.com
30.07.2014, 00:54 -1.11% Michelin Primacy HP 225/50 R17 98W um €141,84 (statt: €143,43) bei ReifenSuche.com
30.07.2014, 00:54 -1.39% Kumho Solus Vier KH21 165/70 R14 81T um €40,53 (statt: €41,10) bei ReifenSuche.com
30.07.2014, 00:54 -1.12% Kumho KW7400 165/80 R13 83Q um €39,70 (statt: €40,15) bei ReifenSuche.com
30.07.2014, 00:54 -2.46% Nexen Winguard 225/70 R15 110/112R um €64,18 (statt: €65,80) bei ReifenSuche.com
30.07.2014, 00:54 -1.39% Bridgestone Dueler H/P Sport 255/60 R17 106H um €115,57 (statt: €117,20) bei ReifenSuche.com
30.07.2014, 00:54 -1.42% Kumho Ecsta SPT KU31 225/55 R16 99W XL um €78,59 (statt: €79,72) bei ReifenSuche.com
30.07.2014, 00:54 -2.19% Fulda Carat Progresso 185/55 R14 80H um €63,37 (statt: €64,79) bei ReifenSuche.com
30.07.2014, 00:54 -2.84% Michelin Primacy HP 225/50 R16 92V um €115,12 (statt: €118,49) bei ReifenSuche.com
30.07.2014, 00:54 -4.42% Matador MPS 320 Maxilla 225/70 R15 112/110R um €68,71 (statt: €71,89) bei ReifenSuche.com
30.07.2014, 00:54 -8.55% Dunlop Arrowmax GT501 130/90 16 67H TL um €86,69 (statt: €94,80) bei ReifenSuche.com
30.07.2014, 00:54 -33.48% Nexen Winguard 195/60 R15 88T um €45,15 (statt: €67,87) bei ReifenSuche.com
30.07.2014, 00:54 -1.34% Semperit Speed-Life 245/45 ZR17 95W FR um €108,41 (statt: €109,88) bei ReifenSuche.com
30.07.2014, 00:54 -1.88% Nexen N'Fera SU4 215/60 R16 99V XL um €64,16 (statt: €65,39) bei ReifenSuche.com
30.07.2014, 00:54 -9.26% Fulda 4x4 Road 195/80 R15 96H um €80,21 (statt: €88,40) bei ReifenSuche.com
30.07.2014, 00:54 -16.63% Yokohama A.drive AA01 185/65 R15 88T um €47,02 (statt: €56,40) bei ReifenSuche.com
30.07.2014, 00:54 -49.34% Dunlop SP LT 30 215/65 R16 106T um €111,30 (statt: €219,69) bei ReifenSuche.com
30.07.2014, 00:54 -1.38% Semperit Van-Life 205/65 R15 102/100T um €80,47 (statt: €81,60) bei ReifenSuche.com
30.07.2014, 00:54 -4.43% Heidenau K64 RSW 130/70 18 63H TL um €154,96 (statt: €162,14) bei ReifenSuche.com
30.07.2014, 00:54 -2.60% Pirelli Scorpion Ice&Snow 285/45 R19 107V um €262,11 (statt: €269,10) bei ReifenSuche.com
30.07.2014, 00:54 -3.49% Heidenau K77 120/90 10 66M TL um €39,57 (statt: €41,--) bei ReifenSuche.com
30.07.2014, 00:54 -2.18% Hankook Ventus S1 evo K107 235/30 R20 88Y XL um €175,30 (statt: €179,20) bei ReifenSuche.com
30.07.2014, 00:54 -2.00% Bridgestone Blizzak LM-25 4x4 215/60 R17 96H um €120,83 (statt: €123,30) bei ReifenSuche.com
30.07.2014, 00:54 -1.70% Fulda Conveo Trac 195/65 R16 104R um €85,52 (statt: €87,--) bei ReifenSuche.com
30.07.2014, 00:54 -1.46% Hankook Ventus S1 evo K107 205/55 R16 91V um €56,03 (statt: €56,86) bei ReifenSuche.com
30.07.2014, 00:54 -2.06% Debica Furio 205/65 R15 94H um €50,83 (statt: €51,90) bei ReifenSuche.com
30.07.2014, 00:54 -1.66% Semperit Van-Life 215/65 R16 109/107R um €89,98 (statt: €91,50) bei ReifenSuche.com
30.07.2014, 00:54 -1.98% Metzeler Feelfree 120/80 14 58S TL um €47,15 (statt: €48,10) bei ReifenSuche.com
30.07.2014, 00:54 -2.00% Yokohama Geolandar H/T-S G051 235/55 R17 99H M+S um €107,21 (statt: €109,40) bei ReifenSuche.com
30.07.2014, 00:54 -1.45% Maxxis MA-W2 Wintermaxx 205/65 R15 102T um €68,69 (statt: €69,70) bei ReifenSuche.com
30.07.2014, 00:54 -2.17% Heidenau K60 4.60 17 68T TT um €65,74 (statt: €67,20) bei ReifenSuche.com
30.07.2014, 00:54 -3.69% Nexen N3000 205/40 ZR16 79W um €52,49 (statt: €54,50) bei ReifenSuche.com
30.07.2014, 00:54 -1.64% Hankook Dynapro HP 235/70 R16 106T um €70,02 (statt: €71,19) bei ReifenSuche.com
30.07.2014, 00:54 -3.41% Marangoni Mythos 235/40 ZR17 94Y XL um €54,12 (statt: €56,03) bei ReifenSuche.com
30.07.2014, 00:54 -2.46% Debica Frigo 2 175/70 R14 84T um €38,43 (statt: €39,40) bei ReifenSuche.com
30.07.2014, 00:54 -1.96% Nankang NS-2 225/30 R20 85W XL um €97,06 (statt: €99,--) bei ReifenSuche.com
30.07.2014, 00:54 -5.42% Cooper Discoverer ATR 235/75 R15 109S XL um €120,68 (statt: €127,60) bei ReifenSuche.com
30.07.2014, 00:54 -3.85% General Tire Grabber AT2 315/75 R16 121Q um €169,60 (statt: €176,40) bei ReifenSuche.com
30.07.2014, 00:54 -2.41% Kumho KW7400 185/70 R14 88T um €43,36 (statt: €44,43) bei ReifenSuche.com
30.07.2014, 00:54 -1.51% Michelin Latitude Tour HP 235/65 R17 104V MO um €122,91 (statt: €124,80) bei ReifenSuche.com
30.07.2014, 00:54 -2.28% Dunlop SP Sport Maxx 255/40 ZR17 98Y XL um €138,28 (statt: €141,50) bei ReifenSuche.com
30.07.2014, 00:54 -1.29% Hankook Dynapro MT RT03 225/75 R16 115/112Q um €108,68 (statt: €110,10) bei ReifenSuche.com
30.07.2014, 00:54 -1.82% Sava Trenta 175 R14 99/98P um €51,74 (statt: €52,70) bei ReifenSuche.com
30.07.2014, 00:54 -1.45% Continental ContiMilestone CM2 WW 150/80 16 71H TL um €144,53 (statt: €146,66) bei ReifenSuche.com
30.07.2014, 00:54 -1.25% Vredestein Wintrac Xtreme 225/60 R16 98H um €91,17 (statt: €92,32) bei ReifenSuche.com
30.07.2014, 00:54 -6.25% Debica Presto 195/55 R15 85V um €50,58 (statt: €53,95) bei ReifenSuche.com
30.07.2014, 00:54 -1.15% Matador MP 59 Nordicca 205/60 R15 91T um €55,95 (statt: €56,60) bei ReifenSuche.com
30.07.2014, 00:54 -1.45% Dunlop Grandtrek SJ6 225/60 R17 99Q um €136,98 (statt: €139,--) bei ReifenSuche.com
30.07.2014, 00:54 -4.01% Continental ContiSportContact 3 255/35 ZR18 94Y XL FR MO um €185,66 (statt: €193,42) bei ReifenSuche.com
30.07.2014, 00:54 -3.15% Yokohama Geolandar H/T-S G051 235/75 R15 105H um €92,17 (statt: €95,17) bei ReifenSuche.com
30.07.2014, 00:54 -3.51% Yokohama A.drive AA01 175/70 R14 84T um €49,79 (statt: €51,60) bei ReifenSuche.com
30.07.2014, 00:54 -1.38% Yokohama Geolandar I/T+ G071 265/65 R17 112T M+S um €120,46 (statt: €122,15) bei ReifenSuche.com
30.07.2014, 00:54 -2.96% Yokohama A.drive AA01 195/50 R15 82H um €48,17 (statt: €49,64) bei ReifenSuche.com
30.07.2014, 00:54 -2.83% Sava perfecta 155/70 R13 75T um €26,43 (statt: €27,20) bei ReifenSuche.com
30.07.2014, 00:54 -2.30% Cooper Discoverer M+S 235/80 R17 120/117Q um €129,84 (statt: €132,90) bei ReifenSuche.com
30.07.2014, 00:54 -3.04% Kumho I`ZEN RV KC15 255/60 R17 110H Reinforced um €98,22 (statt: €101,30) bei ReifenSuche.com
30.07.2014, 00:54 -2.10% Dunlop SP Sport 01 215/50 R17 95V XL um €126,25 (statt: €128,96) bei ReifenSuche.com
30.07.2014, 00:54 -1.04% Dunlop SP Sport 01 205/45 R17 84W um €129,89 (statt: €131,26) bei ReifenSuche.com
30.07.2014, 00:54 -4.01% Kumho Solus KH15 215/60 R16 95V um €77,08 (statt: €80,30) bei ReifenSuche.com
30.07.2014, 00:54 -1.22% Maxxis MA-W2 Wintermaxx 175/65 R14 90T um €51,96 (statt: €52,60) bei ReifenSuche.com
30.07.2014, 00:54 -1.41% Dunlop SP Sport FastResponse 195/55 R15 85V um €79,56 (statt: €80,70) bei ReifenSuche.com
30.07.2014, 00:54 -2.07% Falken LA/SL S112 235/60 R16 100Q um €92,35 (statt: €94,30) bei ReifenSuche.com
30.07.2014, 00:54 -1.87% Dunlop Grandtrek SJ6 205/70 R15 95Q um €90,37 (statt: €92,09) bei ReifenSuche.com
30.07.2014, 00:54 -4.64% Ceat Spider 155/65 R13 73T um €34,08 (statt: €35,74) bei ReifenSuche.com
30.07.2014, 00:54 -1.89% Goodyear UltraGrip SUV 245/65 R17 107H um €156,10 (statt: €159,10) bei ReifenSuche.com
30.07.2014, 00:54 -5.27% Sonar S888 175/80 R13 97/95N um €41,51 (statt: €43,82) bei ReifenSuche.com
30.07.2014, 00:54 -3.63% Kumho I`ZEN RV KC15 235/55 R18 100H um €119,26 (statt: €123,75) bei ReifenSuche.com
30.07.2014, 00:54 -1.26% Kumho Power Grip KC11 235/75 R15 104Q um €78,10 (statt: €79,10) bei ReifenSuche.com
30.07.2014, 00:54 -1.97% Kumho Power Grip KC11 215/65 R16 109R um €76,76 (statt: €78,30) bei ReifenSuche.com
30.07.2014, 00:54 -1.74% Toyo Open Country W/T 235/65 R17 108V XL um €112,61 (statt: €114,60) bei ReifenSuche.com
30.07.2014, 00:54 -2.04% Barum SnoVanis 195/65 R16 104/102T um €84,64 (statt: €86,40) bei ReifenSuche.com
30.07.2014, 00:54 -1.64% Heidenau K60 130/80 18 72T TT um €68,87 (statt: €70,02) bei ReifenSuche.com
30.07.2014, 00:54 -4.74% Ceat Spider 175/65 R13 80T um €41,41 (statt: €43,47) bei ReifenSuche.com
30.07.2014, 00:54 -4.90% Ceat Spider 175/65 R14 82H um €48,68 (statt: €51,19) bei ReifenSuche.com
30.07.2014, 00:54 -1.96% Ceat Spider 165/65 R13 77T um €40,60 (statt: €41,41) bei ReifenSuche.com
30.07.2014, 00:54 -1.51% Matador MP 59 Nordicca 235/50 R18 101V XL um €123,70 (statt: €125,60) bei ReifenSuche.com
30.07.2014, 00:54 -7.33% Cooper Discoverer ATR 235/75 R15 105S um €97,21 (statt: €104,90) bei ReifenSuche.com
30.07.2014, 00:54 -3.25% EP-Tyres Accelera Alpha 225/45 R17 94W um €53,01 (statt: €54,79) bei ReifenSuche.com
30.07.2014, 00:54 -2.98% Nexen N7000 245/50 ZR18 104W um €140,41 (statt: €144,73) bei ReifenSuche.com
30.07.2014, 00:54 -2.56% Goodyear Eagle F1 Asymmetric 285/25 R20 93Y XL um €267,38 (statt: €274,40) bei ReifenSuche.com
30.07.2014, 00:54 -1.75% Toyo Open Country W/T 225/75 R16 104T um €104,64 (statt: €106,50) bei ReifenSuche.com
30.07.2014, 00:54 -1.18% Heidenau K66 Cup 100/80 16 56P TL um €45,25 (statt: €45,79) bei ReifenSuche.com
30.07.2014, 00:54 -6.03% Lanvin Rumeur Eau de Parfum 100ml um €27,90 (statt: €29,69) bei Onlinestore-John
30.07.2014, 00:54 -8.00% Shiseido Bio-Performance Advanced Super Revitalizing Cream 50ml um €56,50 (statt: €61,41) bei Onlinestore-John
30.07.2014, 00:53 -15.57% Nitro Diamond um €19,80 (statt: €23,45) bei Markenkoffer GmbH
30.07.2014, 00:53 -34.19% Eastpak Hepper into the out um €23,-- (statt: €34,95) bei Markenkoffer GmbH
30.07.2014, 00:53 -28.76% Mushroom Men (deutsch) (DS) um €9,19 (statt: €12,90) bei TopWare Interactive AG Shop
30.07.2014, 00:53 -29.25% Mushroom Men (deutsch) (Wii) um €9,19 (statt: €12,99) bei TopWare Interactive AG Shop
30.07.2014, 00:53 -6.79% Tristar KW-2435 Elektronische Küchenwaage um €10,02 (statt: €10,75) bei BM-Trading | MeinPaket
30.07.2014, 00:53 -17.37% Adler AD2228 um €8,18 (statt: €9,90) bei BM-Trading | MeinPaket
30.07.2014, 00:53 -16.51% Adler AD2222 um €9,10 (statt: €10,90) bei BM-Trading | MeinPaket
30.07.2014, 00:53 -17.37% Adler AD2220 um €8,18 (statt: €9,90) bei BM-Trading | MeinPaket
30.07.2014, 00:53 -17.37% Adler AD2218 um €8,18 (statt: €9,90) bei BM-Trading | MeinPaket
30.07.2014, 00:53 -16.39% Adler AD 806 18l Kühlbox um €45,90 (statt: €54,90) bei BM-Trading | MeinPaket
30.07.2014, 00:53 -31.25% Wortmann S9N-2262210-M47 Li-Ionen-Akku um €62,56 (statt: €90,99) bei akku-Xtra
30.07.2014, 00:53 -35.62% Toshiba PA3730U-1BRS Li-Ionen-Akku um €63,74 (statt: €99,--) bei akku-Xtra
30.07.2014, 00:53 -32.07% Lenovo IBM 57Y6309 IdeaPad Li-Ionen-Akku um €59,69 (statt: €87,87) bei akku-Xtra
30.07.2014, 00:53 -31.77% Lenovo IBM 42T4511 ThinkPad Li-Ionen-Akku um €51,85 (statt: €75,99) bei akku-Xtra
30.07.2014, 00:53 -41.99% Toshiba PA3689U-1BRS Li-Ionen-Akku um €46,76 (statt: €80,61) bei akku-Xtra
30.07.2014, 00:53 -5.35% Kompatibler Akku zu Toshiba PA3062U-1BRS um €52,90 (statt: €55,89) bei akku-Xtra
30.07.2014, 00:53 -7.47% Samsung AA-PL0NC8B Li-Ionen-Akku um €84,06 (statt: €90,85) bei akku-Xtra
30.07.2014, 00:53 -5.53% Panasonic CF-VZSU48U Li-Ionen-Akku um €148,39 (statt: €157,07) bei akku-Xtra
30.07.2014, 00:53 -30.54% Lenovo IBM 08K8178 ThinkPad Li-Ionen-Akku um €53,74 (statt: €77,37) bei akku-Xtra
30.07.2014, 00:53 -21.09% HP 580956-001 Li-Ionen-Akku um €62,99 (statt: €79,83) bei akku-Xtra
30.07.2014, 00:53 -23.64% Dell 451-11599 Li-Ionen-Akku um €60,27 (statt: €78,93) bei akku-Xtra
30.07.2014, 00:53 -9.62% Dell 451-10673 Li-Ionen-Akku um €71,40 (statt: €79,--) bei akku-Xtra
30.07.2014, 00:53 -45.65% Dell 451-10234 Li-Ionen-Akku um €59,11 (statt: €108,76) bei akku-Xtra
30.07.2014, 00:53 -35.10% ASUS 90-XB0POABT00000Q Li-Ionen-Akku um €57,76 (statt: €89,--) bei akku-Xtra
30.07.2014, 00:53 -1.40% Kompatibler Akku zu ASUS 90-NFV6B1000Z um €59,11 (statt: €59,95) bei akku-Xtra
30.07.2014, 00:53 -22.90% ASUS 90-NXH1B1000Y Li-Ionen-Akku um €60,91 (statt: €79,--) bei akku-Xtra
30.07.2014, 00:53 -1.11% B+W Filter neutral grau ND4 (102) 62mm um €27,60 (statt: €27,91) bei Foto Kiesewetter Shop
30.07.2014, 00:53 -4.09% B+W Filter Infrarot schwarz (093) 77mm um €115,-- (statt: €119,90) bei Foto Kiesewetter Shop
30.07.2014, 00:53 -8.00% B+W Filter Infrarot schwarz (093) 60mm um €74,05 (statt: €80,49) bei Foto Kiesewetter Shop
30.07.2014, 00:53 -14.65% B+W Filter Infrarot schwarz (093) 58mm um €63,93 (statt: €74,90) bei Foto Kiesewetter Shop
30.07.2014, 00:53 -4.17% B+W Filter Infrarot schwarz (093) 55mm um €69,-- (statt: €72,--) bei Foto Kiesewetter Shop
30.07.2014, 00:53 -6.67% B+W Filter Pol Circular MRC 77mm um €90,16 (statt: €96,60) bei Foto Kiesewetter Shop
30.07.2014, 00:53 -2.76% B+W Filter neutral grau ND64 (106) 52mm um €35,88 (statt: €36,90) bei Foto Kiesewetter Shop
30.07.2014, 00:53 -2.76% B+W Filter neutral grau ND64 (106) 49mm um €35,88 (statt: €36,90) bei Foto Kiesewetter Shop
30.07.2014, 00:53 -5.02% Cullmann Lima DayPack 600+ Rucksack (94865) um €84,53 (statt: €89,--) bei Foto Kiesewetter Shop
30.07.2014, 00:53 -7.48% Bilora Alpha 40 Kameratasche schwarz (2404) um €24,74 (statt: €26,74) bei Foto Kiesewetter Shop
30.07.2014, 00:53 -8.00% Dörr Smart Bag Kameratasche (verschiedene Modelle) um €18,39 (statt: €19,99) bei Foto Kiesewetter Shop
30.07.2014, 00:53 -50.73% Philips EcoHalo 14W GU5.3 MR16 Niedervolt (822885-00) um €2,71 (statt: €5,50) bei lichtchef.de | MeinPaket
30.07.2014, 00:53 -29.70% Diverse Halogenlampen, Sockel R7S, 1000W (230V) um €1,16 (statt: €1,65) bei lichtchef.de | MeinPaket
30.07.2014, 00:53 -14.21% Diverse Halogenlampen, Sockel R7S, 200W (230V) um €1,63 (statt: €1,90) bei lichtchef.de | MeinPaket
30.07.2014, 00:53 -40.93% Osram Dulux Superstar Mini Ball 15W/825 E27 um €7,59 (statt: €12,85) bei lichtchef.de | MeinPaket
30.07.2014, 00:53 -6.10% Osram Halopin 66740 40W G9 um €2,31 (statt: €2,46) bei lichtchef.de | MeinPaket
30.07.2014, 00:53 -1.32% Kumho Power Grip KC11 265/70 R17 121Q LT um €157,58 (statt: €159,69) bei ReifenSuche.com
30.07.2014, 00:53 -6.27% Stubai Tour Ultralight um €46,82 (statt: €49,95) bei Vertical Extreme Shop
30.07.2014, 00:53 -8.01% Stubai Tour Lite Telescope um €107,54 (statt: €116,90) bei Vertical Extreme Shop
30.07.2014, 00:53 -8.04% Stubai Lawinenschaufel Mini (996401) um €41,30 (statt: €44,91) bei Vertical Extreme Shop
30.07.2014, 00:53 -8.02% Stubai Sigma X-Press Eisschraube um €36,70 (statt: €39,90) bei Vertical Extreme Shop
30.07.2014, 00:53 -12.10% Simond Caiman 2 Mixed um €79,02 (statt: €89,90) bei Vertical Extreme Shop
30.07.2014, 00:53 -8.03% Red Chili Boulder Bag Chalkbag um €21,98 (statt: €23,90) bei Vertical Extreme Shop
30.07.2014, 00:53 -8.02% Red Chili Logo Chalkbag um €15,59 (statt: €16,95) bei Vertical Extreme Shop
30.07.2014, 00:53 -8.04% Red Chili Giant Chalkbag um €17,38 (statt: €18,90) bei Vertical Extreme Shop
30.07.2014, 00:53 -8.04% Prana Damen Chalkbag um €18,30 (statt: €19,90) bei Vertical Extreme Shop
30.07.2014, 00:53 -8.03% Prana Bucket Chalkbag um €27,50 (statt: €29,90) bei Vertical Extreme Shop
30.07.2014, 00:53 -2.89% Pieps Checker LVS-Check um €17,48 (statt: €18,--) bei Vertical Extreme Shop
30.07.2014, 00:53 -8.01% Petzl Charlet Sarken V2 um €125,02 (statt: €135,90) bei Vertical Extreme Shop
30.07.2014, 00:53 -8.01% Ocun Pinches Klettergriffe um €57,86 (statt: €62,90) bei Vertical Extreme Shop
30.07.2014, 00:53 -8.02% Ocun Twister Kid Hüftgurt um €41,30 (statt: €44,90) bei Vertical Extreme Shop
30.07.2014, 00:53 -3.49% Ocun Slopers Klettergriffe um €57,86 (statt: €59,95) bei Vertical Extreme Shop
30.07.2014, 00:53 -8.01% Ocun Edges Klettergriffe um €57,86 (statt: €62,90) bei Vertical Extreme Shop
30.07.2014, 00:53 -8.01% Ocun Jugs Klettergriffe um €57,86 (statt: €62,90) bei Vertical Extreme Shop
30.07.2014, 00:53 -8.01% Ocun Trainingsboard um €66,14 (statt: €71,90) bei Vertical Extreme Shop
30.07.2014, 00:53 -8.06% Ocun Chalkbag Big um €13,24 (statt: €14,40) bei Vertical Extreme Shop
30.07.2014, 00:53 -34.43% Nihil Incubator Kletterhose lang (Herren) um €36,70 (statt: €55,97) bei Vertical Extreme Shop
30.07.2014, 00:53 -1.60% Nihil Gargamel Short Kletterhose kurz (Herren) um €41,30 (statt: €41,97) bei Vertical Extreme Shop
30.07.2014, 00:53 -2.12% Mountain Equipment Helium 800 Mumienschlafsack (Damen) um €305,34 (statt: €311,95) bei Vertical Extreme Shop
30.07.2014, 00:53 -15.47% Mountain Equipment Classic 750 Mumienschlafsack (Damen) um €250,14 (statt: €295,92) bei Vertical Extreme Shop
30.07.2014, 00:53 -8.01% Metolius Wood Grips Deluxe Trainingsboard um €122,26 (statt: €132,90) bei Vertical Extreme Shop
30.07.2014, 00:53 -8.01% Metolius Wood Grips Compact Trainingsboard um €95,58 (statt: €103,90) bei Vertical Extreme Shop
30.07.2014, 00:53 -8.02% Metolius Super 7 Set um €34,86 (statt: €37,90) bei Vertical Extreme Shop
30.07.2014, 00:53 -8.03% Metolius Screw On Footholds um €18,21 (statt: €19,80) bei Vertical Extreme Shop
30.07.2014, 00:53 -8.03% Metolius Rope Hook um €21,98 (statt: €23,90) bei Vertical Extreme Shop
30.07.2014, 00:53 -8.01% Metolius Project Trainingsboard (versch. Farben) um €56,94 (statt: €61,90) bei Vertical Extreme Shop
30.07.2014, 00:53 -8.03% Metolius Power Grips Trainingsgriffe um €25,66 (statt: €27,90) bei Vertical Extreme Shop
30.07.2014, 00:53 -8.01% Metolius 40 Hold Mega Pack um €122,26 (statt: €132,90) bei Vertical Extreme Shop
30.07.2014, 00:53 -8.02% Metolius Greatest Chips um €30,26 (statt: €32,90) bei Vertical Extreme Shop
30.07.2014, 00:53 -6.76% Metolius Klettertape um €6,34 (statt: €6,80) bei Vertical Extreme Shop
30.07.2014, 00:53 -3.14% Metolius Bouldering Set 12er-Pack um €34,86 (statt: €35,99) bei Vertical Extreme Shop
30.07.2014, 00:53 -8.01% Lapis Trainingsboard (versch. Farben) um €119,50 (statt: €129,90) bei Vertical Extreme Shop
30.07.2014, 00:53 -8.01% LACD Via Ferrata Pro stretch um €50,50 (statt: €54,90) bei Vertical Extreme Shop
30.07.2014, 00:53 -8.01% Jetboil Flash Gaskocher um €78,10 (statt: €84,90) bei Vertical Extreme Shop
30.07.2014, 00:53 -8.00% Grivel Rambo 4 um €185,74 (statt: €201,90) bei Vertical Extreme Shop
30.07.2014, 00:53 -2.29% Grivel Quantum Tech um €218,86 (statt: €224,--) bei Vertical Extreme Shop
30.07.2014, 00:53 -8.01% Five Ten Camp Four (Herren) um €109,38 (statt: €118,90) bei Vertical Extreme Shop
30.07.2014, 00:53 -7.07% Elliot Liquid Chalk um €4,60 (statt: €4,95) bei Vertical Extreme Shop
30.07.2014, 00:53 -4.97% Edelrid Belay Kit II (71678) um €66,14 (statt: €69,60) bei Vertical Extreme Shop
30.07.2014, 00:53 -8.03% Edelrid Dragon II Gaskocher (73153) um €29,34 (statt: €31,90) bei Vertical Extreme Shop
30.07.2014, 00:53 -1.55% Pieps Freeride LVS-Gerät um €82,70 (statt: €84,--) bei Vertical Extreme Shop
30.07.2014, 00:53 -8.01% Komperdell Alpinist um €82,70 (statt: €89,90) bei Vertical Extreme Shop
30.07.2014, 00:53 -8.01% Komperdell Mountaineer um €101,10 (statt: €109,90) bei Vertical Extreme Shop
30.07.2014, 00:53 -8.02% AustriAlpin Siko FX Eisschraube 17cm um €40,38 (statt: €43,90) bei Vertical Extreme Shop
30.07.2014, 00:53 -8.01% AustriAlpin Hydra (AS93C) um €107,54 (statt: €116,90) bei Vertical Extreme Shop
30.07.2014, 00:53 -8.01% AustriAlpin colt II superstrong (AS90CL) um €67,06 (statt: €72,90) bei Vertical Extreme Shop
30.07.2014, 00:53 -6.30% AustriAlpin Jumpline Komplettset um €70,74 (statt: €75,50) bei Vertical Extreme Shop
30.07.2014, 00:53 -1.93% AustriAlpin Slackline 15m um €57,96 (statt: €59,10) bei Vertical Extreme Shop
30.07.2014, 00:53 -7.73% Stubai Ibex um €59,70 (statt: €64,70) bei Vertical Extreme Shop
30.07.2014, 00:53 -1.93% Stubai Nimbus um €57,86 (statt: €59,--) bei Vertical Extreme Shop
30.07.2014, 00:53 -9.77% Stubai Lawinensonde Carbon Rapid (911415) um €49,58 (statt: €54,95) bei Vertical Extreme Shop
30.07.2014, 00:53 -12.41% Stubai Lawinensonde Alu Rapid (911425) um €36,70 (statt: €41,90) bei Vertical Extreme Shop
30.07.2014, 00:53 -5.80% Stubai Hornet Protect (versch. Versionen) um €74,42 (statt: €79,--) bei Vertical Extreme Shop
30.07.2014, 00:53 -2.31% Stubai Trekking um €78,10 (statt: €79,95) bei Vertical Extreme Shop
30.07.2014, 00:53 -4.53% Stubai Antislip Grödel um €23,82 (statt: €24,95) bei Vertical Extreme Shop
30.07.2014, 00:53 -6.33% Singing Rock Terra II um €45,90 (statt: €49,--) bei Vertical Extreme Shop
30.07.2014, 00:53 -8.42% Singing Rock O-Ring um €1,74 (statt: €1,90) bei Vertical Extreme Shop
30.07.2014, 00:53 -4.38% Singing Rock Bobingo Vario Brustgurt um €22,90 (statt: €23,95) bei Vertical Extreme Shop
30.07.2014, 00:53 -8.00% Ocun Paddy Incubator Crashpad um €220,70 (statt: €239,90) bei Vertical Extreme Shop
30.07.2014, 00:53 -8.01% Ocun Rip'n'Stop stretch um €62,46 (statt: €67,90) bei Vertical Extreme Shop
30.07.2014, 00:53 -8.15% Ocun Liquid Chalk um €4,96 (statt: €5,40) bei Vertical Extreme Shop
30.07.2014, 00:53 -8.09% Ocun Chalk Rattle um €6,25 (statt: €6,80) bei Vertical Extreme Shop
30.07.2014, 00:53 -7.07% Ocun Klettertape um €3,68 (statt: €3,96) bei Vertical Extreme Shop
30.07.2014, 00:53 -22.85% Ocun Via Ferrata Y stretch um €57,86 (statt: €75,--) bei Vertical Extreme Shop
30.07.2014, 00:53 -8.33% Ocun Chalkbaggürtel um €1,65 (statt: €1,80) bei Vertical Extreme Shop
30.07.2014, 00:53 -3.50% Ocun Bandschlinge Dyneema 11mm (versch. Längen) um €3,58 (statt: €3,71) bei Vertical Extreme Shop
30.07.2014, 00:53 -8.42% Ocun Bandschlinge 16mm (versch. Längen) um €1,74 (statt: €1,90) bei Vertical Extreme Shop
30.07.2014, 00:53 -8.01% Ocun Twist Tech Hüftgurt um €49,58 (statt: €53,90) bei Vertical Extreme Shop
30.07.2014, 00:53 -8.03% Ocun Variant Brustgurt um €24,74 (statt: €26,90) bei Vertical Extreme Shop
30.07.2014, 00:53 -7.75% ATEN VS481A um €31,18 (statt: €33,80) bei Vertical Extreme Shop
30.07.2014, 00:53 -8.01% Mountain Equipment Power Stretch Salopette Hose (Herren) um €102,94 (statt: €111,90) bei Vertical Extreme Shop
30.07.2014, 00:53 -8.01% Metolius 30 Hold Mega Pack um €95,58 (statt: €103,90) bei Vertical Extreme Shop
30.07.2014, 00:53 -8.01% Boreal Flyers (Damen) um €73,50 (statt: €79,90) bei Vertical Extreme Shop
30.07.2014, 00:53 -8.01% Boreal Flyers (Herren) um €73,50 (statt: €79,90) bei Vertical Extreme Shop
30.07.2014, 00:53 -8.01% Grivel Salamander XL um €57,86 (statt: €62,90) bei Vertical Extreme Shop
30.07.2014, 00:53 -3.95% Grivel G22 um €172,86 (statt: €179,96) bei Vertical Extreme Shop
30.07.2014, 00:53 -2.41% Grivel G20 um €175,62 (statt: €179,96) bei Vertical Extreme Shop
30.07.2014, 00:53 -4.59% Grivel Monte Rosa  um €65,22 (statt: €68,36) bei Vertical Extreme Shop
30.07.2014, 00:53 -4.76% Grivel Air tech Light New Matic um €132,38 (statt: €139,--) bei Vertical Extreme Shop
30.07.2014, 00:53 -2.43% Grivel Spider Spikes um €32,10 (statt: €32,90) bei Vertical Extreme Shop
30.07.2014, 00:53 -5.07% Grivel Air Tech New Matic (versch. Versionen) um €115,82 (statt: €122,--) bei Vertical Extreme Shop
30.07.2014, 00:53 -2.93% Scarpa Zen Lite GTX (Herren) um €139,74 (statt: €143,96) bei Vertical Extreme Shop
30.07.2014, 00:53 -8.01% Kong Light stretch um €61,54 (statt: €66,90) bei Vertical Extreme Shop
30.07.2014, 00:53 -8.06% La Sportiva Standard Chalkbag um €12,78 (statt: €13,90) bei Vertical Extreme Shop
30.07.2014, 00:53 -8.00% Cassin C14-Fast um €160,90 (statt: €174,90) bei Vertical Extreme Shop
30.07.2014, 00:53 -8.01% AustriAlpin Siko FX Eisschraube 21cm um €44,80 (statt: €48,70) bei Vertical Extreme Shop
30.07.2014, 00:53 -8.04% Moon Climbing Bouldering Chalkbag um €20,14 (statt: €21,90) bei Vertical Extreme Shop
30.07.2014, 00:53 -2.46% Mountain Equipment Glacier 1250 Mumienschlafsack um €436,90 (statt: €447,92) bei Vertical Extreme Shop
30.07.2014, 00:53 -8.00% Mountain Equipment Classic 750 Mumienschlafsack um €250,14 (statt: €271,90) bei Vertical Extreme Shop
30.07.2014, 00:53 -2.11% Mountain Equipment Helium 800 Mumienschlafsack (Herren) um €305,34 (statt: €311,92) bei Vertical Extreme Shop
30.07.2014, 00:53 -2.67% Mountain Equipment Helium 400 Mumienschlafsack (Herren) um €217,94 (statt: €223,92) bei Vertical Extreme Shop
30.07.2014, 00:53 -1.84% Salewa Duro (versch. Farben) um €43,14 (statt: €43,95) bei Vertical Extreme Shop
30.07.2014, 00:53 -8.01% Salewa Spirit 3D Flex 5 Mumienschlafsack um €104,78 (statt: €113,90) bei Vertical Extreme Shop
30.07.2014, 00:53 -8.01% Salewa Peuterey 50+15 (4604) um €109,38 (statt: €118,90) bei Vertical Extreme Shop
30.07.2014, 00:53 -8.01% Salewa Spirit 3D Flex 5 XL Mumienschlafsack um €109,38 (statt: €118,90) bei Vertical Extreme Shop
30.07.2014, 00:53 -8.01% Wild Country Motion Kletterhose lang (Herren) um €104,78 (statt: €113,90) bei Vertical Extreme Shop
30.07.2014, 00:53 -3.49% Edelrid Viper TouchTec Einfachseil 9.6mm um €157,22 (statt: €162,90) bei Vertical Extreme Shop
30.07.2014, 00:53 -7.24% Salewa Xenon um €132,38 (statt: €142,72) bei Vertical Extreme Shop
30.07.2014, 00:53 -4.09% Salewa Babydream Mumienschlafsack (Junior) um €43,14 (statt: €44,98) bei Vertical Extreme Shop
30.07.2014, 00:53 -8.01% Salewa Maxidream M Mumienschlafsack (Junior) um €52,34 (statt: €56,90) bei Vertical Extreme Shop
30.07.2014, 00:53 -5.01% Mountain Equipment Passion Slackline 18m um €87,30 (statt: €91,90) bei Vertical Extreme Shop
30.07.2014, 00:53 -8.01% Edelrid Esculap Halbseil 8.3mm um €99,26 (statt: €107,90) bei Vertical Extreme Shop
30.07.2014, 00:53 -1.66% VauDe Campo Family Kuppelzelt um €240,94 (statt: €245,--) bei Vertical Extreme Shop
30.07.2014, 00:53 -8.02% VauDe Navajo 500 Deckenschlafsack um €45,90 (statt: €49,90) bei Vertical Extreme Shop
30.07.2014, 00:53 -8.01% VauDe Cheyenne 700 Mumienschlafsack um €147,10 (statt: €159,90) bei Vertical Extreme Shop
30.07.2014, 00:53 -8.03% Edelrid Agent Brustgurt (71616) um €29,34 (statt: €31,90) bei Vertical Extreme Shop
30.07.2014, 00:53 -2.90% Edelrid Solid Komplettgurt um €59,70 (statt: €61,48) bei Vertical Extreme Shop
30.07.2014, 00:53 -8.04% Edelrid Shorts Kletterhose kurz (Herren) (01298) um €18,30 (statt: €19,90) bei Vertical Extreme Shop
30.07.2014, 00:53 -8.02% Edelrid Loopo light Hüftgurt um €31,18 (statt: €33,90) bei Vertical Extreme Shop
30.07.2014, 00:53 -5.68% Edelrid Dry Bag 35 (72779) um €27,41 (statt: €29,06) bei Vertical Extreme Shop
30.07.2014, 00:53 -4.21% Edelrid Dry Bag 20 (72778) um €25,02 (statt: €26,12) bei Vertical Extreme Shop
30.07.2014, 00:53 -8.00% Edelrid Dry Bag 5 (72777) um €11,96 (statt: €13,--) bei Vertical Extreme Shop
30.07.2014, 00:53 -8.00% Edelrid Dry Bag 1.6 (72776) um €11,04 (statt: €12,--) bei Vertical Extreme Shop
30.07.2014, 00:53 -8.02% Edelrid Moe Hüftgurt um €33,94 (statt: €36,90) bei Vertical Extreme Shop
30.07.2014, 00:53 -8.02% Edelrid Ardor Duo Kochtopfset antihaft (73401) um €36,70 (statt: €39,90) bei Vertical Extreme Shop
30.07.2014, 00:53 -8.04% Edelrid Ardor Solo Kochtopf (73400) um €18,30 (statt: €19,90) bei Vertical Extreme Shop
30.07.2014, 00:53 -8.03% Edelrid Devil II Gaskocher (73154) um €21,98 (statt: €23,90) bei Vertical Extreme Shop
30.07.2014, 00:53 -8.01% Edelrid Hexon Multifuel Kocher (73101) um €95,58 (statt: €103,90) bei Vertical Extreme Shop
30.07.2014, 00:53 -8.03% VauDe Biwak II Biwacksack um €27,50 (statt: €29,90) bei Vertical Extreme Shop
30.07.2014, 00:53 -8.02% VauDe Charlie Mumienschlafsack (Junior) um €36,70 (statt: €39,90) bei Vertical Extreme Shop
30.07.2014, 00:53 -8.04% VauDe Bernina Gamasche um €18,30 (statt: €19,90) bei Vertical Extreme Shop
30.07.2014, 00:53 -8.02% Simond Bobcat Grödel um €44,06 (statt: €47,90) bei Vertical Extreme Shop
30.07.2014, 00:53 -12.96% Simond Naja Carving Hammer um €113,06 (statt: €129,90) bei Vertical Extreme Shop
30.07.2014, 00:53 -2.89% Beal Wall Master VI Einfachseil 10.5mm um €52,34 (statt: €53,90) bei Vertical Extreme Shop
30.07.2014, 00:53 -4.24% Beal Big Air Bag Crashpad um €231,74 (statt: €242,--) bei Vertical Extreme Shop
30.07.2014, 00:53 -8.02% Beal Addition Pad Crashpad um €36,70 (statt: €39,90) bei Vertical Extreme Shop
30.07.2014, 00:53 -8.03% Beal Ringo um €26,58 (statt: €28,90) bei Vertical Extreme Shop
30.07.2014, 00:53 -4.11% Beal Chalkstation Chalkball um €9,10 (statt: €9,49) bei Vertical Extreme Shop
30.07.2014, 00:53 -8.01% Beal Ferrata Einfachseil 9.4mm um €82,70 (statt: €89,90) bei Vertical Extreme Shop
30.07.2014, 00:53 -8.00% Beal Fingertape um €3,22 (statt: €3,50) bei Vertical Extreme Shop
30.07.2014, 00:53 -8.01% Beal Edlinger Einfachseil 10.2mm um €68,90 (statt: €74,90) bei Vertical Extreme Shop
30.07.2014, 00:53 -4.44% Beal Double Air Bag Crashpad um €195,86 (statt: €204,95) bei Vertical Extreme Shop
30.07.2014, 00:53 -8.16% Beal Ball It Chalk 56g um €4,50 (statt: €4,90) bei Vertical Extreme Shop
30.07.2014, 00:53 -8.02% Beal Rando Zwillingsseil 8mm um €39,46 (statt: €42,90) bei Vertical Extreme Shop
30.07.2014, 00:53 -4.61% Beal Cocoon Clic Clac Chalkbag um €25,66 (statt: €26,90) bei Vertical Extreme Shop
30.07.2014, 00:53 -8.01% TSL 305 Approach um €91,90 (statt: €99,90) bei Vertical Extreme Shop
30.07.2014, 00:53 -8.00% TSL Symbioz um €202,30 (statt: €219,90) bei Vertical Extreme Shop
30.07.2014, 00:53 -8.01% TSL 206 Rando um €82,70 (statt: €89,90) bei Vertical Extreme Shop
30.07.2014, 00:53 -4.96% Petzl Schneeanker (versch. Längen) um €25,66 (statt: €27,--) bei Vertical Extreme Shop
30.07.2014, 00:53 -4.05% Petzl Kodapoche Chalkbag um €21,06 (statt: €21,95) bei Vertical Extreme Shop
30.07.2014, 00:53 -2.93% Petzl Sum'Tec 43 um €139,74 (statt: €143,96) bei Vertical Extreme Shop
30.07.2014, 00:53 -2.37% Petzl Laser Eisschraube (versch. Längen) um €40,38 (statt: €41,36) bei Vertical Extreme Shop
30.07.2014, 00:53 -8.04% Petzl Spatha Messer (versch. Größen) um €14,99 (statt: €16,30) bei Vertical Extreme Shop
30.07.2014, 00:53 -8.01% Metolius Simulator CNC Trainingsboard um €82,70 (statt: €89,90) bei Vertical Extreme Shop
30.07.2014, 00:53 -8.02% E9 Doblone Kletterhose kurz (Herren) um €36,70 (statt: €39,90) bei Vertical Extreme Shop
30.07.2014, 00:53 -5.19% E9 Rondo Story Kletterhose lang (Herren) um €59,70 (statt: €62,97) bei Vertical Extreme Shop
30.07.2014, 00:53 -8.01% E9 Tart Kletterhose lang (Herren) um €64,30 (statt: €69,90) bei Vertical Extreme Shop
30.07.2014, 00:53 -3.26% E9 Hop-S Kletterhose lang (Herren) um €64,30 (statt: €66,47) bei Vertical Extreme Shop
30.07.2014, 00:53 -8.01% E9 Scud Kletterhose lang (Herren) um €59,70 (statt: €64,90) bei Vertical Extreme Shop
30.07.2014, 00:53 -3.26% E9 Rondo Art Kletterhose lang (Herren) um €64,30 (statt: €66,47) bei Vertical Extreme Shop
30.07.2014, 00:53 -5.19% E9 Rondo Kletterhose lang (Herren) um €59,70 (statt: €62,97) bei Vertical Extreme Shop
30.07.2014, 00:53 -8.01% E9 R3 Kletterhose 3/4 (Herren) um €55,10 (statt: €59,90) bei Vertical Extreme Shop
30.07.2014, 00:53 -8.04% E9 Ovulo Chalkbag (versch. Farben) um €16,46 (statt: €17,90) bei Vertical Extreme Shop
30.07.2014, 00:53 -8.01% Climbing Technology Agile Plus um €95,58 (statt: €103,90) bei Vertical Extreme Shop
30.07.2014, 00:53 -5.39% Cassin X-Dream um €181,14 (statt: €191,45) bei Vertical Extreme Shop
30.07.2014, 00:53 -8.01% Bleaustone Long Trainingsboard um €83,62 (statt: €90,90) bei Vertical Extreme Shop
30.07.2014, 00:53 -1.82% Black Diamond Viper um €156,30 (statt: €159,20) bei Vertical Extreme Shop
30.07.2014, 00:53 -2.92% Black Diamond Vector (Herren) um €69,82 (statt: €71,92) bei Vertical Extreme Shop
30.07.2014, 00:53 -8.02% Black Diamond Notion Short Kletterhose kurz (Herren) um €36,70 (statt: €39,90) bei Vertical Extreme Shop
30.07.2014, 00:53 -11.90% Black Diamond Lawinenschaufel Lynx um €21,98 (statt: €24,95) bei Vertical Extreme Shop
30.07.2014, 00:53 -12.51% Black Diamond Firstlight Kuppelzelt um €322,82 (statt: €369,--) bei Vertical Extreme Shop
30.07.2014, 00:53 -8.35% BCA Tracker 2 LVS-Gerät um €229,08 (statt: €249,95) bei Vertical Extreme Shop
30.07.2014, 00:53 -4.57% AustriAlpin universal um €33,02 (statt: €34,60) bei Vertical Extreme Shop
30.07.2014, 00:53 -8.01% AustriAlpin baby HU.go um €63,38 (statt: €68,90) bei Vertical Extreme Shop
30.07.2014, 00:53 -8.03% Arc'teryx C80 Chalkbag um €21,98 (statt: €23,90) bei Vertical Extreme Shop
30.07.2014, 00:53 -1.92% Arc'teryx Aristo Hose (Herren) um €88,22 (statt: €89,95) bei Vertical Extreme Shop
30.07.2014, 00:53 -8.01% Arc'teryx Aristo Long Hose (Herren) um €55,10 (statt: €59,90) bei Vertical Extreme Shop
30.07.2014, 00:53 -8.03% Arc'teryx Aperture Large Chalkbag um €24,74 (statt: €26,90) bei Vertical Extreme Shop
30.07.2014, 00:53 -8.54% Aliens Rollerball Unterarmtrainer um €9,10 (statt: €9,95) bei Vertical Extreme Shop
30.07.2014, 00:53 -4.55% Steinel IS 140-2 weiß, Bewegungsmelder (608910) um €36,75 (statt: €38,50) bei baumarktdiscount | MeinPaket
30.07.2014, 00:53 -7.35% Steinel IS 1 schwarz, Bewegungsmelder (600419) um €15,63 (statt: €16,87) bei baumarktdiscount | MeinPaket
30.07.2014, 00:53 -3.87% Metabo SBE1100-Plus Schlagbohrmaschine im Koffer (6.00867.50) um €170,15 (statt: €177,--) bei baumarktdiscount | MeinPaket
30.07.2014, 00:53 -1.18% Metabo STEB80-Quick Pendelhubstichsäge im Koffer (6.01041.50) um €86,47 (statt: €87,50) bei baumarktdiscount | MeinPaket
30.07.2014, 00:53 -9.86% LEGO - Der Herr der Ringe - Uruk-hai Armee (9471) um €44,98 (statt: €49,90) bei JACK- Shop
30.07.2014, 00:53 -8.03% Theo Klein Küchenset, groß (9261) um €27,50 (statt: €29,90) bei JACK- Shop
30.07.2014, 00:53 -24.20% Bruder Profi-Serie MB-Unimog mit Ladepritsche und Seilwinde (02471) um €15,54 (statt: €20,50) bei JACK- Shop
30.07.2014, 00:53 -2.51% Datalogic Powerscan 7000 9D, seriell (PS72-1000-1100-106) um €261,28 (statt: €268,--) bei ZAR Systems Inh. Eugen Zaretski
30.07.2014, 00:53 -1.35% Sante Compact Powder No. 02 light sand 9g um €11,73 (statt: €11,89) bei biorio.de Onlinshop vom Reformhaus Tonndorf
30.07.2014, 00:53 -1.35% Sante Compact Powder No. 01 porcellan 9g um €11,73 (statt: €11,89) bei biorio.de Onlinshop vom Reformhaus Tonndorf
30.07.2014, 00:53 -5.01% Dr. Hauschka Lipstick Chorus 18 golden apricot 4.5g um €16,10 (statt: €16,95) bei biorio.de Onlinshop vom Reformhaus Tonndorf
30.07.2014, 00:53 -7.67% Dr. Hauschka Lipstick Novum 09 miraculous rose 2g um €12,88 (statt: €13,95) bei biorio.de Onlinshop vom Reformhaus Tonndorf
30.07.2014, 00:53 -15.22% Harmony 16 weiß (660801) um €55,10 (statt: €64,99) bei lampenmann.de
30.07.2014, 00:53 -2.18% Lestra Silvaplana 200 Mumienschlafsack um €61,59 (statt: €62,96) bei A1TQ Shop
30.07.2014, 00:53 -4.21% Lestra Silvretta Mumienschlafsack (Junior) um €68,95 (statt: €71,98) bei A1TQ Shop
30.07.2014, 00:53 -2.48% Lestra Meije 600 Mumienschlafsack um €243,75 (statt: €249,95) bei A1TQ Shop
30.07.2014, 00:53 -8.04% Weider BodyShaper Plus Protein Haselnuss 840g (24x 35g) um €18,54 (statt: €20,16) bei Power Muscle Online-Shop | MeinPaket
30.07.2014, 00:53 -21.14% Weider BodyShaper Plus Protein Banane 840g (24x 35g) um €18,54 (statt: €23,51) bei Power Muscle Online-Shop | MeinPaket
30.07.2014, 00:53 -7.91% Weider 32% Protein Bar Cookies & Cream 1.44kg (24x 60g) um €35,14 (statt: €38,16) bei Power Muscle Online-Shop | MeinPaket
30.07.2014, 00:53 -7.91% Weider 32% Protein Bar Blaubeer-Muffin 1.44kg (24x 60g) um €35,14 (statt: €38,16) bei Power Muscle Online-Shop | MeinPaket
30.07.2014, 00:53 -1.93% Lioncast LX10 Gaming Headset (PS4) um €18,30 (statt: €18,66) bei Dinotech e.K. Shop
30.07.2014, 00:53 -8.01% Lioncast LX20 Surround Gaming Headset (PC/PS3/Xbox 360) um €91,90 (statt: €99,90) bei Dinotech e.K. Shop
30.07.2014, 00:53 -8.02% Lioncast LX16 Gaming Headset (PC/PS4/PS3/Xbox 360) um €32,10 (statt: €34,90) bei Dinotech e.K. Shop
30.07.2014, 00:53 -6.28% Bilora Reporter Compact Kameratasche schwarz (4020) um €49,58 (statt: €52,90) bei Dinotech e.K. Shop
30.07.2014, 00:53 -8.97% Makita HP2071 Schlagbohrmaschine um €163,76 (statt: €179,90) bei Dinotech e.K. Shop
30.07.2014, 00:53 -1.93% Bilora Ural Bridge S Kameratasche (verschiedene Farben) (4050-2/4050-3/4050-5) um €20,88 (statt: €21,29) bei Dinotech e.K. Shop
30.07.2014, 00:53 -11.06% Parrot CK-3100 LCD Advanced Car Kit um €85,37 (statt: €95,99) bei eQone Solution Shop
30.07.2014, 00:53 -8.00% Emphaser ECX160-S6 um €91,08 (statt: €99,--) bei ACR-Bad-Hersfeld
30.07.2014, 00:53 -2.13% Sony CDX-G1001U um €63,48 (statt: €64,86) bei ACR-Bad-Hersfeld
30.07.2014, 00:53 -8.00% Focal IC 570 um €91,08 (statt: €99,--) bei ACR-Bad-Hersfeld
30.07.2014, 00:53 -8.73% Jahnke CU-MOJO 310 Rack um €209,-- (statt: €229,--) bei Saturn.de
30.07.2014, 00:51 -1.35% VTX3D Radeon HD 6570 Streamer Edition, 1GB DDR3, VGA, DVI, HDMI (VX6570 1GBK3-HQ) um €46,61 (statt: €47,25) bei Mindfactory
30.07.2014, 00:51 -27.34% VTX3D Radeon HD 5450 V4, 1GB DDR3, VGA, DVI, HDMI (VX5450 1GBK3-HV4) um €23,94 (statt: €32,95) bei Mindfactory
30.07.2014, 00:51 -5.65% VTX3D Radeon HD 5450, 2GB DDR3, VGA, DVI, HDMI (VX5450 2GBK3-H) um €36,26 (statt: €38,43) bei Mindfactory
30.07.2014, 00:51 -13.70% Sparkle GeForce GTX 650 Ti, 1GB GDDR5, 2x DVI, Mini HDMI (SX650TI1024KD) um €93,15 (statt: €107,94) bei Mindfactory
30.07.2014, 00:51 -1.41% PowerColor Radeon R7 250X, 2GB GDDR5, VGA, DVI, HDMI (AXR7 250X 2GBD5-HE) um €86,70 (statt: €87,94) bei Mindfactory
30.07.2014, 00:51 -7.11% PNY Optima SSD 240GB, SATA 6Gb/s (SSDOPT240G1K01-RB) um €91,91 (statt: €98,94) bei Mindfactory
30.07.2014, 00:51 -2.24% Palit GeForce GT 430 64-Bit, 1GB DDR3, VGA, DVI, HDMI (NEAT430NFHD06) um €36,60 (statt: €37,44) bei Mindfactory
30.07.2014, 00:51 -22.41% MS-Tech LU-370 schwarz, 3.5", USB 2.0 um €24,79 (statt: €31,95) bei Mindfactory
30.07.2014, 00:51 -16.00% LC-Power LC-PRO-35BS3, 3.5", USB 2.0 um €13,86 (statt: €16,50) bei Mindfactory
30.07.2014, 00:51 -5.15% LC-Power Gaming 970B Vendetta_X um €37,41 (statt: €39,44) bei Mindfactory
30.07.2014, 00:51 -2.98% LC-Power Gaming 971B Infiltrator um €79,97 (statt: €82,43) bei Mindfactory
30.07.2014, 00:51 -5.15% LC-Power 7026B, 420W ATX 1.3 um €36,46 (statt: €38,44) bei Mindfactory
30.07.2014, 00:51 -17.78% HGST Travelstar Z5K320 320GB, SATA 3Gb/s (HTS543232A7A384/0A78603) um €35,47 (statt: €43,14) bei Mindfactory
30.07.2014, 00:51 -37.29% Fantec AluAir U3 schwarz, 3.5", USB 3.0 (1639) um €18,77 (statt: €29,93) bei Mindfactory
30.07.2014, 00:51 -22.46% Delux DLC-MF433, 400W ATX um €24,-- (statt: €30,95) bei Mindfactory
30.07.2014, 00:51 -8.00% Citizen BN0100-42E um €164,68 (statt: €179,--) bei Uhrzeit.org | Meinpaket
30.07.2014, 00:51 -1.66% Citizen BN0100-34L um €164,68 (statt: €167,46) bei Uhrzeit.org | Meinpaket
30.07.2014, 00:51 -1.11% Citizen BN0100-26E um €165,60 (statt: €167,46) bei Uhrzeit.org | Meinpaket
30.07.2014, 00:51 -8.00% Casio G-Shock GW-4000-1A3ER um €275,08 (statt: €299,--) bei Uhrzeit.org | Meinpaket
30.07.2014, 00:51 -8.00% Dugena Funk Adagio 4409175 (40mm) um €137,08 (statt: €149,--) bei Uhrzeit.org | Meinpaket
30.07.2014, 00:51 -3.86% Dugena Funk Adagio 4409167 (40mm) um €146,28 (statt: €152,15) bei Uhrzeit.org | Meinpaket
30.07.2014, 00:51 -8.70% Vincent SP-998 (versch. Farben) um €2099,-- (statt: €2299,--) bei Musikus
30.07.2014, 00:51 -18.66% KEF Ci80.2QR Stück um €119,-- (statt: €146,30) bei Musikus
30.07.2014, 00:51 -5.00% Pro-Ject Box Design Box Design Amp Box DS Mono silber um €360,05 (statt: €379,--) bei Musikus
30.07.2014, 00:51 -13.16% Arcam FMJ CD37 silber um €1649,-- (statt: €1899,--) bei Musikus
30.07.2014, 00:51 -11.55% Arcam FMJ A28 um €1149,-- (statt: €1299,--) bei Musikus
30.07.2014, 00:51 -6.28% Cambridge Audio Azur 350A silber um €448,-- (statt: €478,--) bei Musikus
30.07.2014, 00:51 -1.13% TEAC SL-D920 rot um €249,-- (statt: €251,85) bei Musikus
30.07.2014, 00:51 -1.54% Block PS-100+ um €1279,-- (statt: €1299,--) bei Musikus
30.07.2014, 00:51 -7.63% Vincent SV-232 (versch. Farben) um €1199,-- (statt: €1298,--) bei Musikus
30.07.2014, 00:51 -5.00% Vincent SV-234 (versch. Farben) um €1899,-- (statt: €1999,--) bei Musikus
30.07.2014, 00:51 -8.34% Vincent SP-331MK (versch. Farben) um €1649,-- (statt: €1799,--) bei Musikus
30.07.2014, 00:51 -8.70% Vincent SA-31MK um €1049,-- (statt: €1149,--) bei Musikus
30.07.2014, 00:51 -3.08% Vincent SP-997 um €629,-- (statt: €649,--) bei Musikus
30.07.2014, 00:51 -8.34% Vincent SP-331 (versch. Farben) um €1099,-- (statt: €1199,--) bei Musikus
30.07.2014, 00:51 -8.35% Vincent SA-31 um €549,-- (statt: €599,--) bei Musikus
30.07.2014, 00:51 -14.87% img Stage Line PAB-112MK2 Stück (25.2240) um €160,90 (statt: €189,--) bei Musikus
30.07.2014, 00:51 -12.15% img Stage Line PAB-110MK2 Stück (25.2230) um €122,90 (statt: €139,90) bei Musikus
30.07.2014, 00:51 -12.18% img Stage Line STA-1400 (25.0480) um €382,-- (statt: €435,--) bei Musikus
30.07.2014, 00:51 -40.05% Monacor LED-Lampen, Sockel E27 (230V) um €4,49 (statt: €7,49) bei Musikus
30.07.2014, 00:51 -14.87% img Stage Line MPX-300USB schwarz/weiß (20.2400) um €160,90 (statt: €189,--) bei Musikus
30.07.2014, 00:51 -11.53% img Stage Line STA-1506 (24.4290) um €353,-- (statt: €399,--) bei Musikus
30.07.2014, 00:51 -15.94% img Stage Line STA-1504 (24.4280) um €327,-- (statt: €389,--) bei Musikus
30.07.2014, 00:51 -19.93% img Stage Line MPX-1/SW (20.2030) um €67,90 (statt: €84,80) bei Musikus
30.07.2014, 00:51 -2.55% img Stage Line PAB-515/BL, Stück blau (24.8250) um €535,-- (statt: €548,99) bei Musikus
30.07.2014, 00:51 -15.02% img Stage Line MPX-4200 analog Mixer (20.0700) um €67,90 (statt: €79,90) bei Musikus
30.07.2014, 00:51 -3.42% Jura Impressa XS95 One Touch (13726/13642/13432/13547) um €1609,08 (statt: €1666,--) bei Allvendo.de Kaffeeshop
30.07.2014, 00:51 -8.93% Jura Giga X9c Professional um €6282,68 (statt: €6899,--) bei Allvendo.de Kaffeeshop
30.07.2014, 00:51 -8.14% Jura Giga X9 Professional um €6061,88 (statt: €6599,--) bei Allvendo.de Kaffeeshop
30.07.2014, 00:51 -1.94% Bilora Fashion Bag Small Kameratasche (verschiedene Farben) um €6,56 (statt: €6,69) bei AVN Sicherheit UG & Co.KG
30.07.2014, 00:51 -14.16% PureLink ProSpeed High Speed HDMI Kabel mit Ethernet Typ A/Typ D (Micro) weiß 1.5m (PS1740-015) um €20,01 (statt: €23,31) bei kabelgeschaeft | MeinPaket
30.07.2014, 00:51 -33.09% PureLink Basic+ High Speed HDMI Kabel schwarz 1m (HC0008-01) um €9,97 (statt: €14,90) bei kabelgeschaeft | MeinPaket
30.07.2014, 00:51 -8.02% PureLink Basic+ HDMI Extender (HE0001-01) um €36,70 (statt: €39,90) bei kabelgeschaeft | MeinPaket
30.07.2014, 00:51 -15.08% PureLink UltraLongLenght Standard HDMI Kabel 40m (HC0004-40) um €275,90 (statt: €324,91) bei kabelgeschaeft | MeinPaket
30.07.2014, 00:51 -8.02% Clicktronic Advanced Koaxial Audio Cinch Kabel 7.5m (70648) um €41,30 (statt: €44,90) bei kabelgeschaeft | MeinPaket
30.07.2014, 00:51 -8.03% Clicktronic Advanced Koaxial Audio Cinch Kabel 0.5m (70642) um €22,90 (statt: €24,90) bei kabelgeschaeft | MeinPaket
30.07.2014, 00:51 -8.02% Clicktronic Advanced Koaxial Antennenkabel 7.5m (70604) um €41,30 (statt: €44,90) bei kabelgeschaeft | MeinPaket
30.07.2014, 00:51 -8.01% Clicktronic Advanced VGA Kabel 7.5m (70554) um €78,10 (statt: €84,90) bei kabelgeschaeft | MeinPaket
30.07.2014, 00:51 -6.62% Clicktronic Advanced High Speed HDMI Kabel mit Ethernet Typ A/Typ C (Mini) 1m (70520) um €36,70 (statt: €39,30) bei kabelgeschaeft | MeinPaket
30.07.2014, 00:51 -12.08% Netzwerkkabel ausgekreuzt RJ-45 30m ungeschirmt weiß (bis Cat5e) um €6,33 (statt: €7,20) bei kabelgeschaeft | MeinPaket
30.07.2014, 00:51 -44.47% Netzwerkkabel ausgekreuzt RJ-45 20m einfach geschirmt grau (Cat6) um €6,33 (statt: €11,40) bei kabelgeschaeft | MeinPaket
30.07.2014, 00:51 -27.30% Netzwerkkabel ausgekreuzt RJ-45 15m ungeschirmt grau (Cat6) um €5,78 (statt: €7,95) bei kabelgeschaeft | MeinPaket
30.07.2014, 00:51 -1.42% Netzwerkkabel ausgekreuzt RJ-45 30m einfach geschirmt weiß (bis Cat5e) um €7,62 (statt: €7,73) bei kabelgeschaeft | MeinPaket
30.07.2014, 00:51 -6.42% Netzwerkkabel RJ-45 50m einfach geschirmt grün (bis Cat5e) um €9,92 (statt: €10,60) bei kabelgeschaeft | MeinPaket
30.07.2014, 00:51 -8.08% Polarmax KFZ-Ladekabel für Nokia (versch. Modelle) um €9,10 (statt: €9,90) bei Commercato | MeinPaket
30.07.2014, 00:51 -2.08% MSI R5450-MD1GD3H, Radeon HD 5450, 1GB DDR3, VGA, DVI, HDMI (V212-066R) um €21,19 (statt: €21,64) bei NEXOC. Store
30.07.2014, 00:51 -4.08% Enermax Triathlor ECO 350W ATX 2.4 (ETL350AWT-M) um €45,80 (statt: €47,75) bei NEXOC. Store
30.07.2014, 00:51 -1.00% Seagate Expansion Portable (2013) 500GB, USB 3.0 (STBX500200) um €43,45 (statt: €43,89) bei NEXOC. Store
30.07.2014, 00:51 -6.44% TP-Link TL-ANT2408C, 8dBi um €8,86 (statt: €9,47) bei NEXOC. Store
30.07.2014, 00:51 -3.34% TP-Link TL-WR941ND um €25,43 (statt: €26,31) bei NEXOC. Store
30.07.2014, 00:51 -1.56% TP-Link TL-WR841N um €13,88 (statt: €14,10) bei NEXOC. Store
30.07.2014, 00:51 -4.54% TP-Link TL-WDN4800, PCIe x1 um €30,92 (statt: €32,39) bei NEXOC. Store
30.07.2014, 00:51 -1.58% TP-Link TL-WN881ND, PCIe x1 um €10,61 (statt: €10,78) bei NEXOC. Store
30.07.2014, 00:51 -6.22% TP-Link TL-SF1005D, 5-Port um €6,18 (statt: €6,59) bei NEXOC. Store
30.07.2014, 00:51 -1.00% Thermaltake Smart M450W 450W ATX 2.3 (SP-450MPBCEU) um €56,40 (statt: €56,97) bei NEXOC. Store
30.07.2014, 00:51 -14.11% VTX3D Radeon HD 5450, 1GB DDR3, VGA, DVI, HDMI (VX5450 1GBK3-H) um €21,98 (statt: €25,59) bei NEXOC. Store
30.07.2014, 00:51 -1.35% Enermax Revolution X't 530W ATX 2.4 (ERX530AWT) um €79,36 (statt: €80,45) bei NEXOC. Store
30.07.2014, 00:51 -1.65% Enermax Triathlor ECO 650W ATX 2.4 (ETL650AWT-M) um €72,54 (statt: €73,76) bei NEXOC. Store
30.07.2014, 00:51 -1.94% Enermax NAXN82+ ADV 650W ATX 2.3 (ETL650AWT) um €63,82 (statt: €65,08) bei NEXOC. Store
30.07.2014, 00:51 -1.00% Enermax NAXN82+ ADV 550W ATX 2.3 (ETL550AWT) um €55,22 (statt: €55,78) bei NEXOC. Store
30.07.2014, 00:51 -4.79% Chieftec New A-135 APS-500SB 500W ATX 2.3 um €48,75 (statt: €51,20) bei NEXOC. Store
30.07.2014, 00:51 -4.06% Chieftec iArena GPA-400S8 400W ATX 2.3 um €26,96 (statt: €28,10) bei NEXOC. Store
30.07.2014, 00:51 -9.26% Edimax HP-5101ACK Powerline AV 500 Nano Adapter Kit, 500Mbps, LAN um €38,40 (statt: €42,32) bei NEXOC. Store
30.07.2014, 00:51 -14.98% Captiva externe Festplatte 2.5" 320GB, USB 3.0 um €47,61 (statt: €56,--) bei NEXOC. Store
30.07.2014, 00:51 -5.41% Captiva ECO externe Festplatte 3.5" 500GB, USB 2.0 um €58,21 (statt: €61,54) bei NEXOC. Store
30.07.2014, 00:51 -6.38% Captiva GeForce G 210, 1GB DDR3, VGA, DVI, HDMI um €21,43 (statt: €22,89) bei NEXOC. Store
30.07.2014, 00:51 -1.35% Xilence Modular Series 1000W ATX 2.3 (SPS-XP1000.CS.R3) um €110,57 (statt: €112,08) bei NEXOC. Store
30.07.2014, 00:51 -4.21% Lenovo G710, Core i3-4000M, 4GB RAM, 500GB, Windows 8 (59399736/59405606) um €477,99 (statt: €499,--) bei NEXOC. Store
30.07.2014, 00:51 -9.34% HP Compaq Presario CQ58-d67SG (F2U50EA) um €284,78 (statt: €314,13) bei NEXOC. Store
30.07.2014, 00:51 -1.10% Corsair ValueSelect SO-DIMM 4GB, DDR3-1600, CL11-11-11-28 (CMSO4GX3M1A1600C11) um €34,07 (statt: €34,45) bei NEXOC. Store
30.07.2014, 00:51 -3.15% D-Link DIR-605L um €18,78 (statt: €19,39) bei NEXOC. Store
30.07.2014, 00:51 -1.77% D-Link DGS-105, 5-Port um €17,74 (statt: €18,06) bei NEXOC. Store
30.07.2014, 00:51 -1.09% D-Link DES-1210-08P, 8-Port smart managed um €123,59 (statt: €124,95) bei NEXOC. Store
30.07.2014, 00:51 -9.73% D-Link DWM-156, 7.2Mbps, USB um €26,72 (statt: €29,60) bei NEXOC. Store
30.07.2014, 00:51 -4.87% D-Link Xtreme N DWA-160, USB 2.0 um €18,55 (statt: €19,50) bei NEXOC. Store
30.07.2014, 00:51 -5.68% D-Link DKVM-2K, 2-fach, PS/2 um €20,77 (statt: €22,02) bei NEXOC. Store
30.07.2014, 00:51 -4.04% D-Link DGS-1005D Green Ethernet, 5-Port um €14,24 (statt: €14,84) bei NEXOC. Store
30.07.2014, 00:51 -8.95% XFX Mini DisplayPort Kit (MA-AP01-MD2K) um €34,19 (statt: €37,55) bei NEXOC. Store
30.07.2014, 00:51 -1.65% Crucial Ballistix Sport XT DIMM 8GB, DDR3-1600, CL9-9-9-24 (BLS8G3D169DS3CEU) um €58,91 (statt: €59,90) bei NEXOC. Store
30.07.2014, 00:51 -3.73% Crucial SO-DIMM 8GB, DDR3L-1600, CL11 (CT102464BF160B) um €60,15 (statt: €62,48) bei NEXOC. Store
30.07.2014, 00:51 -4.19% Netgear ProSafe Plus GS105E, 5-Port, smart managed um €23,80 (statt: €24,84) bei NEXOC. Store
30.07.2014, 00:51 -5.59% Netgear ProSafe Plus GS116E, 16-Port, smart managed (GS116E-200PES) um €94,41 (statt: €100,--) bei NEXOC. Store
30.07.2014, 00:51 -1.01% Netgear ProSafe GS748T, 48-Port, smart managed um €293,99 (statt: €296,99) bei NEXOC. Store
30.07.2014, 00:51 -7.65% Netgear FS205, 5-Port um €7,24 (statt: €7,84) bei NEXOC. Store
30.07.2014, 00:51 -4.01% Netgear FVS318N um €126,50 (statt: €131,79) bei NEXOC. Store
30.07.2014, 00:51 -2.91% Netgear ProSafe WN604 um €26,72 (statt: €27,52) bei NEXOC. Store
30.07.2014, 00:51 -3.28% Netgear ProSafe GS716T-200, 16-Port, smart managed um €111,92 (statt: €115,72) bei NEXOC. Store
30.07.2014, 00:51 -6.45% Netgear RangeMax Wireless-N WNDA3100v2, USB 2.0 (WNDA3100-200) um €19,71 (statt: €21,07) bei NEXOC. Store
30.07.2014, 00:51 -3.70% Netgear ProSafe JGS524F, 24-Port um €153,94 (statt: €159,85) bei NEXOC. Store
30.07.2014, 00:51 -12.89% TeamGroup Elite Series DIMM 4GB, DDR3-1333, CL9-9-9-24 (TED34GM1333HC901/TED34G1333HC901) um €34,32 (statt: €39,40) bei NEXOC. Store
30.07.2014, 00:51 -6.41% HP PB992A Li-Ionen-Akku um €54,28 (statt: €58,--) bei Magmatix GmbH
30.07.2014, 00:51 -8.00% Nexoc Li-Ionen-Akku für E619 um €54,28 (statt: €59,--) bei Magmatix GmbH
30.07.2014, 00:51 -8.00% HP AH547AA Li-Ionen-Akku um €54,28 (statt: €59,--) bei Magmatix GmbH
30.07.2014, 00:51 -8.00% Sony Vaio VGP-BPS2C Li-Ionen-Akku um €26,68 (statt: €29,--) bei Magmatix GmbH
30.07.2014, 00:51 -8.00% Diverse externe Festplatten 750GB, 3.5", LAN um €57,04 (statt: €62,--) bei Magmatix GmbH
30.07.2014, 00:51 -8.00% Maxdata 261921 Li-Ionen-Akku um €54,28 (statt: €59,--) bei Magmatix GmbH
30.07.2014, 00:51 -23.33% Samsung AA-PB9NC6W/E Li-Ionen-Akku um €41,40 (statt: €54,--) bei Magmatix GmbH
30.07.2014, 00:51 -8.00% Lenovo IBM 92P1138 ThinkPad Li-Ionen-Akku um €49,68 (statt: €54,--) bei Magmatix GmbH
30.07.2014, 00:51 -62.33% Dell 450-11344 Netzteil um €30,26 (statt: €80,33) bei Magmatix GmbH
30.07.2014, 00:51 -31.85% Transcend TS2GFJ219 um €26,68 (statt: €39,15) bei Magmatix GmbH
30.07.2014, 00:51 -26.80% Transcend TS1GCQ4114 um €25,76 (statt: €35,19) bei Magmatix GmbH
30.07.2014, 00:51 -66.73% Toshiba PA3512U-1M1G SO-DIMM 1GB DDR2-667 um €20,24 (statt: €60,84) bei Magmatix GmbH
30.07.2014, 00:51 -8.33% Toshiba PA3411U-2M1G SO-DIMM 1GB DDR2-533 um €20,24 (statt: €22,08) bei Magmatix GmbH
30.07.2014, 00:51 -8.00% Kingston KTT3311/1G 1GB DDR SODIMM um €25,76 (statt: €28,--) bei Magmatix GmbH
30.07.2014, 00:51 -86.97% IBM 43R1988 um €17,48 (statt: €134,12) bei Magmatix GmbH
30.07.2014, 00:51 -48.04% IBM 31P9832 um €14,72 (statt: €28,33) bei Magmatix GmbH
30.07.2014, 00:51 -53.39% Fujitsu S26391-F2476-L400 SO-DIMM 512MB DDR (PC266) um €17,48 (statt: €37,50) bei Magmatix GmbH
30.07.2014, 00:51 -28.45% HP KT293ET/KT293AA um €26,68 (statt: €37,29) bei Magmatix GmbH
30.07.2014, 00:51 -8.00% HP EM995AA um €26,68 (statt: €29,--) bei Magmatix GmbH
30.07.2014, 00:51 -8.04% Maxdata 265120 Li-Ionen-Akku um €18,30 (statt: €19,90) bei Magmatix GmbH
30.07.2014, 00:51 -8.00% Maxdata 261750 Li-Ionen-Akku um €54,28 (statt: €59,--) bei Magmatix GmbH
30.07.2014, 00:51 -8.00% Toshiba PA3480U-1BRS Li-Ionen-Akku um €54,28 (statt: €59,--) bei Magmatix GmbH
30.07.2014, 00:51 -7.91% Fujitsu 805N00041 Li-Ionen-Akku um €45,08 (statt: €48,95) bei Magmatix GmbH
30.07.2014, 00:51 -8.04% BenQ 9E.01U01.003 Netzteil um €18,30 (statt: €19,90) bei Magmatix GmbH
30.07.2014, 00:51 -8.00% Acer 91.49Y28.001 Li-Ionen-Akku um €45,08 (statt: €49,--) bei Magmatix GmbH
30.07.2014, 00:50 -2.09% Samsung Galaxy Fame Lite S6790N weiß um €56,68 (statt: €57,89) bei SNOGARD Computer GmbH | MeinPaket
30.07.2014, 00:50 -2.32% Inter-Tech Coba Nitrox Nobility 800W ATX 2.3 (88882062) um €95,50 (statt: €97,77) bei SNOGARD Computer GmbH | MeinPaket
30.07.2014, 00:50 -6.53% Allnet ALL168x passiv, Phasenkoppler um €46,63 (statt: €49,89) bei SNOGARD Computer GmbH | MeinPaket
30.07.2014, 00:50 -6.78% Caramba Scheiben Reiniger Tücher 12 Stück (690420) um €2,75 (statt: €2,95) bei DMD Schwabenteam Shop
30.07.2014, 00:50 -2.30% Caramba Motorrad Ketten Spray transparent 300ml (646404) um €5,10 (statt: €5,22) bei DMD Schwabenteam Shop
30.07.2014, 00:50 -2.86% Caramba Magic Wonder Sofort Glanz 250ml (631203) um €5,10 (statt: €5,25) bei DMD Schwabenteam Shop
30.07.2014, 00:50 -1.64% Caramba Brilliant Felgen Reiniger 400ml (627025) um €7,82 (statt: €7,95) bei DMD Schwabenteam Shop
30.07.2014, 00:50 -8.06% Caramba Baumharz Entferner 300ml (608103) um €4,22 (statt: €4,59) bei DMD Schwabenteam Shop
30.07.2014, 00:50 -8.05% Caramba Kunststoff Reiniger 250ml (606915) um €4,-- (statt: €4,35) bei DMD Schwabenteam Shop
30.07.2014, 00:50 -8.06% Caramba Motorrad Ketten Reiniger 300ml (602624) um €3,88 (statt: €4,22) bei DMD Schwabenteam Shop
30.07.2014, 00:50 -55.62% Schwarzkopf Brillance Haarfarbe 868 granat um €3,67 (statt: €8,27) bei www.PacksAus.de
30.07.2014, 00:50 -44.89% Kneipp Mandelblüten Hautzart Hautöl 100ml um €2,75 (statt: €4,99) bei www.PacksAus.de
30.07.2014, 00:50 -10.57% Nivea Repair & Care Body Lotion 250ml um €3,30 (statt: €3,69) bei www.PacksAus.de
30.07.2014, 00:50 -28.21% Nivea Color Protect Styling Mousse 150ml um €2,29 (statt: €3,19) bei www.PacksAus.de
30.07.2014, 00:50 -18.52% Nivea Long Repair Extra Strong Haarspray 250ml um €3,30 (statt: €4,05) bei www.PacksAus.de
30.07.2014, 00:50 -4.35% Nivea For Men Power Anti-Schuppen Shampoo 400ml um €3,30 (statt: €3,45) bei www.PacksAus.de
30.07.2014, 00:50 -4.32% Carinthia Tropen Mumienschlafsack um €122,26 (statt: €127,78) bei mctramp24de
30.07.2014, 00:50 -8.61% Carinthia G-Air Mumienschlafsack um €205,98 (statt: €225,39) bei mctramp24de
30.07.2014, 00:50 -2.49% Carinthia Defense 4 Mumienschlafsack um €168,26 (statt: €172,55) bei mctramp24de
30.07.2014, 00:50 -5.81% Carinthia Wilderness Mumienschlafsack um €232,66 (statt: €247,--) bei mctramp24de
30.07.2014, 00:50 -5.60% Carinthia Brenta Mumienschlafsack um €140,66 (statt: €149,--) bei mctramp24de
30.07.2014, 00:50 -2.67% Carinthia ECC Line 1300 Mumienschlafsack um €554,66 (statt: €569,90) bei mctramp24de
30.07.2014, 00:50 -2.36% Carinthia ECC Line 400 Mumienschlafsack um €324,66 (statt: €332,50) bei mctramp24de
30.07.2014, 00:50 -2.03% Carinthia Spacer One Deckenschlafsack um €256,58 (statt: €261,90) bei mctramp24de
30.07.2014, 00:50 -7.10% Carinthia Spacer Deckenschlafsack um €278,66 (statt: €299,95) bei mctramp24de
30.07.2014, 00:50 -11.02% Carinthia Lite Blue 1000 Mumienschlafsack um €191,26 (statt: €214,95) bei mctramp24de
30.07.2014, 00:50 -4.11% Toshiba PA3432E-1ACA Netzteil um €9,10 (statt: €9,49) bei TuPower GmbH
30.07.2014, 00:50 -8.07% Lenovo IBM 40Y7704 ThinkPad Netzteil um €10,94 (statt: €11,90) bei TuPower GmbH
30.07.2014, 00:50 -3.12% Sigg Hello Kitty Giraff Costume 0.4l Trinkflasche (8433.00) um €18,35 (statt: €18,94) bei yovivo lifestyle shopping.
30.07.2014, 00:50 -7.51% LEGO - Atlantis - Große Haifestung (8078) um €82,78 (statt: €89,50) bei TOYS2DAY
30.07.2014, 00:50 -8.00% LEGO - Technic Lastwagen - Container Truck (8052) um €211,58 (statt: €229,98) bei TOYS2DAY
30.07.2014, 00:50 -21.15% Revell Neoplan Cityliner N1216HD (07650) um €55,18 (statt: €69,98) bei TOYS2DAY
30.07.2014, 00:50 -8.01% Revell Dumper Trailer (07463) um €27,58 (statt: €29,98) bei TOYS2DAY
30.07.2014, 00:50 -8.00% Revell Kenworth W900 Wrecker (07402) um €32,18 (statt: €34,98) bei TOYS2DAY
30.07.2014, 00:50 -7.39% Revell Deutsche schwere 17cm Kanone 18 in Mörserlafette (03175) um €11,02 (statt: €11,90) bei TOYS2DAY
30.07.2014, 00:50 -8.01% Revell Panzertransporter SLT50-3 Elefant & SaAnh. 52t. (03145) um €22,98 (statt: €24,98) bei TOYS2DAY
30.07.2014, 00:50 -31.03% Revell LKw gl leicht Wolf kurzer Radstand (03069) um €13,78 (statt: €19,98) bei TOYS2DAY
30.07.2014, 00:50 -23.35% Revell Kanonenjagdpanzer (KaJaPa) (03068) um €22,98 (statt: €29,98) bei TOYS2DAY
30.07.2014, 00:50 -8.14% LaNature Feet Relax Fußmassageöl 100ml um €5,42 (statt: €5,90) bei Die Wohlfühlerie | MeinPaket
30.07.2014, 00:50 -8.14% LaNature Rose Geschenkset um €5,42 (statt: €5,90) bei Die Wohlfühlerie | MeinPaket
30.07.2014, 00:50 -7.38% LaNature Vanille Duschgel 200ml um €6,90 (statt: €7,45) bei Die Wohlfühlerie | MeinPaket
30.07.2014, 00:50 -8.00% Scottish Fine Soaps Honey B Shower Gel 200ml um €10,58 (statt: €11,50) bei Die Wohlfühlerie | MeinPaket
30.07.2014, 00:50 -8.00% LaNature Vanille Body Lotion 200ml um €11,50 (statt: €12,50) bei Die Wohlfühlerie | MeinPaket
30.07.2014, 00:50 -9.09% Kenwood KDV-5244U um €299,-- (statt: €328,90) bei GH Dynamics
30.07.2014, 00:50 -27.07% Avanquest: Driver Genius 10.0 Professional (deutsch) (PC) um €5,47 (statt: €7,50) bei gamespoint
30.07.2014, 00:50 -25.00% Samsung S8000 Jet rose-black um €97,42 (statt: €129,90) bei Handelskontor Kirchner | Meinpaket
30.07.2014, 00:50 -45.33% Mobistel EL350 dual black blue um €62,46 (statt: €114,24) bei Handelskontor Kirchner | Meinpaket
30.07.2014, 00:50 -5.49% Clatronic KM3099 um €33,07 (statt: €34,99) bei LIMAL GmbH
30.07.2014, 00:49 -65.05% Gaerne G.Akira Road um €39,90 (statt: €114,17) bei Koffer-Arena.de
30.07.2014, 00:49 -8.01% Meindl Stony (Junior) um €64,30 (statt: €69,90) bei Sport-Fischmann
30.07.2014, 00:49 -5.16% McKinley Pheno AQX (Herren) um €45,95 (statt: €48,45) bei Sport-Fischmann
30.07.2014, 00:49 -5.16% McKinley Pheno AQX (Damen) um €45,95 (statt: €48,45) bei Sport-Fischmann
30.07.2014, 00:49 -2.53% McKinley Flinduka 4 Tunnelzelt um €82,75 (statt: €84,90) bei Sport-Fischmann
30.07.2014, 00:49 -6.22% McKinley Chromosome (Herren) um €45,95 (statt: €49,--) bei Sport-Fischmann
30.07.2014, 00:49 -7.56% McKinley Samos 6 Familienzelt um €183,95 (statt: €199,--) bei Sport-Fischmann
30.07.2014, 00:49 -5.16% McKinley Pordoi AQX (Herren) um €64,35 (statt: €67,85) bei Sport-Fischmann
30.07.2014, 00:49 -8.04% McKinley Ranger (Kompass) um €9,15 (statt: €9,95) bei Sport-Fischmann
30.07.2014, 00:49 -1.56% McKinley Venture 3 Tunnelzelt um €294,35 (statt: €299,--) bei Sport-Fischmann
30.07.2014, 00:49 -6.53% McKinley Wabash 2 Aquamax (Damen) um €55,15 (statt: €59,--) bei Sport-Fischmann
30.07.2014, 00:49 -6.42% TecnoPro Tischtennisnetz Tournament 9440 um €9,19 (statt: €9,82) bei Sport-Fischmann
30.07.2014, 00:49 -8.00% Hanwag Triglav GTX um €275,95 (statt: €299,95) bei Sport-Fischmann
30.07.2014, 00:49 -8.00% Hanwag Robin GTX (Herren) um €165,55 (statt: €179,95) bei Sport-Fischmann
30.07.2014, 00:49 -8.00% Meindl Nebraska (Herren) um €82,75 (statt: €89,95) bei Sport-Fischmann
30.07.2014, 00:49 -7.12% Meindl Brasilia (Damen) um €91,95 (statt: €99,--) bei Sport-Fischmann
30.07.2014, 00:49 -8.00% Meindl Barcelona GTX (Herren) um €110,35 (statt: €119,95) bei Sport-Fischmann
30.07.2014, 00:49 -2.60% Meindl Nebraska (Damen) um €82,75 (statt: €84,96) bei Sport-Fischmann
30.07.2014, 00:49 -8.00% Meindl Laredo Men (Herren) um €119,55 (statt: €129,95) bei Sport-Fischmann
30.07.2014, 00:49 -11.85% Philips Pocket Memo ACC8160 WLAN-Adapter um €329,35 (statt: €373,61) bei Business and Office
30.07.2014, 00:49 -4.14% Philips LFH 2330 Fußschalter um €95,67 (statt: €99,80) bei Business and Office
30.07.2014, 00:49 -2.67% Philips LFH 2310 Fußschalter um €85,55 (statt: €87,90) bei Business and Office
30.07.2014, 00:49 -9.59% Philips Voice Tracer LFH0895 Digitales Diktiergerät um €303,59 (statt: €335,79) bei Business and Office
30.07.2014, 00:49 -1.37% Philips ACC8160 Pocket Memo Dockingstation um €98,43 (statt: €99,80) bei Business and Office
30.07.2014, 00:49 -6.20% Olympus DR-2200 Mikrofon (versch. Ausführungen) um €233,67 (statt: €249,11) bei Business and Office
30.07.2014, 00:49 -3.62% Olympus DR-2100 Mikrofon (versch. Ausführungen) um €182,15 (statt: €189,--) bei Business and Office
30.07.2014, 00:49 -6.37% Metapace L-2, Peeler, ZPLII, weiß (META-l2d) um €312,79 (statt: €334,06) bei Business and Office
30.07.2014, 00:49 -2.46% Metapace L-2, ZPLII, schwarz (META-l2s) um €312,79 (statt: €320,69) bei Business and Office
30.07.2014, 00:49 -2.55% Peach PS300-12 (510777) um €91,99 (statt: €94,40) bei Business and Office
30.07.2014, 00:49 -2.57% Rexel Auto+ 175X (2103175) um €317,39 (statt: €325,77) bei Business and Office
30.07.2014, 00:49 -4.98% Rexel 2102494, Abfallbehälter um €68,07 (statt: €71,64) bei Business and Office
30.07.2014, 00:49 -1.33% Rexel 2102493, Abfallbehälter um €64,39 (statt: €65,26) bei Business and Office
30.07.2014, 00:49 -5.98% Rexel Abfallsack 70l, 50 Stück (2102442) um €91,99 (statt: €97,84) bei Business and Office
30.07.2014, 00:49 -5.62% Rexel 2102441, Abfallsack um €88,31 (statt: €93,57) bei Business and Office
30.07.2014, 00:49 -2.47% Rexel 2102336, Abfallbehälter um €61,63 (statt: €63,19) bei Business and Office
30.07.2014, 00:49 -11.14% Panasonic KX-TG6624GB schwarz um €78,19 (statt: €87,99) bei Business and Office
30.07.2014, 00:49 -49.35% Panasonic KX-TG6621GB schwarz um €40,47 (statt: €79,90) bei Business and Office
30.07.2014, 00:49 -5.01% Rexel WS2H Abfallsack 200l, 50 Stück (40014) um €73,59 (statt: €77,47) bei Business and Office
30.07.2014, 00:49 -5.28% Rexel AS3000 Abfallsack 75l, 100 Stück (40095) um €87,39 (statt: €92,26) bei Business and Office
30.07.2014, 00:49 -6.03% Geha Abfallsack (Mehrweg) 140l, 100 Stück (10300731) um €82,79 (statt: €88,10) bei Business and Office
30.07.2014, 00:49 -2.51% Grundig Digta Transcription Starter Kit 568 USB (KDC5671-11) um €244,71 (statt: €251,--) bei Business and Office
30.07.2014, 00:49 -4.63% Grundig GBS Stenorette St 3221 Diktier-System (PFO7500) um €413,99 (statt: €434,10) bei Business and Office
30.07.2014, 00:49 -1.19% Philips Voice Tracer DVT3500 Digitales Diktiergerät um €80,03 (statt: €80,99) bei Business and Office
30.07.2014, 00:49 -4.00% Philips Voice Tracer DVT3000 Digitales Diktiergerät um €66,23 (statt: €68,99) bei Business and Office
30.07.2014, 00:49 -1.14% Philips Voice Tracer DVT1500 Digitales Diktiergerät um €80,03 (statt: €80,95) bei Business and Office
30.07.2014, 00:49 -3.62% Philips Voice Tracer DVT1500 Digitales Diktiergerät um €80,95 (statt: €83,99) bei Business and Office
30.07.2014, 00:49 -1.64% Philips Pocket Memo DPM8200 Digitales Diktiergerät um €561,19 (statt: €570,54) bei Business and Office
30.07.2014, 00:49 -3.56% Philips Pocket Memo DPM8000 Digitales Diktiergerät um €561,19 (statt: €581,90) bei Business and Office
30.07.2014, 00:49 -22.94% Duracell MN21 (3LR50), Alkali, 12V um €0,84 (statt: €1,09) bei Onlinehandel für Elektronik Christian Büttner
30.07.2014, 00:49 -22.99% Pioneer B-L5 INSPIRA-Systemrack um €11,86 (statt: €15,40) bei accu-batt
30.07.2014, 00:49 -52.39% Schwarzkopf BC Bonacure Color Freeze Silver Shampoo 1250ml um €6,67 (statt: €14,01) bei hairshop-pro GbR
30.07.2014, 00:49 -3.40% L'Oréal Expert Pro Keratin Refill Shampoo 1500ml um €20,19 (statt: €20,90) bei hairshop-pro GbR
30.07.2014, 00:49 -3.40% L'Oréal Expert Absolut Repair Cellular Shampoo 1500ml um €20,19 (statt: €20,90) bei hairshop-pro GbR
30.07.2014, 00:49 -3.37% Joico K-Pak Split End Mender Haarcreme 100ml um €16,33 (statt: €16,90) bei hairshop-pro GbR
30.07.2014, 00:49 -3.39% Joico K-Pak Conditioner 300ml um €15,94 (statt: €16,50) bei hairshop-pro GbR
30.07.2014, 00:49 -3.41% Joico Daily Care Balancing Shampoo 300ml um €13,33 (statt: €13,80) bei hairshop-pro GbR
30.07.2014, 00:49 -3.33% Schwarzkopf 3D Mension Activating Shampoo 250ml um €4,93 (statt: €5,10) bei hairshop-pro GbR
30.07.2014, 00:49 -3.45% Schwarzkopf BC Bonacure Moisture Kick Shampoo 250ml um €5,31 (statt: €5,50) bei hairshop-pro GbR
30.07.2014, 00:49 -3.45% Schwarzkopf BC Bonacure Time Restore Q10 Shampoo 250ml um €5,31 (statt: €5,50) bei hairshop-pro GbR
30.07.2014, 00:49 -3.40% Schwarzkopf BC Bonacure Color Freeze Silver Shampoo 250ml um €5,12 (statt: €5,30) bei hairshop-pro GbR
30.07.2014, 00:49 -3.49% Schwarzkopf BC Bonacure Oil Miracle Shampoo 200ml um €5,26 (statt: €5,45) bei hairshop-pro GbR
30.07.2014, 00:49 -3.34% Schwarzkopf BC Bonacure Oil Miracle Shampoo 1250ml um €14,49 (statt: €14,99) bei hairshop-pro GbR
30.07.2014, 00:49 -3.38% Schwarzkopf BC Bonacure Color Freeze sulfatfrei Shampoo 1250ml um €14,01 (statt: €14,50) bei hairshop-pro GbR
30.07.2014, 00:49 -3.38% Schwarzkopf BC Bonacure Color Freeze Silver Shampoo 1250ml um €14,01 (statt: €14,50) bei hairshop-pro GbR
30.07.2014, 00:49 -3.41% Schwarzkopf 3D Mension Hair & Body Shampoo 1000ml um €13,33 (statt: €13,80) bei hairshop-pro GbR
30.07.2014, 00:49 -3.54% Schwarzkopf 3D Mension Deep Cleansing Shampoo 250ml um €4,63 (statt: €4,80) bei hairshop-pro GbR
30.07.2014, 00:49 -3.43% Schwarzkopf Osis+ Texture Aqua Slide Pomade 100ml um €6,47 (statt: €6,70) bei hairshop-pro GbR
30.07.2014, 00:49 -3.49% Schwarzkopf BC Bonacure Repair Rescue Shampoo 250ml um €5,26 (statt: €5,45) bei hairshop-pro GbR
30.07.2014, 00:49 -3.51% Schwarzkopf Osis+ Finish Freeze Pump Haarspray 200ml um €7,14 (statt: €7,40) bei hairshop-pro GbR
30.07.2014, 00:49 -3.43% Schwarzkopf BC Bonacure Time Restore Q10 Conditioner 200ml um €6,47 (statt: €6,70) bei hairshop-pro GbR
30.07.2014, 00:49 -3.49% Schwarzkopf BC Bonacure Volume Boost Shampoo 250ml um €5,26 (statt: €5,45) bei hairshop-pro GbR
30.07.2014, 00:49 -3.43% Goldwell StyleSign Volumen Naturally Full Haarspray 200ml um €9,56 (statt: €9,90) bei hairshop-pro GbR
30.07.2014, 00:49 -3.45% Goldwell StyleSign Satin Guard Haarspray 200ml um €8,11 (statt: €8,40) bei hairshop-pro GbR
30.07.2014, 00:49 -3.39% Goldwell Dualsenses Ultra Volume Boost Shampoo 1500ml um €18,26 (statt: €18,90) bei hairshop-pro GbR
30.07.2014, 00:49 -3.39% Goldwell Dualsenses Rich Repair Shampoo 1500ml um €18,26 (statt: €18,90) bei hairshop-pro GbR
30.07.2014, 00:49 -3.39% Goldwell Dualsenses Color Shampoo 1500ml um €18,26 (statt: €18,90) bei hairshop-pro GbR
30.07.2014, 00:49 -3.45% Wella Styling Pearl Styler Haargel 150ml um €8,11 (statt: €8,40) bei hairshop-pro GbR
30.07.2014, 00:49 -3.57% Wella Care Enrich kräftiges Haar Shampoo 250ml um €5,40 (statt: €5,60) bei hairshop-pro GbR
30.07.2014, 00:49 -3.39% Wella Care Brilliance feines Haar Shampoo 250ml um €5,70 (statt: €5,90) bei hairshop-pro GbR
30.07.2014, 00:49 -3.39% Wella Care Brilliance kräftiges Haar Shampoo 250ml um €5,70 (statt: €5,90) bei hairshop-pro GbR
30.07.2014, 00:49 -3.40% L'Oréal Expert Intense Repair Shampoo 1500ml um €20,19 (statt: €20,90) bei hairshop-pro GbR
30.07.2014, 00:49 -1.17% L'Oréal Expert Curl Contour Maske 500ml um €17,77 (statt: €17,98) bei hairshop-pro GbR
30.07.2014, 00:49 -2.05% L'Oréal Expert Curl Contour Shampoo 500ml um €10,04 (statt: €10,25) bei hairshop-pro GbR
30.07.2014, 00:49 -3.40% L'Oréal Expert Vitamino Color Shampoo 1500ml um €20,19 (statt: €20,90) bei hairshop-pro GbR
30.07.2014, 00:49 -1.99% Oregon Scientific 108 um €73,50 (statt: €74,99) bei uhrbox
30.07.2014, 00:49 -54.01% Vodafone B1000 LTE (versch. Verträge) um €18,39 (statt: €39,99) bei TALK-POINT GmbH
30.07.2014, 00:49 -47.05% Samsung S5230 weiß um €78,90 (statt: €149,--) bei TALK-POINT GmbH
30.07.2014, 00:49 -27.12% LEGO - Creator 3in1 - Rennwagen (31002) um €5,75 (statt: €7,89) bei TALK-POINT GmbH
30.07.2014, 00:49 -26.09% Lenovo IBM 42T5262 ThinkPad Li-Ionen-Akku um €56,94 (statt: €77,04) bei Fair
30.07.2014, 00:49 -35.64% Lenovo IBM 42T4620 ThinkPad Li-Ionen-Akku um €52,34 (statt: €81,32) bei Fair
30.07.2014, 00:49 -4.33% ASUS 90-NQK1B1000Y Li-Ionen-Akku um €47,74 (statt: €49,90) bei Fair
30.07.2014, 00:49 -19.81% Lenovo IBM 57Y6266 IdeaPad Li-Ionen-Akku um €28,06 (statt: €34,99) bei Fair
30.07.2014, 00:49 -10.26% Lenovo IBM 42T4755 ThinkPad Li-Ionen-Akku um €58,78 (statt: €65,50) bei Fair
30.07.2014, 00:49 -14.84% ASUS 90-NM81B1000Y Li-Ionen-Akku um €55,10 (statt: €64,70) bei Fair
30.07.2014, 00:49 -4.94% Fujitsu 805N00066 Li-Ionen-Akku um €56,94 (statt: €59,90) bei Fair
30.07.2014, 00:49 -4.94% Toshiba PA5025U-1BRS Li-Ionen-Akku um €56,94 (statt: €59,90) bei Fair
30.07.2014, 00:49 -22.34% Lenovo IBM 41U3198 ThinkPad Li-Ionen-Akku um €26,49 (statt: €34,11) bei Fair
30.07.2014, 00:49 -24.80% Acer NP.BTP11.004 Li-Ionen-Akku (AL12A32) um €32,93 (statt: €43,79) bei Fair
30.07.2014, 00:48 -23.09% Trust Tytan Stage 2.1 System (19321) um €99,90 (statt: €129,90) bei Deltatecc Shop
30.07.2014, 00:48 -1.46% Becker Professional 43 Control (1501120000) um €162,50 (statt: €164,90) bei Deltatecc Shop
30.07.2014, 00:48 -5.27% Melitta Caffeo CI Special Edition (E 970-204) um €899,-- (statt: €949,--) bei Deltatecc Shop
30.07.2014, 00:48 -4.20% Ubiquiti AirRouter um €27,59 (statt: €28,80) bei VARIA Group
30.07.2014, 00:48 -3.11% Ubiquiti Bullet M5 5GHz um €60,07 (statt: €62,--) bei VARIA Group
30.07.2014, 00:48 -7.83% Ubiquiti NanoStation NS5 Loco um €55,19 (statt: €59,88) bei VARIA Group
30.07.2014, 00:48 -11.05% MikroTik RouterBoard RB750UP um €45,90 (statt: €51,60) bei VARIA Group
30.07.2014, 00:48 -15.82% Dovado Doma um €88,27 (statt: €104,86) bei VARIA Group
30.07.2014, 00:48 -5.81% Transcend CompactFlash Card (CF) Industrial Ultra 200x 256MB (TS256MCF200I) um €13,14 (statt: €13,95) bei VARIA Group
30.07.2014, 00:48 -3.57% Transcend CompactFlash Card (CF) Industrial Ultra 200x 2GB (TS2GCF200I) um €27,59 (statt: €28,61) bei VARIA Group
30.07.2014, 00:48 -1.79% Transcend CompactFlash Card (CF) Industrial Ultra 200x 16GB (TS16GCF200I) um €155,01 (statt: €157,83) bei VARIA Group
30.07.2014, 00:48 -6.15% Transcend CompactFlash Card (CF) 133x 1GB (TS1GCF133) um €9,15 (statt: €9,75) bei VARIA Group
30.07.2014, 00:48 -5.94% Escada Rockin Rio Body Lotion 150ml um €8,23 (statt: €8,75) bei Blanks Duft Box
30.07.2014, 00:48 -13.90% Christina Aguilera By Night Body Lotion 200ml um €7,31 (statt: €8,49) bei Blanks Duft Box
30.07.2014, 00:48 -3.17% Paris Hilton Just Me Duftset um €18,30 (statt: €18,90) bei parfumlife
30.07.2014, 00:48 -2.23% Floris London Royal Arms Eau de Parfum 100ml um €101,10 (statt: €103,41) bei parfumlife
30.07.2014, 00:48 -2.09% Floris London Amaryllis Eau de Parfum 100ml um €87,30 (statt: €89,16) bei parfumlife
30.07.2014, 00:48 -7.87% Mandarina Duck Rouge Intense Shower Gel 200ml um €6,44 (statt: €6,99) bei parfumlife
30.07.2014, 00:48 -1.08% Mandarina Duck Scarlet Rain Shower Gel 150ml um €6,44 (statt: €6,51) bei parfumlife
30.07.2014, 00:48 -2.44% Salvatore Ferragamo F For Fascinating Body Lotion 200ml um €18,40 (statt: €18,86) bei parfumlife
30.07.2014, 00:48 -1.99% Acqua di Parma Blu Mediterraneo Arancia di Capri Eau de Toilette 150ml um €80,86 (statt: €82,50) bei parfumlife
30.07.2014, 00:48 -7.92% Roberto Cavalli Just Cavalli Pink Showergel 400ml um €10,12 (statt: €10,99) bei parfumlife
30.07.2014, 00:48 -7.87% Marbert Bio Care Body Lotion 400ml um €5,15 (statt: €5,59) bei parfumlife
30.07.2014, 00:48 -57.47% adidas Natural Vitality Eau de Toilette 50ml um €2,76 (statt: €6,49) bei parfumlife
30.07.2014, 00:48 -1.55% Burberry Brit Red for Women Body Wash 150ml um €8,28 (statt: €8,41) bei parfumlife
30.07.2014, 00:48 -14.95% LEGO - DUPLO Winnie Puuh - Ausflug mit Tigger und Ferkel (5946) um €17,01 (statt: €20,--) bei DiWi
30.07.2014, 00:48 -7.39% adidas Floral Dream Eau de Toilette 50ml um €5,51 (statt: €5,95) bei DiWi
30.07.2014, 00:48 -8.01% Tom Tailor Vanilla Blossom Woman Eau de Toilette 20ml um €6,43 (statt: €6,99) bei DiWi
30.07.2014, 00:48 -8.00% Guess Seductive Geschenkset um €22,99 (statt: €24,99) bei DiWi
30.07.2014, 00:48 -8.01% Tom Tailor Summer of Love Eau de Toilette 20ml um €5,51 (statt: €5,99) bei DiWi
30.07.2014, 00:48 -8.01% Tom Tailor Rock Your Life For Her Eau de Toilette 20ml um €5,05 (statt: €5,49) bei DiWi
30.07.2014, 00:48 -8.01% adidas Fruity Rhythm Eau de Toilette 50ml um €5,51 (statt: €5,99) bei DiWi
30.07.2014, 00:48 -8.02% Disney Hannah Montana Secret Star Eau de Toilette 50ml um €4,59 (statt: €4,99) bei DiWi
30.07.2014, 00:48 -8.01% Halle Berry Halle Duftset um €13,79 (statt: €14,99) bei DiWi
30.07.2014, 00:48 -5.22% Celine Dion Chic Duftset um €13,79 (statt: €14,55) bei DiWi
30.07.2014, 00:48 -23.38% Kompatibler Akku zu Lenovo IBM 92P1127/92P1128/92P1129 um €41,30 (statt: €53,90) bei GRS Shop
30.07.2014, 00:48 -16.41% Kompatibler Akku zu Toshiba PA3480U-1BRS um €27,50 (statt: €32,90) bei GRS Shop
30.07.2014, 00:48 -2.14% Kompatibler Akku zu ASUS 70-N6A1B1000/70-N651B1001/70-N651B8200 um €27,50 (statt: €28,10) bei GRS Shop
30.07.2014, 00:48 -21.20% Kompatibler Akku zu ASUS 70-N7V1B3000/90-N7V1B1000/90-N7V1B1200 um €27,50 (statt: €34,90) bei GRS Shop
30.07.2014, 00:48 -21.20% Kompatibler Akku zu Acer BT.T2303.001/BT.T2303.002 um €27,50 (statt: €34,90) bei GRS Shop
30.07.2014, 00:48 -31.08% Kompatibler Akku zu Toshiba PA3166U-1BRS um €27,50 (statt: €39,90) bei GRS Shop
30.07.2014, 00:48 -21.20% Kompatibler Akku zu Lenovo IBM 08K8197/08K8198/08K8199 um €27,50 (statt: €34,90) bei GRS Shop
30.07.2014, 00:48 -21.20% Kompatibler Akku zu Lenovo IBM 02K7052/02K7054/02K7055 um €27,50 (statt: €34,90) bei GRS Shop
30.07.2014, 00:48 -21.20% Kompatibler Akku zu FSC S26391-F2471-L400 um €27,50 (statt: €34,90) bei GRS Shop
30.07.2014, 00:48 -21.20% Kompatibler Akku zu Acer BT.A0302.001/BT.A0902.001 um €27,50 (statt: €34,90) bei GRS Shop
30.07.2014, 00:48 -5.60% Sony LCS-CSZ/W Fototasche weiß um €7,08 (statt: €7,50) bei Zadabra GmbH | MeinPaket
30.07.2014, 00:48 -2.75% Lowepro Nova 160 AW Schultertasche braun (LP35250) um €34,96 (statt: €35,95) bei Zadabra GmbH | MeinPaket
30.07.2014, 00:48 -8.82% EasyCover Lens Case Objektivbeutel klein (ECLCS) um €7,13 (statt: €7,82) bei Zadabra GmbH | MeinPaket
30.07.2014, 00:48 -8.10% Mantona Outdoor Schutz-Koffer L schwarz (18509) um €81,88 (statt: €89,10) bei Zadabra GmbH | MeinPaket
30.07.2014, 00:48 -10.36% Crumpler Jackpack 9000 Fototasche grau (JP9000-004) um €106,67 (statt: €119,--) bei Zadabra GmbH | MeinPaket
30.07.2014, 00:48 -1.09% Crumpler Banana Cube XS Fototasche rot (BC-XS-003) um €23,69 (statt: €23,95) bei Zadabra GmbH | MeinPaket
30.07.2014, 00:48 -6.30% Crumpler Banana Cube S Fototasche schwarz (BC-S-001) um €22,44 (statt: €23,95) bei Zadabra GmbH | MeinPaket
30.07.2014, 00:48 -18.42% Crumpler Jackpack 3000 Fototasche grün (JP3000-003) um €40,71 (statt: €49,90) bei Zadabra GmbH | MeinPaket
30.07.2014, 00:48 -43.21% BestMedia Platinum microSDHC 4GB SD-Kit, Class 6 (177305) um €4,60 (statt: €8,10) bei Zadabra GmbH | MeinPaket
30.07.2014, 00:48 -13.00% Braun Binocular 8x42 WP (20150) um €60,03 (statt: €69,--) bei Zadabra GmbH | MeinPaket
30.07.2014, 00:48 -2.47% Nikon CS-CP4-1 Ledertasche rot (VJD00004) um €18,53 (statt: €19,--) bei Zadabra GmbH | MeinPaket
30.07.2014, 00:48 -78.84% S&M Rehberg digiETUI Leder H4 Kameratasche (67019) um €4,-- (statt: €18,90) bei Zadabra GmbH | MeinPaket
30.07.2014, 00:48 -24.94% Braun Binocular 7x50 WP (20151) um €60,03 (statt: €79,98) bei Zadabra GmbH | MeinPaket
30.07.2014, 00:48 -1.08% Magnussoft Grundschule Starter-Paket - Deutsch, Mathe, Sachkunde (deutsch) (PC) um €9,19 (statt: €9,29) bei Bücher Thöne GbR Shop
30.07.2014, 00:48 -8.07% Sony Ericsson W910i noble black um €73,50 (statt: €79,95) bei Price-Guard
30.07.2014, 00:48 -56.37% Sony Xperia P schwarz um €170,10 (statt: €389,86) bei Price-Guard
30.07.2014, 00:48 -8.07% Sony Ericsson W910i hearty red um €73,50 (statt: €79,95) bei Price-Guard
30.07.2014, 00:48 -6.81% Emporio Armani 9798 S um €64,30 (statt: €69,--) bei Price-Guard
30.07.2014, 00:48 -8.01% Emporio Armani 9780 S um €64,30 (statt: €69,90) bei Price-Guard
30.07.2014, 00:48 -35.05% Emporio Armani 9738 S um €64,30 (statt: €99,--) bei Price-Guard
30.07.2014, 00:48 -8.01% Emporio Armani 9719 S um €64,30 (statt: €69,90) bei Price-Guard
30.07.2014, 00:48 -8.01% Emporio Armani 9700 S um €64,30 (statt: €69,90) bei Price-Guard
30.07.2014, 00:48 -8.01% Emporio Armani 9699 S um €64,30 (statt: €69,90) bei Price-Guard
30.07.2014, 00:48 -40.05% Emporio Armani 9666 S um €64,30 (statt: €107,26) bei Price-Guard
30.07.2014, 00:48 -44.34% Emporio Armani 9641 S um €55,10 (statt: €99,--) bei Price-Guard
30.07.2014, 00:48 -8.01% Emporio Armani 9618 S um €64,30 (statt: €69,90) bei Price-Guard
30.07.2014, 00:48 -8.01% Emporio Armani 9605 S um €64,30 (statt: €69,90) bei Price-Guard
30.07.2014, 00:48 -8.01% Emporio Armani 9682 S um €55,10 (statt: €59,90) bei Price-Guard
30.07.2014, 00:48 -8.01% Emporio Armani 9696 S um €64,30 (statt: €69,90) bei Price-Guard
30.07.2014, 00:48 -53.51% Sony Ericsson W890i silber (1204-1095) um €79,02 (statt: €169,99) bei Price-Guard
30.07.2014, 00:48 -20.93% benecos Natural Kajal nachtblau 1.13g um €1,70 (statt: €2,15) bei die Naturcosmetic
30.07.2014, 00:47 -15.05% Bestron D1400SP Turbine Bodenstaubsauger Beutellos um €28,61 (statt: €33,68) bei d-living | MeinPaket
30.07.2014, 00:47 -1.41% Magnat WSB 50 PRO Soundbar um €422,94 (statt: €429,--) bei d-living | MeinPaket
30.07.2014, 00:47 -36.40% Unold 38801 Quattro Toaster um €28,62 (statt: €45,--) bei d-living | MeinPaket
30.07.2014, 00:47 -8.00% Philips Imageo LED CandleLights blau 3er-Set (69108/35) um €16,55 (statt: €17,99) bei OEGE-Trading GmbH & Co. KG
30.07.2014, 00:47 -8.00% Philips Imageo LED Candle rot 3er-Set (270082-36) um €16,55 (statt: €17,99) bei OEGE-Trading GmbH & Co. KG
30.07.2014, 00:47 -2.13% Philips Avent SCF870/20 Standmixer/Dampfgarer um €91,99 (statt: €93,99) bei OEGE-Trading GmbH & Co. KG
30.07.2014, 00:47 -1.39% Gillette Venus ProSkin Ersatzklingen 3er-Pack um €9,19 (statt: €9,32) bei OEGE-Trading GmbH & Co. KG
30.07.2014, 00:47 -12.04% Gillette Venus ProSkin Rasierer um €6,43 (statt: €7,31) bei OEGE-Trading GmbH & Co. KG
30.07.2014, 00:47 -11.55% Sony CP-AL um €7,35 (statt: €8,31) bei OEGE-Trading GmbH & Co. KG
30.07.2014, 00:47 -8.01% B+W Filter neutral grau ND2 (101) (verschiedene Größen) um €11,03 (statt: €11,99) bei OEGE-Trading GmbH & Co. KG
30.07.2014, 00:47 -6.51% ADE Franca Elektronische Messbecher-Küchenwaage (KE919) um €9,19 (statt: €9,83) bei OEGE-Trading GmbH & Co. KG
30.07.2014, 00:47 -8.00% Kompatibler Akku zu Kyocera BP-800S um €0,92 (statt: €1,--) bei OEGE-Trading GmbH & Co. KG
30.07.2014, 00:47 -29.25% Kate Moss Vintage Muse Duftset um €9,19 (statt: €12,99) bei OEGE-Trading GmbH & Co. KG
30.07.2014, 00:47 -5.27% Schwarzkopf Brillance Haarfarbe 868 granat um €8,27 (statt: €8,73) bei OEGE-Trading GmbH & Co. KG
30.07.2014, 00:47 -3.00% Schwarzkopf Brillance Haarfarbe 868 granat um €8,73 (statt: €9,--) bei OEGE-Trading GmbH & Co. KG
30.07.2014, 00:47 -8.00% B+W Filter UV (010) MRC 28mm um €24,84 (statt: €27,--) bei OEGE-Trading GmbH & Co. KG
30.07.2014, 00:47 -3.77% Oral-B Essentialfloss Mint Zahnseide, 50m um €2,30 (statt: €2,39) bei OEGE-Trading GmbH & Co. KG
30.07.2014, 00:47 -8.01% Dr. Scheller Jojoba & Schisandra Feuchtigkeitspflege 41g um €5,51 (statt: €5,99) bei OEGE-Trading GmbH & Co. KG
30.07.2014, 00:47 -27.03% Dr. Scheller Johannisbeere & Marula Feuchtigkeitspflege Nacht 40g um €4,59 (statt: €6,29) bei OEGE-Trading GmbH & Co. KG
30.07.2014, 00:47 -28.28% Bugatti Fashion Style SlimCase Leather Croco SL hellbraun (07765) um €4,59 (statt: €6,40) bei OEGE-Trading GmbH & Co. KG
30.07.2014, 00:47 -8.02% Bugatti Fashion Style SlimCase Leather Croco SL dunkelbraun (07764) um €4,59 (statt: €4,99) bei OEGE-Trading GmbH & Co. KG
30.07.2014, 00:47 -41.83% Bugatti Fashion Style SlimCase Leather Croco SL black (07763) um €4,59 (statt: €7,89) bei OEGE-Trading GmbH & Co. KG
30.07.2014, 00:47 -8.16% Crumpler Mood Smuggler L 15" Tragetasche um €22,95 (statt: €24,99) bei OEGE-Trading GmbH & Co. KG
30.07.2014, 00:47 -7.55% Crumpler Gofer Royale 40 Kameratasche (verschiedene Farben) um €7,35 (statt: €7,95) bei OEGE-Trading GmbH & Co. KG
30.07.2014, 00:47 -3.80% Crumpler Royale Thingy 55 Kameratasche um €7,35 (statt: €7,64) bei OEGE-Trading GmbH & Co. KG
30.07.2014, 00:47 -8.01% Syoss Mixing Colors Haarfarbe 5-32 Pflaume dunkelrot Mix um €5,05 (statt: €5,49) bei OEGE-Trading GmbH & Co. KG
30.07.2014, 00:47 -8.01% Syoss Mixing Colors Haarfarbe 5-25 Kirschrot Mix um €5,05 (statt: €5,49) bei OEGE-Trading GmbH & Co. KG
30.07.2014, 00:47 -58.53% Schwarzkopf Brillance Haarfarbe 814 gold blond um €4,13 (statt: €9,96) bei OEGE-Trading GmbH & Co. KG
30.07.2014, 00:47 -23.37% Schwarzkopf Diadem Haarfarbe 726 bordeaux-rot um €4,59 (statt: €5,99) bei OEGE-Trading GmbH & Co. KG
30.07.2014, 00:47 -58.39% Schwarzkopf Diadem Haarfarbe 730 rotbuche um €4,59 (statt: €11,03) bei OEGE-Trading GmbH & Co. KG
30.07.2014, 00:47 -15.00% Schwarzkopf Diadem Haarfarbe 720 kastanie um €4,59 (statt: €5,40) bei OEGE-Trading GmbH & Co. KG
30.07.2014, 00:47 -7.84% B+W Filter neutral grau ND4 (102) 82mm um €48,75 (statt: €52,90) bei OEGE-Trading GmbH & Co. KG
30.07.2014, 00:47 -8.00% B+W Filter neutral grau ND4 (102) 77mm um €32,19 (statt: €34,99) bei OEGE-Trading GmbH & Co. KG
30.07.2014, 00:47 -7.77% B+W Filter neutral grau ND4 (102) 72mm um €32,19 (statt: €34,90) bei OEGE-Trading GmbH & Co. KG
30.07.2014, 00:47 -8.00% B+W Filter neutral grau ND4 (102) 67mm um €26,67 (statt: €28,99) bei OEGE-Trading GmbH & Co. KG
30.07.2014, 00:47 -8.00% B+W Filter neutral grau ND4 (102) 55mm um €20,23 (statt: €21,99) bei OEGE-Trading GmbH & Co. KG
30.07.2014, 00:47 -8.00% B+W Filter neutral grau ND4 (102) 30.5mm um €18,39 (statt: €19,99) bei OEGE-Trading GmbH & Co. KG
30.07.2014, 00:47 -8.00% B+W Filter Infrarot schwarz (093) 72mm um €91,99 (statt: €99,99) bei OEGE-Trading GmbH & Co. KG
30.07.2014, 00:47 -4.43% B+W Filter Infrarot schwarz (093) 62mm um €73,59 (statt: €77,--) bei OEGE-Trading GmbH & Co. KG
30.07.2014, 00:47 -8.00% B+W Filter Infrarot schwarz (093) 40.5mm um €45,99 (statt: €49,99) bei OEGE-Trading GmbH & Co. KG
30.07.2014, 00:47 -8.00% B+W Filter Infrarot schwarz (093) 30.5mm um €46,91 (statt: €50,99) bei OEGE-Trading GmbH & Co. KG
30.07.2014, 00:47 -7.98% B+W Filter UV (010) 86mm um €48,30 (statt: €52,49) bei OEGE-Trading GmbH & Co. KG
30.07.2014, 00:47 -8.00% B+W Filter neutral grau ND64 (106) 27mm um €34,95 (statt: €37,99) bei OEGE-Trading GmbH & Co. KG
30.07.2014, 00:47 -14.32% B+W Filter Effekt Stern 6-fach (686) (verschiedene Größen) um €24,83 (statt: €28,98) bei OEGE-Trading GmbH & Co. KG
30.07.2014, 00:47 -8.00% B+W Filter UV (010) MRC 86mm um €76,35 (statt: €82,99) bei OEGE-Trading GmbH & Co. KG
30.07.2014, 00:47 -8.00% B+W Filter UV (010) MRC 105mm um €122,35 (statt: €132,99) bei OEGE-Trading GmbH & Co. KG
30.07.2014, 00:47 -8.00% B+W Filter Skylight KR1.5 MRC 86mm um €68,99 (statt: €74,99) bei OEGE-Trading GmbH & Co. KG
30.07.2014, 00:47 -4.67% B+W Filter Pol Circular MRC 55mm um €52,43 (statt: €55,--) bei OEGE-Trading GmbH & Co. KG
30.07.2014, 00:47 -8.00% B+W Filter UV/IR (486) Digital 27mm um €43,23 (statt: €46,99) bei OEGE-Trading GmbH & Co. KG
30.07.2014, 00:47 -2.35% B+W Filter UV/IR (486) Digital 67mm um €80,95 (statt: €82,90) bei OEGE-Trading GmbH & Co. KG
30.07.2014, 00:47 -8.00% B+W Filter Skylight KR1.5 Slim 72mm um €66,23 (statt: €71,99) bei OEGE-Trading GmbH & Co. KG
30.07.2014, 00:47 -8.00% B+W Filter Skylight KR1.5 Slim 86mm um €73,59 (statt: €79,99) bei OEGE-Trading GmbH & Co. KG
30.07.2014, 00:47 -8.00% B+W Filter Skylight KR1.5 Slim 77mm um €64,39 (statt: €69,99) bei OEGE-Trading GmbH & Co. KG
30.07.2014, 00:47 -8.00% B+W Filter Skylight KR1.5 Slim 55mm um €25,75 (statt: €27,99) bei OEGE-Trading GmbH & Co. KG
30.07.2014, 00:47 -8.00% B+W Filter Skylight KR1.5 Slim 52mm um €31,27 (statt: €33,99) bei OEGE-Trading GmbH & Co. KG
30.07.2014, 00:47 -4.09% B+W Filter UV (010) Slim 77mm um €62,55 (statt: €65,22) bei OEGE-Trading GmbH & Co. KG
30.07.2014, 00:47 -8.00% B+W Filter UV (010) Slim 72mm um €59,79 (statt: €64,99) bei OEGE-Trading GmbH & Co. KG
30.07.2014, 00:47 -8.00% B+W Filter Infrarot schwarz (093) 37mm um €47,83 (statt: €51,99) bei OEGE-Trading GmbH & Co. KG
30.07.2014, 00:47 -14.75% B+W Filter Pol Circular Käsemann Chrom 43mm um €64,39 (statt: €75,53) bei OEGE-Trading GmbH & Co. KG
30.07.2014, 00:47 -6.24% B+W Filter Pol Circular MRC Chrom (verschiedene Größen) um €55,19 (statt: €58,86) bei OEGE-Trading GmbH & Co. KG
30.07.2014, 00:47 -16.66% B+W Filter Pol Circular Käsemann Chrom 55mm um €71,75 (statt: €86,09) bei OEGE-Trading GmbH & Co. KG
30.07.2014, 00:47 -8.00% B+W Filter Skylight KR1.5 Slim 82mm um €70,83 (statt: €76,99) bei OEGE-Trading GmbH & Co. KG
30.07.2014, 00:47 -1.94% B+W Filter UV (010) Slim 67mm um €45,99 (statt: €46,90) bei OEGE-Trading GmbH & Co. KG
30.07.2014, 00:47 -9.67% B+W Filter Skylight KR1.5 Slim 67mm um €49,67 (statt: €54,99) bei OEGE-Trading GmbH & Co. KG
30.07.2014, 00:47 -8.00% B+W Filter Pol Circular Käsemann Chrom 30mm um €61,63 (statt: €66,99) bei OEGE-Trading GmbH & Co. KG
30.07.2014, 00:47 -8.00% B+W Filter Skylight KR1.5 MRC 27mm um €27,59 (statt: €29,99) bei OEGE-Trading GmbH & Co. KG
30.07.2014, 00:47 -7.18% B+W Filter Pol Circular Käsemann 86mm um €147,19 (statt: €158,58) bei OEGE-Trading GmbH & Co. KG
30.07.2014, 00:47 -8.23% B+W Filter Skylight KR1.5 MRC 60mm um €44,15 (statt: €48,11) bei OEGE-Trading GmbH & Co. KG
30.07.2014, 00:47 -8.00% B+W Filter UV (010) 34mm um €17,47 (statt: €18,99) bei OEGE-Trading GmbH & Co. KG
30.07.2014, 00:47 -3.33% B+W Filter Clear neutral (007) MRC (verschiedene Größen) um €22,07 (statt: €22,83) bei OEGE-Trading GmbH & Co. KG
30.07.2014, 00:47 -8.01% Cullmann Lagos Compact 100 Kameratasche grau (95747) um €6,43 (statt: €6,99) bei OEGE-Trading GmbH & Co. KG
30.07.2014, 00:47 -8.00% Cullmann Faro Photo 30 Kameratasche (95670/95671) um €27,59 (statt: €29,99) bei OEGE-Trading GmbH & Co. KG
30.07.2014, 00:47 -8.02% Cullmann Faro Mini 300 Kameratasche (95635/95636) um €24,78 (statt: €26,94) bei OEGE-Trading GmbH & Co. KG
30.07.2014, 00:47 -22.55% Cullmann Faro Mini 115 Kameratasche (95590/95591) um €7,35 (statt: €9,49) bei OEGE-Trading GmbH & Co. KG
30.07.2014, 00:47 -8.01% Cullmann Faro Mini 110 Kameratasche (95585/95586) um €7,35 (statt: €7,99) bei OEGE-Trading GmbH & Co. KG
30.07.2014, 00:47 -8.01% Cullmann 2in1 Mini 400 (93645/93646/93647) um €7,35 (statt: €7,99) bei OEGE-Trading GmbH & Co. KG
30.07.2014, 00:47 -33.57% Cullmann 2in1 Mini 250 (93630/93631/93632) um €8,27 (statt: €12,45) bei OEGE-Trading GmbH & Co. KG
30.07.2014, 00:47 -8.01% Cullmann Ultralight Mini 114 Kameratasche (92584/92588/92589/92888/92889) um €9,19 (statt: €9,99) bei OEGE-Trading GmbH & Co. KG
30.07.2014, 00:47 -8.00% Cullmann Trento Photo 4 Kameratasche (92759/92760) um €41,39 (statt: €44,99) bei OEGE-Trading GmbH & Co. KG
30.07.2014, 00:47 -36.12% Cullmann Trento Photo 2 Kameratasche (92751/92752) um €18,39 (statt: €28,79) bei OEGE-Trading GmbH & Co. KG
30.07.2014, 00:47 -8.00% Cullmann Ultralight Twin DV Kameratasche (92665/92666) um €27,59 (statt: €29,99) bei OEGE-Trading GmbH & Co. KG
30.07.2014, 00:47 -8.01% Cullmann Ultralight Mini 180 Kameratasche (92615/92616/92614) um €7,35 (statt: €7,99) bei OEGE-Trading GmbH & Co. KG
30.07.2014, 00:47 -8.01% Cullmann Ultralight Mini 120 Kameratasche (92595/92596/92597) um €9,19 (statt: €9,99) bei OEGE-Trading GmbH & Co. KG
30.07.2014, 00:47 -8.01% Cullmann Ultralight Mini 113 Kameratasche (92579/92583/92879) um €7,35 (statt: €7,99) bei OEGE-Trading GmbH & Co. KG
30.07.2014, 00:47 -8.01% Cullmann Granada Mini 111 Kameratasche schwarz (92077) um €9,19 (statt: €9,99) bei OEGE-Trading GmbH & Co. KG
30.07.2014, 00:47 -8.01% Cullmann Granada Mini 104 Kameratasche schwarz (92070) um €11,03 (statt: €11,99) bei OEGE-Trading GmbH & Co. KG
30.07.2014, 00:47 -33.84% Cullmann Ultralight Action Compact Holstertasche (91611/91612) um €9,19 (statt: €13,89) bei OEGE-Trading GmbH & Co. KG
30.07.2014, 00:47 -25.50% Cullmann Ultralight Action Mini Holstertasche (91607/91608/91609) um €13,79 (statt: €18,51) bei OEGE-Trading GmbH & Co. KG
30.07.2014, 00:47 -7.64% Cullmann Sports Cover Compact 100 Kameratasche (91310/91410) um €9,19 (statt: €9,95) bei OEGE-Trading GmbH & Co. KG
30.07.2014, 00:47 -4.80% Cullmann Shell Cover Compact 118 Kameratasche (91120/91121) um €10,11 (statt: €10,62) bei OEGE-Trading GmbH & Co. KG
30.07.2014, 00:47 -51.63% Garnier Nutrisse Creme Haarfarbe 21 Blueberry black um €4,59 (statt: €9,49) bei OEGE-Trading GmbH & Co. KG
30.07.2014, 00:47 -47.50% Garnier Nutrisse Creme Haarfarbe 10 mocca um €3,67 (statt: €6,99) bei OEGE-Trading GmbH & Co. KG
30.07.2014, 00:47 -26.45% Kate Moss Vintage Muse Body Lotion 150ml um €3,67 (statt: €4,99) bei OEGE-Trading GmbH & Co. KG
30.07.2014, 00:47 -63.77% Garnier Nutrisse FarbSensation Haarfarbe 4.26 dunkles Bordeaux um €4,59 (statt: €12,67) bei OEGE-Trading GmbH & Co. KG
30.07.2014, 00:47 -53.87% Garnier Color Intense Haarfarbe 4.3 schokobraun um €4,59 (statt: €9,95) bei OEGE-Trading GmbH & Co. KG
30.07.2014, 00:47 -39.08% L'Oréal Récital Préférence Haarfarbe 4.013 Raffiniertes braun um €5,05 (statt: €8,29) bei OEGE-Trading GmbH & Co. KG
30.07.2014, 00:47 -54.01% L'Oréal Excellence Creme Haarfarbe 4.35 warmes Schokobraun um €4,59 (statt: €9,98) bei OEGE-Trading GmbH & Co. KG
30.07.2014, 00:47 -8.02% L'Oréal Récital Préférence Haarfarbe 8 naturblond um €4,59 (statt: €4,99) bei OEGE-Trading GmbH & Co. KG
30.07.2014, 00:47 -8.00% BeeWi BBZ302-A0 Sting Bee Bluetooth Helicopter schwarz um €18,39 (statt: €19,99) bei OEGE-Trading GmbH & Co. KG
30.07.2014, 00:47 -8.01% BeeWi BBH-120 weiß um €13,79 (statt: €14,99) bei OEGE-Trading GmbH & Co. KG
30.07.2014, 00:47 -8.01% Naomi Campbell Cat Deluxe with Kisses Body Lotion 200ml um €5,51 (statt: €5,99) bei OEGE-Trading GmbH & Co. KG
30.07.2014, 00:47 -20.93% Mexx XX by Mexx Wild Woman Eau de Toilette 60ml um €11,03 (statt: €13,95) bei OEGE-Trading GmbH & Co. KG
30.07.2014, 00:47 -7.39% Naomi Campbell Seductive Elixir Body Lotion 200ml um €5,51 (statt: €5,95) bei OEGE-Trading GmbH & Co. KG
30.07.2014, 00:47 -8.00% B+W Filter UV (010) MRC 27mm um €18,39 (statt: €19,99) bei OEGE-Trading GmbH & Co. KG
30.07.2014, 00:47 -6.05% B+W Filter UV/IR (486) Digital 52mm um €48,75 (statt: €51,89) bei OEGE-Trading GmbH & Co. KG
30.07.2014, 00:47 -9.31% B+W Filter UV/IR (486) Digital 40.5mm um €44,15 (statt: €48,68) bei OEGE-Trading GmbH & Co. KG
30.07.2014, 00:47 -6.06% B+W Filter UV/IR (486) Digital 30mm um €39,55 (statt: €42,10) bei OEGE-Trading GmbH & Co. KG
30.07.2014, 00:47 -26.42% Cullmann Ultralight Mini 200 Kameratasche (92625/92626) um €10,11 (statt: €13,74) bei OEGE-Trading GmbH & Co. KG
30.07.2014, 00:47 -7.36% Cullmann Granada Mini 106 Kameratasche schwarz (92074) um €11,95 (statt: €12,90) bei OEGE-Trading GmbH & Co. KG
30.07.2014, 00:47 -5.10% Samsung HT-F5550 schwarz um €303,66 (statt: €319,97) bei Foto Köster OHG
30.07.2014, 00:47 -11.11% BRIO Light&Sound Feuerwehr (33542) um €17,77 (statt: €19,99) bei Foto Köster OHG
30.07.2014, 00:47 -13.37% Sony Ericsson Spiro mit Branding um €51,11 (statt: €59,--) bei Foto Köster OHG
30.07.2014, 00:47 -8.01% Manfrotto Stile Solo I Kameratasche (verschiedene Farben) um €13,79 (statt: €14,99) bei Foto Köster OHG
30.07.2014, 00:47 -8.00% Kata DF-410-V Kameratasche um €16,10 (statt: €17,50) bei Foto Köster OHG
30.07.2014, 00:47 -1.58% Kata Report IT 30 Kameratasche um €126,96 (statt: €129,--) bei Foto Köster OHG
30.07.2014, 00:47 -6.21% Manfrotto Stile Nano I Kameratasche (verschiedene Farben) um €6,34 (statt: €6,76) bei Foto Köster OHG
30.07.2014, 00:47 -1.12% Manfrotto Stile Veloce VII Rucksack (verschiedene Farben) um €79,79 (statt: €80,69) bei Foto Köster OHG
30.07.2014, 00:47 -7.20% Moser 1567-0051 Domino schwarz Bartschneider Akku-/Netzbetrieb um €21,-- (statt: €22,63) bei Foto Köster OHG
30.07.2014, 00:47 -8.01% Delsey ProRoad 17 Umhängetasche rot um €109,47 (statt: €119,--) bei Foto Köster OHG
30.07.2014, 00:47 -8.01% Canon EOS 60D mit Objektiv EF-S 18-200mm 3.5-5.6 IS (4460B223) um €1102,99 (statt: €1199,--) bei Foto Köster OHG
30.07.2014, 00:47 -6.93% Canon ET-120 (WII) Gegenlichtblende (4414B001) um €425,46 (statt: €457,16) bei Foto Köster OHG
30.07.2014, 00:47 -8.00% Vanguard Sydney 22 Schultertasche (verschiedene Farben) um €17,48 (statt: €19,--) bei Foto Köster OHG
30.07.2014, 00:47 -8.00% Vanguard Up-Rise 18 Schultertasche um €26,68 (statt: €29,--) bei Foto Köster OHG
30.07.2014, 00:47 -3.05% Vanguard Up-Rise 15 Schultertasche um €26,68 (statt: €27,52) bei Foto Köster OHG
30.07.2014, 00:47 -5.20% Mantona Sportsbag SLR Kameratasche schwarz (19482) um €25,33 (statt: €26,72) bei Foto Köster OHG
30.07.2014, 00:47 -1.85% Walimex Pro Studiotasche, Trolley Größe S (18560) um €72,68 (statt: €74,05) bei Foto Köster OHG
30.07.2014, 00:47 -1.08% Walimex Pro Studioset Daylight 250 (18252) um €183,08 (statt: €185,07) bei Foto Köster OHG
30.07.2014, 00:47 -2.14% Walimex Pro Reflexschirm Dual 2-lagig gold/silber 109cm (17672) um €25,66 (statt: €26,22) bei Foto Köster OHG
30.07.2014, 00:47 -1.08% Walimex pro LED-Videoleuchte mit 256 LED (17606) um €183,08 (statt: €185,07) bei Foto Köster OHG
30.07.2014, 00:47 -1.08% Walimex Pro Daylight 2250 (17442) um €229,08 (statt: €231,57) bei Foto Köster OHG
30.07.2014, 00:47 -1.08% Walimex Pro GXR-600 Ringblitz (17242) um €183,08 (statt: €185,07) bei Foto Köster OHG
30.07.2014, 00:47 -1.08% Walimex Pro GXR-400 Ringblitz (17241) um €164,68 (statt: €166,47) bei Foto Köster OHG
30.07.2014, 00:47 -1.08% Walimex Pro GXR-600 Ringblitz Set (17238) um €643,08 (statt: €650,07) bei Foto Köster OHG
30.07.2014, 00:47 -1.08% Walimex Pro GXB-600 Set (17237) um €597,08 (statt: €603,57) bei Foto Köster OHG
30.07.2014, 00:47 -1.08% Walimex Pro GXR-400 Ringblitz Set (17182) um €551,08 (statt: €557,07) bei Foto Köster OHG
30.07.2014, 00:47 -1.08% Walimex Pro LED Spotlight XL (16738) um €183,08 (statt: €185,07) bei Foto Köster OHG
30.07.2014, 00:47 -1.08% Walimex Pro LED Spotlight (16737) um €155,48 (statt: €157,17) bei Foto Köster OHG
30.07.2014, 00:47 -5.14% Walimex Pro VC-300 PLUS (16575) um €275,08 (statt: €289,98) bei Foto Köster OHG
30.07.2014, 00:47 -1.08% Walimex Pro Studioset Daylight 600/600 (16549) um €302,68 (statt: €305,97) bei Foto Köster OHG
30.07.2014, 00:47 -1.08% Walimex Pro Studioset Quarzlight VC-1000Q (16357) um €247,48 (statt: €250,17) bei Foto Köster OHG
30.07.2014, 00:47 -1.08% Walimex Pro Studioset Daylight 600/600 (16319) um €321,08 (statt: €324,57) bei Foto Köster OHG
30.07.2014, 00:47 -1.08% Walimex Pro Starterset (16239) um €735,08 (statt: €743,07) bei Foto Köster OHG
30.07.2014, 00:47 -1.08% Walimex Pro Studioset VC-600 (16223) um €413,08 (statt: €417,57) bei Foto Köster OHG
30.07.2014, 00:47 -1.08% Walimex Pro Studioset VC-600/600 (16222) um €919,08 (statt: €929,07) bei Foto Köster OHG
30.07.2014, 00:47 -1.08% Walimex Pro Studioset VC-800/800/600/300 (16220) um €1747,08 (statt: €1766,07) bei Foto Köster OHG
30.07.2014, 00:47 -1.08% Walimex Pro Studioset VC-600/600 (15896) um €808,68 (statt: €817,47) bei Foto Köster OHG
30.07.2014, 00:47 -1.08% Walimex Pro Studioset Daylight 15407 (16301) um €229,08 (statt: €231,57) bei Foto Köster OHG
30.07.2014, 00:47 -1.08% Walimex Pro VC-800 (15203) um €459,08 (statt: €464,07) bei Foto Köster OHG
30.07.2014, 00:47 -1.08% Walimex Pro VC-400 (15201) um €284,28 (statt: €287,37) bei Foto Köster OHG
30.07.2014, 00:47 -1.08% Walimex Pro Studioset Daylight 150/150/150 Basic (14732) um €210,68 (statt: €212,97) bei Foto Köster OHG
30.07.2014, 00:47 -1.08% Walimex Pro Studioset Daylight 150/150/150 (13466) um €275,08 (statt: €278,07) bei Foto Köster OHG
30.07.2014, 00:47 -1.07% Walimex Pro Studioset Daylight 150/150 (13073) um €183,08 (statt: €185,06) bei Foto Köster OHG
30.07.2014, 00:47 -3.27% Crumpler Jackpack Half Photo Backpack Rucksack petrol (JPHBP-003) um €120,82 (statt: €124,90) bei Foto Köster OHG
30.07.2014, 00:47 -5.88% Canubo ModernLine 700 Kameratasche schwarz (CB8034915) um €44,17 (statt: €46,93) bei Foto Köster OHG
30.07.2014, 00:47 -7.97% Canubo ProfiLine 1100 Trolley-Rucksack schwarz um €101,-- (statt: €109,75) bei Foto Köster OHG
30.07.2014, 00:47 -9.94% Wahl Scion Haarschneider Akku-/Netzbetrieb um €46,47 (statt: €51,60) bei Foto Köster OHG
30.07.2014, 00:47 -8.01% B+W Filter neutral grau ND4 (102) 86mm um €59,17 (statt: €64,32) bei Foto Köster OHG
30.07.2014, 00:47 -9.48% B+W Filter neutral grau ND4 (102) 43mm um €29,33 (statt: €32,40) bei Foto Köster OHG
30.07.2014, 00:47 -1.14% B+W Filter Infrarot schwarz (093) 43mm um €58,33 (statt: €59,--) bei Foto Köster OHG
30.07.2014, 00:47 -8.00% B+W Filter Infrarot schwarz (093) 39mm um €57,48 (statt: €62,48) bei Foto Köster OHG
30.07.2014, 00:47 -7.31% B+W Filter neutral grau ND64 (106) 43mm um €44,03 (statt: €47,50) bei Foto Köster OHG
30.07.2014, 00:47 -7.69% B+W Filter neutral grau ND64 (106) 48mm um €44,77 (statt: €48,50) bei Foto Köster OHG
30.07.2014, 00:47 -1.88% B+W Filter neutral grau ND64 (106) 46mm um €41,85 (statt: €42,65) bei Foto Köster OHG
30.07.2014, 00:47 -2.93% B+W Filter Pol Circular Käsemann Chrom 58mm um €75,62 (statt: €77,90) bei Foto Köster OHG
30.07.2014, 00:47 -5.37% B+W Filter Pol Circular MRC 60mm um €86,40 (statt: €91,30) bei Foto Köster OHG
30.07.2014, 00:47 -1.87% B+W Filter UV/IR (486) Digital 46mm um €44,15 (statt: €44,99) bei Foto Köster OHG
30.07.2014, 00:47 -21.96% B+W Filter neutral grau ND64 (106) 77mm um €57,67 (statt: €73,90) bei Foto Köster OHG
30.07.2014, 00:47 -5.93% Minox BL 10x44 BR (62196) um €459,08 (statt: €488,--) bei Foto Köster OHG
30.07.2014, 00:47 -26.90% Hama Filter Pol Circular HTMC Wide 72mm (82872) um €71,64 (statt: €98,--) bei Foto Köster OHG
30.07.2014, 00:47 -15.82% Hama Filter Pol Circular HTMC Wide 52mm (82852) um €45,98 (statt: €54,62) bei Foto Köster OHG
30.07.2014, 00:47 -2.41% Hama Filter Pol Circular HTMC Wide 49mm (82849) um €47,72 (statt: €48,90) bei Foto Köster OHG
30.07.2014, 00:47 -16.63% Hama Filter L-Protect HTMC 62mm (82562) um €29,52 (statt: €35,41) bei Foto Köster OHG
30.07.2014, 00:47 -7.88% Cullmann Lagos Compact 100 Kameratasche pink (95736) um €6,43 (statt: €6,98) bei Foto Köster OHG
30.07.2014, 00:47 -8.01% Cullmann Lagos Compact 150 fortis Kameratasche blau (95439) um €6,43 (statt: €6,99) bei Foto Köster OHG
30.07.2014, 00:47 -6.12% Cullmann Granada Compact 300 Kameratasche schwarz (92220) um €15,95 (statt: €16,99) bei Foto Köster OHG
30.07.2014, 00:47 -2.11% Cullmann Sydney pro Vario 400 Kameratasche schwarz (97440) um €37,20 (statt: €38,--) bei Foto Köster OHG
30.07.2014, 00:47 -4.48% Dörr Danubia Rain Forrest 8x25 (533400) um €47,81 (statt: €50,05) bei Foto Köster OHG
30.07.2014, 00:47 -4.24% Lowepro Pro Roller Lite 150 AW Trolley schwarz (LP36398) um €232,70 (statt: €243,--) bei Foto Köster OHG
30.07.2014, 00:47 -2.61% Lowepro S&F Utility Bag 100 AW Zubehörtasche schwarz um €33,99 (statt: €34,90) bei Foto Köster OHG
30.07.2014, 00:47 -3.71% Olympus Maritim 10x42 EXWP I um €375,53 (statt: €390,--) bei Foto Köster OHG
30.07.2014, 00:47 -2.13% Olympus Maritim 8x42 EXWP I um €323,66 (statt: €330,69) bei Foto Köster OHG
30.07.2014, 00:47 -1.02% Pentax K-5 II schwarz Gehäuse (12015) um €652,28 (statt: €659,--) bei Foto Köster OHG
30.07.2014, 00:47 -7.12% Hoya Filter Farbkorrektur blau 80A KB15 HMC (Y5KA80A) (verschiedene Größen) um €18,39 (statt: €19,80) bei Foto Köster OHG
30.07.2014, 00:47 -8.00% Hoya Filter Pol Circular Revo SMC Pro1 Digital 82mm (YRPOLC082) um €108,15 (statt: €117,56) bei Foto Köster OHG
30.07.2014, 00:47 -8.01% Hoya Filter Pol Circular Revo SMC Pro1 Digital 77mm (YRPOLC077) um €100,42 (statt: €109,16) bei Foto Köster OHG
30.07.2014, 00:47 -8.00% Hoya Filter Pol Circular Revo SMC Pro1 Digital 67mm (YRPOLC067) um €84,96 (statt: €92,35) bei Foto Köster OHG
30.07.2014, 00:47 -8.00% Hoya Filter Pol Circular Revo SMC Pro1 Digital 55mm (YRPOLC058) um €65,63 (statt: €71,34) bei Foto Köster OHG
30.07.2014, 00:47 -8.01% Hoya Filter Protector Revo SMC Pro1 Digital 82mm (YRROT082) um €61,76 (statt: €67,14) bei Foto Köster OHG
30.07.2014, 00:47 -8.00% Hoya Filter Protector Revo SMC Pro1 Digital 77mm (YRROT077) um €54,04 (statt: €58,74) bei Foto Köster OHG
30.07.2014, 00:47 -8.01% Hoya Filter Protector Revo SMC Pro1 Digital 72mm (YRROT072) um €46,31 (statt: €50,34) bei Foto Köster OHG
30.07.2014, 00:47 -8.01% Hoya Filter Protector Revo SMC Pro1 Digital 62mm (YRROT062) um €38,57 (statt: €41,93) bei Foto Köster OHG
30.07.2014, 00:47 -8.02% Hoya Filter Protector Revo SMC Pro1 Digital 55mm (YRROT055) um €30,84 (statt: €33,53) bei Foto Köster OHG
30.07.2014, 00:47 -8.02% Hoya Filter Protector Revo SMC Pro1 Digital 52mm (YRROT052) um €30,84 (statt: €33,53) bei Foto Köster OHG
30.07.2014, 00:47 -8.01% Hoya Filter Protector Revo SMC Pro1 Digital 49mm (YRROT049) um €26,98 (statt: €29,33) bei Foto Köster OHG
30.07.2014, 00:47 -8.01% Hoya Filter Protector Revo SMC Pro1 Digital 46mm (YRROT046) um €26,98 (statt: €29,33) bei Foto Köster OHG
30.07.2014, 00:47 -8.01% Hoya Filter Protector Revo SMC Pro1 Digital 43mm (YRROT043) um €26,98 (statt: €29,33) bei Foto Köster OHG
30.07.2014, 00:47 -8.04% Hoya Filter Protector Revo SMC Pro1 Digital 37mm (YRROT037) um €23,11 (statt: €25,13) bei Foto Köster OHG
30.07.2014, 00:47 -8.01% Hoya Filter UV Revo SMC Pro1 Digital 82mm (YRUV082) um €69,50 (statt: €75,55) bei Foto Köster OHG
30.07.2014, 00:47 -1.36% Hoya Filter UV Revo SMC Pro1 Digital 77mm (YRUV077) um €66,23 (statt: €67,14) bei Foto Köster OHG
30.07.2014, 00:47 -1.21% Hoya Filter UV Revo SMC Pro1 Digital 72mm (YRUV072) um €58,03 (statt: €58,74) bei Foto Köster OHG
30.07.2014, 00:47 -7.09% Hoya Filter UV Revo SMC Pro1 Digital 67mm (YRUV067) um €50,17 (statt: €54,--) bei Foto Köster OHG
30.07.2014, 00:47 -8.01% Hoya Filter UV Revo SMC Pro1 Digital 62mm (YRUV062) um €46,31 (statt: €50,34) bei Foto Köster OHG
30.07.2014, 00:47 -8.01% Hoya Filter UV Revo SMC Pro1 Digital 58mm (YRUV058) um €38,57 (statt: €41,93) bei Foto Köster OHG
30.07.2014, 00:47 -8.00% Hoya Filter UV Revo SMC Pro1 Digital 52mm (YRUV052) um €34,71 (statt: €37,73) bei Foto Köster OHG
30.07.2014, 00:47 -8.02% Hoya Filter UV Revo SMC Pro1 Digital 43mm (YRUV043) um €30,84 (statt: €33,53) bei Foto Köster OHG
30.07.2014, 00:47 -8.01% Hoya Filter UV Revo SMC Pro1 Digital 37mm (YRUV037) um €26,98 (statt: €29,33) bei Foto Köster OHG
30.07.2014, 00:47 -5.75% Hoya Filter neutral grau Variable Density 3-400 82mm (Y3VD082) um €149,76 (statt: €158,90) bei Foto Köster OHG
30.07.2014, 00:47 -1.33% Hoya Filter UV-IR Cut 77mm (Y1UVIR077) um €115,35 (statt: €116,91) bei Foto Köster OHG
30.07.2014, 00:47 -8.00% Tamrac 5732 Zuma 32 Umhängetasche (verschiedene Farben) um €45,99 (statt: €49,99) bei Foto Köster OHG
30.07.2014, 00:47 -8.00% Tamrac 5421 Aria 1 Schultertasche (verschiedene Farben) um €10,12 (statt: €11,--) bei Foto Köster OHG
30.07.2014, 00:47 -7.87% Tamrac 5422 Aria 2 Schultertasche (verschiedene Farben) um €25,75 (statt: €27,95) bei Foto Köster OHG
30.07.2014, 00:47 -8.01% Nikon CS-S20 Ledertasche grün (VAECSS20) um €9,19 (statt: €9,99) bei Foto Köster OHG
30.07.2014, 00:47 -8.01% Nikon CS-S17 Ledertasche pink (VAECSS17) um €9,19 (statt: €9,99) bei Foto Köster OHG
30.07.2014, 00:47 -5.15% Nikon Aculon T11 8-24x25 rot (BAA801SA) um €118,90 (statt: €125,35) bei Foto Köster OHG
30.07.2014, 00:47 -6.05% Liebherr FKU 1800 Getränke-Kühlschrank um €410,57 (statt: €437,--) bei Electopia.de
30.07.2014, 00:47 -7.27% Sherwood CD-5505 titan um €162,99 (statt: €175,77) bei Electopia.de
30.07.2014, 00:47 -13.82% Sherwood TX-5505 schwarz um €153,41 (statt: €178,02) bei Electopia.de
30.07.2014, 00:47 -12.28% Sherwood CD-772 titan um €232,51 (statt: €265,06) bei Electopia.de
30.07.2014, 00:47 -11.32% Bestron AKS700SD Elektronische Küchenwaage um €11,44 (statt: €12,90) bei Electopia.de
30.07.2014, 00:47 -6.41% Bestron AGL17 Mini-Backofen um €41,93 (statt: €44,80) bei Electopia.de
30.07.2014, 00:47 -13.99% Bestron DCG602 Käsereibe um €15,99 (statt: €18,59) bei Electopia.de
30.07.2014, 00:47 -4.52% Bestron AVC1000G Handstaub-/Akkusauger um €57,41 (statt: €60,13) bei Electopia.de
30.07.2014, 00:47 -11.54% Bestron AGL35 Mini-Backofen um €75,49 (statt: €85,34) bei Electopia.de
30.07.2014, 00:47 -8.83% Bestron DFT45SW Standventilator um €20,35 (statt: €22,32) bei Electopia.de
30.07.2014, 00:47 -10.41% Bestron DFT35W Tischventilator um €16,18 (statt: €18,06) bei Electopia.de
30.07.2014, 00:47 -17.27% Bestron DFT27W Tischventilator um €13,17 (statt: €15,92) bei Electopia.de
30.07.2014, 00:47 -3.82% Bestron DYD318 Zerkleinerer um €18,86 (statt: €19,61) bei Electopia.de
30.07.2014, 00:47 -4.20% Bestron AF350 um €23,95 (statt: €25,--) bei Electopia.de
30.07.2014, 00:47 -18.58% Bestron DSA227R Lady Shaver Akkurasierer um €11,96 (statt: €14,69) bei Electopia.de
30.07.2014, 00:47 -5.92% Lenco DVP-745 silber um €95,87 (statt: €101,90) bei Electopia.de
30.07.2014, 00:47 -11.37% Preisner RSD7118 um €39,54 (statt: €44,61) bei Electopia.de
30.07.2014, 00:47 -6.51% Braun MQ 10 Zubehör Multiquick Schneebesen-Aufsatz weiß um €10,05 (statt: €10,75) bei Electopia.de
30.07.2014, 00:47 -13.36% Roadstar HRA-1520 um €39,48 (statt: €45,57) bei Electopia.de
30.07.2014, 00:47 -1.69% Jura Verlängerung Filterpatrone (68773) um €5,80 (statt: €5,90) bei Electopia.de
30.07.2014, 00:47 -4.16% AEG Electrolux AT5300 Toaster um €43,08 (statt: €44,95) bei Electopia.de
30.07.2014, 00:47 -5.27% Zanussi ZRA17800WA um €251,67 (statt: €265,68) bei Electopia.de
30.07.2014, 00:47 -4.86% Amica GS 15296W um €155,75 (statt: €163,70) bei Electopia.de
30.07.2014, 00:47 -21.38% Denver SPR-10WHITE weiß um €22,76 (statt: €28,95) bei Electopia.de
30.07.2014, 00:47 -24.59% Denver TCU-203 blau um €32,30 (statt: €42,83) bei Electopia.de
30.07.2014, 00:47 -5.89% Efbe TO46W Toaster um €14,37 (statt: €15,27) bei Electopia.de
30.07.2014, 00:47 -7.97% Kenwood AT910012 Bucatini Teigwareneinsatz für Nudelpresse AT910 um €22,18 (statt: €24,10) bei Electopia.de
30.07.2014, 00:47 -1.25% Sony BDV-L800M anthrazit um €443,39 (statt: €449,--) bei Electopia.de
30.07.2014, 00:47 -24.04% TDK DVM-60 MiniDV-Kassette, 3er-Pack um €6,76 (statt: €8,90) bei Electopia.de
30.07.2014, 00:47 -6.96% Siemens TB26300 Dampfbügeleisen um €28,75 (statt: €30,90) bei Electopia.de
30.07.2014, 00:47 -1.22% Siemens KG36EAW41 um €591,68 (statt: €599,--) bei Electopia.de
30.07.2014, 00:47 -12.94% Siemens TT61109 Toaster um €32,17 (statt: €36,95) bei Electopia.de
30.07.2014, 00:47 -7.54% Siemens MZ5RS01 Reibscheibe um €9,20 (statt: €9,95) bei Electopia.de
30.07.2014, 00:47 -5.88% Bosch KIL 18X30 um €395,29 (statt: €420,--) bei Electopia.de
30.07.2014, 00:47 -5.88% Bosch KIR 18X30 um €395,29 (statt: €420,--) bei Electopia.de
30.07.2014, 00:47 -5.46% Bosch TDA 46MOVE1 Dampfbügeleisen um €31,15 (statt: €32,95) bei Electopia.de
30.07.2014, 00:47 -2.56% Bosch KTL 16PW42 Tisch-Kühlschrank um €359,54 (statt: €369,--) bei Electopia.de
30.07.2014, 00:47 -3.24% Beurer KS55 Elektronische Küchenwaage um €13,75 (statt: €14,21) bei Electopia.de
30.07.2014, 00:47 -1.44% Braun Oral-B Triumph 5500 + Stages Power Kids (078951) um €94,62 (statt: €96,--) bei Electopia.de
30.07.2014, 00:47 -7.79% Hama Soundbar-Halterung (00108773) um €20,24 (statt: €21,95) bei Electopia.de
30.07.2014, 00:47 -34.81% Xavax E14 25W Kühlgerätelampe (00110897) um €1,18 (statt: €1,81) bei Electopia.de
30.07.2014, 00:47 -34.81% Xavax E14 15W Kühlgerätelampe (00110896) um €1,18 (statt: €1,81) bei Electopia.de
30.07.2014, 00:47 -21.49% Xavax E14 25W Dunstabzugshaubenlampe (00110523) um €1,79 (statt: €2,28) bei Electopia.de
30.07.2014, 00:47 -20.81% Xavax E14 25W Kühlgerätelampe (00110521) um €1,18 (statt: €1,49) bei Electopia.de
30.07.2014, 00:47 -39.49% Xavax E14 15W Backofenlampe (00110512) um €1,18 (statt: €1,95) bei Electopia.de
30.07.2014, 00:47 -6.42% Blaupunkt HC-DVD2 schwarz um €63,50 (statt: €67,86) bei Electopia.de
30.07.2014, 00:47 -5.91% Spaun SMS 5587 UI 5/22-Multischalter (815011) um €72,44 (statt: €76,99) bei Electopia.de
30.07.2014, 00:47 -14.74% Preisner MSB98NG Multischalter 9/8 um €127,34 (statt: €149,35) bei Electopia.de
30.07.2014, 00:47 -6.47% Preisner MSB58NG Multischalter 5/8 um €97,07 (statt: €103,78) bei Electopia.de
30.07.2014, 00:47 -7.68% Smart IQQS WF Quad-LNB Titanium Edition (10-01-42-0007) um €23,91 (statt: €25,90) bei Electopia.de
30.07.2014, 00:47 -16.03% Smart IQT WF Twin-LNB Titanium Edition (10-01-22-0005) um €16,71 (statt: €19,90) bei Electopia.de
30.07.2014, 00:47 -1.06% Kathrein ZAS 06 Mast für Parabolantenne 3m, 48mm (20410008) um €43,13 (statt: €43,59) bei Electopia.de
30.07.2014, 00:47 -6.13% EZetil KC Extreme 16 Kühltasche (726430) um €15,93 (statt: €16,97) bei Electopia.de
30.07.2014, 00:47 -21.24% TechniSat Digit Isio S Edition (2500/4752) um €275,65 (statt: €349,99) bei Electopia.de
30.07.2014, 00:47 -11.70% Efbe TO1000V Toaster um €16,76 (statt: €18,98) bei Electopia.de
30.07.2014, 00:47 -9.22% Efbe TO1000WR Toaster um €17,23 (statt: €18,98) bei Electopia.de
30.07.2014, 00:47 -11.70% Efbe TO1000GR Toaster um €16,76 (statt: €18,98) bei Electopia.de
30.07.2014, 00:47 -19.43% Efbe KA800WR um €28,19 (statt: €34,99) bei Electopia.de
30.07.2014, 00:47 -7.18% Steba Pikkolo WM2 Heizlüfter um €32,30 (statt: €34,80) bei Electopia.de
30.07.2014, 00:47 -13.43% Steba DF180 um €37,14 (statt: €42,90) bei Electopia.de
30.07.2014, 00:47 -5.24% Steba DF90 Fritteuse mit Fondue um €28,38 (statt: €29,95) bei Electopia.de
30.07.2014, 00:47 -23.12% Unold Tazer silber Reise-Haartrockner (87106) um €8,38 (statt: €10,90) bei Electopia.de
30.07.2014, 00:47 -9.41% Unold 78714 Barkeeper um €16,76 (statt: €18,50) bei Electopia.de
30.07.2014, 00:47 -13.79% Unold 48861 Janosch Eismaschine um €21,56 (statt: €25,01) bei Electopia.de
30.07.2014, 00:47 -9.42% Unold 38876 Edel 4 Toaster um €35,95 (statt: €39,69) bei Electopia.de
30.07.2014, 00:47 -11.14% Unold 38376 Edel 2 Toaster um €20,35 (statt: €22,90) bei Electopia.de
30.07.2014, 00:47 -14.76% Logitech Harmony One+ (915-000098) um €210,68 (statt: €247,16) bei Electopia.de
30.07.2014, 00:47 -3.97% WISI OA 38 I rotbraun um €46,72 (statt: €48,65) bei Electopia.de
30.07.2014, 00:47 -1.61% WISI DY 12 5/12-Multischalter um €154,45 (statt: €156,98) bei Electopia.de
30.07.2014, 00:47 -8.50% WISI DY 16 5/16-Multischalter um €181,58 (statt: €198,45) bei Electopia.de
30.07.2014, 00:47 -4.10% Russell Hobbs Power Steam Digital Dampfbügeleisen (18464-56) um €47,94 (statt: €49,99) bei Electopia.de
30.07.2014, 00:47 -6.14% Russell Hobbs Allure Zerkleinerer (18272-56) um €29,94 (statt: €31,90) bei Electopia.de
30.07.2014, 00:47 -41.67% Osram Parathom Classic P 25 3.5W/827 E27 (993069) um €11,34 (statt: €19,44) bei Electopia.de
30.07.2014, 00:47 -4.95% Severin AH7913 um €26,49 (statt: €27,87) bei Electopia.de
30.07.2014, 00:47 -4.55% Hama HK-3040 (93040) um €1,89 (statt: €1,98) bei Electopia.de
30.07.2014, 00:47 -13.33% Hama HK-3000 silber/schwarz (93000) um €5,98 (statt: €6,90) bei Electopia.de
30.07.2014, 00:47 -21.21% Hama HK-260 (56260) um €5,98 (statt: €7,59) bei Electopia.de
30.07.2014, 00:47 -9.26% Wik 5590PL Pro Line 2200 um €32,34 (statt: €35,64) bei Electopia.de
30.07.2014, 00:47 -2.12% Wik 3560.H Handy 500 Compact Salon Trockenhaube um €24,46 (statt: €24,99) bei Electopia.de
30.07.2014, 00:47 -3.90% Cloer 656 um €40,36 (statt: €42,--) bei Electopia.de
30.07.2014, 00:47 -9.23% Bomann KS197 um €153,40 (statt: €169,--) bei Electopia.de
30.07.2014, 00:47 -3.56% Bomann GS195 um €162,98 (statt: €169,--) bei Electopia.de
30.07.2014, 00:47 -4.01% Bomann ME466CB Multireibe um €23,95 (statt: €24,95) bei Electopia.de
30.07.2014, 00:47 -1.08% Jupiter 862 700 Elektro-Raffel um €142,43 (statt: €143,98) bei Electopia.de
30.07.2014, 00:47 -3.85% Fakir VC29 Tischventilator um €28,75 (statt: €29,90) bei Electopia.de
30.07.2014, 00:47 -2.69% Fakir 1020 um €455,42 (statt: €468,--) bei Electopia.de
30.07.2014, 00:47 -1.61% Graef Ersatzmesser (1781108) um €23,27 (statt: €23,65) bei Electopia.de
30.07.2014, 00:47 -1.69% Graef CC150 Messerschärfer um €165,69 (statt: €168,53) bei Electopia.de
30.07.2014, 00:47 -31.65% Muse ML-10 PC um €11,92 (statt: €17,44) bei Electopia.de
30.07.2014, 00:47 -5.71% Bosch X-Line Sechskantbohrer-Set, 43-tlg. (2607019613) um €23,95 (statt: €25,40) bei Electopia.de
30.07.2014, 00:47 -2.84% Rowenta TT5808 Adagio Toaster um €35,94 (statt: €36,99) bei Electopia.de
30.07.2014, 00:47 -1.44% Bodum Assam Manueller Teebereiter 1.0l schwarz (1805-01) um €26,60 (statt: €26,99) bei Electopia.de
30.07.2014, 00:47 -11.54% Valentino V pour Homme Deodorant Stick 75ml um €34,50 (statt: €39,--) bei 1deins10 | MeinPaket
30.07.2014, 00:47 -10.45% Tom Tailor Ocean Woman Body Lotion 200ml um €33,94 (statt: €37,90) bei 1deins10 | MeinPaket
30.07.2014, 00:47 -9.66% Tom Tailor Man Aftershave Lotion 50ml um €45,08 (statt: €49,90) bei 1deins10 | MeinPaket
30.07.2014, 00:47 -3.72% Thierry Mugler Womanity Eau de Parfum 80ml um €73,50 (statt: €76,34) bei 1deins10 | MeinPaket
30.07.2014, 00:47 -10.12% Sergio Tacchini Stile Eau de Toilette 50ml um €58,42 (statt: €65,--) bei 1deins10 | MeinPaket
30.07.2014, 00:47 -15.69% Salvatore Ferragamo Incanto Pour Homme Aftershave Lotion 100ml um €50,50 (statt: €59,90) bei 1deins10 | MeinPaket
30.07.2014, 00:47 -23.94% S.T. Dupont Noir Eau de Toilette 50ml um €25,86 (statt: €34,--) bei 1deins10 | MeinPaket
30.07.2014, 00:47 -17.46% Ralph Lauren Big Pony Collection No.4 Eau de Toilette 40ml um €26,37 (statt: €31,95) bei 1deins10 | MeinPaket
30.07.2014, 00:47 -13.73% Ralph Lauren Big Pony Collection No.1 Eau de Toilette 50ml um €34,50 (statt: €39,99) bei 1deins10 | MeinPaket
30.07.2014, 00:47 -9.95% Nina Ricci Mémoire D' Homme After Shave Lotion 100ml um €59,34 (statt: €65,90) bei 1deins10 | MeinPaket
30.07.2014, 00:47 -6.81% Molinard Fleur de Figuier Eau de Toilette 100ml um €64,30 (statt: €69,--) bei 1deins10 | MeinPaket
30.07.2014, 00:47 -15.33% Mexx Perspective Man Deodorant Spray 75ml um €33,02 (statt: €39,--) bei 1deins10 | MeinPaket
30.07.2014, 00:47 -6.94% Marc Jacobs Woman Eau de Parfum 100ml um €76,26 (statt: €81,95) bei 1deins10 | MeinPaket
30.07.2014, 00:47 -25.15% Lancôme Magnifique Eau de Parfum 30ml um €50,15 (statt: €67,--) bei 1deins10 | MeinPaket
30.07.2014, 00:47 -22.20% Lacoste Red Aftershave Lotion 125ml um €60,45 (statt: €77,70) bei 1deins10 | MeinPaket
30.07.2014, 00:47 -14.30% Kenzo Eau de Fleurs de Yuzu Eau de Toilette 50ml um €85,61 (statt: €99,90) bei 1deins10 | MeinPaket
30.07.2014, 00:47 -7.51% Jil Sander Style Soft Eau de Toilette 75ml um €156,30 (statt: €169,--) bei 1deins10 | MeinPaket
30.07.2014, 00:47 -39.24% Jil Sander Style Soft Eau de Toilette 50ml um €91,08 (statt: €149,90) bei 1deins10 | MeinPaket
30.07.2014, 00:47 -8.01% Jil Sander Man Aftershave Lotion 90ml um €82,70 (statt: €89,90) bei 1deins10 | MeinPaket
30.07.2014, 00:47 -12.41% Jette Joop Dark Sapphire Eau de Toilette 75ml um €68,23 (statt: €77,90) bei 1deins10 | MeinPaket
30.07.2014, 00:47 -15.70% Issey Miyake L'Eau D'Issey Intense pour Homme Aftershave Lotion 100ml um €45,90 (statt: €54,45) bei 1deins10 | MeinPaket
30.07.2014, 00:47 -6.13% Harley Davidson Destiny Eau de Toilette 50ml um €45,90 (statt: €48,90) bei 1deins10 | MeinPaket
30.07.2014, 00:47 -16.20% Hugo Boss XY Deodorant Spray 150ml um €41,86 (statt: €49,95) bei 1deins10 | MeinPaket
30.07.2014, 00:47 -2.97% Cacharel Amor Amor Duschgel 200ml um €21,53 (statt: €22,19) bei 1deins10 | MeinPaket
30.07.2014, 00:47 -3.29% Marc Jacobs Blush Parfum 15ml um €163,44 (statt: €169,--) bei 1deins10 | MeinPaket
30.07.2014, 00:47 -12.33% Hugo Boss Soul Aftershave Spray 90ml um €72,68 (statt: €82,90) bei 1deins10 | MeinPaket
30.07.2014, 00:47 -8.01% Marc Jacobs Perfume Woman Body Lotion 150ml um €73,50 (statt: €79,90) bei 1deins10 | MeinPaket
30.07.2014, 00:47 -2.69% Elie Saab Le Parfum Body Cream 150ml um €51,80 (statt: €53,23) bei 1deins10 | MeinPaket
30.07.2014, 00:47 -8.11% Gucci Envy Me Body Lotion 200ml um €45,90 (statt: €49,95) bei 1deins10 | MeinPaket
30.07.2014, 00:47 -24.69% Yves Saint Laurent Saharienne Body Lotion 200ml um €37,10 (statt: €49,26) bei 1deins10 | MeinPaket
30.07.2014, 00:47 -2.00% Jil Sander Sport For Men Eau de Toilette 30ml um €45,08 (statt: €46,--) bei 1deins10 | MeinPaket
30.07.2014, 00:47 -9.70% Thierry Mugler Womanity Body Lotion 200ml um €30,26 (statt: €33,51) bei 1deins10 | MeinPaket
30.07.2014, 00:47 -51.09% Caron Infini Eau de Toilette 50ml um €67,98 (statt: €139,--) bei 1deins10 | MeinPaket
30.07.2014, 00:47 -14.33% Kenzo Tokyo Eau de Toilette 50ml um €50,50 (statt: €58,95) bei 1deins10 | MeinPaket
30.07.2014, 00:47 -13.87% Prada Infusion de Fleur d'Oranger Eau de Parfum 100ml um €68,90 (statt: €80,--) bei 1deins10 | MeinPaket
30.07.2014, 00:47 -16.39% Hugo Boss Soul Deodorant Stick 75ml um €45,90 (statt: €54,90) bei 1deins10 | MeinPaket
30.07.2014, 00:47 -7.56% Hugo Boss Baldessarini Strictly Private Deodorant Stick 75ml um €36,70 (statt: €39,70) bei 1deins10 | MeinPaket
30.07.2014, 00:47 -20.73% Gucci Pour Homme II Deodorant Spray 100ml um €45,90 (statt: €57,90) bei 1deins10 | MeinPaket
30.07.2014, 00:47 -8.00% Escada Sentiment for Woman Eau de Toilette 30ml um €63,48 (statt: €69,--) bei 1deins10 | MeinPaket
30.07.2014, 00:47 -11.35% Creed Neroli Sauvage Eau de Parfum 75ml um €118,68 (statt: €133,88) bei 1deins10 | MeinPaket
30.07.2014, 00:47 -21.59% Creed 2000 Fleurs Eau de Parfum 75ml um €109,38 (statt: €139,50) bei 1deins10 | MeinPaket
30.07.2014, 00:47 -6.15% Hermès Kelly Calèche Eau de Toilette 50ml um €63,48 (statt: €67,64) bei 1deins10 | MeinPaket
30.07.2014, 00:47 -22.07% Trussardi Essenza del Tempo Shower Gel 200ml um €23,34 (statt: €29,95) bei 1deins10 | MeinPaket
30.07.2014, 00:47 -8.68% JOOP! Freigeist Eau de Toilette 90ml um €94,26 (statt: €103,22) bei 1deins10 | MeinPaket
30.07.2014, 00:47 -8.69% Jil Sander Sport For Men Eau de Toilette 100ml um €109,48 (statt: €119,90) bei 1deins10 | MeinPaket
30.07.2014, 00:47 -16.44% Carolina Herrera 212 Men Aftershave Gel 100ml um €91,08 (statt: €109,--) bei 1deins10 | MeinPaket
30.07.2014, 00:47 -13.61% Giorgio Armani Emporio He Deodorant Spray 150ml um €69,10 (statt: €79,99) bei 1deins10 | MeinPaket
30.07.2014, 00:47 -10.49% Davidoff Silver Shadow Private Aftershave Lotion 100ml um €69,73 (statt: €77,90) bei 1deins10 | MeinPaket
30.07.2014, 00:47 -22.36% Lacoste Essential Aftershave Balsam 75ml um €38,74 (statt: €49,90) bei 1deins10 | MeinPaket
30.07.2014, 00:47 -7.27% Etienne Aigner Man Suede Edition Eau de Toilette 125ml um €55,19 (statt: €59,52) bei 1deins10 | MeinPaket
30.07.2014, 00:47 -1.14% Prada Tendre Body Lotion 200ml um €69,10 (statt: €69,90) bei 1deins10 | MeinPaket
30.07.2014, 00:47 -8.01% Jil Sander Style Body Cream 200ml um €73,50 (statt: €79,90) bei 1deins10 | MeinPaket
30.07.2014, 00:47 -3.67% Max Mara Le Parfum Zeste & Musc Eau de Parfum 30ml um €81,88 (statt: €85,--) bei 1deins10 | MeinPaket
30.07.2014, 00:47 -7.55% Hugo Boss Baldessarini Del Mar Shower Gel 150ml um €38,83 (statt: €42,--) bei 1deins10 | MeinPaket
30.07.2014, 00:47 -15.00% Giorgio Armani Emporio He Shower Gel 200ml um €45,90 (statt: €54,--) bei 1deins10 | MeinPaket
30.07.2014, 00:47 -14.15% Lacoste Pour Homme Aftershave Lotion 50ml um €64,30 (statt: €74,90) bei 1deins10 | MeinPaket
30.07.2014, 00:47 -4.18% s.Oliver Casual Men Aftershave Lotion 50ml um €22,90 (statt: €23,90) bei 1deins10 | MeinPaket
30.07.2014, 00:47 -12.38% Gabriela Sabatini Cascaya for Women Deodorant Spray 150ml um €17,48 (statt: €19,95) bei 1deins10 | MeinPaket
30.07.2014, 00:47 -19.82% Givenchy Amarige Body Veil 200ml um €87,40 (statt: €109,--) bei 1deins10 | MeinPaket
30.07.2014, 00:47 -2.83% Giorgio Armani Onde Vertige Eau de Parfum 50ml um €87,40 (statt: €89,95) bei 1deins10 | MeinPaket
30.07.2014, 00:47 -15.04% Giorgio Armani Onde Vertige Eau de Parfum 100ml um €101,10 (statt: €119,--) bei 1deins10 | MeinPaket
30.07.2014, 00:47 -35.47% Gianfranco Ferré Ferré for Men Eau de Toilette 30ml um €22,90 (statt: €35,49) bei 1deins10 | MeinPaket
30.07.2014, 00:47 -7.08% Gucci Flora by Gucci Body Cream 200ml um €82,70 (statt: €89,--) bei 1deins10 | MeinPaket
30.07.2014, 00:47 -4.38% Etro Paisley Body Lotion 250ml um €45,90 (statt: €48,--) bei 1deins10 | MeinPaket
30.07.2014, 00:47 -4.94% Escada Signature Eau de Parfum 30ml um €47,48 (statt: €49,95) bei 1deins10 | MeinPaket
30.07.2014, 00:47 -14.18% Escada Sentiment Pour Homme Eau de Toilette 50ml um €63,48 (statt: €73,97) bei 1deins10 | MeinPaket
30.07.2014, 00:47 -5.37% Escada Island Kiss Eau de Toilette 30ml um €33,12 (statt: €35,--) bei 1deins10 | MeinPaket
30.07.2014, 00:47 -27.53% Escada Acte 2 Eau de Parfum 30ml um €54,28 (statt: €74,90) bei 1deins10 | MeinPaket
30.07.2014, 00:47 -26.59% David Garrett Woman Eau de Toilette 50ml um €72,68 (statt: €99,--) bei 1deins10 | MeinPaket
30.07.2014, 00:47 -15.85% Beckham Intimately For Him Eau de Toilette 30ml um €10,94 (statt: €13,--) bei 1deins10 | MeinPaket
30.07.2014, 00:47 -16.36% Chopard Pour Homme Deodorant Stick 70ml um €35,88 (statt: €42,90) bei 1deins10 | MeinPaket
30.07.2014, 00:47 -8.57% Cacharel Noa Perle Eau de Parfum 100ml um €118,68 (statt: €129,80) bei 1deins10 | MeinPaket
30.07.2014, 00:47 -6.61% Burberry Brit Red for Women Body Lotion 150ml um €55,10 (statt: €59,--) bei 1deins10 | MeinPaket
30.07.2014, 00:47 -2.38% Azzaro Pour Homme Eau de Toilette 50ml um €27,50 (statt: €28,17) bei 1deins10 | MeinPaket
30.07.2014, 00:47 -2.13% Christian Dior Higher Aftershave Lotion 100ml um €91,90 (statt: €93,90) bei 1deins10 | MeinPaket
30.07.2014, 00:47 -5.89% Kenzo Flower Essentielle Eau de Parfum 45ml um €45,08 (statt: €47,90) bei 1deins10 | MeinPaket
30.07.2014, 00:47 -13.54% Replay Your Fragrance! Man Eau de Toilette 30ml um €24,21 (statt: €28,--) bei 1deins10 | MeinPaket
30.07.2014, 00:47 -6.54% MCM Gold Eau de Toilette 50ml um €34,58 (statt: €37,--) bei 1deins10 | MeinPaket
30.07.2014, 00:47 -8.23% Ralph Lauren Big Pony Collection No.4 Eau de Toilette 50ml um €36,70 (statt: €39,99) bei 1deins10 | MeinPaket
30.07.2014, 00:47 -9.38% JOOP! Wolfgang Joop Deodorant Stick 75ml um €54,28 (statt: €59,90) bei 1deins10 | MeinPaket
30.07.2014, 00:47 -8.93% Tabac Gran Valor Eau de Toilette 50ml um €35,88 (statt: €39,40) bei 1deins10 | MeinPaket
30.07.2014, 00:47 -8.00% Jil Sander Background Aftershave Lotion 75ml um €183,08 (statt: €199,--) bei 1deins10 | MeinPaket
30.07.2014, 00:47 -4.38% Christian Dior Fahrenheit 32 Aftershave Balsam 70ml um €45,90 (statt: €48,--) bei 1deins10 | MeinPaket
30.07.2014, 00:47 -14.64% Jil Sander Pure For Men Aftershave Lotion 100ml um €59,67 (statt: €69,90) bei 1deins10 | MeinPaket
30.07.2014, 00:47 -8.74% Hugo Boss Baldessarini Del Mar Deodorant Stick 75ml um €45,54 (statt: €49,90) bei 1deins10 | MeinPaket
30.07.2014, 00:47 -8.12% Ralph Lauren Big Pony Collection No.1 Eau de Toilette 40ml um €26,37 (statt: €28,70) bei 1deins10 | MeinPaket
30.07.2014, 00:47 -21.59% Lancôme Miracle Homme After Shave Lotion Splash 100ml um €56,99 (statt: €72,68) bei 1deins10 | MeinPaket
30.07.2014, 00:47 -18.24% Lacoste Essential Aftershave Lotion 125ml um €73,50 (statt: €89,90) bei 1deins10 | MeinPaket
30.07.2014, 00:47 -5.69% Van Cleef & Arpels Tsar Eau de Toilette 50ml um €27,50 (statt: €29,16) bei 1deins10 | MeinPaket
30.07.2014, 00:47 -18.40% Cerruti Image Pour Femme Eau de Toilette 50ml um €22,48 (statt: €27,55) bei 1deins10 | MeinPaket
30.07.2014, 00:47 -13.65% Iceberg Fluid Man Eau de Toilette 50ml um €58,72 (statt: €68,--) bei 1deins10 | MeinPaket
30.07.2014, 00:47 -1.18% Ralph Lauren Big Pony Collection No.2 Eau de Toilette 75ml um €38,54 (statt: €39,--) bei 1deins10 | MeinPaket
30.07.2014, 00:47 -4.03% Cacharel Noa Perle Body Lotion 200ml um €64,30 (statt: €67,--) bei 1deins10 | MeinPaket
30.07.2014, 00:47 -18.66% Naomi Campbell Sunset Eau de Toilette 15ml um €42,29 (statt: €51,99) bei 1deins10 | MeinPaket
30.07.2014, 00:47 -10.90% Gucci Eau de Parfum II Body Lotion 200ml um €59,70 (statt: €67,--) bei 1deins10 | MeinPaket
30.07.2014, 00:47 -16.29% Jette Joop Dark Sapphire Eau de Toilette 30ml um €36,79 (statt: €43,95) bei 1deins10 | MeinPaket
30.07.2014, 00:47 -8.00% Escada Ocean Lounge Eau de Toilette 30ml um €45,08 (statt: €49,--) bei 1deins10 | MeinPaket
30.07.2014, 00:47 -7.35% Max Mara Le Parfum Duftset um €128,79 (statt: €139,--) bei 1deins10 | MeinPaket
30.07.2014, 00:47 -17.32% Cerruti Si Shower Gel 200ml um €41,30 (statt: €49,95) bei 1deins10 | MeinPaket
30.07.2014, 00:47 -32.06% Viktor & Rolf Antidote Eau de Toilette 40ml um €78,10 (statt: €114,95) bei 1deins10 | MeinPaket
30.07.2014, 00:47 -23.55% Escada Sentiment Body Lotion 150ml um €26,68 (statt: €34,90) bei 1deins10 | MeinPaket
30.07.2014, 00:47 -24.53% Laura Biagiotti Aqua di Roma Body Lotion 150ml um €25,66 (statt: €34,--) bei 1deins10 | MeinPaket
30.07.2014, 00:47 -18.33% Lancôme Magnifique Eau de Toilette 50ml um €73,50 (statt: €90,--) bei 1deins10 | MeinPaket
30.07.2014, 00:47 -12.16% Tabac Sport Deodorant Spray 150ml um €17,48 (statt: €19,90) bei 1deins10 | MeinPaket
30.07.2014, 00:47 -8.08% Valentino V Absolu Eau de Parfum 90ml um €114,90 (statt: €125,--) bei 1deins10 | MeinPaket
30.07.2014, 00:47 -11.42% Giorgio Armani Mania Homme Aftershave Balsam 100ml um €119,50 (statt: €134,90) bei 1deins10 | MeinPaket
30.07.2014, 00:47 -16.70% Calvin Klein Beauty for Women Body Lotion 200ml um €24,74 (statt: €29,70) bei 1deins10 | MeinPaket
30.07.2014, 00:47 -5.00% Replay Your Fragrance! Man Aftershave Lotion 50ml um €55,10 (statt: €58,--) bei 1deins10 | MeinPaket
30.07.2014, 00:47 -14.55% Hugh Parsons Regent Street Eau de Parfum 50ml um €50,50 (statt: €59,10) bei 1deins10 | MeinPaket
30.07.2014, 00:47 -14.45% Lacoste Red Aftershave Balm 75ml um €36,70 (statt: €42,90) bei 1deins10 | MeinPaket
30.07.2014, 00:47 -2.61% Hugo Boss Dark Blue Aftershave Lotion Splash 125ml um €85,61 (statt: €87,90) bei 1deins10 | MeinPaket
30.07.2014, 00:47 -4.73% Jesús del Pozo In Black Eau de Toilette 50ml um €26,58 (statt: €27,90) bei 1deins10 | MeinPaket
30.07.2014, 00:47 -10.77% Otto Kern Man Deodorant Spray 150ml um €26,68 (statt: €29,90) bei 1deins10 | MeinPaket
30.07.2014, 00:47 -12.80% Nikos Sculpture Homme Aftershave Lotion 100ml um €100,28 (statt: €115,--) bei 1deins10 | MeinPaket
30.07.2014, 00:47 -18.24% Jil Sander Stylessence Bath Powder Badekristalle 200ml um €73,50 (statt: €89,90) bei 1deins10 | MeinPaket
30.07.2014, 00:47 -6.85% Cacharel Noa Dream Eau de Toilette 100ml um €81,88 (statt: €87,90) bei 1deins10 | MeinPaket
30.07.2014, 00:47 -13.53% Ralph Lauren Big Pony Collection No.3 Eau de Toilette 50ml um €34,50 (statt: €39,90) bei 1deins10 | MeinPaket
30.07.2014, 00:47 -10.21% Action Replay für Nintendo 3DS & DSi (DS) um €18,39 (statt: €20,48) bei Exclusiver Multi Media Shop
30.07.2014, 00:47 -8.01% Diverse Classic/Retro Controller (Wii) (verschiedene Farben) um €9,19 (statt: €9,99) bei Exclusiver Multi Media Shop
30.07.2014, 00:47 -6.68% Samsung ED-AKNX01 Luxury Kit um €64,39 (statt: €69,--) bei Akasya Handels GmbH
30.07.2014, 00:47 -7.23% Samsung EA-CC9U40B Kameratasche schwarz um €32,19 (statt: €34,70) bei Akasya Handels GmbH
30.07.2014, 00:47 -8.00% Samsung IA-CC9U17 Camcordertasche schwarz um €20,69 (statt: €22,49) bei Akasya Handels GmbH
30.07.2014, 00:47 -1.08% Fujifilm SC-S Softcase (04001718) um €13,79 (statt: €13,94) bei Akasya Handels GmbH
30.07.2014, 00:47 -8.00% Sony LCS-CSX/B Fototasche schwarz um €22,99 (statt: €24,99) bei Akasya Handels GmbH
30.07.2014, 00:47 -8.01% Hama HS-60 (51609) um €11,03 (statt: €11,99) bei Akasya Handels GmbH
30.07.2014, 00:47 -6.25% SK hynix SO-DIMM 1GB, DDR3-1066, CL7-7-7 (HMT112S6TFR8C-G7) um €7,35 (statt: €7,84) bei Akasya Handels GmbH
30.07.2014, 00:47 -11.08% Beurer KR40 Heizkissen um €30,35 (statt: €34,13) bei Akasya Handels GmbH
30.07.2014, 00:47 -8.00% Canon DCC-970 Ledertasche (0037X614) um €27,59 (statt: €29,99) bei Akasya Handels GmbH
30.07.2014, 00:47 -8.01% Crumpler Gofer Royale 60 Kameratasche (verschiedene Farben) um €11,49 (statt: €12,49) bei Akasya Handels GmbH
30.07.2014, 00:47 -8.00% Difox Sports Pro 700 Kameratasche (verschiedene Farben) um €22,99 (statt: €24,99) bei Akasya Handels GmbH
30.07.2014, 00:47 -8.00% Cullmann Vigo HipPack 300 Hüfttasche schwarz (94650) um €18,39 (statt: €19,99) bei Akasya Handels GmbH
30.07.2014, 00:47 -8.54% Esprit Jeans Style Woman Body Lotion 200ml um €9,10 (statt: €9,95) bei Akasya Handels GmbH
30.07.2014, 00:47 -7.96% Logic3 Flip Cover Stand für iPad (3. Generation) schwarz (IPD744K) um €18,39 (statt: €19,98) bei Akasya Handels GmbH
30.07.2014, 00:47 -13.35% PowerColor Radeon HD 6450 Go! Green, 1GB DDR3, VGA, DVI, HDMI (AX6450 1GBK3-SH) um €43,24 (statt: €49,90) bei WILTAnet Shop
30.07.2014, 00:47 -8.00% Jahnke Cuuba Hit 410 Rack um €81,88 (statt: €89,--) bei plasma-halter.de
30.07.2014, 00:47 -1.66% Vogel's PFA 9037 Diebstahlsicherung um €98,34 (statt: €100,--) bei plasma-halter.de
30.07.2014, 00:47 -8.01% Vogel's EFK 1325 um €55,10 (statt: €59,90) bei plasma-halter.de
30.07.2014, 00:47 -17.24% Jahnke Cuuba ML 307.6 Rack um €396,42 (statt: €479,--) bei plasma-halter.de
30.07.2014, 00:47 -6.44% Jahnke TL 6153 Rack um €551,08 (statt: €589,--) bei plasma-halter.de
30.07.2014, 00:47 -12.75% Jahnke TL 6152 Rack um €436,26 (statt: €499,99) bei plasma-halter.de
30.07.2014, 00:47 -3.31% Excipial U Hydrolotio, 200ml um €9,65 (statt: €9,98) bei Michaelis Apotheke
30.07.2014, 00:47 -11.08% Jahnke Cuuba ML 316.2 Rack um €265,88 (statt: €299,--) bei plasma-halter.de
30.07.2014, 00:47 -4.17% HSM Securio C16 5.8 (1901111) um €138,-- (statt: €144,--) bei plasma-halter.de
30.07.2014, 00:47 -11.42% HSM Securio B24 1x5 Öler (1784111O) um €937,84 (statt: €1058,78) bei plasma-halter.de
30.07.2014, 00:47 -8.01% Louis Widmer Crème Vitalisante unparfümiert 50ml um €16,89 (statt: €18,36) bei Michaelis Apotheke
30.07.2014, 00:47 -3.27% HSM Securio B22 1.9x15 (1832111) um €406,27 (statt: €419,99) bei plasma-halter.de
30.07.2014, 00:47 -5.73% Louis Widmer Remederm Körpermilch Urea 5% unparfümiert 200ml um €13,33 (statt: €14,14) bei Michaelis Apotheke
30.07.2014, 00:47 -2.58% HSM 411.2 Professional 5.8 (1566171) um €2045,71 (statt: €2099,90) bei plasma-halter.de
30.07.2014, 00:47 -11.60% HSM 450.2 Premium 2x15 (1688144) um €6680,85 (statt: €7557,68) bei plasma-halter.de
30.07.2014, 00:47 -4.08% HSM 390.3 Professional 1.9x15 (1368141) um €1439,61 (statt: €1500,80) bei plasma-halter.de
30.07.2014, 00:47 -6.96% Elmex Sensitive Professional Zahncreme 75ml um €3,21 (statt: €3,45) bei Michaelis Apotheke
30.07.2014, 00:47 -4.00% HSM 125.2 Office 1.9 (1270161) um €525,50 (statt: €547,40) bei plasma-halter.de
30.07.2014, 00:47 -1.27% Jahnke MR 97 Rack um €256,68 (statt: €259,99) bei plasma-halter.de
30.07.2014, 00:47 -4.45% Jahnke Cuuba MR 20 um €124,20 (statt: €129,99) bei plasma-halter.de
30.07.2014, 00:47 -3.13% Jahnke Cuuba MR 17 Rack um €183,08 (statt: €189,--) bei plasma-halter.de
30.07.2014, 00:47 -5.65% cdVet Wurm-o-Vet für Katzen 12g um €7,35 (statt: €7,79) bei Michaelis Apotheke
30.07.2014, 00:47 -2.90% Dahle CleanTEC 41634 um €2631,93 (statt: €2710,50) bei plasma-halter.de
30.07.2014, 00:47 -2.83% Dahle CleanTEC 41630 um €2164,94 (statt: €2228,01) bei plasma-halter.de
30.07.2014, 00:47 -2.82% Dahle CleanTEC 41622 um €1688,01 (statt: €1736,95) bei plasma-halter.de
30.07.2014, 00:47 -3.02% Dahle CleanTEC 41614 um €1628,40 (statt: €1679,05) bei plasma-halter.de
30.07.2014, 00:47 -2.75% Dahle CleanTEC 41604 um €1558,84 (statt: €1602,93) bei plasma-halter.de
30.07.2014, 00:47 -4.74% Dahle 40634 um €2373,60 (statt: €2491,81) bei plasma-halter.de
30.07.2014, 00:47 -4.43% Dahle BaseCLASS 40630 um €2055,64 (statt: €2150,97) bei plasma-halter.de
30.07.2014, 00:47 -4.80% Dahle BaseCLASS 40622 um €1578,72 (statt: €1658,29) bei plasma-halter.de
30.07.2014, 00:47 -4.46% Dahle 40614 um €1529,04 (statt: €1600,40) bei plasma-halter.de
30.07.2014, 00:47 -3.16% Dahle 40606 um €1449,55 (statt: €1496,78) bei plasma-halter.de
30.07.2014, 00:47 -4.95% Dahle BaseCLASS 40604 um €1449,55 (statt: €1525,02) bei plasma-halter.de
30.07.2014, 00:47 -2.93% Dahle CleanTEC 41534 um €1906,60 (statt: €1964,25) bei plasma-halter.de
30.07.2014, 00:47 -2.95% Dahle CleanTEC 41530 um €1429,68 (statt: €1473,18) bei plasma-halter.de
30.07.2014, 00:47 -2.81% Dahle CleanTEC 41522 um €1012,36 (statt: €1041,64) bei plasma-halter.de
30.07.2014, 00:47 -2.77% Dahle CleanTEC 41514 um €992,49 (statt: €1020,72) bei plasma-halter.de
30.07.2014, 00:47 -3.06% Dahle CleanTEC 41506 um €922,94 (statt: €952,11) bei plasma-halter.de
30.07.2014, 00:47 -3.06% Dahle CleanTEC 41504 um €922,94 (statt: €952,11) bei plasma-halter.de
30.07.2014, 00:47 -4.91% Dahle 40534 um €1618,46 (statt: €1701,99) bei plasma-halter.de
30.07.2014, 00:47 -4.30% Dahle BaseCLASS 40530 um €1340,25 (statt: €1400,49) bei plasma-halter.de
30.07.2014, 00:47 -3.05% Dahle BaseCLASS 40522 um €942,81 (statt: €972,48) bei plasma-halter.de
30.07.2014, 00:47 -3.11% Dahle 40514 um €932,88 (statt: €962,83) bei plasma-halter.de
30.07.2014, 00:47 -2.46% Dahle 40506 um €843,45 (statt: €864,73) bei plasma-halter.de
30.07.2014, 00:47 -2.46% Dahle BaseCLASS 40504 um €843,45 (statt: €864,73) bei plasma-halter.de
30.07.2014, 00:47 -2.50% Dahle CleanTEC 41434 um €1340,25 (statt: €1374,55) bei plasma-halter.de
30.07.2014, 00:47 -3.12% Dahle CleanTEC 41430 um €1141,53 (statt: €1178,34) bei plasma-halter.de
30.07.2014, 00:47 -2.79% Dahle CleanTEC 41422 um €763,96 (statt: €785,91) bei plasma-halter.de
30.07.2014, 00:47 -2.86% Dahle CleanTEC 41414 um €754,03 (statt: €776,26) bei plasma-halter.de
30.07.2014, 00:47 -7.58% Avitale HaarAktiv Plus Kapseln, 120 Stück um €20,23 (statt: €21,89) bei Michaelis Apotheke
30.07.2014, 00:47 -4.92% Dahle 40434 um €1141,53 (statt: €1200,57) bei plasma-halter.de
30.07.2014, 00:47 -4.74% Dahle BaseCLASS 40430 um €952,75 (statt: €1000,11) bei plasma-halter.de
30.07.2014, 00:47 -4.18% Dahle 40406 um €575,18 (statt: €600,30) bei plasma-halter.de
30.07.2014, 00:47 -4.18% Dahle BaseCLASS 40404 um €575,18 (statt: €600,30) bei plasma-halter.de
30.07.2014, 00:47 -2.46% Dahle CleanTEC 41334 um €1091,85 (statt: €1119,36) bei plasma-halter.de
30.07.2014, 00:47 -3.31% Dahle CleanTEC 41330 um €893,13 (statt: €923,70) bei plasma-halter.de
30.07.2014, 00:47 -2.38% Dahle CleanTEC 41322 um €604,99 (statt: €619,73) bei plasma-halter.de
30.07.2014, 00:47 -2.46% Dahle CleanTEC 41314 um €595,05 (statt: €610,08) bei plasma-halter.de
30.07.2014, 00:47 -2.83% Dahle CleanTEC 41306 um €505,63 (statt: €520,34) bei plasma-halter.de
30.07.2014, 00:47 -2.83% Dahle CleanTEC 41304 um €505,63 (statt: €520,34) bei plasma-halter.de
30.07.2014, 00:47 -4.57% Dahle 40334 um €992,49 (statt: €1039,99) bei plasma-halter.de
30.07.2014, 00:47 -4.39% Dahle BaseCLASS 40330 um €803,71 (statt: €840,63) bei plasma-halter.de
30.07.2014, 00:47 -4.56% Dahle BaseCLASS 40322 um €515,56 (statt: €540,21) bei plasma-halter.de
30.07.2014, 00:47 -5.04% Dahle 40306 um €455,95 (statt: €480,13) bei plasma-halter.de
30.07.2014, 00:47 -5.04% Dahle BaseCLASS 40304 um €455,95 (statt: €480,13) bei plasma-halter.de
30.07.2014, 00:47 -4.21% Dahle CleanTEC 41222 um €535,44 (statt: €559,--) bei plasma-halter.de
30.07.2014, 00:47 -18.20% Dr. Wolz Omega-3-Fettsäuren, 60 Stück um €10,11 (statt: €12,36) bei Michaelis Apotheke
30.07.2014, 00:47 -4.35% Dahle CleanTEC 41214 um €515,56 (statt: €539,--) bei plasma-halter.de
30.07.2014, 00:47 -25.58% Dahle PaperSAFE 21312 um €287,04 (statt: €385,71) bei plasma-halter.de
30.07.2014, 00:47 -24.65% Dahle PaperSAFE 21212 um €278,02 (statt: €368,96) bei plasma-halter.de
30.07.2014, 00:47 -19.63% Dahle PaperSAFE 21112 um €148,85 (statt: €185,20) bei plasma-halter.de
30.07.2014, 00:47 -4.10% Dr. Wolz Darmflora plus select, 40 Stück um €13,33 (statt: €13,90) bei Michaelis Apotheke
30.07.2014, 00:47 -32.20% Dahle PaperSAFE 21062 um €61,45 (statt: €90,64) bei plasma-halter.de
30.07.2014, 00:47 -2.26% Eubos Anti Age Hyaluron Augen Kontur Creme 15ml um €14,71 (statt: €15,05) bei Michaelis Apotheke
30.07.2014, 00:47 -5.87% Eubos Sensitiv Hyaluron Repair & Fill 50ml um €17,47 (statt: €18,56) bei Michaelis Apotheke
30.07.2014, 00:47 -7.10% Dahle 20822 um €1058,-- (statt: €1138,90) bei plasma-halter.de
30.07.2014, 00:47 -7.15% Dahle 20814 um €1051,-- (statt: €1131,90) bei plasma-halter.de
30.07.2014, 00:47 -1.65% Dahle 20396 um €2860,46 (statt: €2908,41) bei plasma-halter.de
30.07.2014, 00:47 -8.14% Doppelherz A-Z Depot, 60 Stück um €6,21 (statt: €6,76) bei Michaelis Apotheke
30.07.2014, 00:47 -6.17% Alpecin Tuning Shampoo 200ml um €5,47 (statt: €5,83) bei Michaelis Apotheke
30.07.2014, 00:47 -7.09% Alpecin Aktiv A1 Shampoo 250ml um €3,67 (statt: €3,95) bei Michaelis Apotheke
30.07.2014, 00:47 -5.00% Kneipp Badekristalle Vergessene Schätze Lavendel 55g um €0,95 (statt: €1,--) bei Michaelis Apotheke
30.07.2014, 00:47 -27.21% Weleda Fußbalsam 10ml um €0,99 (statt: €1,36) bei Michaelis Apotheke
30.07.2014, 00:47 -2.13% Weleda Wildrosen Pflegemilch Körperlotion 200ml um €9,65 (statt: €9,86) bei Michaelis Apotheke
30.07.2014, 00:47 -6.57% Weleda Wildrosen Glättende Feuchtigkeitspflege 30ml um €10,66 (statt: €11,41) bei Michaelis Apotheke
30.07.2014, 00:47 -4.78% Weleda Mandel Wohltuende Reinigungsmilch 75ml um €6,58 (statt: €6,91) bei Michaelis Apotheke
30.07.2014, 00:47 -5.75% Vichy Liftactiv Augenpflege 15ml um €16,55 (statt: €17,56) bei Michaelis Apotheke
30.07.2014, 00:47 -6.98% Vichy Normaderm Reinigungsfluid mit Mizellen-Technologie 3 in 1 200ml um €9,19 (statt: €9,88) bei Michaelis Apotheke
30.07.2014, 00:47 -1.41% Vichy Liftactiv Serum 10 30ml um €27,31 (statt: €27,70) bei Michaelis Apotheke
30.07.2014, 00:47 -1.39% Vichy Liftactiv Nachtpflege 50ml um €21,27 (statt: €21,57) bei Michaelis Apotheke
30.07.2014, 00:47 -4.02% Vichy Nutriextra Körpercreme 400ml um €12,43 (statt: €12,95) bei Michaelis Apotheke
30.07.2014, 00:47 -1.18% Vichy Destock Cellu Body Lotion 200ml um €18,36 (statt: €18,58) bei Michaelis Apotheke
30.07.2014, 00:47 -1.72% Vichy Normaderm Reinigungs-Lotion 200ml um €9,71 (statt: €9,88) bei Michaelis Apotheke
30.07.2014, 00:47 -1.12% Vichy Normaderm Reinigungs-Gel 200ml um €9,71 (statt: €9,82) bei Michaelis Apotheke
30.07.2014, 00:47 -4.66% Vichy Homme Hydra-Mag C Duschgel 200ml um €7,36 (statt: €7,72) bei Michaelis Apotheke
30.07.2014, 00:47 -5.97% Vichy Homme Ultra-Frisch Deodorant Spray 100ml um €6,77 (statt: €7,20) bei Michaelis Apotheke
30.07.2014, 00:47 -5.66% Vichy 48h für sehr empfindliche oder epilierte Haut Roll-on Deodorant 50ml um €6,84 (statt: €7,25) bei Michaelis Apotheke
30.07.2014, 00:47 -8.64% Vichy Purete Thermale schäumende Waschcreme 125ml um €9,20 (statt: €10,07) bei Michaelis Apotheke
30.07.2014, 00:47 -10.59% Vichy Aqualia Thermal leichte Tagespflege 40ml um €11,40 (statt: €12,75) bei Michaelis Apotheke
30.07.2014, 00:47 -7.30% Vichy Homme Rasiergel Anti-Hautirritationen 150ml um €7,36 (statt: €7,94) bei Michaelis Apotheke
30.07.2014, 00:47 -2.06% Vichy Homme Sensi-Baume Mineral 75ml um €11,40 (statt: €11,64) bei Michaelis Apotheke
30.07.2014, 00:47 -3.31% Vichy Homme Structure S 50ml um €16,92 (statt: €17,50) bei Michaelis Apotheke
30.07.2014, 00:47 -2.92% Pierre Fabre Avène Thermalwasser 300ml um €6,99 (statt: €7,20) bei Michaelis Apotheke
30.07.2014, 00:47 -6.21% Biomaris Sonnencreme LSF20 75ml um €13,45 (statt: €14,34) bei Michaelis Apotheke
30.07.2014, 00:47 -29.31% Seagate Pipeline HD 5900.2 250GB, SATA 3Gb/s (ST3250312CS) um €21,20 (statt: €29,99) bei 1Deins Computer GmbH | MeinPaket
30.07.2014, 00:47 -1.76% AKG K 619 schwarz um €68,67 (statt: €69,90) bei 1Deins Computer GmbH | MeinPaket
30.07.2014, 00:47 -2.07% LG Electronics Optimus 4X HD P880 weiß um €205,56 (statt: €209,90) bei 1Deins Computer GmbH | MeinPaket
30.07.2014, 00:47 -3.41% Samsung Galaxy Fame Lite S6790N schwarz um €56,12 (statt: €58,10) bei 1Deins Computer GmbH | MeinPaket
30.07.2014, 00:47 -4.68% Samsung Galaxy Pocket Plus S5301 rosa um €52,53 (statt: €55,11) bei 1Deins Computer GmbH | MeinPaket
30.07.2014, 00:47 -2.81% Samsung B2710 rot um €76,33 (statt: €78,54) bei 1Deins Computer GmbH | MeinPaket
30.07.2014, 00:47 -7.97% Euromac Multiclima 90 um €275,18 (statt: €299,--) bei 1Deins Computer GmbH | MeinPaket
30.07.2014, 00:47 -5.25% Seagate Enterprise Capacity 3.5 HDD 5TB, SATA 6Gb/s (ST5000NM0024) um €307,06 (statt: €324,06) bei 1Deins Computer GmbH | MeinPaket
30.07.2014, 00:47 -9.59% Maxell MXSB-252 Soundprojektor um €66,81 (statt: €73,90) bei 1Deins Computer GmbH | MeinPaket
30.07.2014, 00:47 -1.08% ASUS X750LN-T4100H (90NB05N1-M01340) um €969,54 (statt: €980,15) bei 1Deins Computer GmbH | MeinPaket
30.07.2014, 00:47 -2.15% GeIL SO-DIMM Kit 16GB, DDR3-1600, CL10-10-10-28 (GS316GB1600C10DC) um €125,35 (statt: €128,11) bei 1Deins Computer GmbH | MeinPaket
30.07.2014, 00:47 -2.73% Acer Aspire Z3-615, Core i3-4130T, 4GB RAM, 1TB HDD, Windows 8.1 (DQ.SV9EG.004) um €650,76 (statt: €669,01) bei 1Deins Computer GmbH | MeinPaket
30.07.2014, 00:47 -1.96% Acer Aspire XC-603, Pentium J2900, 4GB RAM, 500GB HDD (DT.SUMEG.002) um €312,75 (statt: €319,--) bei 1Deins Computer GmbH | MeinPaket
30.07.2014, 00:47 -10.80% LEPA N 400W ATX 2.3 (N400-SA) um €31,73 (statt: €35,57) bei 1Deins Computer GmbH | MeinPaket
30.07.2014, 00:47 -2.27% Gainward GeForce GTX 770 Phantom (1085MHz), 2GB GDDR5, 2x DVI, HDMI, DisplayPort (3293) um €272,68 (statt: €279,--) bei 1Deins Computer GmbH | MeinPaket
30.07.2014, 00:47 -2.19% Gainward GeForce GTX 770, 2GB GDDR5, 2x DVI, HDMI, DisplayPort (2944) um €253,39 (statt: €259,06) bei 1Deins Computer GmbH | MeinPaket
30.07.2014, 00:47 -3.96% LC-Power Powerbank 3900 (LC-PB-3900) um €11,63 (statt: €12,11) bei 1Deins Computer GmbH | MeinPaket
30.07.2014, 00:47 -1.22% be quiet! Pure Power L8 400W ATX 2.4 (BN222) um €43,69 (statt: €44,23) bei 1Deins Computer GmbH | MeinPaket
30.07.2014, 00:47 -2.55% bintec elmeg RS120 um €163,83 (statt: €168,11) bei 1Deins Computer GmbH | MeinPaket
30.07.2014, 00:47 -5.96% DeLOCK USB 2.0 Y-Kabel, USB-A (Stecker) auf 2x USB-A (Buchse), aktiv 10m (82960) um €19,57 (statt: €20,81) bei 1Deins Computer GmbH | MeinPaket
30.07.2014, 00:47 -1.42% Allnet ALL4806W, 24-Port, smart managed um €122,35 (statt: €124,11) bei 1Deins Computer GmbH | MeinPaket
30.07.2014, 00:47 -2.64% Allnet ALL1688PC, Phasenkoppler um €26,58 (statt: €27,30) bei 1Deins Computer GmbH | MeinPaket
30.07.2014, 00:47 -1.11% Lenovo G700, Pentium 2020M, 4GB RAM, 500GB SSHD, IGP, Windows 8.1 (59396613) um €394,56 (statt: €399,--) bei 1Deins Computer GmbH | MeinPaket
30.07.2014, 00:47 -4.42% Cisco 300 Series SG300-10, 8-Port, managed (SRW2008-K9-G5) um €143,42 (statt: €150,05) bei 1Deins Computer GmbH | MeinPaket
30.07.2014, 00:47 -1.98% Corsair ValueSelect SO-DIMM Kit 16GB, DDR3-1333, CL9 (CMSO16GX3M2A1333C) um €132,39 (statt: €135,06) bei 1Deins Computer GmbH | MeinPaket
30.07.2014, 00:47 -3.00% Corsair Vengeance schwarz DIMM Kit 16GB, DDR3-1600, CL9-9-9-24 (CMZ16GX3M4A1600C9) um €143,06 (statt: €147,49) bei 1Deins Computer GmbH | MeinPaket
30.07.2014, 00:47 -6.03% Corsair ValueSelect DIMM Kit 8GB, DDR3-1333, CL9-9-9-24 (CMV8GX3M2A1333C9) um €61,97 (statt: €65,95) bei 1Deins Computer GmbH | MeinPaket
30.07.2014, 00:47 -2.14% D-Link DGS-1100-16, 16-Port, smart managed um €83,29 (statt: €85,11) bei 1Deins Computer GmbH | MeinPaket
30.07.2014, 00:47 -42.93% Allied Telesis AT-x210-16GT, 16-Port, managed um €183,18 (statt: €321,--) bei 1Deins Computer GmbH | MeinPaket
30.07.2014, 00:47 -10.08% Netgear AirCard 762S 4G LTE (MIMO) Dual Band (AC762S-100PES) um €111,98 (statt: €124,53) bei 1Deins Computer GmbH | MeinPaket
30.07.2014, 00:47 -7.26% Head Helm Carma um €110,36 (statt: €119,--) bei Motorradbekleidung Mädl | Meinpaket
30.07.2014, 00:47 -7.97% Arai Tour X 4 (versch. Farben/Größen) um €495,97 (statt: €538,90) bei Motorradbekleidung Mädl | Meinpaket
30.07.2014, 00:47 -8.00% Roof Boxer V8 weiß (versch. Größen) um €358,80 (statt: €390,--) bei Motorradbekleidung Mädl | Meinpaket
30.07.2014, 00:47 -2.25% Caberg Duke schwarz (versch. Größen) um €155,48 (statt: €159,06) bei Motorradbekleidung Mädl | Meinpaket
30.07.2014, 00:47 -3.07% Caberg Duke matt schwarz (versch. Größen) um €164,77 (statt: €169,99) bei Motorradbekleidung Mädl | Meinpaket
30.07.2014, 00:47 -4.57% AGV K-3 The Chicken (versch. Größen) um €161,18 (statt: €168,90) bei Motorradbekleidung Mädl | Meinpaket
30.07.2014, 00:47 -8.00% Roof Boxer V8 Shadow (versch. Größen) um €376,28 (statt: €409,--) bei Motorradbekleidung Mädl | Meinpaket
30.07.2014, 00:47 -8.00% Roof Boxer V8 Suzuka (versch. Farben/Größen) um €348,72 (statt: €379,05) bei Motorradbekleidung Mädl | Meinpaket
30.07.2014, 00:47 -8.00% Roof Boxer V8 matt schwarz (versch. Größen) um €321,08 (statt: €349,--) bei Motorradbekleidung Mädl | Meinpaket
30.07.2014, 00:47 -8.00% Roof Boxer V8 Graphic (versch. Farben/Größen) um €339,48 (statt: €369,--) bei Motorradbekleidung Mädl | Meinpaket
30.07.2014, 00:47 -21.18% Roof Boxer (versch. Farben/Größen) um €275,08 (statt: €349,--) bei Motorradbekleidung Mädl | Meinpaket
30.07.2014, 00:47 -8.00% AGV K-4 EVO Roadster rot (versch. Größen) um €229,90 (statt: €249,90) bei Motorradbekleidung Mädl | Meinpaket
30.07.2014, 00:47 -8.00% AGV K-4 EVO Roadster pink (versch. Größen) um €229,90 (statt: €249,90) bei Motorradbekleidung Mädl | Meinpaket
30.07.2014, 00:47 -17.20% AGV K-4 EVO Roadster Italia (versch. Größen) um €206,91 (statt: €249,90) bei Motorradbekleidung Mädl | Meinpaket
30.07.2014, 00:47 -26.40% AGV K-4 EVO Roadster blau (versch. Größen) um €183,92 (statt: €249,90) bei Motorradbekleidung Mädl | Meinpaket
30.07.2014, 00:47 -2.69% AGV K-4 EVO Sliver (versch. Farben/Größen) um €183,92 (statt: €189,--) bei Motorradbekleidung Mädl | Meinpaket
30.07.2014, 00:47 -8.00% AGV K-4 EVO Explorer (versch. Farben/Größen) um €229,90 (statt: €249,90) bei Motorradbekleidung Mädl | Meinpaket
30.07.2014, 00:47 -8.00% AGV K-4 EVO matt schwarz (versch. Größen) um €202,30 (statt: €219,90) bei Motorradbekleidung Mädl | Meinpaket
30.07.2014, 00:47 -8.00% AGV Skyline Block blau (versch. Größen) um €293,48 (statt: €319,--) bei Motorradbekleidung Mädl | Meinpaket
30.07.2014, 00:47 -23.57% AGV Skyline Block rot (versch. Größen) um €243,80 (statt: €319,--) bei Motorradbekleidung Mädl | Meinpaket
30.07.2014, 00:47 -23.57% AGV Skyline Block Italia (versch. Größen) um €243,80 (statt: €319,--) bei Motorradbekleidung Mädl | Meinpaket
30.07.2014, 00:47 -8.00% Airoh Aviator Fast (versch. Farben/Größen) um €496,75 (statt: €539,95) bei Motorradbekleidung Mädl | Meinpaket
30.07.2014, 00:47 -7.84% Airoh Aviator Wings (versch. Farben/Größen) um €496,75 (statt: €539,--) bei Motorradbekleidung Mädl | Meinpaket
30.07.2014, 00:47 -23.57% AGV Skyline Asura (versch. Farben/Größen) um €243,80 (statt: €319,--) bei Motorradbekleidung Mädl | Meinpaket
30.07.2014, 00:47 -7.84% Airoh Aviator Venom (versch. Farben/Größen) um €496,75 (statt: €539,--) bei Motorradbekleidung Mädl | Meinpaket
30.07.2014, 00:47 -8.00% Airoh Aviator Shift (versch. Farben/Größen) um €496,75 (statt: €539,95) bei Motorradbekleidung Mädl | Meinpaket
30.07.2014, 00:47 -8.00% Airoh Aviator Float (versch. Farben/Größen) um €496,75 (statt: €539,95) bei Motorradbekleidung Mädl | Meinpaket
30.07.2014, 00:47 -8.49% AGV K-3 matt schwarz (versch. Größen) um €155,48 (statt: €169,91) bei Motorradbekleidung Mädl | Meinpaket
30.07.2014, 00:47 -8.00% AGV Horizon Scrape rot (versch. Größen) um €330,28 (statt: €359,--) bei Motorradbekleidung Mädl | Meinpaket
30.07.2014, 00:47 -8.00% AGV Horizon Scrape blau (versch. Größen) um €330,28 (statt: €359,--) bei Motorradbekleidung Mädl | Meinpaket
30.07.2014, 00:47 -8.00% AGV Horizon Absolute Italia (versch. Größen) um €271,40 (statt: €295,--) bei Motorradbekleidung Mädl | Meinpaket
30.07.2014, 00:47 -8.00% AGV Horizon Absolute rot (versch. Größen) um €271,40 (statt: €295,--) bei Motorradbekleidung Mädl | Meinpaket
30.07.2014, 00:47 -8.00% AGV Horizon Absolute blau (versch. Größen) um €275,03 (statt: €298,95) bei Motorradbekleidung Mädl | Meinpaket
30.07.2014, 00:47 -8.00% AGV Grid Stigma schwarz (versch. Größen) um €367,08 (statt: €399,--) bei Motorradbekleidung Mädl | Meinpaket
30.07.2014, 00:47 -8.00% AGV Grid Stigma rot (versch. Größen) um €367,08 (statt: €399,--) bei Motorradbekleidung Mädl | Meinpaket
30.07.2014, 00:47 -8.00% AGV Grid Stigma blau (versch. Größen) um €367,08 (statt: €399,--) bei Motorradbekleidung Mädl | Meinpaket
30.07.2014, 00:47 -21.18% AGV Grid weiß (versch. Größen) um €275,08 (statt: €349,--) bei Motorradbekleidung Mädl | Meinpaket
30.07.2014, 00:47 -18.24% AGV Grid Angel Nieto (versch. Größen) um €367,08 (statt: €449,--) bei Motorradbekleidung Mädl | Meinpaket
30.07.2014, 00:47 -8.01% Caberg Riviera V+ weiß (versch. Größen) um €82,70 (statt: €89,90) bei Motorradbekleidung Mädl | Meinpaket
30.07.2014, 00:47 -15.45% Caberg Riviera V+ silber (versch. Größen) um €82,70 (statt: €97,81) bei Motorradbekleidung Mädl | Meinpaket
30.07.2014, 00:47 -8.00% Caberg Jet Uno Pearl (versch. Farben/Größen) um €220,70 (statt: €239,90) bei Motorradbekleidung Mädl | Meinpaket
30.07.2014, 00:47 -5.83% Caberg V2R-R matt schwarz (versch. Größen) um €131,74 (statt: €139,90) bei Motorradbekleidung Mädl | Meinpaket
30.07.2014, 00:47 -5.85% Caberg V2X Carbon Edge rot (versch. Größen) um €367,08 (statt: €389,90) bei Motorradbekleidung Mädl | Meinpaket
30.07.2014, 00:47 -8.00% Caberg Ego Gun Metal (versch. Größen) um €183,08 (statt: €199,--) bei Motorradbekleidung Mädl | Meinpaket
30.07.2014, 00:47 -8.00% Caberg Hyperx Gun Metal (versch. Größen) um €202,30 (statt: €219,90) bei Motorradbekleidung Mädl | Meinpaket
30.07.2014, 00:47 -8.00% Caberg Hyperx silber (versch. Größen) um €202,30 (statt: €219,90) bei Motorradbekleidung Mädl | Meinpaket
30.07.2014, 00:47 -8.27% Caberg Sintesi Gun Metal (versch. Größen) um €220,06 (statt: €239,90) bei Motorradbekleidung Mädl | Meinpaket
30.07.2014, 00:47 -3.90% Caberg Sintesi matt schwarz (versch. Größen) um €220,06 (statt: €229,--) bei Motorradbekleidung Mädl | Meinpaket
30.07.2014, 00:47 -2.89% Caberg V2X Carbon matt schwarz (versch. Größen) um €349,50 (statt: €359,90) bei Motorradbekleidung Mädl | Meinpaket
30.07.2014, 00:47 -8.27% Caberg Sintesi silber (versch. Größen) um €220,06 (statt: €239,90) bei Motorradbekleidung Mädl | Meinpaket
30.07.2014, 00:47 -16.76% Caberg Jet Uno matt schwarz (versch. Farben/Größen) um €183,08 (statt: €219,95) bei Motorradbekleidung Mädl | Meinpaket
30.07.2014, 00:47 -11.58% Bandit Helmets Fighter (versch. Farben/Größen) um €131,74 (statt: €149,--) bei Motorradbekleidung Mädl | Meinpaket
30.07.2014, 00:47 -8.00% Roof Bamboo (versch. Farben/Größen) um €265,88 (statt: €289,--) bei Motorradbekleidung Mädl | Meinpaket
30.07.2014, 00:47 -7.38% Airoh Runner (versch. Farben/Größen) um €138,-- (statt: €149,--) bei Motorradbekleidung Mädl | Meinpaket
30.07.2014, 00:47 -6.33% Fitmaxx 5 um €82,75 (statt: €88,34) bei Erlebnisladen
30.07.2014, 00:46 -6.44% Pedea Design neopren brown global map 17.3" Schutzhülle (66060726) um €14,96 (statt: €15,99) bei MARKS-MOBILFUNK
30.07.2014, 00:46 -81.26% noontec Zoro Professional schwarz um €50,59 (statt: €270,--) bei poppstar | MeinPaket
30.07.2014, 00:46 -25.90% Genius SlimStar 8000, USB, DE (31340035115) um €18,48 (statt: €24,94) bei poppstar | MeinPaket
30.07.2014, 00:46 -8.00% CnMemory Rotor rot 8GB, USB 2.0 (85924) um €9,77 (statt: €10,62) bei poppstar | MeinPaket
30.07.2014, 00:46 -8.94% CnMemory Mistral UHS 32GB, USB 3.0 (85912) um €46,94 (statt: €51,55) bei poppstar | MeinPaket
30.07.2014, 00:45 -13.95% Remko Verona MKT-250 weiß um €403,32 (statt: €468,69) bei banemo
30.07.2014, 00:45 -19.26% Remko Ibiza RKL-350 um €542,57 (statt: €672,--) bei banemo
30.07.2014, 00:45 -2.81% Remko Ibiza RKL-290 weiß um €522,87 (statt: €537,98) bei banemo
30.07.2014, 00:45 -10.46% BIG Bobby Car New blau (800056201) um €34,91 (statt: €38,99) bei Storki Toys
30.07.2014, 00:45 -7.77% BIG Bobby Car New rot (800056200) um €34,91 (statt: €37,85) bei Storki Toys
30.07.2014, 00:45 -8.01% BIG Sammy Rocker Wippe (800001335) um €36,75 (statt: €39,95) bei Storki Toys
30.07.2014, 00:45 -8.00% Edelrid Core Top Industriegurt um €91,99 (statt: €99,99) bei EStores GmbH | MeinPaket
30.07.2014, 00:45 -5.06% Edelrid Transit Dry Bag 114l um €80,95 (statt: €85,26) bei EStores GmbH | MeinPaket
30.07.2014, 00:45 -4.84% Edelrid Transit Dry Bag 45l um €57,95 (statt: €60,90) bei EStores GmbH | MeinPaket
30.07.2014, 00:45 -8.00% Petzl Avao Sit Fast Industriegurt um €144,43 (statt: €156,99) bei EStores GmbH | MeinPaket
30.07.2014, 00:45 -8.00% Petzl Avao Sit Industriegurt um €142,59 (statt: €154,99) bei EStores GmbH | MeinPaket
30.07.2014, 00:45 -4.31% Petzl Avao Bod Industriegurt um €218,03 (statt: €227,85) bei EStores GmbH | MeinPaket
30.07.2014, 00:45 -7.82% Petzl Rescue Seilrolle um €42,31 (statt: €45,90) bei EStores GmbH | MeinPaket
30.07.2014, 00:45 -1.90% Petzl Classique Haulbag um €59,79 (statt: €60,95) bei EStores GmbH | MeinPaket
30.07.2014, 00:45 -1.67% Petzl Ascension Steigklemme um €44,15 (statt: €44,90) bei EStores GmbH | MeinPaket
30.07.2014, 00:45 -8.00% Petzl Absorbica Verbindungsmittel mit MGO Karabiner um €73,59 (statt: €79,99) bei EStores GmbH | MeinPaket
30.07.2014, 00:45 -4.01% Petzl Absorbica Bandfalldämpfer um €34,03 (statt: €35,45) bei EStores GmbH | MeinPaket
30.07.2014, 00:45 -8.00% Petzl Jane Verbindungsmittel mit MGO Karabiner um €55,19 (statt: €59,99) bei EStores GmbH | MeinPaket
30.07.2014, 00:45 -8.00% Petzl Bermude Rettungsdreieck um €61,63 (statt: €66,99) bei EStores GmbH | MeinPaket
30.07.2014, 00:45 -8.05% Salewa Liquid Chalk um €7,31 (statt: €7,95) bei Outdoor Chiemgau | MeinPaket
30.07.2014, 00:45 -14.49% Sirch Minirodel um €54,28 (statt: €63,48) bei found4you | Meinpaket
30.07.2014, 00:45 -10.53% Sirch Minirodel um €63,48 (statt: €70,95) bei found4you | Meinpaket
30.07.2014, 00:45 -13.90% Sirch H11 Rennrodel um €146,28 (statt: €169,90) bei found4you | Meinpaket
30.07.2014, 00:45 -6.38% Sirch Davoser Rodel Standard um €27,14 (statt: €28,99) bei found4you | Meinpaket
30.07.2014, 00:45 -13.79% Baladéo ECO 131 Klappmesser um €13,75 (statt: €15,95) bei Outdoor Chiemgau | MeinPaket
30.07.2014, 00:45 -1.14% Baladéo ECO 095 Klappmesser um €22,54 (statt: €22,80) bei Outdoor Chiemgau | MeinPaket
30.07.2014, 00:45 -8.02% Baladéo ECO 179 No Limit Klappmesser um €16,51 (statt: €17,95) bei Outdoor Chiemgau | MeinPaket
30.07.2014, 00:45 -8.01% Klean Kanteen Wide-Mouth Brushed Stainless 1.9l Trinkflasche um €38,59 (statt: €41,95) bei Outdoor Chiemgau | MeinPaket
30.07.2014, 00:45 -4.18% Klean Kanteen Wide-Mouth Brushed Stainless 0.8l Trinkflasche um €22,95 (statt: €23,95) bei Outdoor Chiemgau | MeinPaket
30.07.2014, 00:45 -8.02% Klean Kanteen Sport Brushed Stainless 0.35l Trinkflasche um €20,19 (statt: €21,95) bei Outdoor Chiemgau | MeinPaket
30.07.2014, 00:45 -8.02% Klean Kanteen Sippy Brushed Stainless 0.35l Trinkflasche um €20,19 (statt: €21,95) bei Outdoor Chiemgau | MeinPaket
30.07.2014, 00:45 -5.28% Klean Kanteen Reflect Mirrored Stainless 0.5l Trinkflasche um €30,31 (statt: €32,--) bei Outdoor Chiemgau | MeinPaket
30.07.2014, 00:45 -3.79% Casio Edifice EQW-A1110DB-1AER um €403,99 (statt: €419,90) bei Heyder Exclusiv e.K. Shop
30.07.2014, 00:45 -3.36% Casio Edifice EQW-M600C-1AER um €242,07 (statt: €250,49) bei Heyder Exclusiv e.K. Shop
30.07.2014, 00:45 -5.79% Casio G-Shock GW-3500BD-1AER um €282,55 (statt: €299,90) bei Heyder Exclusiv e.K. Shop
30.07.2014, 00:45 -3.16% Goliath Robofish Catalina Goby (32552024) um €9,19 (statt: €9,49) bei Spielwaren Müller Shop
30.07.2014, 00:45 -5.10% LEGO - Technic - Action Rennwagen (42011) um €14,71 (statt: €15,50) bei Spielwaren Müller Shop
30.07.2014, 00:45 -4.84% SIKU Super JCB Fastrac 8310 (1029) um €2,75 (statt: €2,89) bei Spielwaren Müller Shop
30.07.2014, 00:45 -2.78% BIG PlayBIG Bloxx Hello Kitty Starter Set (800057018) um €4,55 (statt: €4,68) bei Spielwaren Müller Shop
30.07.2014, 00:45 -5.90% Joola Tischtennisschläger Beat um €3,67 (statt: €3,90) bei Spielwaren Müller Shop
30.07.2014, 00:45 -8.01% Bruder Profi-Serie Bodenfräse (02240) um €11,95 (statt: €12,99) bei Spielwaren Müller Shop
30.07.2014, 00:45 -6.09% Butterfly Tischtennistisch Timo Boll Indoor um €271,40 (statt: €289,--) bei Spielwaren Müller Shop
30.07.2014, 00:45 -5.22% Mattel Polly Pocket Poolparty Spielset (BCY62) um €15,63 (statt: €16,49) bei Spielwaren Müller Shop
30.07.2014, 00:45 -8.04% Sirus HXP-2000 um €18,30 (statt: €19,90) bei Envirel Maik Mueller e.K. Shop
30.07.2014, 00:45 -8.02% Sirus HXP-1000 um €15,82 (statt: €17,20) bei Envirel Maik Mueller e.K. Shop
30.07.2014, 00:45 -8.00% Sirus HXP-250 um €9,66 (statt: €10,50) bei Envirel Maik Mueller e.K. Shop
30.07.2014, 00:45 -8.00% American Audio 10 MXR um €127,88 (statt: €139,--) bei Envirel Maik Mueller e.K. Shop
30.07.2014, 00:45 -4.34% Libratone Lounge Vanilla Beige um €1053,40 (statt: €1101,24) bei Livingson.biz
30.07.2014, 00:45 -4.34% Libratone Lounge Slate Grey um €1053,40 (statt: €1101,24) bei Livingson.biz
30.07.2014, 00:45 -2.14% Nike Tiempo Premier Firm Ground um €78,10 (statt: €79,81) bei fan & more | MeinPaket
30.07.2014, 00:45 -18.82% Russell Hobbs Dali Arts Kaffeemaschine um €26,78 (statt: €32,99) bei Elektro-Himmel
30.07.2014, 00:45 -8.01% High Colorado Greenville Deckenschlafsack um €45,95 (statt: €49,95) bei Sport Fischbacher GmbH Shop
30.07.2014, 00:45 -7.98% Hanwag Escalator Mid GTX (Herren) um €165,55 (statt: €179,90) bei Sport Fischbacher GmbH Shop
30.07.2014, 00:45 -8.00% Flow Flite 1 (Modell 2012/2013) um €137,95 (statt: €149,95) bei Sport Fischbacher GmbH Shop
30.07.2014, 00:45 -8.02% Hyper Wheels NX 360 Rollenset 80mm (Inline) um €22,95 (statt: €24,95) bei Sport Fischbacher GmbH Shop
30.07.2014, 00:45 -8.38% Nikon Sportstar EX WP 10x25 um €69,53 (statt: €75,89) bei Foto Erhardt GmbH Shop
30.07.2014, 00:45 -6.43% Swarovski CL Companion 10X30 um €823,40 (statt: €880,--) bei Foto Erhardt GmbH Shop
30.07.2014, 00:45 -8.00% Swarovski CL Companion 8X30 Traveler um €781,08 (statt: €849,--) bei Foto Erhardt GmbH Shop
30.07.2014, 00:45 -4.27% Swarovski diverse Okulare um €330,28 (statt: €345,--) bei Foto Erhardt GmbH Shop
30.07.2014, 00:45 -2.34% Manfrotto Professional Shoulder bag 20 Schultertasche (MP-SB-20BB) um €115,72 (statt: €118,49) bei Foto Erhardt GmbH Shop
30.07.2014, 00:45 -3.00% Manfrotto Professional Shoulder bag 10 Schultertasche (MP-SB-10BB) um €101,74 (statt: €104,89) bei Foto Erhardt GmbH Shop
30.07.2014, 00:45 -1.60% Manfrotto Professional Backpack 30 Rucksack (MP-BP-30BB) um €163,76 (statt: €166,43) bei Foto Erhardt GmbH Shop
30.07.2014, 00:45 -4.78% National Geographic NG-A6010 Trolley um €247,48 (statt: €259,89) bei Foto Erhardt GmbH Shop
30.07.2014, 00:45 -8.00% Vanguard Vojo 13GR Schultertasche schwarz um €24,83 (statt: €26,99) bei Foto Erhardt GmbH Shop
30.07.2014, 00:45 -2.50% Vanguard The Heralder 38 Schultertasche schwarz um €101,20 (statt: €103,79) bei Foto Erhardt GmbH Shop
30.07.2014, 00:45 -2.88% Vanguard The Heralder 33 Schultertasche schwarz um €87,30 (statt: €89,89) bei Foto Erhardt GmbH Shop
30.07.2014, 00:45 -2.26% Vanguard Chicago 8 Kameratasche schwarz um €17,29 (statt: €17,69) bei Foto Erhardt GmbH Shop
30.07.2014, 00:45 -3.75% Vanguard Peking Kameratasche (verschiedene Modelle) um €3,85 (statt: €4,--) bei Foto Erhardt GmbH Shop
30.07.2014, 00:45 -1.58% Olympus LC-37PR Dress-Up Objektivdeckel carbon (V6540031W000) um €28,04 (statt: €28,49) bei Foto Erhardt GmbH Shop
30.07.2014, 00:45 -3.30% Eschenbach Adventure 10x25 B (4278125) um €96,60 (statt: €99,90) bei Foto Erhardt GmbH Shop
30.07.2014, 00:45 -1.15% Hama Daytour 230 Rucksack (103744) um €86,48 (statt: €87,49) bei Foto Erhardt GmbH Shop
30.07.2014, 00:45 -2.59% Crumpler Jackpack 4000 Fototasche schwarz (JP4000-001) um €43,24 (statt: €44,39) bei Foto Erhardt GmbH Shop
30.07.2014, 00:45 -2.13% Eschenbach Microlux 6x18 Monokular (4294618) um €72,68 (statt: €74,26) bei Foto Erhardt GmbH Shop
30.07.2014, 00:45 -1.61% B+W Filter UV (010) MRC 72mm um €42,21 (statt: €42,90) bei Foto Erhardt GmbH Shop
30.07.2014, 00:45 -4.77% B+W Filter Pol Circular Käsemann 77mm um €102,75 (statt: €107,90) bei Foto Erhardt GmbH Shop
30.07.2014, 00:45 -1.87% B+W Filter Pol Circular Käsemann 62mm um €73,49 (statt: €74,89) bei Foto Erhardt GmbH Shop
30.07.2014, 00:45 -2.82% Reflecta ProScan 10T (65450) um €400,38 (statt: €412,--) bei Foto Erhardt GmbH Shop
30.07.2014, 00:45 -1.54% Dörr Yuma Holster M Kameratasche schwarz/orange (456161) um €21,16 (statt: €21,49) bei Foto Erhardt GmbH Shop
30.07.2014, 00:45 -1.17% Dörr Aufnahmebox PBF-45 45x45cm (373390) um €53,36 (statt: €53,99) bei Foto Erhardt GmbH Shop
30.07.2014, 00:45 -1.94% Lowepro Photo Sport Shoulder 18l Schultertasche violett (LP36573) um €53,63 (statt: €54,69) bei Foto Erhardt GmbH Shop
30.07.2014, 00:45 -6.41% Olympus Allround 10-30x25 Zoom PC I um €88,91 (statt: €95,--) bei Foto Erhardt GmbH Shop
30.07.2014, 00:45 -1.54% Hoya Filter Pol Circular HD 82mm (YHDPOLC082) um €86,56 (statt: €87,91) bei Foto Erhardt GmbH Shop
30.07.2014, 00:45 -1.09% Nikon D5200 schwarz mit Objektiv AF-S DX 18-140mm 3.5-5.6G ED VR (VBA350K008) um €790,28 (statt: €799,--) bei Foto Erhardt GmbH Shop
30.07.2014, 00:45 -8.00% Citizen Promaster BN0100-00E Taucheruhr um €183,08 (statt: €199,--) bei Watch House | MeinPaket
30.07.2014, 00:45 -2.47% KEF V720W um €827,08 (statt: €848,--) bei ACR-ALLENDORF-SUPER-STORE
30.07.2014, 00:45 -8.00% KEF V700 Soundprojektor um €643,08 (statt: €699,--) bei ACR-ALLENDORF-SUPER-STORE
30.07.2014, 00:45 -1.67% KEF V300 um €643,08 (statt: €653,99) bei ACR-ALLENDORF-SUPER-STORE
30.07.2014, 00:45 -8.00% Zenec ZE-NC2051D um €919,08 (statt: €999,--) bei ACR-ALLENDORF-SUPER-STORE
30.07.2014, 00:45 -5.36% Wharfedale Diamond 10.2 Stück (versch. Farben) um €164,68 (statt: €174,--) bei ACR-ALLENDORF-SUPER-STORE
30.07.2014, 00:45 -7.02% KEF T305 um €1654,16 (statt: €1779,--) bei ACR-ALLENDORF-SUPER-STORE
30.07.2014, 00:45 -8.10% Cowon Schutzfolie für S9 (P130090) um €3,63 (statt: €3,95) bei schutzfolien24
30.07.2014, 00:45 -2.30% Campingaz Party Grill R Gasgrill um €48,75 (statt: €49,90) bei gasprofi24 | MeinPaket
30.07.2014, 00:45 -20.16% Campingaz Bleuet Micro Kocher um €21,15 (statt: €26,49) bei gasprofi24 | MeinPaket
30.07.2014, 00:45 -1.28% Lillebi - Schwarzer Wollibo um €5,42 (statt: €5,49) bei BioNaturwelt
30.07.2014, 00:45 -74.96% Martina Gebhardt Rose Tonic Gesichtswasser 100ml um €1,74 (statt: €6,95) bei BioNaturwelt
30.07.2014, 00:45 -2.53% Sante Schaumfestiger Styling Foam 150ml um €7,31 (statt: €7,50) bei BioNaturwelt
30.07.2014, 00:45 -3.18% Sante Haarspray Natural Styling 150ml um €7,31 (statt: €7,55) bei BioNaturwelt
30.07.2014, 00:45 -5.92% Sante Eyebrow Pencil No. 02 brown 1.4g um €7,31 (statt: €7,77) bei BioNaturwelt
30.07.2014, 00:45 -5.06% Sante Eyebrow Pencil No. 01 blonde 1.4g um €7,31 (statt: €7,70) bei BioNaturwelt
30.07.2014, 00:45 -2.53% Sante Kajal Eyeliner No. 08 deep black um €7,31 (statt: €7,50) bei BioNaturwelt
30.07.2014, 00:45 -2.53% Sante Kajal Eyeliner No. 07 anthracite um €7,31 (statt: €7,50) bei BioNaturwelt
30.07.2014, 00:45 -2.53% Sante Kajal Eyeliner No. 06 deep brown um €7,31 (statt: €7,50) bei BioNaturwelt
30.07.2014, 00:45 -8.04% Lavera Trend sensitiv Illuminating Eyeshadow Quattro 02 Lavender Couture 2g um €10,07 (statt: €10,95) bei BioNaturwelt
30.07.2014, 00:45 -8.21% Weleda Iris Erfrischende Pflegemaske 30ml um €1,79 (statt: €1,95) bei BioNaturwelt
30.07.2014, 00:45 -8.00% iriver Astell&Kern AK120 64GB schwarz um €1194,16 (statt: €1298,--) bei electronis.de
30.07.2014, 00:45 -6.75% Samsung Galaxy Grand 2 LTE G7105 schwarz um €257,41 (statt: €276,03) bei electronis.de
30.07.2014, 00:45 -2.24% jarre AeroSystem One by Lalique (versch. Farben) um €781,08 (statt: €799,--) bei electronis.de
30.07.2014, 00:45 -31.21% DrayTek Vigor 2110n um €82,75 (statt: €120,29) bei electronis.de
30.07.2014, 00:45 -1.08% DrayTek Vigor 2920Vn VoIP Router um €239,15 (statt: €241,76) bei electronis.de
30.07.2014, 00:45 -3.66% DrayTek Vigor 2760Vn-B um €176,72 (statt: €183,44) bei electronis.de
30.07.2014, 00:45 -4.84% ASUS A75VJ-TY085H (90NB00D1-M00990) um €734,63 (statt: €771,99) bei electronis.de
30.07.2014, 00:45 -1.93% Fujitsu Esprimo E420 E85+, Core i3-4130, 4GB RAM, 500GB HDD (E0420P7321DE) um €437,86 (statt: €446,48) bei electronis.de
30.07.2014, 00:45 -1.71% Fujitsu Esprimo P420 E85+, Core i3-4130, 4GB RAM, 500GB HDD (P0420P7321DE) um €437,86 (statt: €445,46) bei electronis.de
30.07.2014, 00:45 -5.63% TrekStor Slide 64GB, USB 3.0 (43160) um €45,95 (statt: €48,69) bei electronis.de
30.07.2014, 00:45 -3.09% Apple MacBook Air, 11.6", Core i5-4250U, 4GB RAM, 256GB SSD (MD712D/A) [Mid 2013] um €774,31 (statt: €798,99) bei electronis.de
30.07.2014, 00:45 -1.81% Apple MacBook Pro, 13.3", Core i5-3210M, 4GB RAM, 500GB (MD101D/A) [Mid 2012] um €980,94 (statt: €998,99) bei electronis.de
30.07.2014, 00:45 -8.58% Blackberry ACC-37954-201 Ladestation um €6,39 (statt: €6,99) bei electronis.de
30.07.2014, 00:45 -8.00% Quantum LTO-4 HH, LTO-Ultrium 4, 800/1.6TB, SCSI (TC-L42AX-BR-B) um €1011,95 (statt: €1099,95) bei electronis.de
30.07.2014, 00:45 -2.74% Pure Sensia weiß um €263,06 (statt: €270,48) bei electronis.de
30.07.2014, 00:45 -5.71% Ruark Audio R4i weiß um €734,53 (statt: €779,--) bei electronis.de
30.07.2014, 00:45 -8.00% Ruark Audio R2i schwarz um €275,95 (statt: €299,95) bei electronis.de
30.07.2014, 00:45 -2.96% Vita Audio R1 (versch. Farben) um €193,10 (statt: €198,99) bei electronis.de
30.07.2014, 00:45 -7.56% Ruark Audio R1 MKII walnuss um €183,95 (statt: €198,99) bei electronis.de
30.07.2014, 00:45 -17.83% Diverse HDMI/DVI Kabel 20m um €22,90 (statt: €27,87) bei hdd-tech24.de Shop
30.07.2014, 00:45 -8.23% Diverse Netzteile 480W/500W ATX 2.0/2.2/2.3 um €16,51 (statt: €17,99) bei hdd-tech24.de Shop
30.07.2014, 00:45 -16.14% Diverse Netzteile 800W/850W ATX 2.0/2.2/2.3 um €34,86 (statt: €41,57) bei hdd-tech24.de Shop
30.07.2014, 00:45 -20.26% Diverse Netzteile 620W/650W ATX 2.0/2.2/2.3 um €18,30 (statt: €22,95) bei hdd-tech24.de Shop
30.07.2014, 00:45 -3.64% Captiva externe Festplatte 2.5" 500GB, USB 3.0 um €48,66 (statt: €50,50) bei hdd-tech24.de Shop
30.07.2014, 00:45 -10.42% Captiva externe Festplatte 2.5" 640GB, USB 2.0 um €61,54 (statt: €68,70) bei hdd-tech24.de Shop
30.07.2014, 00:45 -37.22% Kingston DataTraveler Generation 3 (G3) 8GB, USB 2.0 (DTIG3/8GB) um €6,90 (statt: €10,99) bei hdd-tech24.de Shop
30.07.2014, 00:45 -9.01% Diverse DIMM 512MB, DDR-400, CL3 um €8,18 (statt: €8,99) bei hdd-tech24.de Shop
30.07.2014, 00:45 -13.39% Diverse SO-DIMM 4GB, DDR2-800, CL6 um €60,62 (statt: €69,99) bei hdd-tech24.de Shop
30.07.2014, 00:45 -3.17% Diverse SO-DIMM 2GB, DDR2-667, CL5 um €19,22 (statt: €19,85) bei hdd-tech24.de Shop
30.07.2014, 00:45 -5.82% Diverse DIMM 2GB, DDR2-800, CL6 um €15,54 (statt: €16,50) bei hdd-tech24.de Shop
30.07.2014, 00:45 -13.62% Diverse DIMM 2GB, DDR2-667, CL5 um €15,54 (statt: €17,99) bei hdd-tech24.de Shop
30.07.2014, 00:45 -37.48% Diverse externe Festplatten 2TB, 3.5", USB 2.0 um €81,78 (statt: €130,81) bei hdd-tech24.de Shop
30.07.2014, 00:45 -17.79% Captiva ECO externe Festplatte 3.5" 2TB, USB 3.0 um €82,70 (statt: €100,59) bei hdd-tech24.de Shop
30.07.2014, 00:45 -8.91% Diverse DIMM 1GB, DDR-400, CL3 um €9,10 (statt: €9,99) bei hdd-tech24.de Shop
30.07.2014, 00:45 -34.13% Captiva ECO externe Festplatte 3.5" 1TB, USB 3.0 um €68,90 (statt: €104,60) bei hdd-tech24.de Shop
30.07.2014, 00:45 -4.57% Casio G-Shock GAC-100-8AER um €109,65 (statt: €114,90) bei Uhren Versand Herne
30.07.2014, 00:45 -1.13% Casio Wave Ceptor WV-58DE-1AVEF um €54,28 (statt: €54,90) bei Uhren Versand Herne
30.07.2014, 00:45 -8.00% Bosch Aerotwin A096S (3 397 007 096) um €20,23 (statt: €21,99) bei allpart24.de
30.07.2014, 00:45 -5.30% Bosch Aerotwin A974S (3 397 118 974) um €19,31 (statt: €20,39) bei allpart24.de
30.07.2014, 00:45 -42.63% Miradent Protho Brush De Luxe Prothesenbürste pink um €1,83 (statt: €3,19) bei Sand 12 GmbH Shop
30.07.2014, 00:45 -8.04% Miradent Protho Brush De Luxe Prothesenbürste blau um €1,83 (statt: €1,99) bei Sand 12 GmbH Shop
30.07.2014, 00:45 -2.69% LG Electronics G2 Mini LTE D620 mit Branding um €242,30 (statt: €249,--) bei easytronics.de
30.07.2014, 00:45 -3.75% Phicomm i813 schwarz um €172,19 (statt: €178,90) bei easytronics.de
30.07.2014, 00:45 -2.13% Wiko Bloom violett um €126,24 (statt: €128,99) bei easytronics.de
30.07.2014, 00:45 -2.13% Wiko Bloom gelb um €126,24 (statt: €128,99) bei easytronics.de
30.07.2014, 00:45 -2.13% Wiko Bloom rosa um €126,24 (statt: €128,99) bei easytronics.de
30.07.2014, 00:45 -2.13% Wiko Bloom türkis um €126,24 (statt: €128,99) bei easytronics.de
30.07.2014, 00:45 -2.13% Wiko Bloom schwarz um €126,24 (statt: €128,99) bei easytronics.de
30.07.2014, 00:45 -2.13% Wiko Bloom weiß um €126,24 (statt: €128,99) bei easytronics.de
30.07.2014, 00:45 -2.14% Wiko Wax schwarz um €193,77 (statt: €198,--) bei easytronics.de
30.07.2014, 00:45 -2.14% Wiko Darkmoon schwarz um €164,29 (statt: €167,88) bei easytronics.de
30.07.2014, 00:45 -2.08% Huawei Ascend Y300 violett um €87,05 (statt: €88,90) bei easytronics.de
30.07.2014, 00:45 -2.78% Sony BDV-E2100 schwarz um €203,09 (statt: €208,90) bei easytronics.de
30.07.2014, 00:45 -1.48% Acer Liquid Z5 Duo weiß um €145,57 (statt: €147,76) bei easytronics.de
30.07.2014, 00:45 -2.13% HP Pavilion 500-307ng (G9A47EA) um €472,65 (statt: €482,95) bei easytronics.de
30.07.2014, 00:45 -2.13% HP Pavilion 500-305ng (G9A33EA) um €472,65 (statt: €482,95) bei easytronics.de
30.07.2014, 00:45 -2.13% HP Pavilion 500-304ng (G9A32EA) um €387,51 (statt: €395,95) bei easytronics.de
30.07.2014, 00:45 -2.13% HP Pavilion 17-f052ng (J1R33EA) um €472,65 (statt: €482,95) bei easytronics.de
30.07.2014, 00:45 -2.13% Lenovo IdeaPad Yoga 2 13, Core i3-4010U, 8GB RAM, 500GB, orange (59424686) um €719,34 (statt: €735,--) bei easytronics.de
30.07.2014, 00:45 -4.25% Lenovo IdeaPad Yoga 2 13, Core i3-4010U, 8GB RAM, 500GB, schwarz (59424691) um €696,07 (statt: €726,95) bei easytronics.de
30.07.2014, 00:45 -2.13% Lenovo IdeaPad Y50-70, Core i7-4710HQ, 16GB RAM, 1TB (59424201) um €1152,87 (statt: €1177,95) bei easytronics.de
30.07.2014, 00:45 -2.13% Lenovo G50-70, Pentium 3558U, 4GB RAM, 500GB, R5 M230, Windows 8.1 (59424214) um €370,92 (statt: €379,--) bei easytronics.de
30.07.2014, 00:45 -2.13% Lenovo Z50-70, Core i5-4210U, 4GB RAM, 500GB HDD (59424259) um €553,89 (statt: €565,95) bei easytronics.de
30.07.2014, 00:45 -2.13% Lenovo IdeaPad Z510, Core i7-4702MQ, 8GB RAM, 1TB SSHD (59424211) um €799,55 (statt: €816,95) bei easytronics.de
30.07.2014, 00:45 -2.13% Lenovo IdeaPad Flex 2 15, Core i3-4010U, 4GB RAM, 500GB, schwarz (59421174) um €461,89 (statt: €471,95) bei easytronics.de
30.07.2014, 00:45 -2.13% Lenovo IdeaPad Z710, Core i5-4210M, 8GB RAM, 1TB SSHD, Windows 8.1 (59420193) um €728,10 (statt: €743,95) bei easytronics.de
30.07.2014, 00:45 -5.04% Gibbon Surfer Slackline um €97,42 (statt: €102,59) bei Kletterwandshop | MeinPaket
30.07.2014, 00:45 -6.87% Lenovo IdeaPad Yoga 2 Pro, Core i5-4210U, 8GB RAM, 256GB SSD, silber (59419081) um €1096,98 (statt: €1177,90) bei easytronics.de
30.07.2014, 00:45 -1.63% Lenovo IdeaPad Yoga 2 Pro, Core i5-4210U, 8GB RAM, 256GB SSD, orange (59418488) um €1152,72 (statt: €1171,83) bei easytronics.de
30.07.2014, 00:45 -2.13% Lenovo IdeaPad Flex 2 14D, A6-6310, 4GB RAM, 500GB, schwarz (59415634) um €415,89 (statt: €424,95) bei easytronics.de
30.07.2014, 00:45 -2.13% Lenovo IdeaCentre K450, Core i7-4770, 16GB RAM, 2TB, Radeon R9 255 (57324400) um €866,23 (statt: €885,08) bei easytronics.de
30.07.2014, 00:45 -1.69% Lenovo IdeaPad U330p, Core i5-4200U, 8GB RAM, 500GB (59405562) um €638,06 (statt: €649,--) bei easytronics.de
30.07.2014, 00:44 -8.02% Netzwerkkabel RJ-45 25m ungeschirmt grün (bis Cat5e) um €3,67 (statt: €3,99) bei Web-Bazar
30.07.2014, 00:44 -14.57% Coffee Maxx Kaffeecenter 7in1 (01327) um €59,79 (statt: €69,99) bei Web-Bazar
30.07.2014, 00:44 -8.00% Weider Tribulus Terrestris Kapseln 240 Stück um €36,79 (statt: €39,99) bei Fitness Treff
30.07.2014, 00:44 -8.02% Weider Tribulus Terrestris Kapseln 120 Stück um €21,33 (statt: €23,19) bei Fitness Treff
30.07.2014, 00:44 -8.64% Weider Premium Whey Stracciatella 1kg (2x 500g) um €30,15 (statt: €33,--) bei Fitness Treff
30.07.2014, 00:44 -8.00% Weider Maximum Zell Volume mit Krea-Genic Orange 2kg um €45,99 (statt: €49,99) bei Fitness Treff
30.07.2014, 00:44 -8.01% Weider Lecithin 500g um €19,86 (statt: €21,59) bei Fitness Treff
30.07.2014, 00:44 -8.00% Weider Double Pro Citrus-Kokos 200g (2x 100g) um €5,98 (statt: €6,50) bei Fitness Treff
30.07.2014, 00:44 -2.18% Weider Gold Whey Himbeere-Joghurt 500g um €14,35 (statt: €14,67) bei Fitness Treff
30.07.2014, 00:44 -2.18% Weider Gold Whey Schoko-Pfefferminze 500g um €14,35 (statt: €14,67) bei Fitness Treff
30.07.2014, 00:44 -8.01% Weider Gold Whey Bananensplit 500g um €14,35 (statt: €15,60) bei Fitness Treff
30.07.2014, 00:44 -8.04% Weider BodyShaper Classic Pack weiße Schokolade 840g (24x 35g) um €18,54 (statt: €20,16) bei Fitness Treff
30.07.2014, 00:44 -8.04% Weider BodyShaper Classic Pack Milchschokolade 840g (24x 35g) um €18,54 (statt: €20,16) bei Fitness Treff
30.07.2014, 00:44 -8.00% Weider Beta Alanine 300g um €25,75 (statt: €27,99) bei Fitness Treff
30.07.2014, 00:44 -8.01% Weider AAKG 9.400 Ampullen 250ml (10x 25ml) um €19,86 (statt: €21,59) bei Fitness Treff
30.07.2014, 00:44 -45.15% Weider 32% Whey-Wafer Riegel Haselnuss 35g um €1,64 (statt: €2,99) bei Fitness Treff
30.07.2014, 00:44 -7.89% Weider 32% Protein Bar Schokolade 1.44kg (24x 60g) um €35,15 (statt: €38,16) bei Fitness Treff
30.07.2014, 00:44 -7.26% Weider 32% Protein Bar Kokos 1.44kg (24x 60g) um €35,15 (statt: €37,90) bei Fitness Treff
30.07.2014, 00:44 -7.26% Weider 32% Protein Bar Haselnuss 1.44kg (24x 60g) um €35,15 (statt: €37,90) bei Fitness Treff
30.07.2014, 00:44 -7.26% Weider 32% Protein Bar Erdbeere 1.44kg (24x 60g) um €35,15 (statt: €37,90) bei Fitness Treff
30.07.2014, 00:44 -7.26% Weider 32% Protein Bar Banane 1.44kg (24x 60g) um €35,15 (statt: €37,90) bei Fitness Treff
30.07.2014, 00:44 -8.01% Weider 32% Double Bar Schokolade-Orange 1.44kg (24x 60g) um €38,68 (statt: €42,05) bei Fitness Treff
30.07.2014, 00:44 -5.65% Peak Protein 85 Vanille 1kg um €15,54 (statt: €16,47) bei Fitness Treff
30.07.2014, 00:44 -5.65% Peak Protein 85 Schokolade 1kg um €15,54 (statt: €16,47) bei Fitness Treff
30.07.2014, 00:44 -5.65% Peak Protein 85 Erdbeere 1kg um €15,54 (statt: €16,47) bei Fitness Treff
30.07.2014, 00:44 -5.65% Peak Protein 85 Banane 1kg um €15,54 (statt: €16,47) bei Fitness Treff
30.07.2014, 00:44 -3.72% Peak Micellar Casein Schokolade 1kg um €23,82 (statt: €24,74) bei Fitness Treff
30.07.2014, 00:44 -3.72% Peak Micellar Casein Erdbeere 1kg um €23,82 (statt: €24,74) bei Fitness Treff
30.07.2014, 00:44 -3.72% Peak Micellar Casein Cookies & Cream 1kg um €23,82 (statt: €24,74) bei Fitness Treff
30.07.2014, 00:44 -2.78% Olimp Pure Whey Isolate 95 Vanille 600g um €20,28 (statt: €20,86) bei Fitness Treff
30.07.2014, 00:44 -2.78% Olimp Pure Whey Isolate 95 Schokolade 600g um €20,28 (statt: €20,86) bei Fitness Treff
30.07.2014, 00:44 -2.78% Olimp Pure Whey Isolate 95 Erdbeere 600g um €20,28 (statt: €20,86) bei Fitness Treff
30.07.2014, 00:44 -3.38% Olimp Pure Whey Isolate 95 Vanille 2.2kg um €71,19 (statt: €73,68) bei Fitness Treff
30.07.2014, 00:44 -3.38% Olimp Pure Whey Isolate 95 Schokolade 2.2kg um €71,19 (statt: €73,68) bei Fitness Treff
30.07.2014, 00:44 -3.38% Olimp Pure Whey Isolate 95 Erdbeere 2.2kg um €71,19 (statt: €73,68) bei Fitness Treff
30.07.2014, 00:44 -5.27% Olimp L-Glutamine Mega Kapseln, 120 Stück um €15,64 (statt: €16,51) bei Fitness Treff
30.07.2014, 00:44 -5.72% Olimp Gainerator Schokolade 3.2kg um €41,39 (statt: €43,90) bei Fitness Treff
30.07.2014, 00:44 -5.76% Olimp Anabolic Amino 5500 Mega Kapseln, 400 Stück um €30,26 (statt: €32,11) bei Fitness Treff
30.07.2014, 00:44 -1.40% Best Body Nutrition Mammut Formel 90 Protein Vanille 3kg um €33,11 (statt: €33,58) bei Fitness Treff
30.07.2014, 00:44 -1.40% Best Body Nutrition Mammut Formel 90 Protein Schokolade 3kg um €33,11 (statt: €33,58) bei Fitness Treff
30.07.2014, 00:44 -1.40% Best Body Nutrition Mammut Formel 90 Protein Erdbeere 3kg um €33,11 (statt: €33,58) bei Fitness Treff
30.07.2014, 00:44 -8.02% Body Attack Tribulus Extreme Kapseln 80 Stück um €21,11 (statt: €22,95) bei Fitness Treff
30.07.2014, 00:44 -8.01% Body Attack Power Weight Gainer Vanille 4.75kg um €45,95 (statt: €49,95) bei Fitness Treff
30.07.2014, 00:44 -7.92% Body Attack Power Weight Gainer Schoko 4.75kg um €45,95 (statt: €49,90) bei Fitness Treff
30.07.2014, 00:44 -8.01% Body Attack Power Weight Gainer Erdbeere 4.75kg um €45,95 (statt: €49,95) bei Fitness Treff
30.07.2014, 00:44 -8.01% Body Attack Power Weight Gainer Cookies'n Cream 4.75kg um €45,95 (statt: €49,95) bei Fitness Treff
30.07.2014, 00:44 -8.01% Body Attack Power Weight Gainer Chocolate-Nut 4.75kg um €45,95 (statt: €49,95) bei Fitness Treff
30.07.2014, 00:44 -8.01% Body Attack Power Weight Gainer Banane 4.75kg um €45,95 (statt: €49,95) bei Fitness Treff
30.07.2014, 00:44 -6.22% Body Attack Power Weight Gainer Vanille 1.5kg um €22,03 (statt: €23,49) bei Fitness Treff
30.07.2014, 00:44 -6.22% Body Attack Power Weight Gainer Schoko 1.5kg um €22,03 (statt: €23,49) bei Fitness Treff
30.07.2014, 00:44 -5.85% Body Attack Power Weight Gainer Erdbeere 1.5kg um €22,03 (statt: €23,40) bei Fitness Treff
30.07.2014, 00:44 -6.22% Body Attack Power Weight Gainer Cookies'n Cream 1.5kg um €22,03 (statt: €23,49) bei Fitness Treff
30.07.2014, 00:44 -8.02% Body Attack Power Weight Gainer Chocolate-Nut 1.5kg um €22,03 (statt: €23,95) bei Fitness Treff
30.07.2014, 00:44 -8.19% Body Attack Power Protein 90 Vanille 1kg um €26,58 (statt: €28,95) bei Fitness Treff
30.07.2014, 00:44 -8.19% Body Attack Power Protein 90 Lemon-Quark 1kg um €26,58 (statt: €28,95) bei Fitness Treff
30.07.2014, 00:44 -8.19% Body Attack Power Protein 90 Kirsch-Joghurt 1kg um €26,58 (statt: €28,95) bei Fitness Treff
30.07.2014, 00:44 -8.19% Body Attack Power Protein 90 Haselnuss 1kg um €26,58 (statt: €28,95) bei Fitness Treff
30.07.2014, 00:44 -4.90% Body Attack Power Protein 90 Erdbeer 1kg um €26,58 (statt: €27,95) bei Fitness Treff
30.07.2014, 00:44 -8.19% Body Attack Power Protein 90 Cocos 1kg um €26,58 (statt: €28,95) bei Fitness Treff
30.07.2014, 00:44 -2.42% Body Attack Power Protein 90 Banane-Quark 1kg um €26,58 (statt: €27,24) bei Fitness Treff
30.07.2014, 00:44 -2.42% Body Attack Power Protein 90 Apricose-Maracuja 1kg um €26,58 (statt: €27,24) bei Fitness Treff
30.07.2014, 00:44 -2.71% Body Attack Extreme Whey Deluxe Vanilla-Cinnamon-Cream 2.3kg um €50,59 (statt: €52,--) bei Fitness Treff
30.07.2014, 00:44 -2.71% Body Attack Extreme Whey Deluxe Vanilla-Cream 2.3kg um €50,59 (statt: €52,--) bei Fitness Treff
30.07.2014, 00:44 -7.17% Body Attack Extreme Whey Deluxe Chocolate-Coconut-Cream 2.3kg um €50,59 (statt: €54,50) bei Fitness Treff
30.07.2014, 00:44 -7.93% Body Attack Extreme Whey Deluxe Nut Nougat-Cream 2.3kg um €50,59 (statt: €54,95) bei Fitness Treff
30.07.2014, 00:44 -7.93% Body Attack Extreme ISO Whey Professional Vanilla 1.8kg um €55,15 (statt: €59,90) bei Fitness Treff
30.07.2014, 00:44 -3.25% Body Attack Extreme ISO Whey Professional Chocolate 1.8kg um €55,15 (statt: €57,--) bei Fitness Treff
30.07.2014, 00:44 -6.45% Body Attack Extreme ISO Whey Professional Strawberry 1.8kg um €55,15 (statt: €58,95) bei Fitness Treff
30.07.2014, 00:44 -8.02% Body Attack Pure Creatine Kapseln 240 Stück um €17,43 (statt: €18,95) bei Fitness Treff
30.07.2014, 00:44 -5.96% Body Attack Cell Reloader Lemon 2kg um €42,27 (statt: €44,95) bei Fitness Treff
30.07.2014, 00:44 -2.77% Body Attack Casein Protein Chocolate-Cream 900g um €26,63 (statt: €27,39) bei Fitness Treff
30.07.2014, 00:44 -2.59% Body Attack Carb Control Proteinriegel Crispy Caramel 1.5kg (15x 100g) um €34,95 (statt: €35,88) bei Fitness Treff
30.07.2014, 00:44 -2.59% Body Attack Carb Control Proteinriegel Blueberry Yoghurt 1.5kg (15x 100g) um €34,95 (statt: €35,88) bei Fitness Treff
30.07.2014, 00:44 -3.13% Body Attack 3-XT Protein Vanille 900g um €26,63 (statt: €27,49) bei Fitness Treff
30.07.2014, 00:44 -3.13% Body Attack 3-XT Protein Erdbeer 900g um €26,63 (statt: €27,49) bei Fitness Treff
30.07.2014, 00:44 -3.13% Body Attack 3-XT Protein Schoko 900g um €26,63 (statt: €27,49) bei Fitness Treff
30.07.2014, 00:44 -8.21% Best Body Nutrition Premium Pro Stracciatella 4kg (8x500g) um €72,58 (statt: €79,07) bei Fitness Treff
30.07.2014, 00:44 -8.21% Best Body Nutrition Premium Pro Sahne Nuss 4kg (8x500g) um €72,58 (statt: €79,07) bei Fitness Treff
30.07.2014, 00:44 -8.21% Best Body Nutrition Premium Pro Pistazie 4kg (8x500g) um €72,58 (statt: €79,07) bei Fitness Treff
30.07.2014, 00:44 -8.21% Best Body Nutrition Premium Pro Milchschokolade 4kg (8x500g) um €72,58 (statt: €79,07) bei Fitness Treff
30.07.2014, 00:44 -8.21% Best Body Nutrition Premium Pro French Vanilla 4kg (8x500g) um €72,58 (statt: €79,07) bei Fitness Treff
30.07.2014, 00:44 -8.21% Best Body Nutrition Premium Pro Erdbeere Sahne 4kg (8x500g) um €72,58 (statt: €79,07) bei Fitness Treff
30.07.2014, 00:44 -8.21% Best Body Nutrition Premium Pro Kokos 4kg (8x500g) um €72,58 (statt: €79,07) bei Fitness Treff
30.07.2014, 00:44 -8.21% Best Body Nutrition Premium Pro Banane 4kg (8x500g) um €72,58 (statt: €79,07) bei Fitness Treff
30.07.2014, 00:44 -4.40% Best Body Nutrition Premium Pro Stracciatella 750g um €21,06 (statt: €22,03) bei Fitness Treff
30.07.2014, 00:44 -4.40% Best Body Nutrition Premium Pro Sahne Nuss 750g um €21,06 (statt: €22,03) bei Fitness Treff
30.07.2014, 00:44 -4.40% Best Body Nutrition Premium Pro Pistazie 750g um €21,06 (statt: €22,03) bei Fitness Treff
30.07.2014, 00:44 -4.40% Best Body Nutrition Premium Pro Milchschokolade 750g um €21,06 (statt: €22,03) bei Fitness Treff
30.07.2014, 00:44 -4.40% Best Body Nutrition Premium Pro French Vanilla 750g um €21,06 (statt: €22,03) bei Fitness Treff
30.07.2014, 00:44 -4.40% Best Body Nutrition Premium Pro Erdbeere Sahne 750g um €21,06 (statt: €22,03) bei Fitness Treff
30.07.2014, 00:44 -4.40% Best Body Nutrition Premium Pro Kokos 750g um €21,06 (statt: €22,03) bei Fitness Treff
30.07.2014, 00:44 -4.40% Best Body Nutrition Premium Pro Brombeere Joghurt 750g um €21,06 (statt: €22,03) bei Fitness Treff
30.07.2014, 00:44 -4.40% Best Body Nutrition Premium Pro Banane Kirsch 750g um €21,06 (statt: €22,03) bei Fitness Treff
30.07.2014, 00:44 -4.40% Best Body Nutrition Premium Pro Banane 750g um €21,06 (statt: €22,03) bei Fitness Treff
30.07.2014, 00:44 -4.57% Best Body Nutrition Premium Pro Stracciatella 2kg (4x500g) um €39,46 (statt: €41,35) bei Fitness Treff
30.07.2014, 00:44 -4.57% Best Body Nutrition Premium Pro Sahne Nuss 2kg (4x500g) um €39,46 (statt: €41,35) bei Fitness Treff
30.07.2014, 00:44 -4.57% Best Body Nutrition Premium Pro Pistazie 2kg (4x500g) um €39,46 (statt: €41,35) bei Fitness Treff
30.07.2014, 00:44 -4.57% Best Body Nutrition Premium Pro Milchschokolade 2kg (4x500g) um €39,46 (statt: €41,35) bei Fitness Treff
30.07.2014, 00:44 -4.57% Best Body Nutrition Premium Pro French Vanilla 2kg (4x500g) um €39,46 (statt: €41,35) bei Fitness Treff
30.07.2014, 00:44 -9.63% Best Body Nutrition MCT Oil 5000 500ml um €9,10 (statt: €10,07) bei Fitness Treff
30.07.2014, 00:44 -3.92% Best Body Nutrition Hardcore Egg Protein Vanille 1.9kg um €44,15 (statt: €45,95) bei Fitness Treff
30.07.2014, 00:44 -3.92% Best Body Nutrition Hardcore Egg Protein Schokolade 1.9kg um €44,15 (statt: €45,95) bei Fitness Treff
30.07.2014, 00:44 -8.43% All Stars Zelltech Fusion Rote Beeren 2kg um €39,55 (statt: €43,19) bei Fitness Treff
30.07.2014, 00:44 -7.98% All Stars Zelltech Fusion Orange 2kg um €39,55 (statt: €42,98) bei Fitness Treff
30.07.2014, 00:44 -9.65% All Stars Pro-Plex Riegel Kokosnuss 1.12kg (32x35g) um €30,35 (statt: €33,59) bei Fitness Treff
30.07.2014, 00:44 -2.98% All Stars CLA 600 Kapseln 100 Stück um €16,91 (statt: €17,43) bei Fitness Treff
30.07.2014, 00:44 -8.00% Salewa Sierra Leone Ultra Kuppelzelt um €302,68 (statt: €329,--) bei Kuhnshop
30.07.2014, 00:44 -7.85% MSR Backcountry Barn Gruppenzelt um €606,28 (statt: €657,95) bei Kuhnshop
30.07.2014, 00:44 -8.00% MSR Asgard Geodätzelt um €440,68 (statt: €479,--) bei Kuhnshop
30.07.2014, 00:44 -8.01% Eureka Spitfire Duo Tunnelzelt um €100,18 (statt: €108,90) bei Kuhnshop
30.07.2014, 00:44 -2.55% Eureka BigHorn 2XDi Tunnelzelt um €247,48 (statt: €253,95) bei Kuhnshop
30.07.2014, 00:44 -7.99% Eureka Sphinx 3+ BTC Tunnelzelt um €459,08 (statt: €498,95) bei Kuhnshop
30.07.2014, 00:44 -6.08% Eureka Wabakimi 3 Kuppelzelt um €183,08 (statt: €194,94) bei Kuhnshop
30.07.2014, 00:44 -8.00% Eureka Spitfire Solo SUL Tunnelzelt um €82,75 (statt: €89,95) bei Kuhnshop
30.07.2014, 00:44 -8.00% Nomad Lodge 4 Air Tunnelzelt um €1057,08 (statt: €1149,--) bei Kuhnshop
30.07.2014, 00:44 -8.00% Nomad Lodge 5 Air Tunnelzelt um €1287,08 (statt: €1399,--) bei Kuhnshop
30.07.2014, 00:44 -8.00% Nomad Blazer Outback Deckenschlafsack um €78,15 (statt: €84,95) bei Kuhnshop
30.07.2014, 00:44 -8.00% Marmot Limestone 6P Familienzelt um €422,28 (statt: €459,--) bei Kuhnshop
30.07.2014, 00:44 -8.00% McKinley Kluane 2 Kuppelzelt um €87,35 (statt: €94,95) bei Kuhnshop
30.07.2014, 00:44 -8.00% McKinley Escape 2 Tunnelzelt um €164,68 (statt: €179,--) bei Kuhnshop
30.07.2014, 00:44 -2.52% McKinley Arium 1 Geodätzelt um €81,88 (statt: €84,--) bei Kuhnshop
30.07.2014, 00:44 -8.01% McKinley Midnight Sun 24 RC um €36,75 (statt: €39,95) bei Kuhnshop
30.07.2014, 00:44 -8.01% McKinley Kodiak Ultra Light Mumienschlafsack um €73,55 (statt: €79,95) bei Kuhnshop
30.07.2014, 00:44 -8.00% McKinley Kodiak 4 Mumienschlafsack um €142,55 (statt: €154,95) bei Kuhnshop
30.07.2014, 00:44 -1.00% McKinley Kos 4 Kuppelzelt um €246,51 (statt: €249,--) bei Kuhnshop
30.07.2014, 00:44 -8.00% Fjällräven Akka 4 Tunnelzelt um €643,08 (statt: €699,--) bei Kuhnshop
30.07.2014, 00:44 -8.00% Fjällräven Akka 3 Tunnelzelt um €532,68 (statt: €579,--) bei Kuhnshop
30.07.2014, 00:44 -8.00% Fjällräven Akka 2 Tunnelzelt um €486,68 (statt: €529,--) bei Kuhnshop
30.07.2014, 00:44 -8.00% Fjällräven Akka Endurance 4 Tunnelzelt um €735,08 (statt: €799,--) bei Kuhnshop
30.07.2014, 00:44 -7.34% Robens Dreamwork Deckenschlafsack um €128,75 (statt: €138,95) bei Kuhnshop
30.07.2014, 00:44 -7.53% Robens Caucasus 900 Daunenschlafsack um €179,35 (statt: €193,95) bei Kuhnshop
30.07.2014, 00:44 -3.38% Outwell Cave schwarz Deckenschlafsack (Junior) um €10,58 (statt: €10,95) bei Kuhnshop
30.07.2014, 00:44 -3.38% Outwell Cave blau Deckenschlafsack (Junior) um €10,58 (statt: €10,95) bei Kuhnshop
30.07.2014, 00:44 -7.83% Outwell Campion Deckenschlafsack um €22,95 (statt: €24,90) bei Kuhnshop
30.07.2014, 00:44 -7.79% Outwell Campion Lite Deckenschlafsack um €18,35 (statt: €19,90) bei Kuhnshop
30.07.2014, 00:44 -8.01% Outwell Cube Double Deckenschlafsack um €64,35 (statt: €69,95) bei Kuhnshop
30.07.2014, 00:44 -8.00% Outwell County Deckenschlafsack um €82,75 (statt: €89,95) bei Kuhnshop
30.07.2014, 00:44 -1.41% Robens Twilight Dreamer Tunnelzelt um €340,35 (statt: €345,23) bei Kuhnshop
30.07.2014, 00:44 -2.83% Easy Camp Galaxy 600 Tunnelzelt um €173,88 (statt: €178,95) bei Kuhnshop
30.07.2014, 00:44 -8.00% Easy Camp Galaxy 400 Tunnelzelt um €146,28 (statt: €159,--) bei Kuhnshop
30.07.2014, 00:44 -2.02% Easy Camp Eclipse 200 Kuppelzelt um €68,54 (statt: €69,95) bei Kuhnshop
30.07.2014, 00:44 -1.56% Easy Camp Quasar 300 Kuppelzelt um €63,94 (statt: €64,95) bei Kuhnshop
30.07.2014, 00:44 -3.39% Easy Camp Meteor 200 Kuppelzelt um €50,14 (statt: €51,90) bei Kuhnshop
30.07.2014, 00:44 -8.00% Outwell Rockwell 5 Familienzelt um €275,08 (statt: €299,--) bei Kuhnshop
30.07.2014, 00:44 -8.00% Outwell Whitecove 6 Familienzelt um €422,28 (statt: €459,--) bei Kuhnshop
30.07.2014, 00:44 -4.42% Outwell Amarillo 4 Familienzelt um €394,68 (statt: €412,95) bei Kuhnshop
30.07.2014, 00:44 -8.00% Outwell Amarillo 6 Familienzelt um €439,76 (statt: €478,--) bei Kuhnshop
30.07.2014, 00:44 -8.00% Outwell Montana 4 Familienzelt um €413,08 (statt: €449,--) bei Kuhnshop
30.07.2014, 00:44 -7.25% Outwell Newgate 5 Familienzelt um €795,80 (statt: €858,--) bei Kuhnshop
30.07.2014, 00:44 -8.00% Outwell Kensington 4 Familienzelt um €919,08 (statt: €999,--) bei Kuhnshop
30.07.2014, 00:44 -8.00% Outwell Kensington 6 Familienzelt um €1185,88 (statt: €1289,--) bei Kuhnshop
30.07.2014, 00:44 -8.00% Outwell Harrier XL Familienzelt um €1608,16 (statt: €1748,--) bei Kuhnshop
30.07.2014, 00:44 -8.00% Easy Camp Comic Cocktail Deckenschlafsack um €12,42 (statt: €13,50) bei Kuhnshop
30.07.2014, 00:44 -6.98% Robens Lite 500 Mumienschlafsack um €110,35 (statt: €118,63) bei Kuhnshop
30.07.2014, 00:44 -8.01% Outwell ECOcool 24l Kühlbox, blau um €50,55 (statt: €54,95) bei Kuhnshop
30.07.2014, 00:44 -8.01% Outwell Cushy 2300 Mumienschlafsack um €32,15 (statt: €34,95) bei Kuhnshop
30.07.2014, 00:44 -4.89% Outwell Wohnraum Teppich für das Biscayne 5 Familienzelt um €101,15 (statt: €106,35) bei Kuhnshop
30.07.2014, 00:44 -8.01% Outwell Wohnraum Teppich für das Wolf Lake 7 Familienzelt um €73,55 (statt: €79,95) bei Kuhnshop
30.07.2014, 00:44 -5.99% Outwell Zeltunterlage für das Bear Lake 4 Familienzelt um €45,08 (statt: €47,95) bei Kuhnshop
30.07.2014, 00:44 -7.28% Outwell Biscayne 6 Familienzelt um €1075,48 (statt: €1159,95) bei Kuhnshop
30.07.2014, 00:44 -8.00% Outwell Bahia 5 Familienzelt um €1103,08 (statt: €1199,--) bei Kuhnshop
30.07.2014, 00:44 -7.42% Outwell Bahia 7 Familienzelt um €1461,88 (statt: €1579,--) bei Kuhnshop
30.07.2014, 00:44 -8.00% Outwell Trout Lake 6 Familienzelt um €919,08 (statt: €999,--) bei Kuhnshop
30.07.2014, 00:44 -2.53% Outwell Wolf Lake 5 Familienzelt um €1149,08 (statt: €1178,95) bei Kuhnshop
30.07.2014, 00:44 -8.00% Outwell Concorde M Familienzelt um €1001,88 (statt: €1089,--) bei Kuhnshop
30.07.2014, 00:44 -8.00% Outwell Concorde L Familienzelt um €1287,08 (statt: €1399,--) bei Kuhnshop
30.07.2014, 00:44 -8.01% Outwell Coast Junior violett Mumienschlafsack (Junior) um €27,55 (statt: €29,95) bei Kuhnshop
30.07.2014, 00:44 -3.64% Outwell Contour Double Deckenschlafsack um €87,35 (statt: €90,65) bei Kuhnshop
30.07.2014, 00:44 -8.01% Outwell Contour 1900 Deckenschlafsack um €41,35 (statt: €44,95) bei Kuhnshop
30.07.2014, 00:44 -8.00% Outwell Yellowstone Falls Familienzelt um €1287,08 (statt: €1399,--) bei Kuhnshop
30.07.2014, 00:44 -8.00% Outwell Niagara Falls Familienzelt um €1558,43 (statt: €1693,95) bei Kuhnshop
30.07.2014, 00:44 -8.00% Robens Lite 700 Mumienschlafsack um €137,95 (statt: €149,95) bei Kuhnshop
30.07.2014, 00:44 -8.00% Robens Mythos Solo Kuppelzelt um €229,08 (statt: €249,--) bei Kuhnshop
30.07.2014, 00:44 -8.01% Outwell Zeltunterlage für das Lanai Reef Familienzelt um €29,39 (statt: €31,95) bei Kuhnshop
30.07.2014, 00:44 -7.27% Outwell 35l Thermoelektro-Kühlbox um €110,35 (statt: €119,--) bei Kuhnshop
30.07.2014, 00:44 -8.00% Nordisk Faxe 4 Firstzelt um €459,08 (statt: €499,--) bei Kuhnshop
30.07.2014, 00:44 -5.56% Nordisk Halland 2 PU Tunnelzelt um €179,35 (statt: €189,90) bei Kuhnshop
30.07.2014, 00:44 -4.16% Nordisk Reisa 4 PU Familienzelt um €459,08 (statt: €479,--) bei Kuhnshop
30.07.2014, 00:44 -5.92% Nordisk Rago 4 PU Tunnelzelt um €376,28 (statt: €399,95) bei Kuhnshop
30.07.2014, 00:44 -2.64% Nordisk Svalbard 1 PU Tunnelzelt um €146,28 (statt: €150,25) bei Kuhnshop
30.07.2014, 00:44 -5.93% Vango Pop 300DLX Kuppelzelt um €126,96 (statt: €134,96) bei Kuhnshop
30.07.2014, 00:44 -4.11% Vango Pop 200 Kuppelzelt um €69,-- (statt: €71,96) bei Kuhnshop
30.07.2014, 00:44 -8.00% Vango Azure V 600 Tunnelzelt um €606,28 (statt: €659,--) bei Kuhnshop
30.07.2014, 00:44 -8.00% Vango Lumen V 500 AirBeam Tunnelzelt um €868,48 (statt: €944,--) bei Kuhnshop
30.07.2014, 00:44 -8.00% Vango Spectrum 600 AirBeam Tunnelzelt um €771,88 (statt: €839,--) bei Kuhnshop
30.07.2014, 00:44 -8.00% Vango Spectrum 500 AirBeam Tunnelzelt um €716,68 (statt: €779,--) bei Kuhnshop
30.07.2014, 00:44 -8.00% Vango Genesis 500 AirBeam Tunnelzelt um €615,48 (statt: €669,--) bei Kuhnshop
30.07.2014, 00:44 -8.00% Vango Genesis 400 AirBeam Tunnelzelt um €551,08 (statt: €599,--) bei Kuhnshop
30.07.2014, 00:44 -8.00% Vango Woburn 500 Familienzelt um €321,08 (statt: €349,--) bei Kuhnshop
30.07.2014, 00:44 -8.00% Jack Wolfskin Time Tunnel III RT Tunnelzelt um €275,08 (statt: €299,--) bei Kuhnshop
30.07.2014, 00:44 -2.14% Jack Wolfskin Eclipse III Kuppelzelt um €146,74 (statt: €149,95) bei Kuhnshop
30.07.2014, 00:44 -8.00% Jack Wolfskin Highland Trail 50 um €119,55 (statt: €129,95) bei Kuhnshop
30.07.2014, 00:44 -8.01% Jack Wolfskin Slick Rock 20 um €50,55 (statt: €54,95) bei Kuhnshop
30.07.2014, 00:44 -8.01% Jack Wolfskin Lightspeed um €42,27 (statt: €45,95) bei Kuhnshop
30.07.2014, 00:44 -8.00% Jack Wolfskin Denali 60 (Herren) um €161,87 (statt: €175,95) bei Kuhnshop
30.07.2014, 00:44 -8.01% Salewa Spice +3 Mumienschlafsack um €73,55 (statt: €79,95) bei Kuhnshop
30.07.2014, 00:44 -7.53% VauDe Puck 10 (Junior) um €8,23 (statt: €8,90) bei Kuhnshop
30.07.2014, 00:44 -8.00% VauDe Komfort Zeltunterlage für das Opera 8 Tunnelzelt um €82,75 (statt: €89,95) bei Kuhnshop
30.07.2014, 00:44 -8.00% VauDe Brenta 26 um €59,80 (statt: €65,--) bei Kuhnshop
30.07.2014, 00:44 -3.75% VauDe Badawi Long Kuppelzelt um €769,99 (statt: €799,95) bei Kuhnshop
30.07.2014, 00:44 -1.28% Waeco CFX-40 Kompressor-Kühlbox um €689,08 (statt: €698,--) bei Kuhnshop
30.07.2014, 00:44 -1.26% Tatonka Narvik 3 Tunnelzelt (2551) um €256,68 (statt: €259,95) bei Kuhnshop
30.07.2014, 00:44 -2.87% Tatonka Grönland 2 Tunnelzelt (2555) um €262,20 (statt: €269,95) bei Kuhnshop
30.07.2014, 00:44 -5.13% Tatonka Grönland 3 Tunnelzelt (2556) um €303,55 (statt: €319,95) bei Kuhnshop
30.07.2014, 00:44 -5.74% Tatonka Alaska 4 Tunnelzelt (2572) um €440,68 (statt: €467,50) bei Kuhnshop
30.07.2014, 00:44 -8.00% Tatonka Family Camp Tunnelzelt (2595) um €505,08 (statt: €549,--) bei Kuhnshop
30.07.2014, 00:44 -8.00% Tatonka Orbit 3 Tunnelzelt (2548) um €394,68 (statt: €429,--) bei Kuhnshop
30.07.2014, 00:44 -5.69% Tatonka Kiruna Tunnelzelt (2600) um €339,48 (statt: €359,95) bei Kuhnshop
30.07.2014, 00:44 -4.47% Coleman Frisco Mumienschlafsack (Junior) um €27,55 (statt: €28,84) bei Kuhnshop
30.07.2014, 00:44 -2.87% Coleman Breckenridge Comfort Deckenschlafsack um €45,95 (statt: €47,31) bei Kuhnshop
30.07.2014, 00:44 -8.01% Coleman Fusion X480 Mumienschlafsack um €33,99 (statt: €36,95) bei Kuhnshop
30.07.2014, 00:44 -2.12% Coleman Ridgeline 6 Plus Familienzelt um €197,75 (statt: €202,04) bei Kuhnshop
30.07.2014, 00:44 -8.00% MSR Flex 4 Kochtopfset um €110,35 (statt: €119,95) bei Kuhnshop
30.07.2014, 00:44 -1.85% MSR Nook Kuppelzelt um €293,48 (statt: €299,--) bei Kuhnshop
30.07.2014, 00:44 -5.21% MSR Base 2 Kochtopfset um €35,83 (statt: €37,80) bei Kuhnshop
30.07.2014, 00:44 -5.28% MSR Quick Bratpfanne antihaft um €23,87 (statt: €25,20) bei Kuhnshop
30.07.2014, 00:44 -1.95% Adobe: Creative Suite 6.0 Design Standard (englisch) (PC) (65163188) um €909,88 (statt: €927,99) bei Software Online Kaufen
30.07.2014, 00:44 -8.00% Adobe: Creative Suite 6.0 Design Standard, Update v. CS5 (deutsch) (MAC) (65162983) um €909,88 (statt: €989,--) bei Software Online Kaufen
30.07.2014, 00:44 -8.00% Adobe: Photoshop CS6, Update v. CS3/CS4/CS5 (deutsch) (MAC) (65158169) um €357,88 (statt: €389,--) bei Software Online Kaufen
30.07.2014, 00:44 -8.00% Adobe: Photoshop CS6, Update v. CS5 (deutsch) (PC) (65158168) um €357,88 (statt: €389,--) bei Software Online Kaufen
30.07.2014, 00:44 -3.06% Weider Protein 80 Plus Vanille 500g um €14,26 (statt: €14,71) bei Body-Store
30.07.2014, 00:44 -3.06% Weider Protein 80 Plus Toffee-Karamell 500g um €14,26 (statt: €14,71) bei Body-Store
30.07.2014, 00:44 -3.06% Weider Protein 80 Plus Schoko 500g um €14,26 (statt: €14,71) bei Body-Store
30.07.2014, 00:44 -3.06% Weider Protein 80 Plus Pistazie 500g um €14,26 (statt: €14,71) bei Body-Store
30.07.2014, 00:44 -10.82% Weider Protein 80 Plus Erdbeere 500g um €14,26 (statt: €15,99) bei Body-Store
30.07.2014, 00:44 -3.06% Weider Protein 80 Plus Cookies & Cream 500g um €14,26 (statt: €14,71) bei Body-Store
30.07.2014, 00:44 -3.06% Weider Protein 80 Plus Kokos 500g um €14,26 (statt: €14,71) bei Body-Store
30.07.2014, 00:44 -10.82% Weider Protein 80 Plus Citrus-Quark 500g um €14,26 (statt: €15,99) bei Body-Store
30.07.2014, 00:44 -3.06% Weider Protein 80 Plus Cappuccino 500g um €14,26 (statt: €14,71) bei Body-Store
30.07.2014, 00:44 -3.06% Weider Protein 80 Plus Banane 500g um €14,26 (statt: €14,71) bei Body-Store
30.07.2014, 00:44 -3.68% Weider Protein 80 Plus Waldfrucht-Joghurt 2000g um €49,22 (statt: €51,10) bei Body-Store
30.07.2014, 00:44 -3.68% Weider Protein 80 Plus Vanille 2kg um €49,22 (statt: €51,10) bei Body-Store
30.07.2014, 00:44 -3.68% Weider Protein 80 Plus Schoko 2kg um €49,22 (statt: €51,10) bei Body-Store
30.07.2014, 00:44 -3.68% Weider Protein 80 Plus Erdbeere 2kg um €49,22 (statt: €51,10) bei Body-Store
30.07.2014, 00:44 -3.68% Weider Protein 80 Plus Kokos 2kg um €49,22 (statt: €51,10) bei Body-Store
30.07.2014, 00:44 -3.68% Weider Protein 80 Plus Citrus-Quark 2000g um €49,22 (statt: €51,10) bei Body-Store
30.07.2014, 00:44 -3.68% Weider Protein 80 Plus Banane 2kg um €49,22 (statt: €51,10) bei Body-Store
30.07.2014, 00:44 -10.19% Weider Premium Whey Vanille-Karamell 500g um €14,72 (statt: €16,39) bei Body-Store
30.07.2014, 00:44 -10.19% Weider Premium Whey Stracciatella 500g um €14,72 (statt: €16,39) bei Body-Store
30.07.2014, 00:44 -10.19% Weider Premium Whey Schoko-Nougat 500g um €14,72 (statt: €16,39) bei Body-Store
30.07.2014, 00:44 -10.19% Weider Premium Whey Erdbeere-Vanille 500g um €14,72 (statt: €16,39) bei Body-Store
30.07.2014, 00:44 -2.32% Weider Premium Whey Fresh-Banane 500g um €14,72 (statt: €15,07) bei Body-Store
30.07.2014, 00:44 -10.45% Weider Muscle Protein Vanille 3l (6x 500ml) um €15,85 (statt: €17,70) bei Body-Store
30.07.2014, 00:44 -10.45% Weider Muscle Protein Schoko 3l (6x 500ml) um €15,85 (statt: €17,70) bei Body-Store
30.07.2014, 00:44 -10.45% Weider Muscle Protein Erdbeere 3l (6x 500ml) um €15,85 (statt: €17,70) bei Body-Store
30.07.2014, 00:44 -2.79% Weider Maximum BCAA Syntho + PTK Kapseln 120 Stück um €20,56 (statt: €21,15) bei Body-Store
30.07.2014, 00:44 -8.96% Weider Hardcore Whey Protein Schoko 3.17kg um €56,07 (statt: €61,59) bei Body-Store
30.07.2014, 00:44 -1.04% Weider Hardcore Whey Protein Erdbeere 3.17kg um €56,07 (statt: €56,66) bei Body-Store
30.07.2014, 00:44 -8.04% Weider Double Pro Haselnuss-Banane 2.4kg (24x 100g) um €58,09 (statt: €63,17) bei Body-Store
30.07.2014, 00:44 -5.36% Weider Double Pro Citrus-Kokos 2.4kg (24x 100g) um €58,09 (statt: €61,38) bei Body-Store
30.07.2014, 00:44 -58.95% Weider Double Pro Haselnuss-Banane 100g um €2,43 (statt: €5,92) bei Body-Store
30.07.2014, 00:44 -5.93% Weider Gold Whey Vanille 500g um €13,80 (statt: €14,67) bei Body-Store
30.07.2014, 00:44 -5.93% Weider Gold Whey Stracciatella 500g um €13,80 (statt: €14,67) bei Body-Store
30.07.2014, 00:44 -5.93% Weider Gold Whey Kirsch-Schoko 500g um €13,80 (statt: €14,67) bei Body-Store
30.07.2014, 00:44 -5.93% Weider Gold Whey Schoko 500g um €13,80 (statt: €14,67) bei Body-Store
30.07.2014, 00:44 -5.93% Weider Gold Whey Mango-Maracuja 500g um €13,80 (statt: €14,67) bei Body-Store
30.07.2014, 00:44 -5.93% Weider Gold Whey Latte Macchiato 500g um €13,80 (statt: €14,67) bei Body-Store
30.07.2014, 00:44 -5.93% Weider Gold Whey Kokos-Cookie 500g um €13,80 (statt: €14,67) bei Body-Store
30.07.2014, 00:44 -5.93% Weider Gold Whey Fresh Bottermelk 500g um €13,80 (statt: €14,67) bei Body-Store
30.07.2014, 00:44 -5.93% Weider Gold Whey Erdbeere 500g um €13,80 (statt: €14,67) bei Body-Store
30.07.2014, 00:44 -2.25% Weider Gold Whey Vanille 2kg um €49,63 (statt: €50,77) bei Body-Store
30.07.2014, 00:44 -10.07% Weider Gold Whey Stracciatella 2kg um €49,63 (statt: €55,19) bei Body-Store
30.07.2014, 00:44 -2.25% Weider Gold Whey Mango-Maracuja 2kg um €49,63 (statt: €50,77) bei Body-Store
30.07.2014, 00:44 -9.62% Weider CFM Whey Protein Erdbeere 908g um €30,36 (statt: €33,59) bei Body-Store
30.07.2014, 00:44 -7.55% Weider 40% High Protein Bar Schokolade 50g um €1,47 (statt: €1,59) bei Body-Store
30.07.2014, 00:44 -13.02% Weider 40% High Protein Bar Rote Früchte 50g um €1,47 (statt: €1,69) bei Body-Store
30.07.2014, 00:44 -13.02% Weider 40% High Protein Bar Latte Macchiato 50g um €1,47 (statt: €1,69) bei Body-Store
30.07.2014, 00:44 -13.02% Weider 40% High Protein Bar Erdbeere 50g um €1,47 (statt: €1,69) bei Body-Store
30.07.2014, 00:44 -7.91% Weider 32% Protein Bar Vanille 1.44kg (24x 60g) um €35,14 (statt: €38,16) bei Body-Store
30.07.2014, 00:44 -30.14% Weider 32% Protein Bar Weiße Schokolade-Banane 60g um €1,46 (statt: €2,09) bei Body-Store
30.07.2014, 00:44 -5.81% Weider 32% Protein Bar Vanille 60g um €1,46 (statt: €1,55) bei Body-Store
30.07.2014, 00:44 -5.81% Weider 32% Protein Bar Schokolade 60g um €1,46 (statt: €1,55) bei Body-Store
30.07.2014, 00:44 -5.81% Weider 32% Protein Bar Cookies & Cream 60g um €1,46 (statt: €1,55) bei Body-Store
30.07.2014, 00:44 -51.17% Weider 32% Protein Bar Kokos 60g um €1,46 (statt: €2,99) bei Body-Store
30.07.2014, 00:44 -5.81% Weider 32% Protein Bar Banane 60g um €1,46 (statt: €1,55) bei Body-Store
30.07.2014, 00:44 -1.68% Weider 100% Casein Vanille-Sahne 500g um €15,18 (statt: €15,44) bei Body-Store
30.07.2014, 00:44 -1.68% Weider 100% Casein Schoko-Kokos 500g um €15,18 (statt: €15,44) bei Body-Store
30.07.2014, 00:44 -5.97% Weider 40% High Protein Bar Rote Früchte 2kg (20x 100g) um €46,92 (statt: €49,90) bei Body-Store
30.07.2014, 00:44 -3.82% Scitec Nutrition Trans-X Zitrone 1.816kg um €28,95 (statt: €30,10) bei Body-Store
30.07.2014, 00:44 -6.27% Scitec Nutrition Hot Blood 2.0 Grapefruit 300g um €17,20 (statt: €18,35) bei Body-Store
30.07.2014, 00:44 -2.33% Scitec Nutrition Anabolic Whey Vanille 900g um €27,62 (statt: €28,28) bei Body-Store
30.07.2014, 00:44 -2.33% Scitec Nutrition Anabolic Whey Schokolade 900g um €27,62 (statt: €28,28) bei Body-Store
30.07.2014, 00:44 -4.99% Scitec Nutrition Anabolic Whey Vanille 2.3kg um €55,36 (statt: €58,27) bei Body-Store
30.07.2014, 00:44 -4.99% Scitec Nutrition Anabolic Whey Schokolade 2.3kg um €55,36 (statt: €58,27) bei Body-Store
30.07.2014, 00:44 -1.56% Scitec Nutrition 100% Whey Protein Professional Cappuccino 2.35kg um €47,84 (statt: €48,60) bei Body-Store
30.07.2014, 00:44 -2.34% Scitec Nutrition 100% Whey Protein Vanille 5kg um €86,94 (statt: €89,02) bei Body-Store
30.07.2014, 00:44 -6.15% Scitec Nutrition 100% Whey Protein Professional Karamell 5kg um €86,94 (statt: €92,64) bei Body-Store
30.07.2014, 00:44 -4.46% Scitec Nutrition 100% Whey Protein Professional Honig-Vanille 5kg um €86,94 (statt: €91,--) bei Body-Store
30.07.2014, 00:44 -6.15% Scitec Nutrition 100% Whey Protein Professional Erdbeere-weiße Schokolade 5kg um €86,94 (statt: €92,64) bei Body-Store
30.07.2014, 00:44 -2.99% Scitec Nutrition 100% Whey Protein Professional Schokolade-Kokosnuss 5kg um €86,94 (statt: €89,62) bei Body-Store
30.07.2014, 00:44 -6.15% Scitec Nutrition 100% Whey Protein Professional Cappuccino 5kg um €86,94 (statt: €92,64) bei Body-Store
30.07.2014, 00:44 -6.15% Scitec Nutrition 100% Whey Protein Professional Banane 5kg um €86,94 (statt: €92,64) bei Body-Store
30.07.2014, 00:44 -2.06% Scitec Nutrition 100% Whey Protein Erdbeere 2.35kg um €45,54 (statt: €46,50) bei Body-Store
30.07.2014, 00:44 -6.27% PowerBar Protein Plus 92% Vanille 600g um €20,19 (statt: €21,54) bei Body-Store
30.07.2014, 00:44 -11.80% PowerBar Protein Plus 92% Schokolade 600g um €20,19 (statt: €22,89) bei Body-Store
30.07.2014, 00:44 -11.80% PowerBar Protein Plus 92% Erdbeere 600g um €20,19 (statt: €22,89) bei Body-Store
30.07.2014, 00:44 -8.18% PowerBar Protein Plus 80% Lion 700g um €21,11 (statt: €22,99) bei Body-Store
30.07.2014, 00:44 -8.63% Best Body Nutrition Mammut Formel 90 Protein Vanille 3kg um €33,58 (statt: €36,75) bei Body-Store
30.07.2014, 00:44 -8.63% Best Body Nutrition Mammut Formel 90 Protein Schokolade 3kg um €33,58 (statt: €36,75) bei Body-Store
30.07.2014, 00:44 -8.63% Best Body Nutrition Mammut Formel 90 Protein Erdbeere 3kg um €33,58 (statt: €36,75) bei Body-Store
30.07.2014, 00:44 -2.42% OatSnack Energy Bar Joghurt 970g (15x 65g) um €16,10 (statt: €16,50) bei Body-Store
30.07.2014, 00:44 -2.42% OatSnack Energy Bar Joghurt-Erdbeere 970g (15x 65g) um €16,10 (statt: €16,50) bei Body-Store
30.07.2014, 00:44 -7.63% OatSnack Energy Bar Brazil-Nut 970g (15x 65g) um €16,10 (statt: €17,43) bei Body-Store
30.07.2014, 00:44 -11.97% OatSnack Energy Bar Banane-Schoko 970g (15x 65g) um €16,10 (statt: €18,29) bei Body-Store
30.07.2014, 00:44 -73.33% Body Attack Carb Control Proteinriegel Crunchy Chocolat 100g um €2,71 (statt: €10,16) bei Body-Store
30.07.2014, 00:44 -3.00% Body Attack Carb Control Proteinriegel Peanut Butter 1.5kg (15x 100g) um €35,88 (statt: €36,99) bei Body-Store
30.07.2014, 00:44 -16.36% Body Attack Carb Control Proteinriegel Lemon Quark 1.5kg (15x 100g) um €35,88 (statt: €42,90) bei Body-Store
30.07.2014, 00:44 -3.00% Body Attack Carb Control Proteinriegel Crispy Caramel 1.5kg (15x 100g) um €35,88 (statt: €36,99) bei Body-Store
30.07.2014, 00:44 -3.00% Body Attack Carb Control Proteinriegel Blueberry Yoghurt 1.5kg (15x 100g) um €35,88 (statt: €36,99) bei Body-Store
30.07.2014, 00:44 -2.87% Best Body Nutrition Premium Pro Pistazie 750g um €22,03 (statt: €22,68) bei Body-Store
30.07.2014, 00:44 -7.05% Best Body Nutrition Premium Pro Café Brazil 500g um €12,78 (statt: €13,75) bei Body-Store
30.07.2014, 00:44 -1.90% Best Body Nutrition Premium Pro Stracciatella 4kg (8x500g) um €79,07 (statt: €80,60) bei Body-Store
30.07.2014, 00:44 -1.90% Best Body Nutrition Premium Pro Sahne Nuss 4kg (8x500g) um €79,07 (statt: €80,60) bei Body-Store
30.07.2014, 00:44 -1.90% Best Body Nutrition Premium Pro Pistazie 4kg (8x500g) um €79,07 (statt: €80,60) bei Body-Store
30.07.2014, 00:44 -1.90% Best Body Nutrition Premium Pro Milchschokolade 4kg (8x500g) um €79,07 (statt: €80,60) bei Body-Store
30.07.2014, 00:44 -1.90% Best Body Nutrition Premium Pro French Vanilla 4kg (8x500g) um €79,07 (statt: €80,60) bei Body-Store
30.07.2014, 00:44 -1.90% Best Body Nutrition Premium Pro Erdbeere Sahne 4kg (8x500g) um €79,07 (statt: €80,60) bei Body-Store
30.07.2014, 00:44 -1.90% Best Body Nutrition Premium Pro Kokos 4kg (8x500g) um €79,07 (statt: €80,60) bei Body-Store
30.07.2014, 00:44 -9.01% Best Body Nutrition Premium Pro Banane 4kg (8x500g) um €79,07 (statt: €86,90) bei Body-Store
30.07.2014, 00:44 -4.33% Best Body Nutrition Premium Pro Stracciatella 2kg (4x500g) um €41,35 (statt: €43,22) bei Body-Store
30.07.2014, 00:44 -2.93% Best Body Nutrition Premium Pro Sahne Nuss 2kg (4x500g) um €41,35 (statt: €42,60) bei Body-Store
30.07.2014, 00:44 -4.33% Best Body Nutrition Premium Pro Pistazie 2kg (4x500g) um €41,35 (statt: €43,22) bei Body-Store
30.07.2014, 00:44 -4.33% Best Body Nutrition Premium Pro Milchschokolade 2kg (4x500g) um €41,35 (statt: €43,22) bei Body-Store
30.07.2014, 00:44 -4.33% Best Body Nutrition Premium Pro French Vanilla 2kg (4x500g) um €41,35 (statt: €43,22) bei Body-Store
30.07.2014, 00:44 -8.00% Best Body Nutrition 35% Delicate Premium Pro Bar Milchschokolade 1.2kg (24x50g) um €25,75 (statt: €27,99) bei Body-Store
30.07.2014, 00:44 -8.02% All Stars Glutamin Drink 400g um €21,33 (statt: €23,19) bei Body-Store
30.07.2014, 00:44 -2.34% All Stars Intensity Orange 640g um €30,90 (statt: €31,64) bei Body-Store
30.07.2014, 00:44 -5.68% All Stars Intensity Fruit-Punch 640g um €30,90 (statt: €32,76) bei Body-Store
30.07.2014, 00:44 -5.68% All Stars Intensity NO-X Brombeere 640g um €30,90 (statt: €32,76) bei Body-Store
30.07.2014, 00:44 -3.30% All Stars HY-Pro Diet Meal Vanille 945g um €25,75 (statt: €26,63) bei Body-Store
30.07.2014, 00:44 -6.08% All Stars HY-Pro Protein Deluxe Pfirsich-Joghurt 500g um €15,77 (statt: €16,79) bei Body-Store
30.07.2014, 00:44 -3.54% All Stars HY-Pro 85 Weiße Schokolade 750g um €25,34 (statt: €26,27) bei Body-Store
30.07.2014, 00:44 -5.83% All Stars HY-Pro 85 Schokolade-Nuss 750g um €25,34 (statt: €26,91) bei Body-Store
30.07.2014, 00:44 -5.76% All Stars HY-Pro 85 Zitrone-Quark 750g um €25,34 (statt: €26,89) bei Body-Store
30.07.2014, 00:44 -5.83% All Stars HY-Pro 85 Zimt-Haferflocken 750g um €25,34 (statt: €26,91) bei Body-Store
30.07.2014, 00:44 -3.54% All Stars HY-Pro Protein Deluxe Blaubeere-Vanille 750g um €25,34 (statt: €26,27) bei Body-Store
30.07.2014, 00:44 -32.14% Magnat Symbol Pro 130 Paar (versch. Farben) um €64,40 (statt: €94,90) bei Blue Sound Shop
30.07.2014, 00:44 -12.63% Marquant MMP3-39 4GB silber um €15,64 (statt: €17,90) bei Elektronik-Star.de | MeinPaket
30.07.2014, 00:44 -6.94% Vieta VH-IS1000BK schwarz um €315,46 (statt: €339,--) bei Elektronik-Star.de | MeinPaket
30.07.2014, 00:44 -6.96% Vieta VH-HA042 (versch. Farben) um €319,05 (statt: €342,90) bei Elektronik-Star.de | MeinPaket
30.07.2014, 00:44 -6.77% Vieta VH-CD060 (versch. Farben) um €272,13 (statt: €291,90) bei Elektronik-Star.de | MeinPaket
30.07.2014, 00:44 -6.60% Vieta VH-HR065 (versch. Farben) um €239,01 (statt: €255,90) bei Elektronik-Star.de | MeinPaket
30.07.2014, 00:44 -5.90% Vieta VH-HA075 (versch. Farben) um €160,81 (statt: €170,90) bei Elektronik-Star.de | MeinPaket
30.07.2014, 00:44 -5.69% Vieta VH-HA050 (versch. Farben) um €146,09 (statt: €154,90) bei Elektronik-Star.de | MeinPaket
30.07.2014, 00:44 -6.94% Vieta VH-IS1000SL silber um €315,46 (statt: €339,--) bei Elektronik-Star.de | MeinPaket
30.07.2014, 00:44 -4.29% Vieta L'Acord Rear Stück (versch. Farben) um €163,57 (statt: €170,90) bei Elektronik-Star.de | MeinPaket
30.07.2014, 00:44 -4.31% Vieta L'Acord Rear Paar (versch. Farben) um €164,49 (statt: €171,90) bei Elektronik-Star.de | MeinPaket
30.07.2014, 00:44 -6.48% Vieta VH-HA100 (versch. Farben) um €219,69 (statt: €234,90) bei Elektronik-Star.de | MeinPaket
30.07.2014, 00:44 -8.01% DJ-Tech Mixer One DJ-Software-Controller, USB um €78,10 (statt: €84,90) bei Elektronik-Star.de | MeinPaket
30.07.2014, 00:44 -2.56% Denver MPM-4014 4GB um €64,21 (statt: €65,90) bei Elektronik-Star.de | MeinPaket
30.07.2014, 00:44 -4.41% Klarstein VTS2 Big Blizzard 4in1 Standventilator um €95,49 (statt: €99,90) bei Elektronik-Star.de | MeinPaket
30.07.2014, 00:44 -3.66% Klarstein VTS2 Big Blizzard Standventilator schwarz um €81,88 (statt: €84,99) bei Elektronik-Star.de | MeinPaket
30.07.2014, 00:44 -8.01% Klarstein Bella Morena Küchenmaschine um €91,90 (statt: €99,90) bei Elektronik-Star.de | MeinPaket
30.07.2014, 00:44 -13.94% Klarstein VTS2 Full Metal Blizzard Standventilator um €38,64 (statt: €44,90) bei Elektronik-Star.de | MeinPaket
30.07.2014, 00:44 -42.61% Klarstein VTS2 Metal Blizzard 16" Bodenventilator um €22,90 (statt: €39,90) bei Elektronik-Star.de | MeinPaket
30.07.2014, 00:44 -6.46% Klarstein Bella Rossa Küchenmaschine um €91,90 (statt: €98,25) bei Elektronik-Star.de | MeinPaket
30.07.2014, 00:44 -2.09% Auna Elegance Tower Cinema 50 um €150,69 (statt: €153,90) bei Elektronik-Star.de | MeinPaket
30.07.2014, 00:44 -15.93% Klarstein VTS2 Black Blizzard RC Standventilator um €29,34 (statt: €34,90) bei Elektronik-Star.de | MeinPaket
30.07.2014, 00:44 -4.47% Auna Tube 65 um €171,85 (statt: €179,90) bei Elektronik-Star.de | MeinPaket
30.07.2014, 00:44 -2.64% Klarstein 90L1-WH Kühlschrank mit Gefrierfach um €165,41 (statt: €169,90) bei Elektronik-Star.de | MeinPaket
30.07.2014, 00:44 -4.27% Auna YC-5.1 Cinema-WG schwarz um €162,65 (statt: €169,90) bei Elektronik-Star.de | MeinPaket
30.07.2014, 00:44 -7.99% Klarstein YX4B um €59,80 (statt: €64,99) bei Elektronik-Star.de | MeinPaket
30.07.2014, 00:44 -12.51% Auna YC-5.1 Cinema-B schwarz um €87,40 (statt: €99,90) bei Elektronik-Star.de | MeinPaket
30.07.2014, 00:44 -2.02% Auna QA-SP1380 Funklautsprecher, 2.0 System um €58,69 (statt: €59,90) bei Elektronik-Star.de | MeinPaket
30.07.2014, 00:44 -1.93% Klarstein 70l Tisch-Kühlschrank um €147,01 (statt: €149,90) bei Elektronik-Star.de | MeinPaket
30.07.2014, 00:44 -1.49% Klarstein HEA-MKS-50 Mini-Kühlschrank um €137,81 (statt: €139,90) bei Elektronik-Star.de | MeinPaket
30.07.2014, 00:44 -3.54% Klarstein 24 Flaschen um €196,69 (statt: €203,90) bei Elektronik-Star.de | MeinPaket
30.07.2014, 00:44 -3.60% Klarstein 28 Flaschen um €199,45 (statt: €206,90) bei Elektronik-Star.de | MeinPaket
30.07.2014, 00:44 -3.12% Auna Aktiv 3.2 Lautsprecher Surround System Soundbar um €125,85 (statt: €129,90) bei Elektronik-Star.de | MeinPaket
30.07.2014, 00:44 -10.98% Klarstein 16 Flaschen um €110,30 (statt: €123,90) bei Elektronik-Star.de | MeinPaket
30.07.2014, 00:44 -8.00% LD Systems SAT 62 A G2 W aktiv Stück weiß um €146,28 (statt: €159,--) bei Elektronik-Star.de | MeinPaket
30.07.2014, 00:44 -10.99% Omnitronic XCP-2800 CD-Turntable (11046020) um €167,34 (statt: €188,--) bei Elektronik-Star.de | MeinPaket
30.07.2014, 00:44 -1.38% Magnat Monitor Supreme Sub 201A schwarz um €137,08 (statt: €139,--) bei Elektronik-Star.de | MeinPaket
30.07.2014, 00:44 -5.62% Magnat Monitor Supreme 200 Paar mokka um €109,48 (statt: €116,--) bei Elektronik-Star.de | MeinPaket
30.07.2014, 00:44 -4.85% Pioneer STEEZ STZ-D10T-G grün um €114,08 (statt: €119,90) bei Elektronik-Star.de | MeinPaket
30.07.2014, 00:44 -5.42% Logic3 Valve80 (MIP004) um €232,57 (statt: €245,90) bei Elektronik-Star.de | MeinPaket
30.07.2014, 00:44 -8.01% Novell: openSuSE Linux 13.1 (deutsch) (PC) um €36,75 (statt: €39,95) bei EDV-Buchversand Delf Michel e.K.
30.07.2014, 00:44 -12.94% Acronis: True Image 2014 Premium Family Pack, 3 User (deutsch) (PC) (TPZTB2DES) um €55,15 (statt: €63,35) bei EDV-Buchversand Delf Michel e.K.
30.07.2014, 00:44 -12.74% TomTom XL Classic Central Europe Traffic (1EG1.029.02/1ET0.029.03) um €78,10 (statt: €89,50) bei Pollin Electronic | MeinPaket
30.07.2014, 00:44 -1.31% Dynavox MT-50 (versch. Farben) um €67,06 (statt: €67,95) bei Pollin Electronic | MeinPaket
30.07.2014, 00:44 -8.60% TomTom Start 20 Central Europe Traffic (1EN4.029.00) um €102,94 (statt: €112,62) bei LCD & Plasma Service GmbH Shop
30.07.2014, 00:44 -8.00% Magix: Video DeLuxe 2013 Premium HD (deutsch) (PC) (773301) um €45,99 (statt: €49,99) bei Erso Media GmbH
30.07.2014, 00:44 -8.00% Magix: Video DeLuxe 2013 Control HD (deutsch) (PC) (779228) um €64,39 (statt: €69,99) bei Erso Media GmbH
30.07.2014, 00:44 -8.00% Magix: Page & Layout Designer 9.0 (deutsch) (PC) um €36,79 (statt: €39,99) bei Erso Media GmbH
30.07.2014, 00:44 -2.05% Magix: Fotos auf DVD 2014 Deluxe (deutsch) (PC) um €57,95 (statt: €59,16) bei Erso Media GmbH
30.07.2014, 00:44 -8.00% Magix: Foto Premium 2013 HD (deutsch) (PC) um €31,27 (statt: €33,99) bei Erso Media GmbH
30.07.2014, 00:44 -8.00% Magix: Foto Premium MX (deutsch) (PC) um €22,99 (statt: €24,99) bei Erso Media GmbH
30.07.2014, 00:44 -4.99% Magix: Video DeLuxe 2014 Control (deutsch) (PC) um €117,75 (statt: €123,93) bei Erso Media GmbH
30.07.2014, 00:44 -8.00% Magix: Soundpool DVD Collection 19 (deutsch) (PC) um €32,19 (statt: €34,99) bei Erso Media GmbH
30.07.2014, 00:44 -8.00% Magix: 3D Maker 7.0 (deutsch) (PC) um €22,99 (statt: €24,99) bei Erso Media GmbH
30.07.2014, 00:44 -3.16% Magix: Music Maker 2013 Premium (deutsch) (PC) um €36,79 (statt: €37,99) bei Erso Media GmbH
30.07.2014, 00:44 -2.47% Magix: Audio & Music Lab 2014 Premium (deutsch) (PC) um €82,79 (statt: €84,89) bei Erso Media GmbH
30.07.2014, 00:44 -5.16% Magix: Retten Sie Ihre LP's und Kassetten 2014 (deutsch) (PC) um €64,39 (statt: €67,89) bei Erso Media GmbH
30.07.2014, 00:44 -6.16% Magix: Music Maker - Techno Edition 5 (deutsch) (PC) um €23,45 (statt: €24,99) bei Erso Media GmbH
30.07.2014, 00:44 -4.43% Komplettsystem Intel Pentium G860, 2GB RAM, 19" LCD-Monitor um €276,-- (statt: €288,80) bei Rabo Networks Shop
30.07.2014, 00:44 -8.00% Komplettsystem Intel Pentium G620T, 1GB RAM, 19" LCD-Monitor um €247,48 (statt: €269,--) bei Rabo Networks Shop
30.07.2014, 00:44 -8.00% Komplettsystem Intel Pentium G620T, 1GB RAM um €179,40 (statt: €195,--) bei Rabo Networks Shop
30.07.2014, 00:44 -5.29% Komplettsystem Intel Pentium G620, 8GB RAM, 24" LCD-Monitor um €324,76 (statt: €342,90) bei Rabo Networks Shop
30.07.2014, 00:44 -4.45% Komplettsystem Intel Pentium G620, 8GB RAM, 22" LCD-Monitor um €297,16 (statt: €311,--) bei Rabo Networks Shop
30.07.2014, 00:44 -4.01% Komplettsystem Intel Pentium G620, 8GB RAM, 20" LCD-Monitor um €287,96 (statt: €300,--) bei Rabo Networks Shop
30.07.2014, 00:44 -8.00% Komplettsystem Intel Pentium G620, 8GB RAM, 19" LCD-Monitor um €269,46 (statt: €292,90) bei Rabo Networks Shop
30.07.2014, 00:44 -3.56% Komplettsystem Intel Pentium G620, 8GB RAM um €199,64 (statt: €207,--) bei Rabo Networks Shop
30.07.2014, 00:44 -2.34% Komplettsystem Intel Pentium G620, 6GB RAM, 24" LCD-Monitor um €317,40 (statt: €325,--) bei Rabo Networks Shop
30.07.2014, 00:44 -2.13% Komplettsystem Intel Pentium G620, 6GB RAM, 22" LCD-Monitor um €291,64 (statt: €298,--) bei Rabo Networks Shop
30.07.2014, 00:44 -2.57% Komplettsystem Intel Pentium G620, 6GB RAM, 20" LCD-Monitor um €280,60 (statt: €288,--) bei Rabo Networks Shop
30.07.2014, 00:44 -8.00% Komplettsystem Intel Pentium G620, 6GB RAM, 19" LCD-Monitor um €262,20 (statt: €285,--) bei Rabo Networks Shop
30.07.2014, 00:44 -6.57% Komplettsystem Intel Pentium G620, 6GB RAM um €186,76 (statt: €199,90) bei Rabo Networks Shop
30.07.2014, 00:44 -5.15% Komplettsystem Intel Pentium G620, 4GB RAM, 24" LCD-Monitor um €306,36 (statt: €323,--) bei Rabo Networks Shop
30.07.2014, 00:44 -4.53% Komplettsystem Intel Pentium G620, 4GB RAM, 22" LCD-Monitor um €278,76 (statt: €292,--) bei Rabo Networks Shop
30.07.2014, 00:44 -4.45% Komplettsystem Intel Pentium G620, 4GB RAM, 20" LCD-Monitor um €269,46 (statt: €282,--) bei Rabo Networks Shop
30.07.2014, 00:44 -8.00% Komplettsystem Intel Pentium G620, 4GB RAM, 19" LCD-Monitor um €251,16 (statt: €273,--) bei Rabo Networks Shop
30.07.2014, 00:44 -1.09% Komplettsystem Intel Pentium G620, 4GB RAM um €182,98 (statt: €185,--) bei Rabo Networks Shop
30.07.2014, 00:44 -6.01% Komplettsystem Intel Pentium G620, 3GB RAM, 24" LCD-Monitor um €303,60 (statt: €323,--) bei Rabo Networks Shop
30.07.2014, 00:44 -3.16% Komplettsystem Intel Pentium G620, 3GB RAM, 22" LCD-Monitor um €276,-- (statt: €285,--) bei Rabo Networks Shop
30.07.2014, 00:44 -8.00% Komplettsystem Intel Pentium G620, 3GB RAM, 19" LCD-Monitor um €247,48 (statt: €269,--) bei Rabo Networks Shop
30.07.2014, 00:44 -8.00% Komplettsystem Intel Pentium G620, 3GB RAM um €176,64 (statt: €192,--) bei Rabo Networks Shop
30.07.2014, 00:44 -8.00% Komplettsystem Intel Pentium G620, 2GB RAM, 19" LCD-Monitor um €243,80 (statt: €265,--) bei Rabo Networks Shop
30.07.2014, 00:44 -3.51% Komplettsystem Intel Pentium G620, 2GB RAM um €175,62 (statt: €182,--) bei Rabo Networks Shop
30.07.2014, 00:44 -5.68% Komplettsystem Intel Pentium G620, 2GB RAM, 24" LCD-Monitor um €299,-- (statt: €317,--) bei Rabo Networks Shop
30.07.2014, 00:44 -4.77% Komplettsystem Intel Pentium G620, 2GB RAM, 22" LCD-Monitor um €271,40 (statt: €285,--) bei Rabo Networks Shop
30.07.2014, 00:44 -5.02% Komplettsystem Intel Pentium G620, 1GB RAM, 24" LCD-Monitor um €293,48 (statt: €309,--) bei Rabo Networks Shop
30.07.2014, 00:44 -3.32% Komplettsystem Intel Pentium G620, 1GB RAM, 22" LCD-Monitor um €265,88 (statt: €275,--) bei Rabo Networks Shop
30.07.2014, 00:44 -8.00% Komplettsystem Intel Pentium G620, 1GB RAM, 19" LCD-Monitor um €238,28 (statt: €259,--) bei Rabo Networks Shop
30.07.2014, 00:44 -6.48% Komplettsystem Intel Pentium G620, 1GB RAM um €170,20 (statt: €182,--) bei Rabo Networks Shop
30.07.2014, 00:44 -2.93% Komplettsystem Intel Pentium G620, 16GB RAM, 24" LCD-Monitor um €387,32 (statt: €399,--) bei Rabo Networks Shop
30.07.2014, 00:44 -1.46% Komplettsystem Intel Pentium G620, 16GB RAM, 22" LCD-Monitor um €360,64 (statt: €366,--) bei Rabo Networks Shop
30.07.2014, 00:44 -4.40% Komplettsystem Intel Pentium G620, 16GB RAM, 20" LCD-Monitor um €342,24 (statt: €358,--) bei Rabo Networks Shop
30.07.2014, 00:44 -8.00% Komplettsystem Intel Pentium G620, 16GB RAM, 19" LCD-Monitor um €323,84 (statt: €352,--) bei Rabo Networks Shop
30.07.2014, 00:44 -5.27% Komplettsystem Intel Pentium G620, 16GB RAM um €255,76 (statt: €270,--) bei Rabo Networks Shop
30.07.2014, 00:44 -2.67% Komplettsystem Intel Pentium G620, 12GB RAM, 24" LCD-Monitor um €369,84 (statt: €380,--) bei Rabo Networks Shop
30.07.2014, 00:44 -2.22% Komplettsystem Intel Pentium G620, 12GB RAM, 22" LCD-Monitor um €342,24 (statt: €350,--) bei Rabo Networks Shop
30.07.2014, 00:44 -8.00% Komplettsystem Intel Pentium G620, 12GB RAM, 19" LCD-Monitor um €311,88 (statt: €339,--) bei Rabo Networks Shop
30.07.2014, 00:44 -3.22% Komplettsystem Intel Pentium G620, 12GB RAM um €241,96 (statt: €250,--) bei Rabo Networks Shop
30.07.2014, 00:44 -8.00% Komplettsystem Intel Pentium E5200, 2GB RAM um €357,88 (statt: €389,--) bei Rabo Networks Shop
30.07.2014, 00:44 -8.00% Komplettsystem Intel Core i7-960, 8GB RAM um €501,40 (statt: €545,--) bei Rabo Networks Shop
30.07.2014, 00:44 -8.00% Komplettsystem Intel Core i7-960, 6GB RAM um €462,76 (statt: €503,--) bei Rabo Networks Shop
30.07.2014, 00:44 -8.00% Komplettsystem Intel Core i7-960, 12GB RAM um €510,60 (statt: €555,--) bei Rabo Networks Shop
30.07.2014, 00:44 -8.00% Komplettsystem Intel Core i7-870, 8GB RAM um €435,16 (statt: €473,--) bei Rabo Networks Shop
30.07.2014, 00:44 -5.47% Komplettsystem Intel Core i7-3820, 8GB RAM, 19" LCD-Monitor um €619,16 (statt: €655,--) bei Rabo Networks Shop
30.07.2014, 00:44 -5.64% Komplettsystem Intel Core i7-3820, 8GB RAM um €552,-- (statt: €585,--) bei Rabo Networks Shop
30.07.2014, 00:44 -5.37% Komplettsystem Intel Core i7-3820, 6GB RAM, 24" LCD-Monitor um €661,48 (statt: €699,--) bei Rabo Networks Shop
30.07.2014, 00:44 -5.94% Komplettsystem Intel Core i7-3820, 6GB RAM, 22" LCD-Monitor um €630,20 (statt: €670,--) bei Rabo Networks Shop
30.07.2014, 00:44 -6.75% Komplettsystem Intel Core i7-3820, 6GB RAM, 20" LCD-Monitor um €615,48 (statt: €660,--) bei Rabo Networks Shop
30.07.2014, 00:44 -5.12% Komplettsystem Intel Core i7-3820, 6GB RAM, 19" LCD-Monitor um €605,36 (statt: €638,--) bei Rabo Networks Shop
30.07.2014, 00:44 -4.95% Komplettsystem Intel Core i7-3820, 6GB RAM um €544,64 (statt: €573,--) bei Rabo Networks Shop
30.07.2014, 00:44 -6.15% Komplettsystem Intel Core i7-3820, 4GB RAM, 24" LCD-Monitor um €652,28 (statt: €695,--) bei Rabo Networks Shop
30.07.2014, 00:44 -6.20% Komplettsystem Intel Core i7-3820, 4GB RAM, 22" LCD-Monitor um €624,68 (statt: €666,--) bei Rabo Networks Shop
30.07.2014, 00:44 -5.19% Komplettsystem Intel Core i7-3820, 4GB RAM, 20" LCD-Monitor um €621,-- (statt: €655,--) bei Rabo Networks Shop
30.07.2014, 00:44 -5.39% Komplettsystem Intel Core i7-3820, 4GB RAM, 19" LCD-Monitor um €600,76 (statt: €635,--) bei Rabo Networks Shop
30.07.2014, 00:44 -6.37% Komplettsystem Intel Core i7-3820, 4GB RAM um €529,-- (statt: €565,--) bei Rabo Networks Shop
30.07.2014, 00:44 -6.80% Komplettsystem Intel Core i7-3820, 2GB RAM, 24" LCD-Monitor um €643,08 (statt: €690,--) bei Rabo Networks Shop
30.07.2014, 00:44 -5.91% Komplettsystem Intel Core i7-3820, 2GB RAM, 22" LCD-Monitor um €621,-- (statt: €660,--) bei Rabo Networks Shop
30.07.2014, 00:44 -5.31% Komplettsystem Intel Core i7-3820, 2GB RAM, 20" LCD-Monitor um €615,48 (statt: €650,--) bei Rabo Networks Shop
30.07.2014, 00:44 -5.81% Komplettsystem Intel Core i7-3820, 2GB RAM, 19" LCD-Monitor um €593,40 (statt: €630,--) bei Rabo Networks Shop
30.07.2014, 00:44 -6.34% Komplettsystem Intel Core i7-3820, 2GB RAM um €519,80 (statt: €555,--) bei Rabo Networks Shop
30.07.2014, 00:44 -5.02% Komplettsystem Intel Core i7-3770, 8GB RAM, 24" LCD-Monitor um €527,16 (statt: €555,--) bei Rabo Networks Shop
30.07.2014, 00:44 -2.64% Komplettsystem Intel Core i7-3770, 8GB RAM, 22" LCD-Monitor um €501,40 (statt: €515,--) bei Rabo Networks Shop
30.07.2014, 00:44 -8.00% Komplettsystem Intel Core i7-3770, 8GB RAM, 19" LCD-Monitor um €460,-- (statt: €500,--) bei Rabo Networks Shop
30.07.2014, 00:44 -6.20% Komplettsystem Intel Core i7-3770, 8GB RAM um €383,64 (statt: €409,--) bei Rabo Networks Shop
30.07.2014, 00:44 -4.46% Komplettsystem Intel Core i7-3770, 6GB RAM, 24" LCD-Monitor um €520,72 (statt: €545,--) bei Rabo Networks Shop
30.07.2014, 00:44 -4.80% Komplettsystem Intel Core i7-3770, 6GB RAM, 22" LCD-Monitor um €492,20 (statt: €517,--) bei Rabo Networks Shop
30.07.2014, 00:44 -3.45% Komplettsystem Intel Core i7-3770, 6GB RAM, 20" LCD-Monitor um €487,60 (statt: €505,--) bei Rabo Networks Shop
30.07.2014, 00:44 -7.27% Komplettsystem Intel Core i7-3770, 6GB RAM, 19" LCD-Monitor um €468,28 (statt: €505,--) bei Rabo Networks Shop
30.07.2014, 00:44 -5.29% Komplettsystem Intel Core i7-3770, 4GB RAM, 24" LCD-Monitor um €514,28 (statt: €543,--) bei Rabo Networks Shop
30.07.2014, 00:44 -1.68% Komplettsystem Intel Core i7-3770, 4GB RAM, 22" LCD-Monitor um €486,68 (statt: €495,--) bei Rabo Networks Shop
30.07.2014, 00:44 -3.98% Komplettsystem Intel Core i7-3770, 4GB RAM, 20" LCD-Monitor um €483,-- (statt: €503,--) bei Rabo Networks Shop
30.07.2014, 00:44 -7.06% Komplettsystem Intel Core i7-3770, 4GB RAM, 19" LCD-Monitor um €455,40 (statt: €490,--) bei Rabo Networks Shop
30.07.2014, 00:44 -4.55% Komplettsystem Intel Core i7-3770, 2GB RAM, 24" LCD-Monitor um €508,76 (statt: €533,--) bei Rabo Networks Shop
30.07.2014, 00:44 -4.28% Komplettsystem Intel Core i7-3770, 2GB RAM, 20" LCD-Monitor um €473,80 (statt: €495,--) bei Rabo Networks Shop
30.07.2014, 00:44 -4.71% Komplettsystem Intel Core i7-3770, 2GB RAM, 19" LCD-Monitor um €452,64 (statt: €475,--) bei Rabo Networks Shop
30.07.2014, 00:44 -8.00% Komplettsystem Intel Core i7-2700K, 8GB RAM, 19" LCD-Monitor um €477,48 (statt: €519,--) bei Rabo Networks Shop
30.07.2014, 00:44 -5.90% Komplettsystem Intel Core i7-2700K, 8GB RAM um €413,08 (statt: €439,--) bei Rabo Networks Shop
30.07.2014, 00:44 -4.68% Komplettsystem Intel Core i7-2700K, 6GB RAM, 24" LCD-Monitor um €529,-- (statt: €555,--) bei Rabo Networks Shop
30.07.2014, 00:44 -5.40% Komplettsystem Intel Core i7-2700K, 6GB RAM, 22" LCD-Monitor um €501,40 (statt: €530,--) bei Rabo Networks Shop
30.07.2014, 00:44 -4.43% Komplettsystem Intel Core i7-2700K, 6GB RAM, 20" LCD-Monitor um €492,20 (statt: €515,--) bei Rabo Networks Shop
30.07.2014, 00:44 -8.00% Komplettsystem Intel Core i7-2700K, 6GB RAM, 19" LCD-Monitor um €474,72 (statt: €516,--) bei Rabo Networks Shop
30.07.2014, 00:44 -5.22% Komplettsystem Intel Core i7-2700K, 6GB RAM um €407,56 (statt: €430,--) bei Rabo Networks Shop
30.07.2014, 00:44 -5.68% Komplettsystem Intel Core i7-2700K, 4GB RAM, 24" LCD-Monitor um €523,48 (statt: €555,--) bei Rabo Networks Shop
30.07.2014, 00:44 -5.55% Komplettsystem Intel Core i7-2700K, 4GB RAM, 22" LCD-Monitor um €495,88 (statt: €525,--) bei Rabo Networks Shop
30.07.2014, 00:44 -5.32% Komplettsystem Intel Core i7-2700K, 4GB RAM, 20" LCD-Monitor um €487,60 (statt: €515,--) bei Rabo Networks Shop
30.07.2014, 00:44 -8.00% Komplettsystem Intel Core i7-2700K, 4GB RAM, 19" LCD-Monitor um €470,12 (statt: €511,--) bei Rabo Networks Shop
30.07.2014, 00:44 -4.97% Komplettsystem Intel Core i7-2700K, 4GB RAM um €403,88 (statt: €425,--) bei Rabo Networks Shop
30.07.2014, 00:44 -5.64% Komplettsystem Intel Core i7-2700K, 2GB RAM, 24" LCD-Monitor um €514,28 (statt: €545,--) bei Rabo Networks Shop
30.07.2014, 00:44 -4.95% Komplettsystem Intel Core i7-2700K, 2GB RAM, 22" LCD-Monitor um €486,68 (statt: €512,--) bei Rabo Networks Shop
30.07.2014, 00:44 -4.36% Komplettsystem Intel Core i7-2700K, 2GB RAM, 20" LCD-Monitor um €483,-- (statt: €505,--) bei Rabo Networks Shop
30.07.2014, 00:44 -8.00% Komplettsystem Intel Core i7-2700K, 2GB RAM, 19" LCD-Monitor um €464,60 (statt: €505,--) bei Rabo Networks Shop
30.07.2014, 00:44 -3.97% Komplettsystem Intel Core i7-2700K, 2GB RAM um €394,68 (statt: €411,--) bei Rabo Networks Shop
30.07.2014, 00:44 -8.00% Komplettsystem Intel Core i7-2600K, 8GB RAM, 24" LCD-Monitor um €519,80 (statt: €565,--) bei Rabo Networks Shop
30.07.2014, 00:44 -8.00% Komplettsystem Intel Core i7-2600K, 8GB RAM, 22" LCD-Monitor um €492,20 (statt: €535,--) bei Rabo Networks Shop
30.07.2014, 00:44 -8.00% Komplettsystem Intel Core i7-2600K, 8GB RAM, 20" LCD-Monitor um €488,52 (statt: €531,--) bei Rabo Networks Shop
30.07.2014, 00:44 -8.00% Komplettsystem Intel Core i7-2600K, 8GB RAM, 19" LCD-Monitor um €465,42 (statt: €505,90) bei Rabo Networks Shop
30.07.2014, 00:44 -8.00% Komplettsystem Intel Core i7-2600K, 6GB RAM, 24" LCD-Monitor um €510,60 (statt: €555,--) bei Rabo Networks Shop
30.07.2014, 00:44 -8.00% Komplettsystem Intel Core i7-2600K, 6GB RAM, 22" LCD-Monitor um €483,-- (statt: €525,--) bei Rabo Networks Shop
30.07.2014, 00:44 -8.00% Komplettsystem Intel Core i7-2600K, 6GB RAM, 20" LCD-Monitor um €477,48 (statt: €519,--) bei Rabo Networks Shop
30.07.2014, 00:44 -8.00% Komplettsystem Intel Core i7-2600K, 6GB RAM, 19" LCD-Monitor um €459,08 (statt: €499,--) bei Rabo Networks Shop
30.07.2014, 00:44 -8.00% Komplettsystem Intel Core i7-2600K, 6GB RAM um €391,-- (statt: €425,--) bei Rabo Networks Shop
30.07.2014, 00:44 -8.00% Komplettsystem Intel Core i7-2600K, 4GB RAM, 24" LCD-Monitor um €508,76 (statt: €553,--) bei Rabo Networks Shop
30.07.2014, 00:44 -8.00% Komplettsystem Intel Core i7-2600K, 4GB RAM, 22" LCD-Monitor um €477,48 (statt: €519,--) bei Rabo Networks Shop
30.07.2014, 00:44 -8.00% Komplettsystem Intel Core i7-2600K, 4GB RAM, 20" LCD-Monitor um €468,28 (statt: €509,--) bei Rabo Networks Shop
30.07.2014, 00:44 -8.00% Komplettsystem Intel Core i7-2600K, 4GB RAM, 19" LCD-Monitor um €452,64 (statt: €492,--) bei Rabo Networks Shop
30.07.2014, 00:44 -2.62% Komplettsystem Intel Core i7-2600K, 4GB RAM um €366,16 (statt: €376,--) bei Rabo Networks Shop
30.07.2014, 00:44 -8.00% Komplettsystem Intel Core i7-2600K, 3GB RAM, 24" LCD-Monitor um €501,40 (statt: €545,--) bei Rabo Networks Shop
30.07.2014, 00:44 -8.00% Komplettsystem Intel Core i7-2600K, 3GB RAM, 22" LCD-Monitor um €464,60 (statt: €505,--) bei Rabo Networks Shop
30.07.2014, 00:44 -8.00% Komplettsystem Intel Core i7-2600K, 3GB RAM, 20" LCD-Monitor um €468,28 (statt: €509,--) bei Rabo Networks Shop
30.07.2014, 00:44 -8.00% Komplettsystem Intel Core i7-2600K, 3GB RAM, 19" LCD-Monitor um €446,20 (statt: €485,--) bei Rabo Networks Shop
30.07.2014, 00:44 -8.00% Komplettsystem Intel Core i7-2600K, 3GB RAM um €379,96 (statt: €413,--) bei Rabo Networks Shop
30.07.2014, 00:44 -8.00% Komplettsystem Intel Core i7-2600K, 2GB RAM, 24" LCD-Monitor um €492,20 (statt: €535,--) bei Rabo Networks Shop
30.07.2014, 00:44 -8.00% Komplettsystem Intel Core i7-2600K, 2GB RAM, 22" LCD-Monitor um €468,28 (statt: €509,--) bei Rabo Networks Shop
30.07.2014, 00:44 -8.00% Komplettsystem Intel Core i7-2600K, 2GB RAM, 20" LCD-Monitor um €462,76 (statt: €503,--) bei Rabo Networks Shop
30.07.2014, 00:44 -8.00% Komplettsystem Intel Core i7-2600K, 2GB RAM, 19" LCD-Monitor um €440,68 (statt: €479,--) bei Rabo Networks Shop
30.07.2014, 00:44 -2.63% Komplettsystem Intel Core i7-2600K, 2GB RAM um €350,52 (statt: €360,--) bei Rabo Networks Shop
30.07.2014, 00:44 -8.00% Komplettsystem Intel Core i7-2600K, 1GB RAM, 24" LCD-Monitor um €495,88 (statt: €539,--) bei Rabo Networks Shop
30.07.2014, 00:44 -8.00% Komplettsystem Intel Core i7-2600K, 1GB RAM, 22" LCD-Monitor um €468,28 (statt: €509,--) bei Rabo Networks Shop
30.07.2014, 00:44 -8.00% Komplettsystem Intel Core i7-2600K, 1GB RAM, 20" LCD-Monitor um €460,-- (statt: €500,--) bei Rabo Networks Shop
30.07.2014, 00:44 -8.00% Komplettsystem Intel Core i7-2600K, 1GB RAM, 19" LCD-Monitor um €437,-- (statt: €475,--) bei Rabo Networks Shop
30.07.2014, 00:44 -2.75% Komplettsystem Intel Core i7-2600K, 1GB RAM um €357,88 (statt: €368,--) bei Rabo Networks Shop
30.07.2014, 00:44 -5.10% Komplettsystem Intel Core i7-2600K, 16GB RAM, 24" LCD-Monitor um €602,60 (statt: €635,--) bei Rabo Networks Shop
30.07.2014, 00:44 -4.23% Komplettsystem Intel Core i7-2600K, 16GB RAM, 22" LCD-Monitor um €560,28 (statt: €585,--) bei Rabo Networks Shop
30.07.2014, 00:44 -8.00% Komplettsystem Intel Core i7-2600K, 16GB RAM, 20" LCD-Monitor um €547,40 (statt: €595,--) bei Rabo Networks Shop
30.07.2014, 00:44 -8.00% Komplettsystem Intel Core i7-2600K, 16GB RAM, 19" LCD-Monitor um €529,92 (statt: €576,--) bei Rabo Networks Shop
30.07.2014, 00:44 -6.10% Komplettsystem Intel Core i7-2600K, 16GB RAM um €455,40 (statt: €485,--) bei Rabo Networks Shop
30.07.2014, 00:44 -6.49% Komplettsystem Intel Core i7-2600K, 12GB RAM, 24" LCD-Monitor um €569,48 (statt: €609,--) bei Rabo Networks Shop
30.07.2014, 00:44 -3.75% Komplettsystem Intel Core i7-2600K, 12GB RAM, 22" LCD-Monitor um €541,88 (statt: €563,--) bei Rabo Networks Shop
30.07.2014, 00:44 -7.52% Komplettsystem Intel Core i7-2600K, 12GB RAM, 20" LCD-Monitor um €531,76 (statt: €575,--) bei Rabo Networks Shop
30.07.2014, 00:44 -8.00% Komplettsystem Intel Core i7-2600K, 12GB RAM, 19" LCD-Monitor um €510,60 (statt: €555,--) bei Rabo Networks Shop
30.07.2014, 00:44 -3.63% Komplettsystem Intel Core i7-2600K, 12GB RAM um €446,20 (statt: €463,--) bei Rabo Networks Shop
30.07.2014, 00:44 -8.00% Komplettsystem Intel Core i7-2600, 8GB RAM, 24" LCD-Monitor um €501,40 (statt: €545,--) bei Rabo Networks Shop
30.07.2014, 00:44 -8.00% Komplettsystem Intel Core i7-2600, 8GB RAM, 22" LCD-Monitor um €481,16 (statt: €523,--) bei Rabo Networks Shop
30.07.2014, 00:44 -8.00% Komplettsystem Intel Core i7-2600, 8GB RAM, 20" LCD-Monitor um €487,60 (statt: €530,--) bei Rabo Networks Shop
30.07.2014, 00:44 -8.00% Komplettsystem Intel Core i7-2600, 8GB RAM, 19" LCD-Monitor um €449,88 (statt: €489,--) bei Rabo Networks Shop
30.07.2014, 00:44 -4.68% Komplettsystem Intel Core i7-2600, 8GB RAM um €365,70 (statt: €383,64) bei Rabo Networks Shop
30.07.2014, 00:44 -3.85% Komplettsystem Intel Core i7-2600, 8GB RAM um €383,64 (statt: €399,--) bei Rabo Networks Shop
30.07.2014, 00:44 -8.00% Komplettsystem Intel Core i7-2600, 6GB RAM, 24" LCD-Monitor um €512,44 (statt: €557,--) bei Rabo Networks Shop
30.07.2014, 00:44 -8.00% Komplettsystem Intel Core i7-2600, 6GB RAM, 22" LCD-Monitor um €460,-- (statt: €500,--) bei Rabo Networks Shop
30.07.2014, 00:44 -8.00% Komplettsystem Intel Core i7-2600, 6GB RAM, 20" LCD-Monitor um €477,48 (statt: €519,--) bei Rabo Networks Shop
30.07.2014, 00:44 -8.00% Komplettsystem Intel Core i7-2600, 6GB RAM, 19" LCD-Monitor um €440,68 (statt: €479,--) bei Rabo Networks Shop
30.07.2014, 00:44 -3.19% Komplettsystem Intel Core i7-2600, 6GB RAM um €391,-- (statt: €403,88) bei Rabo Networks Shop
30.07.2014, 00:44 -4.97% Komplettsystem Intel Core i7-2600, 6GB RAM um €403,88 (statt: €425,--) bei Rabo Networks Shop
30.07.2014, 00:44 -8.00% Komplettsystem Intel Core i7-2600, 4GB RAM, 24" LCD-Monitor um €487,60 (statt: €530,--) bei Rabo Networks Shop
30.07.2014, 00:44 -8.00% Komplettsystem Intel Core i7-2600, 4GB RAM, 22" LCD-Monitor um €452,64 (statt: €492,--) bei Rabo Networks Shop
30.07.2014, 00:44 -8.00% Komplettsystem Intel Core i7-2600, 4GB RAM, 20" LCD-Monitor um €468,28 (statt: €509,--) bei Rabo Networks Shop
30.07.2014, 00:44 -8.00% Komplettsystem Intel Core i7-2600, 4GB RAM, 19" LCD-Monitor um €435,16 (statt: €473,--) bei Rabo Networks Shop
30.07.2014, 00:44 -2.36% Komplettsystem Intel Core i7-2600, 4GB RAM um €366,16 (statt: €375,--) bei Rabo Networks Shop
30.07.2014, 00:44 -8.00% Komplettsystem Intel Core i7-2600, 3GB RAM, 24" LCD-Monitor um €483,-- (statt: €525,--) bei Rabo Networks Shop
30.07.2014, 00:44 -8.00% Komplettsystem Intel Core i7-2600, 3GB RAM, 22" LCD-Monitor um €449,88 (statt: €489,--) bei Rabo Networks Shop
30.07.2014, 00:44 -8.00% Komplettsystem Intel Core i7-2600, 3GB RAM, 20" LCD-Monitor um €464,60 (statt: €505,--) bei Rabo Networks Shop
30.07.2014, 00:44 -8.00% Komplettsystem Intel Core i7-2600, 3GB RAM, 19" LCD-Monitor um €431,48 (statt: €469,--) bei Rabo Networks Shop
30.07.2014, 00:44 -8.00% Komplettsystem Intel Core i7-2600, 3GB RAM um €385,48 (statt: €419,--) bei Rabo Networks Shop
30.07.2014, 00:44 -7.29% Komplettsystem Intel Core i7-2600, 2GB RAM, 24" LCD-Monitor um €501,40 (statt: €540,80) bei Rabo Networks Shop
30.07.2014, 00:44 -4.78% Komplettsystem Intel Core i7-2600, 2GB RAM, 22" LCD-Monitor um €468,28 (statt: €491,80) bei Rabo Networks Shop
30.07.2014, 00:44 -8.00% Komplettsystem Intel Core i7-2600, 2GB RAM, 20" LCD-Monitor um €467,36 (statt: €508,--) bei Rabo Networks Shop
30.07.2014, 00:44 -8.00% Komplettsystem Intel Core i7-2600, 2GB RAM, 19" LCD-Monitor um €446,20 (statt: €485,--) bei Rabo Networks Shop
30.07.2014, 00:44 -5.86% Komplettsystem Intel Core i7-2600, 2GB RAM um €368,92 (statt: €391,90) bei Rabo Networks Shop
30.07.2014, 00:44 -7.78% Komplettsystem Intel Core i7-2600, 1GB RAM, 24" LCD-Monitor um €495,88 (statt: €537,70) bei Rabo Networks Shop
30.07.2014, 00:44 -4.93% Komplettsystem Intel Core i7-2600, 1GB RAM, 22" LCD-Monitor um €464,60 (statt: €488,70) bei Rabo Networks Shop
30.07.2014, 00:44 -8.00% Komplettsystem Intel Core i7-2600, 1GB RAM, 20" LCD-Monitor um €459,08 (statt: €499,--) bei Rabo Networks Shop
30.07.2014, 00:44 -8.00% Komplettsystem Intel Core i7-2600, 1GB RAM, 19" LCD-Monitor um €437,-- (statt: €475,--) bei Rabo Networks Shop
30.07.2014, 00:44 -3.22% Komplettsystem Intel Core i7-2600, 1GB RAM um €376,28 (statt: €388,80) bei Rabo Networks Shop
30.07.2014, 00:44 -8.00% Komplettsystem Intel Core i7-2600, 16GB RAM, 24" LCD-Monitor um €569,48 (statt: €619,--) bei Rabo Networks Shop
30.07.2014, 00:44 -4.80% Komplettsystem Intel Core i7-2600, 16GB RAM, 22" LCD-Monitor um €547,40 (statt: €575,--) bei Rabo Networks Shop
30.07.2014, 00:44 -8.00% Komplettsystem Intel Core i7-2600, 16GB RAM, 20" LCD-Monitor um €532,68 (statt: €579,--) bei Rabo Networks Shop
30.07.2014, 00:44 -8.00% Komplettsystem Intel Core i7-2600, 16GB RAM, 19" LCD-Monitor um €512,44 (statt: €557,--) bei Rabo Networks Shop
30.07.2014, 00:44 -1.24% Komplettsystem Intel Core i7-2600, 16GB RAM um €440,68 (statt: €446,20) bei Rabo Networks Shop
30.07.2014, 00:44 -6.85% Komplettsystem Intel Core i7-2600, 16GB RAM um €446,20 (statt: €479,--) bei Rabo Networks Shop
30.07.2014, 00:44 -8.00% Komplettsystem Intel Core i7-2600, 12GB RAM, 24" LCD-Monitor um €551,08 (statt: €599,--) bei Rabo Networks Shop
30.07.2014, 00:44 -8.00% Komplettsystem Intel Core i7-2600, 12GB RAM, 20" LCD-Monitor um €516,12 (statt: €561,--) bei Rabo Networks Shop
30.07.2014, 00:44 -8.00% Komplettsystem Intel Core i7-2600, 12GB RAM, 19" LCD-Monitor um €495,88 (statt: €539,--) bei Rabo Networks Shop
30.07.2014, 00:44 -3.53% Komplettsystem Intel Core i7-2600, 12GB RAM um €437,-- (statt: €453,--) bei Rabo Networks Shop
30.07.2014, 00:44 -8.00% Komplettsystem Intel Core i5-760, 4GB RAM um €326,60 (statt: €355,--) bei Rabo Networks Shop
30.07.2014, 00:44 -8.00% Komplettsystem Intel Core i5-760, 2GB RAM um €315,56 (statt: €343,--) bei Rabo Networks Shop
30.07.2014, 00:44 -2.58% Komplettsystem Intel Core i5-661, 4GB RAM um €333,96 (statt: €342,80) bei Rabo Networks Shop
30.07.2014, 00:44 -7.57% Komplettsystem Intel Core i5-3570K, 4GB RAM, 19" LCD-Monitor um €394,68 (statt: €427,--) bei Rabo Networks Shop
30.07.2014, 00:44 -1.24% Komplettsystem Intel Core i5-3570K, 4GB RAM um €335,80 (statt: €340,--) bei Rabo Networks Shop
30.07.2014, 00:44 -6.24% Komplettsystem Intel Core i5-3570K, 2GB RAM, 24" LCD-Monitor um €440,68 (statt: €470,--) bei Rabo Networks Shop
30.07.2014, 00:44 -2.65% Komplettsystem Intel Core i5-3570K, 2GB RAM, 22" LCD-Monitor um €418,60 (statt: €430,--) bei Rabo Networks Shop
30.07.2014, 00:44 -4.79% Komplettsystem Intel Core i5-3570K, 2GB RAM, 20" LCD-Monitor um €409,40 (statt: €430,--) bei Rabo Networks Shop
30.07.2014, 00:44 -7.57% Komplettsystem Intel Core i5-3570K, 2GB RAM, 19" LCD-Monitor um €391,-- (statt: €423,--) bei Rabo Networks Shop
30.07.2014, 00:44 -5.17% Komplettsystem Intel Core i5-3450, 8GB RAM, 24" LCD-Monitor um €431,48 (statt: €455,--) bei Rabo Networks Shop
30.07.2014, 00:44 -6.25% Komplettsystem Intel Core i5-3450, 8GB RAM, 22" LCD-Monitor um €403,88 (statt: €430,80) bei Rabo Networks Shop
30.07.2014, 00:44 -4.40% Komplettsystem Intel Core i5-3450, 8GB RAM, 20" LCD-Monitor um €391,-- (statt: €409,--) bei Rabo Networks Shop
30.07.2014, 00:44 -6.62% Komplettsystem Intel Core i5-3450, 8GB RAM, 19" LCD-Monitor um €372,60 (statt: €399,--) bei Rabo Networks Shop
30.07.2014, 00:44 -6.24% Komplettsystem Intel Core i5-3450, 6GB RAM, 22" LCD-Monitor um €391,-- (statt: €417,--) bei Rabo Networks Shop
30.07.2014, 00:44 -3.46% Komplettsystem Intel Core i5-3450, 6GB RAM, 20" LCD-Monitor um €391,-- (statt: €405,--) bei Rabo Networks Shop
30.07.2014, 00:44 -7.08% Komplettsystem Intel Core i5-3450, 6GB RAM, 19" LCD-Monitor um €370,76 (statt: €399,--) bei Rabo Networks Shop
30.07.2014, 00:44 -2.78% Komplettsystem Intel Core i5-3450, 6GB RAM um €308,20 (statt: €317,--) bei Rabo Networks Shop
30.07.2014, 00:44 -3.77% Komplettsystem Intel Core i5-3450, 4GB RAM, 24" LCD-Monitor um €418,60 (statt: €435,--) bei Rabo Networks Shop
30.07.2014, 00:44 -5.10% Komplettsystem Intel Core i5-3450, 4GB RAM, 22" LCD-Monitor um €391,-- (statt: €412,--) bei Rabo Networks Shop
30.07.2014, 00:44 -4.35% Komplettsystem Intel Core i5-3450, 4GB RAM, 20" LCD-Monitor um €385,48 (statt: €403,--) bei Rabo Networks Shop
30.07.2014, 00:44 -8.00% Komplettsystem Intel Core i5-3450, 4GB RAM, 19" LCD-Monitor um €363,40 (statt: €395,--) bei Rabo Networks Shop
30.07.2014, 00:44 -2.61% Komplettsystem Intel Core i5-3450, 4GB RAM um €299,-- (statt: €307,--) bei Rabo Networks Shop
30.07.2014, 00:44 -4.88% Komplettsystem Intel Core i5-3450, 3GB RAM, 24" LCD-Monitor um €421,36 (statt: €443,--) bei Rabo Networks Shop
30.07.2014, 00:44 -5.75% Komplettsystem Intel Core i5-3450, 3GB RAM, 22" LCD-Monitor um €385,48 (statt: €409,--) bei Rabo Networks Shop
30.07.2014, 00:44 -8.00% Komplettsystem Intel Core i5-3450, 3GB RAM, 20" LCD-Monitor um €367,08 (statt: €399,--) bei Rabo Networks Shop
30.07.2014, 00:44 -9.61% Komplettsystem Intel Core i5-3450, 3GB RAM, 19" LCD-Monitor um €360,64 (statt: €399,--) bei Rabo Networks Shop
30.07.2014, 00:44 -5.89% Komplettsystem Intel Core i5-3450, 2GB RAM, 24" LCD-Monitor um €409,40 (statt: €435,--) bei Rabo Networks Shop
30.07.2014, 00:44 -3.72% Komplettsystem Intel Core i5-3450, 2GB RAM, 22" LCD-Monitor um €376,28 (statt: €390,80) bei Rabo Networks Shop
30.07.2014, 00:44 -3.34% Komplettsystem Intel Core i5-3450, 2GB RAM, 20" LCD-Monitor um €381,80 (statt: €395,--) bei Rabo Networks Shop
30.07.2014, 00:44 -7.28% Komplettsystem Intel Core i5-3450, 2GB RAM, 19" LCD-Monitor um €354,20 (statt: €382,--) bei Rabo Networks Shop
30.07.2014, 00:44 -2.28% Komplettsystem Intel Core i5-3450, 2GB RAM um €284,28 (statt: €290,90) bei Rabo Networks Shop
30.07.2014, 00:44 -7.24% Komplettsystem Intel Core i5-2500K, 8GB RAM, 24" LCD-Monitor um €449,88 (statt: €485,--) bei Rabo Networks Shop
30.07.2014, 00:44 -6.99% Komplettsystem Intel Core i5-2500K, 8GB RAM, 22" LCD-Monitor um €423,20 (statt: €455,--) bei Rabo Networks Shop
30.07.2014, 00:44 -6.97% Komplettsystem Intel Core i5-2500K, 8GB RAM, 20" LCD-Monitor um €414,-- (statt: €445,--) bei Rabo Networks Shop
30.07.2014, 00:44 -8.00% Komplettsystem Intel Core i5-2500K, 8GB RAM, 19" LCD-Monitor um €391,92 (statt: €426,--) bei Rabo Networks Shop
30.07.2014, 00:44 -7.40% Komplettsystem Intel Core i5-2500K, 8GB RAM um €299,-- (statt: €322,90) bei Rabo Networks Shop
30.07.2014, 00:44 -6.62% Komplettsystem Intel Core i5-2500K, 6GB RAM, 24" LCD-Monitor um €437,-- (statt: €468,--) bei Rabo Networks Shop
30.07.2014, 00:44 -6.53% Komplettsystem Intel Core i5-2500K, 6GB RAM, 22" LCD-Monitor um €409,40 (statt: €438,--) bei Rabo Networks Shop
30.07.2014, 00:44 -5.40% Komplettsystem Intel Core i5-2500K, 6GB RAM, 20" LCD-Monitor um €402,04 (statt: €425,--) bei Rabo Networks Shop
30.07.2014, 00:44 -8.00% Komplettsystem Intel Core i5-2500K, 6GB RAM, 19" LCD-Monitor um €383,64 (statt: €417,--) bei Rabo Networks Shop
30.07.2014, 00:44 -7.46% Komplettsystem Intel Core i5-2500K, 6GB RAM um €317,40 (statt: €343,--) bei Rabo Networks Shop
30.07.2014, 00:44 -6.82% Komplettsystem Intel Core i5-2500K, 4GB RAM, 24" LCD-Monitor um €434,24 (statt: €466,--) bei Rabo Networks Shop
30.07.2014, 00:44 -8.00% Komplettsystem Intel Core i5-2500K, 4GB RAM, 22" LCD-Monitor um €393,66 (statt: €427,90) bei Rabo Networks Shop
30.07.2014, 00:44 -7.14% Komplettsystem Intel Core i5-2500K, 4GB RAM, 20" LCD-Monitor um €395,60 (statt: €426,--) bei Rabo Networks Shop
30.07.2014, 00:44 -8.00% Komplettsystem Intel Core i5-2500K, 4GB RAM, 19" LCD-Monitor um €379,04 (statt: €412,--) bei Rabo Networks Shop
30.07.2014, 00:44 -5.69% Komplettsystem Intel Core i5-2500K, 4GB RAM um €281,52 (statt: €298,50) bei Rabo Networks Shop
30.07.2014, 00:44 -6.81% Komplettsystem Intel Core i5-2500K, 3GB RAM, 24" LCD-Monitor um €431,48 (statt: €463,--) bei Rabo Networks Shop
30.07.2014, 00:44 -8.00% Komplettsystem Intel Core i5-2500K, 3GB RAM, 22" LCD-Monitor um €391,-- (statt: €425,--) bei Rabo Networks Shop
30.07.2014, 00:44 -5.13% Komplettsystem Intel Core i5-2500K, 3GB RAM, 20" LCD-Monitor um €395,60 (statt: €417,--) bei Rabo Networks Shop
30.07.2014, 00:44 -8.00% Komplettsystem Intel Core i5-2500K, 3GB RAM, 19" LCD-Monitor um €372,60 (statt: €405,--) bei Rabo Networks Shop
30.07.2014, 00:44 -8.00% Komplettsystem Intel Core i5-2500K, 3GB RAM um €308,20 (statt: €335,--) bei Rabo Networks Shop
30.07.2014, 00:44 -8.00% Komplettsystem Intel Core i5-2500K, 2GB RAM, 24" LCD-Monitor um €416,76 (statt: €453,--) bei Rabo Networks Shop
30.07.2014, 00:44 -8.00% Komplettsystem Intel Core i5-2500K, 2GB RAM, 22" LCD-Monitor um €389,16 (statt: €423,--) bei Rabo Networks Shop
30.07.2014, 00:44 -6.24% Komplettsystem Intel Core i5-2500K, 2GB RAM, 20" LCD-Monitor um €391,-- (statt: €417,--) bei Rabo Networks Shop
30.07.2014, 00:44 -8.00% Komplettsystem Intel Core i5-2500K, 2GB RAM, 19" LCD-Monitor um €367,08 (statt: €399,--) bei Rabo Networks Shop
30.07.2014, 00:44 -8.00% Komplettsystem Intel Core i5-2500K, 2GB RAM um €274,16 (statt: €298,--) bei Rabo Networks Shop
30.07.2014, 00:44 -6.99% Komplettsystem Intel Core i5-2500K, 1GB RAM, 24" LCD-Monitor um €423,20 (statt: €455,--) bei Rabo Networks Shop
30.07.2014, 00:44 -6.92% Komplettsystem Intel Core i5-2500K, 1GB RAM, 22" LCD-Monitor um €395,60 (statt: €425,--) bei Rabo Networks Shop
30.07.2014, 00:44 -7.11% Komplettsystem Intel Core i5-2500K, 1GB RAM, 20" LCD-Monitor um €385,48 (statt: €415,--) bei Rabo Networks Shop
30.07.2014, 00:44 -8.00% Komplettsystem Intel Core i5-2500K, 1GB RAM, 19" LCD-Monitor um €368,-- (statt: €400,--) bei Rabo Networks Shop
30.07.2014, 00:44 -4.88% Komplettsystem Intel Core i5-2500K, 1GB RAM um €280,60 (statt: €295,--) bei Rabo Networks Shop
30.07.2014, 00:44 -8.88% Komplettsystem Intel Core i5-2500K, 16GB RAM um €381,80 (statt: €419,--) bei Rabo Networks Shop
30.07.2014, 00:44 -8.00% Komplettsystem Intel Core i5-2500K, 12GB RAM um €360,64 (statt: €392,--) bei Rabo Networks Shop
30.07.2014, 00:44 -4.04% Komplettsystem Intel Core i5-2500, 8GB RAM um €311,88 (statt: €325,--) bei Rabo Networks Shop
30.07.2014, 00:44 -5.02% Komplettsystem Intel Core i5-2500, 4GB RAM um €293,48 (statt: €309,--) bei Rabo Networks Shop
30.07.2014, 00:44 -4.82% Komplettsystem Intel Core i5-2500, 1GB RAM, 20" LCD-Monitor um €385,48 (statt: €405,--) bei Rabo Networks Shop
30.07.2014, 00:44 -8.00% Komplettsystem Intel Core i5-2500, 1GB RAM, 19" LCD-Monitor um €367,08 (statt: €399,--) bei Rabo Networks Shop
30.07.2014, 00:44 -3.78% Komplettsystem Intel Core i5-2500, 1GB RAM um €293,48 (statt: €305,--) bei Rabo Networks Shop
30.07.2014, 00:44 -8.00% Komplettsystem Intel Core i5-2400, 4GB RAM um €278,76 (statt: €303,--) bei Rabo Networks Shop
30.07.2014, 00:44 -8.00% Komplettsystem Intel Core i5-2400, 2GB RAM um €268,64 (statt: €292,--) bei Rabo Networks Shop
30.07.2014, 00:44 -8.00% Komplettsystem Intel Core i5-2310, 4GB RAM, 19" LCD-Monitor um €343,16 (statt: €373,--) bei Rabo Networks Shop
30.07.2014, 00:44 -8.00% Komplettsystem Intel Core i5-2310, 4GB RAM um €278,76 (statt: €303,--) bei Rabo Networks Shop
30.07.2014, 00:44 -8.00% Komplettsystem Intel Core i5-2310, 3GB RAM, 24" LCD-Monitor um €395,60 (statt: €430,--) bei Rabo Networks Shop
30.07.2014, 00:44 -8.00% Komplettsystem Intel Core i5-2310, 3GB RAM, 22" LCD-Monitor um €367,08 (statt: €399,--) bei Rabo Networks Shop
30.07.2014, 00:44 -8.00% Komplettsystem Intel Core i5-2310, 3GB RAM, 20" LCD-Monitor um €356,96 (statt: €388,--) bei Rabo Networks Shop
30.07.2014, 00:44 -8.00% Komplettsystem Intel Core i5-2310, 3GB RAM, 19" LCD-Monitor um €341,32 (statt: €371,--) bei Rabo Networks Shop
30.07.2014, 00:44 -8.00% Komplettsystem Intel Core i5-2310, 3GB RAM um €274,16 (statt: €298,--) bei Rabo Networks Shop
30.07.2014, 00:44 -8.00% Komplettsystem Intel Core i5-2310, 2GB RAM, 24" LCD-Monitor um €392,84 (statt: €427,--) bei Rabo Networks Shop
30.07.2014, 00:44 -6.34% Komplettsystem Intel Core i5-2310, 2GB RAM, 22" LCD-Monitor um €363,40 (statt: €388,--) bei Rabo Networks Shop
30.07.2014, 00:44 -8.00% Komplettsystem Intel Core i5-2310, 2GB RAM, 20" LCD-Monitor um €356,04 (statt: €387,--) bei Rabo Networks Shop
30.07.2014, 00:44 -8.00% Komplettsystem Intel Core i5-2310, 2GB RAM, 19" LCD-Monitor um €336,72 (statt: €366,--) bei Rabo Networks Shop
30.07.2014, 00:44 -8.00% Komplettsystem Intel Core i5-2310, 2GB RAM um €259,44 (statt: €282,--) bei Rabo Networks Shop
30.07.2014, 00:44 -8.00% Komplettsystem Intel Core i5-2300, 8GB RAM, 24" LCD-Monitor um €418,60 (statt: €455,--) bei Rabo Networks Shop
30.07.2014, 00:44 -8.00% Komplettsystem Intel Core i5-2300, 8GB RAM, 22" LCD-Monitor um €392,84 (statt: €427,--) bei Rabo Networks Shop
30.07.2014, 00:44 -8.00% Komplettsystem Intel Core i5-2300, 8GB RAM, 20" LCD-Monitor um €383,64 (statt: €417,--) bei Rabo Networks Shop
30.07.2014, 00:44 -8.00% Komplettsystem Intel Core i5-2300, 8GB RAM, 19" LCD-Monitor um €363,40 (statt: €395,--) bei Rabo Networks Shop
30.07.2014, 00:44 -4.93% Komplettsystem Intel Core i5-2300, 8GB RAM um €259,44 (statt: €272,90) bei Rabo Networks Shop
30.07.2014, 00:44 -8.00% Komplettsystem Intel Core i5-2300, 6GB RAM, 24" LCD-Monitor um €407,56 (statt: €443,--) bei Rabo Networks Shop
30.07.2014, 00:44 -8.00% Komplettsystem Intel Core i5-2300, 6GB RAM, 22" LCD-Monitor um €379,96 (statt: €413,--) bei Rabo Networks Shop
30.07.2014, 00:44 -8.00% Komplettsystem Intel Core i5-2300, 6GB RAM, 20" LCD-Monitor um €370,76 (statt: €403,--) bei Rabo Networks Shop
30.07.2014, 00:44 -8.00% Komplettsystem Intel Core i5-2300, 6GB RAM, 19" LCD-Monitor um €351,44 (statt: €382,--) bei Rabo Networks Shop
30.07.2014, 00:44 -8.00% Komplettsystem Intel Core i5-2300, 6GB RAM um €289,80 (statt: €315,--) bei Rabo Networks Shop
30.07.2014, 00:44 -8.00% Komplettsystem Intel Core i5-2300, 4GB RAM, 24" LCD-Monitor um €403,88 (statt: €439,--) bei Rabo Networks Shop
30.07.2014, 00:44 -7.09% Komplettsystem Intel Core i5-2300, 4GB RAM, 22" LCD-Monitor um €376,28 (statt: €405,--) bei Rabo Networks Shop
30.07.2014, 00:44 -8.00% Komplettsystem Intel Core i5-2300, 4GB RAM, 20" LCD-Monitor um €367,08 (statt: €399,--) bei Rabo Networks Shop
30.07.2014, 00:44 -8.00% Komplettsystem Intel Core i5-2300, 4GB RAM, 19" LCD-Monitor um €348,68 (statt: €379,--) bei Rabo Networks Shop
30.07.2014, 00:44 -2.31% Komplettsystem Intel Core i5-2300, 4GB RAM um €251,06 (statt: €257,--) bei Rabo Networks Shop
30.07.2014, 00:44 -8.00% Komplettsystem Intel Core i5-2300, 3GB RAM, 24" LCD-Monitor um €402,96 (statt: €438,--) bei Rabo Networks Shop
30.07.2014, 00:44 -8.00% Komplettsystem Intel Core i5-2300, 3GB RAM, 22" LCD-Monitor um €373,42 (statt: €405,90) bei Rabo Networks Shop
30.07.2014, 00:44 -8.00% Komplettsystem Intel Core i5-2300, 3GB RAM, 20" LCD-Monitor um €366,16 (statt: €398,--) bei Rabo Networks Shop
30.07.2014, 00:44 -8.00% Komplettsystem Intel Core i5-2300, 3GB RAM, 19" LCD-Monitor um €347,76 (statt: €378,--) bei Rabo Networks Shop
30.07.2014, 00:44 -8.00% Komplettsystem Intel Core i5-2300, 3GB RAM um €284,28 (statt: €309,--) bei Rabo Networks Shop
30.07.2014, 00:44 -8.00% Komplettsystem Intel Core i5-2300, 2GB RAM, 24" LCD-Monitor um €398,36 (statt: €433,--) bei Rabo Networks Shop
30.07.2014, 00:44 -6.15% Komplettsystem Intel Core i5-2300, 2GB RAM, 22" LCD-Monitor um €367,90 (statt: €392,--) bei Rabo Networks Shop
30.07.2014, 00:44 -8.00% Komplettsystem Intel Core i5-2300, 2GB RAM, 20" LCD-Monitor um €358,80 (statt: €390,--) bei Rabo Networks Shop
30.07.2014, 00:44 -8.00% Komplettsystem Intel Core i5-2300, 2GB RAM, 19" LCD-Monitor um €343,16 (statt: €373,--) bei Rabo Networks Shop
30.07.2014, 00:44 -8.00% Komplettsystem Intel Core i5-2300, 1GB RAM, 24" LCD-Monitor um €392,84 (statt: €427,--) bei Rabo Networks Shop
30.07.2014, 00:44 -5.61% Komplettsystem Intel Core i5-2300, 1GB RAM, 22" LCD-Monitor um €363,40 (statt: €385,--) bei Rabo Networks Shop
30.07.2014, 00:44 -8.00% Komplettsystem Intel Core i5-2300, 1GB RAM, 20" LCD-Monitor um €356,04 (statt: €387,--) bei Rabo Networks Shop
30.07.2014, 00:44 -8.00% Komplettsystem Intel Core i5-2300, 1GB RAM, 19" LCD-Monitor um €336,72 (statt: €366,--) bei Rabo Networks Shop
30.07.2014, 00:44 -2.39% Komplettsystem Intel Core i5-2300, 1GB RAM um €240,12 (statt: €246,--) bei Rabo Networks Shop
30.07.2014, 00:44 -2.53% Komplettsystem Intel Core i5-2300, 16GB RAM, 24" LCD-Monitor um €492,20 (statt: €505,--) bei Rabo Networks Shop
30.07.2014, 00:44 -3.35% Komplettsystem Intel Core i5-2300, 16GB RAM, 20" LCD-Monitor um €459,08 (statt: €475,--) bei Rabo Networks Shop
30.07.2014, 00:44 -3.75% Komplettsystem Intel Core i5-2300, 16GB RAM, 19" LCD-Monitor um €437,92 (statt: €455,--) bei Rabo Networks Shop
30.07.2014, 00:44 -3.15% Komplettsystem Intel Core i5-2300, 12GB RAM, 20" LCD-Monitor um €440,68 (statt: €455,--) bei Rabo Networks Shop
30.07.2014, 00:44 -1.51% Komplettsystem Intel Core i5-2300, 12GB RAM, 19" LCD-Monitor um €418,60 (statt: €425,--) bei Rabo Networks Shop
30.07.2014, 00:44 -8.00% Komplettsystem Intel Core i3-540, 4GB RAM um €250,24 (statt: €272,--) bei Rabo Networks Shop
30.07.2014, 00:44 -3.81% Komplettsystem Intel Core i3-2120, 8GB RAM, 24" LCD-Monitor um €379,96 (statt: €395,--) bei Rabo Networks Shop
30.07.2014, 00:44 -4.73% Komplettsystem Intel Core i3-2120, 8GB RAM, 22" LCD-Monitor um €348,68 (statt: €366,--) bei Rabo Networks Shop
30.07.2014, 00:44 -3.34% Komplettsystem Intel Core i3-2120, 8GB RAM, 20" LCD-Monitor um €343,16 (statt: €355,--) bei Rabo Networks Shop
30.07.2014, 00:44 -7.21% Komplettsystem Intel Core i3-2120, 8GB RAM, 19" LCD-Monitor um €324,76 (statt: €350,--) bei Rabo Networks Shop
30.07.2014, 00:44 -3.57% Komplettsystem Intel Core i3-2120, 6GB RAM, 22" LCD-Monitor um €340,40 (statt: €353,--) bei Rabo Networks Shop
30.07.2014, 00:44 -3.44% Komplettsystem Intel Core i3-2120, 6GB RAM, 20" LCD-Monitor um €331,20 (statt: €343,--) bei Rabo Networks Shop
30.07.2014, 00:44 -8.00% Komplettsystem Intel Core i3-2120, 6GB RAM, 19" LCD-Monitor um €311,88 (statt: €339,--) bei Rabo Networks Shop
30.07.2014, 00:44 -3.27% Komplettsystem Intel Core i3-2120, 6GB RAM um €244,72 (statt: €253,--) bei Rabo Networks Shop
30.07.2014, 00:44 -3.09% Komplettsystem Intel Core i3-2120, 4GB RAM, 24" LCD-Monitor um €363,40 (statt: €375,--) bei Rabo Networks Shop
30.07.2014, 00:44 -3.20% Komplettsystem Intel Core i3-2120, 4GB RAM, 22" LCD-Monitor um €333,96 (statt: €345,--) bei Rabo Networks Shop
30.07.2014, 00:44 -3.37% Komplettsystem Intel Core i3-2120, 4GB RAM, 20" LCD-Monitor um €326,60 (statt: €338,--) bei Rabo Networks Shop
30.07.2014, 00:44 -7.45% Komplettsystem Intel Core i3-2120, 4GB RAM, 19" LCD-Monitor um €308,20 (statt: €333,--) bei Rabo Networks Shop
30.07.2014, 00:44 -1.74% Komplettsystem Intel Core i3-2120, 4GB RAM um €230,92 (statt: €235,--) bei Rabo Networks Shop
30.07.2014, 00:44 -4.01% Komplettsystem Intel Core i3-2120, 3GB RAM, 24" LCD-Monitor um €354,20 (statt: €369,--) bei Rabo Networks Shop
30.07.2014, 00:44 -3.20% Komplettsystem Intel Core i3-2120, 3GB RAM, 22" LCD-Monitor um €333,96 (statt: €345,--) bei Rabo Networks Shop
30.07.2014, 00:44 -3.06% Komplettsystem Intel Core i3-2120, 3GB RAM, 20" LCD-Monitor um €324,76 (statt: €335,--) bei Rabo Networks Shop
30.07.2014, 00:44 -7.16% Komplettsystem Intel Core i3-2120, 3GB RAM, 19" LCD-Monitor um €306,36 (statt: €330,--) bei Rabo Networks Shop
30.07.2014, 00:44 -3.82% Komplettsystem Intel Core i3-2120, 2GB RAM, 22" LCD-Monitor um €317,40 (statt: €330,--) bei Rabo Networks Shop
30.07.2014, 00:44 -3.86% Komplettsystem Intel Core i3-2120, 2GB RAM, 20" LCD-Monitor um €320,16 (statt: €333,--) bei Rabo Networks Shop
30.07.2014, 00:44 -6.87% Komplettsystem Intel Core i3-2120, 2GB RAM, 19" LCD-Monitor um €302,68 (statt: €325,--) bei Rabo Networks Shop
30.07.2014, 00:44 -3.98% Komplettsystem Intel Core i3-2120, 1GB RAM, 24" LCD-Monitor um €351,44 (statt: €366,--) bei Rabo Networks Shop
30.07.2014, 00:44 -2.42% Komplettsystem Intel Core i3-2120, 1GB RAM, 22" LCD-Monitor um €322,-- (statt: €330,--) bei Rabo Networks Shop
30.07.2014, 00:44 -2.90% Komplettsystem Intel Core i3-2120, 1GB RAM, 20" LCD-Monitor um €315,56 (statt: €325,--) bei Rabo Networks Shop
30.07.2014, 00:44 -1.63% Komplettsystem Intel Core i3-2120, 16GB RAM, 24" LCD-Monitor um €440,68 (statt: €448,--) bei Rabo Networks Shop
30.07.2014, 00:44 -1.19% Komplettsystem Intel Core i3-2120, 16GB RAM, 22" LCD-Monitor um €414,-- (statt: €419,--) bei Rabo Networks Shop
30.07.2014, 00:44 -2.47% Komplettsystem Intel Core i3-2120, 16GB RAM, 19" LCD-Monitor um €389,16 (statt: €399,--) bei Rabo Networks Shop
30.07.2014, 00:44 -1.46% Komplettsystem Intel Core i3-2120, 12GB RAM, 19" LCD-Monitor um €374,44 (statt: €380,--) bei Rabo Networks Shop
30.07.2014, 00:44 -8.00% Komplettsystem Intel Core i3-2120, 1GB RAM, 19" LCD-Monitor um €297,16 (statt: €323,--) bei Rabo Networks Shop
30.07.2014, 00:44 -7.55% Komplettsystem Intel Core i3-2105, 8GB RAM, 24" LCD-Monitor um €381,80 (statt: €413,--) bei Rabo Networks Shop
30.07.2014, 00:44 -7.28% Komplettsystem Intel Core i3-2105, 8GB RAM, 22" LCD-Monitor um €354,20 (statt: €382,--) bei Rabo Networks Shop
30.07.2014, 00:44 -8.00% Komplettsystem Intel Core i3-2105, 8GB RAM, 20" LCD-Monitor um €345,-- (statt: €375,--) bei Rabo Networks Shop
30.07.2014, 00:44 -6.69% Komplettsystem Intel Core i3-2105, 8GB RAM, 19" LCD-Monitor um €326,60 (statt: €350,--) bei Rabo Networks Shop
30.07.2014, 00:44 -7.01% Komplettsystem Intel Core i3-2105, 8GB RAM um €259,44 (statt: €279,--) bei Rabo Networks Shop
30.07.2014, 00:44 -6.16% Komplettsystem Intel Core i3-2105, 6GB RAM, 24" LCD-Monitor um €374,44 (statt: €399,--) bei Rabo Networks Shop
30.07.2014, 00:44 -7.51% Komplettsystem Intel Core i3-2105, 6GB RAM, 22" LCD-Monitor um €345,-- (statt: €373,--) bei Rabo Networks Shop
30.07.2014, 00:44 -8.00% Komplettsystem Intel Core i3-2105, 6GB RAM, 20" LCD-Monitor um €336,72 (statt: €366,--) bei Rabo Networks Shop
30.07.2014, 00:44 -7.47% Komplettsystem Intel Core i3-2105, 6GB RAM, 19" LCD-Monitor um €319,24 (statt: €345,--) bei Rabo Networks Shop
30.07.2014, 00:44 -5.98% Komplettsystem Intel Core i3-2105, 6GB RAM um €256,68 (statt: €273,--) bei Rabo Networks Shop
30.07.2014, 00:44 -5.61% Komplettsystem Intel Core i3-2105, 4GB RAM, 24" LCD-Monitor um €363,40 (statt: €385,--) bei Rabo Networks Shop
30.07.2014, 00:44 -8.00% Komplettsystem Intel Core i3-2105, 4GB RAM, 22" LCD-Monitor um €333,96 (statt: €363,--) bei Rabo Networks Shop
30.07.2014, 00:44 -8.00% Komplettsystem Intel Core i3-2105, 4GB RAM, 20" LCD-Monitor um €326,60 (statt: €355,--) bei Rabo Networks Shop
30.07.2014, 00:44 -7.45% Komplettsystem Intel Core i3-2105, 4GB RAM, 19" LCD-Monitor um €308,20 (statt: €333,--) bei Rabo Networks Shop
30.07.2014, 00:44 -6.61% Komplettsystem Intel Core i3-2105, 4GB RAM um €247,48 (statt: €265,--) bei Rabo Networks Shop
30.07.2014, 00:44 -8.00% Komplettsystem Intel Core i3-2105, 3GB RAM, 24" LCD-Monitor um €354,20 (statt: €385,--) bei Rabo Networks Shop
30.07.2014, 00:44 -8.00% Komplettsystem Intel Core i3-2105, 3GB RAM, 22" LCD-Monitor um €328,44 (statt: €357,--) bei Rabo Networks Shop
30.07.2014, 00:44 -8.00% Komplettsystem Intel Core i3-2105, 3GB RAM, 20" LCD-Monitor um €322,-- (statt: €350,--) bei Rabo Networks Shop
30.07.2014, 00:44 -8.00% Komplettsystem Intel Core i3-2105, 3GB RAM, 19" LCD-Monitor um €303,60 (statt: €330,--) bei Rabo Networks Shop
30.07.2014, 00:44 -5.90% Komplettsystem Intel Core i3-2105, 3GB RAM um €247,48 (statt: €263,--) bei Rabo Networks Shop
30.07.2014, 00:44 -8.00% Komplettsystem Intel Core i3-2105, 2GB RAM, 19" LCD-Monitor um €299,-- (statt: €325,--) bei Rabo Networks Shop
30.07.2014, 00:44 -4.66% Komplettsystem Intel Core i3-2105, 2GB RAM um €236,44 (statt: €248,--) bei Rabo Networks Shop
30.07.2014, 00:44 -7.28% Komplettsystem Intel Core i3-2105, 2GB RAM, 24" LCD-Monitor um €354,20 (statt: €382,--) bei Rabo Networks Shop
30.07.2014, 00:44 -6.69% Komplettsystem Intel Core i3-2105, 2GB RAM, 22" LCD-Monitor um €326,60 (statt: €350,--) bei Rabo Networks Shop
30.07.2014, 00:44 -8.00% Komplettsystem Intel Core i3-2105, 2GB RAM, 20" LCD-Monitor um €317,40 (statt: €345,--) bei Rabo Networks Shop
30.07.2014, 00:44 -1.63% Komplettsystem Intel Core i3-2105, 16GB RAM, 24" LCD-Monitor um €440,68 (statt: €448,--) bei Rabo Networks Shop
30.07.2014, 00:44 -4.97% Komplettsystem Intel Core i3-2105, 16GB RAM, 20" LCD-Monitor um €403,88 (statt: €425,--) bei Rabo Networks Shop
30.07.2014, 00:44 -2.47% Komplettsystem Intel Core i3-2105, 16GB RAM, 19" LCD-Monitor um €389,16 (statt: €399,--) bei Rabo Networks Shop
30.07.2014, 00:44 -2.48% Komplettsystem Intel Core i3-2105, 12GB RAM, 24" LCD-Monitor um €422,28 (statt: €433,--) bei Rabo Networks Shop
30.07.2014, 00:44 -6.68% Komplettsystem Intel Core i3-2105, 12GB RAM, 20" LCD-Monitor um €389,16 (statt: €417,--) bei Rabo Networks Shop
30.07.2014, 00:44 -3.40% Komplettsystem Intel Core i3-2105, 12GB RAM, 19" LCD-Monitor um €367,08 (statt: €380,--) bei Rabo Networks Shop
30.07.2014, 00:44 -8.00% Komplettsystem Intel Core i3-2105, 1GB RAM, 24" LCD-Monitor um €348,68 (statt: €379,--) bei Rabo Networks Shop
30.07.2014, 00:44 -7.47% Komplettsystem Intel Core i3-2105, 1GB RAM, 22" LCD-Monitor um €322,-- (statt: €348,--) bei Rabo Networks Shop
30.07.2014, 00:44 -8.00% Komplettsystem Intel Core i3-2105, 1GB RAM, 19" LCD-Monitor um €293,48 (statt: €319,--) bei Rabo Networks Shop
30.07.2014, 00:44 -5.40% Komplettsystem Intel Core i3-2105, 1GB RAM um €234,60 (statt: €248,--) bei Rabo Networks Shop
30.07.2014, 00:44 -7.55% Komplettsystem Intel Core i3-2100T, 8GB RAM, 24" LCD-Monitor um €374,44 (statt: €405,--) bei Rabo Networks Shop
30.07.2014, 00:44 -8.00% Komplettsystem Intel Core i3-2100T, 8GB RAM, 20" LCD-Monitor um €330,28 (statt: €359,--) bei Rabo Networks Shop
30.07.2014, 00:44 -8.00% Komplettsystem Intel Core i3-2100T, 8GB RAM, 19" LCD-Monitor um €311,88 (statt: €339,--) bei Rabo Networks Shop
30.07.2014, 00:44 -7.34% Komplettsystem Intel Core i3-2100T, 8GB RAM um €259,44 (statt: €280,--) bei Rabo Networks Shop
30.07.2014, 00:44 -8.00% Komplettsystem Intel Core i3-2100T, 6GB RAM, 24" LCD-Monitor um €367,08 (statt: €399,--) bei Rabo Networks Shop
30.07.2014, 00:44 -8.00% Komplettsystem Intel Core i3-2100T, 6GB RAM, 22" LCD-Monitor um €339,48 (statt: €369,--) bei Rabo Networks Shop
30.07.2014, 00:44 -8.00% Komplettsystem Intel Core i3-2100T, 6GB RAM, 20" LCD-Monitor um €324,76 (statt: €353,--) bei Rabo Networks Shop
30.07.2014, 00:44 -8.00% Komplettsystem Intel Core i3-2100T, 6GB RAM, 19" LCD-Monitor um €306,36 (statt: €333,--) bei Rabo Networks Shop
30.07.2014, 00:44 -4.93% Komplettsystem Intel Core i3-2100T, 6GB RAM um €256,68 (statt: €270,--) bei Rabo Networks Shop
30.07.2014, 00:44 -8.00% Komplettsystem Intel Core i3-2100T, 4GB RAM, 24" LCD-Monitor um €357,88 (statt: €389,--) bei Rabo Networks Shop
30.07.2014, 00:44 -8.00% Komplettsystem Intel Core i3-2100T, 4GB RAM, 22" LCD-Monitor um €331,20 (statt: €360,--) bei Rabo Networks Shop
30.07.2014, 00:44 -8.00% Komplettsystem Intel Core i3-2100T, 4GB RAM, 20" LCD-Monitor um €311,88 (statt: €339,--) bei Rabo Networks Shop
30.07.2014, 00:44 -8.00% Komplettsystem Intel Core i3-2100T, 4GB RAM, 19" LCD-Monitor um €294,30 (statt: €319,90) bei Rabo Networks Shop
30.07.2014, 00:44 -6.23% Komplettsystem Intel Core i3-2100T, 4GB RAM um €243,80 (statt: €260,--) bei Rabo Networks Shop
30.07.2014, 00:44 -8.00% Komplettsystem Intel Core i3-2100T, 3GB RAM, 24" LCD-Monitor um €348,68 (statt: €379,--) bei Rabo Networks Shop
30.07.2014, 00:44 -8.00% Komplettsystem Intel Core i3-2100T, 3GB RAM, 22" LCD-Monitor um €326,60 (statt: €355,--) bei Rabo Networks Shop
30.07.2014, 00:44 -8.00% Komplettsystem Intel Core i3-2100T, 3GB RAM, 20" LCD-Monitor um €309,12 (statt: €336,--) bei Rabo Networks Shop
30.07.2014, 00:44 -8.00% Komplettsystem Intel Core i3-2100T, 3GB RAM, 19" LCD-Monitor um €290,72 (statt: €316,--) bei Rabo Networks Shop
30.07.2014, 00:44 -4.03% Komplettsystem Intel Core i3-2100T, 3GB RAM um €244,72 (statt: €255,--) bei Rabo Networks Shop
30.07.2014, 00:44 -8.00% Komplettsystem Intel Core i3-2100T, 2GB RAM, 24" LCD-Monitor um €348,68 (statt: €379,--) bei Rabo Networks Shop
30.07.2014, 00:44 -8.00% Komplettsystem Intel Core i3-2100T, 2GB RAM, 22" LCD-Monitor um €321,08 (statt: €349,--) bei Rabo Networks Shop
30.07.2014, 00:44 -8.00% Komplettsystem Intel Core i3-2100T, 2GB RAM, 20" LCD-Monitor um €304,52 (statt: €331,--) bei Rabo Networks Shop
30.07.2014, 00:44 -8.00% Komplettsystem Intel Core i3-2100T, 2GB RAM, 19" LCD-Monitor um €284,28 (statt: €309,--) bei Rabo Networks Shop
30.07.2014, 00:44 -6.20% Komplettsystem Intel Core i3-2100T, 2GB RAM um €239,20 (statt: €255,--) bei Rabo Networks Shop
30.07.2014, 00:44 -8.00% Komplettsystem Intel Core i3-2100T, 1GB RAM, 24" LCD-Monitor um €345,-- (statt: €375,--) bei Rabo Networks Shop
30.07.2014, 00:44 -6.70% Komplettsystem Intel Core i3-2100T, 1GB RAM, 22" LCD-Monitor um €331,20 (statt: €355,--) bei Rabo Networks Shop
30.07.2014, 00:44 -8.00% Komplettsystem Intel Core i3-2100T, 1GB RAM, 19" LCD-Monitor um €303,60 (statt: €330,--) bei Rabo Networks Shop
30.07.2014, 00:44 -8.00% Komplettsystem Intel Core i3-2100T, 1GB RAM um €238,28 (statt: €259,--) bei Rabo Networks Shop
30.07.2014, 00:44 -3.35% Komplettsystem Intel Core i3-2100T, 16GB RAM, 24" LCD-Monitor um €439,76 (statt: €455,--) bei Rabo Networks Shop
30.07.2014, 00:44 -4.12% Komplettsystem Intel Core i3-2100T, 16GB RAM, 22" LCD-Monitor um €409,40 (statt: €427,--) bei Rabo Networks Shop
30.07.2014, 00:44 -8.00% Komplettsystem Intel Core i3-2100T, 16GB RAM, 20" LCD-Monitor um €391,-- (statt: €425,--) bei Rabo Networks Shop
30.07.2014, 00:44 -6.86% Komplettsystem Intel Core i3-2100T, 16GB RAM, 19" LCD-Monitor um €375,36 (statt: €403,--) bei Rabo Networks Shop
30.07.2014, 00:44 -2.34% Komplettsystem Intel Core i3-2100T, 16GB RAM um €317,40 (statt: €325,--) bei Rabo Networks Shop
30.07.2014, 00:44 -3.77% Komplettsystem Intel Core i3-2100T, 12GB RAM, 24" LCD-Monitor um €418,60 (statt: €435,--) bei Rabo Networks Shop
30.07.2014, 00:44 -4.63% Komplettsystem Intel Core i3-2100T, 12GB RAM, 22" LCD-Monitor um €391,-- (statt: €410,--) bei Rabo Networks Shop
30.07.2014, 00:44 -8.00% Komplettsystem Intel Core i3-2100T, 12GB RAM, 20" LCD-Monitor um €375,36 (statt: €408,--) bei Rabo Networks Shop
30.07.2014, 00:44 -6.06% Komplettsystem Intel Core i3-2100T, 12GB RAM, 19" LCD-Monitor um €356,96 (statt: €380,--) bei Rabo Networks Shop
30.07.2014, 00:44 -2.05% Komplettsystem Intel Core i3-2100T, 12GB RAM um €302,68 (statt: €309,--) bei Rabo Networks Shop
30.07.2014, 00:44 -6.34% Komplettsystem Intel Core i3-2100, 8GB RAM, 24" LCD-Monitor um €363,40 (statt: €388,--) bei Rabo Networks Shop
30.07.2014, 00:44 -6.47% Komplettsystem Intel Core i3-2100, 8GB RAM, 22" LCD-Monitor um €336,72 (statt: €360,--) bei Rabo Networks Shop
30.07.2014, 00:44 -6.69% Komplettsystem Intel Core i3-2100, 8GB RAM, 20" LCD-Monitor um €326,60 (statt: €350,--) bei Rabo Networks Shop
30.07.2014, 00:44 -8.00% Komplettsystem Intel Core i3-2100, 8GB RAM, 19" LCD-Monitor um €309,12 (statt: €336,--) bei Rabo Networks Shop
30.07.2014, 00:44 -15.08% Komplettsystem Intel Core i3-2100, 8GB RAM um €209,76 (statt: €247,--) bei Rabo Networks Shop
30.07.2014, 00:44 -7.02% Komplettsystem Intel Core i3-2100, 6GB RAM, 24" LCD-Monitor um €348,68 (statt: €375,--) bei Rabo Networks Shop
30.07.2014, 00:44 -6.68% Komplettsystem Intel Core i3-2100, 6GB RAM, 22" LCD-Monitor um €324,76 (statt: €348,--) bei Rabo Networks Shop
30.07.2014, 00:44 -6.91% Komplettsystem Intel Core i3-2100, 6GB RAM, 20" LCD-Monitor um €314,64 (statt: €338,--) bei Rabo Networks Shop
30.07.2014, 00:44 -8.00% Komplettsystem Intel Core i3-2100, 6GB RAM, 19" LCD-Monitor um €297,16 (statt: €323,--) bei Rabo Networks Shop
30.07.2014, 00:44 -6.86% Komplettsystem Intel Core i3-2100, 6GB RAM um €232,76 (statt: €249,90) bei Rabo Networks Shop
30.07.2014, 00:44 -6.77% Komplettsystem Intel Core i3-2100, 4GB RAM, 24" LCD-Monitor um €347,76 (statt: €373,--) bei Rabo Networks Shop
30.07.2014, 00:44 -6.66% Komplettsystem Intel Core i3-2100, 4GB RAM, 22" LCD-Monitor um €320,16 (statt: €343,--) bei Rabo Networks Shop
30.07.2014, 00:44 -6.62% Komplettsystem Intel Core i3-2100, 4GB RAM, 20" LCD-Monitor um €310,96 (statt: €333,--) bei Rabo Networks Shop
30.07.2014, 00:44 -8.00% Komplettsystem Intel Core i3-2100, 4GB RAM, 19" LCD-Monitor um €291,64 (statt: €317,--) bei Rabo Networks Shop
30.07.2014, 00:44 -16.51% Komplettsystem Intel Core i3-2100, 4GB RAM um €189,52 (statt: €227,--) bei Rabo Networks Shop
30.07.2014, 00:44 -6.76% Komplettsystem Intel Core i3-2100, 3GB RAM, 24" LCD-Monitor um €345,-- (statt: €370,--) bei Rabo Networks Shop
30.07.2014, 00:44 -5.83% Komplettsystem Intel Core i3-2100, 3GB RAM, 22" LCD-Monitor um €319,24 (statt: €339,--) bei Rabo Networks Shop
30.07.2014, 00:44 -6.05% Komplettsystem Intel Core i3-2100, 3GB RAM, 20" LCD-Monitor um €310,04 (statt: €330,--) bei Rabo Networks Shop
30.07.2014, 00:44 -8.00% Komplettsystem Intel Core i3-2100, 3GB RAM, 19" LCD-Monitor um €291,64 (statt: €317,--) bei Rabo Networks Shop
30.07.2014, 00:44 -6.11% Komplettsystem Intel Core i3-2100, 3GB RAM um €228,16 (statt: €243,--) bei Rabo Networks Shop
30.07.2014, 00:44 -6.74% Komplettsystem Intel Core i3-2100, 2GB RAM, 24" LCD-Monitor um €341,32 (statt: €366,--) bei Rabo Networks Shop
30.07.2014, 00:44 -5.22% Komplettsystem Intel Core i3-2100, 2GB RAM, 22" LCD-Monitor um €313,72 (statt: €331,--) bei Rabo Networks Shop
30.07.2014, 00:44 -6.87% Komplettsystem Intel Core i3-2100, 2GB RAM, 20" LCD-Monitor um €304,52 (statt: €327,--) bei Rabo Networks Shop
30.07.2014, 00:44 -8.00% Komplettsystem Intel Core i3-2100, 2GB RAM, 19" LCD-Monitor um €287,04 (statt: €312,--) bei Rabo Networks Shop
30.07.2014, 00:44 -18.41% Komplettsystem Intel Core i3-2100, 2GB RAM um €180,32 (statt: €221,--) bei Rabo Networks Shop
30.07.2014, 00:44 -1.77% Komplettsystem Intel Core i3-2100, 16GB RAM, 24" LCD-Monitor um €435,16 (statt: €443,--) bei Rabo Networks Shop
30.07.2014, 00:44 -2.01% Komplettsystem Intel Core i3-2100, 16GB RAM, 20" LCD-Monitor um €391,-- (statt: €399,--) bei Rabo Networks Shop
30.07.2014, 00:44 -1.97% Komplettsystem Intel Core i3-2100, 12GB RAM, 24" LCD-Monitor um €418,60 (statt: €427,--) bei Rabo Networks Shop
30.07.2014, 00:44 -1.63% Komplettsystem Intel Core i3-2100, 12GB RAM, 20" LCD-Monitor um €383,64 (statt: €390,--) bei Rabo Networks Shop
30.07.2014, 00:44 -3.09% Komplettsystem Intel Core i3-2100, 12GB RAM, 19" LCD-Monitor um €363,40 (statt: €375,--) bei Rabo Networks Shop
30.07.2014, 00:44 -6.47% Komplettsystem Intel Core i3-2100, 1GB RAM, 24" LCD-Monitor um €336,72 (statt: €360,--) bei Rabo Networks Shop
30.07.2014, 00:44 -6.61% Komplettsystem Intel Core i3-2100, 1GB RAM, 22" LCD-Monitor um €308,20 (statt: €330,--) bei Rabo Networks Shop
30.07.2014, 00:44 -5.68% Komplettsystem Intel Core i3-2100, 1GB RAM, 20" LCD-Monitor um €299,-- (statt: €317,--) bei Rabo Networks Shop
30.07.2014, 00:44 -8.00% Komplettsystem Intel Core i3-2100, 1GB RAM, 19" LCD-Monitor um €281,52 (statt: €306,--) bei Rabo Networks Shop
30.07.2014, 00:44 -10.08% Komplettsystem Intel Core i3-2100, 1GB RAM um €198,72 (statt: €221,--) bei Rabo Networks Shop
30.07.2014, 00:44 -8.00% Komplettsystem AMD Sempron 140, 2GB RAM um €146,09 (statt: €158,80) bei Rabo Networks Shop
30.07.2014, 00:44 -8.00% Komplettsystem AMD Phenom II X6 1100T, 8GB RAM um €315,56 (statt: €343,--) bei Rabo Networks Shop
30.07.2014, 00:44 -8.00% Komplettsystem AMD Phenom II X6 1100T, 4GB RAM um €475,64 (statt: €517,--) bei Rabo Networks Shop
30.07.2014, 00:44 -8.00% Komplettsystem AMD Phenom II X6 1100T, 16GB RAM um €360,64 (statt: €392,--) bei Rabo Networks Shop
30.07.2014, 00:44 -8.00% Komplettsystem AMD Phenom II X6 1100T, 12GB RAM um €343,16 (statt: €373,--) bei Rabo Networks Shop
30.07.2014, 00:44 -8.00% Komplettsystem AMD Phenom II X6 1090T, 4GB RAM um €283,26 (statt: €307,90) bei Rabo Networks Shop
30.07.2014, 00:44 -8.00% Komplettsystem AMD Phenom II X6 1090T, 12GB RAM um €317,40 (statt: €345,--) bei Rabo Networks Shop
30.07.2014, 00:44 -8.00% Komplettsystem AMD Phenom II X6 1075T, 8GB RAM um €300,84 (statt: €327,--) bei Rabo Networks Shop
30.07.2014, 00:44 -8.00% Komplettsystem AMD Phenom II X6 1055T, 8GB RAM, 24" LCD-Monitor um €413,08 (statt: €449,--) bei Rabo Networks Shop
30.07.2014, 00:44 -8.00% Komplettsystem AMD Phenom II X6 1055T, 8GB RAM, 22" LCD-Monitor um €385,48 (statt: €419,--) bei Rabo Networks Shop
30.07.2014, 00:44 -8.00% Komplettsystem AMD Phenom II X6 1055T, 8GB RAM, 20" LCD-Monitor um €363,40 (statt: €395,--) bei Rabo Networks Shop
30.07.2014, 00:44 -8.00% Komplettsystem AMD Phenom II X6 1055T, 8GB RAM, 19" LCD-Monitor um €348,68 (statt: €379,--) bei Rabo Networks Shop
30.07.2014, 00:44 -8.00% Komplettsystem AMD Phenom II X6 1055T, 6GB RAM, 24" LCD-Monitor um €402,96 (statt: €438,--) bei Rabo Networks Shop
30.07.2014, 00:44 -8.00% Komplettsystem AMD Phenom II X6 1055T, 6GB RAM, 22" LCD-Monitor um €375,36 (statt: €408,--) bei Rabo Networks Shop
30.07.2014, 00:44 -8.00% Komplettsystem AMD Phenom II X6 1055T, 6GB RAM, 20" LCD-Monitor um €363,40 (statt: €395,--) bei Rabo Networks Shop
30.07.2014, 00:44 -8.00% Komplettsystem AMD Phenom II X6 1055T, 6GB RAM, 19" LCD-Monitor um €338,56 (statt: €368,--) bei Rabo Networks Shop
30.07.2014, 00:44 -8.00% Komplettsystem AMD Phenom II X6 1055T, 6GB RAM um €278,76 (statt: €303,--) bei Rabo Networks Shop
30.07.2014, 00:44 -8.00% Komplettsystem AMD Phenom II X6 1055T, 4GB RAM, 24" LCD-Monitor um €391,-- (statt: €425,--) bei Rabo Networks Shop
30.07.2014, 00:44 -8.00% Komplettsystem AMD Phenom II X6 1055T, 4GB RAM, 22" LCD-Monitor um €348,68 (statt: €379,--) bei Rabo Networks Shop
30.07.2014, 00:44 -8.00% Komplettsystem AMD Phenom II X6 1055T, 4GB RAM, 20" LCD-Monitor um €349,50 (statt: €379,90) bei Rabo Networks Shop
30.07.2014, 00:44 -8.00% Komplettsystem AMD Phenom II X6 1055T, 4GB RAM, 19" LCD-Monitor um €330,28 (statt: €359,--) bei Rabo Networks Shop
30.07.2014, 00:44 -5.10% Komplettsystem AMD Phenom II X6 1055T, 4GB RAM um €267,62 (statt: €282,--) bei Rabo Networks Shop
30.07.2014, 00:44 -8.00% Komplettsystem AMD Phenom II X6 1055T, 3GB RAM, 24" LCD-Monitor um €385,48 (statt: €419,--) bei Rabo Networks Shop
30.07.2014, 00:44 -8.00% Komplettsystem AMD Phenom II X6 1055T, 3GB RAM, 22" LCD-Monitor um €357,88 (statt: €389,--) bei Rabo Networks Shop
30.07.2014, 00:44 -8.00% Komplettsystem AMD Phenom II X6 1055T, 3GB RAM, 20" LCD-Monitor um €348,68 (statt: €379,--) bei Rabo Networks Shop
30.07.2014, 00:44 -8.00% Komplettsystem AMD Phenom II X6 1055T, 3GB RAM, 19" LCD-Monitor um €330,28 (statt: €359,--) bei Rabo Networks Shop
30.07.2014, 00:44 -8.00% Komplettsystem AMD Phenom II X6 1055T, 3GB RAM um €256,68 (statt: €279,--) bei Rabo Networks Shop
30.07.2014, 00:44 -8.00% Komplettsystem AMD Phenom II X6 1055T, 2GB RAM, 24" LCD-Monitor um €367,08 (statt: €399,--) bei Rabo Networks Shop
30.07.2014, 00:44 -8.00% Komplettsystem AMD Phenom II X6 1055T, 2GB RAM, 22" LCD-Monitor um €330,28 (statt: €359,--) bei Rabo Networks Shop
30.07.2014, 00:44 -8.00% Komplettsystem AMD Phenom II X6 1055T, 2GB RAM, 20" LCD-Monitor um €345,-- (statt: €375,--) bei Rabo Networks Shop
30.07.2014, 00:44 -8.00% Komplettsystem AMD Phenom II X6 1055T, 2GB RAM, 19" LCD-Monitor um €317,40 (statt: €345,--) bei Rabo Networks Shop
30.07.2014, 00:44 -8.00% Komplettsystem AMD Phenom II X6 1055T, 2GB RAM um €237,36 (statt: €258,--) bei Rabo Networks Shop
30.07.2014, 00:44 -8.00% Komplettsystem AMD Phenom II X6 1055T, 1GB RAM, 24" LCD-Monitor um €376,28 (statt: €409,--) bei Rabo Networks Shop
30.07.2014, 00:44 -8.00% Komplettsystem AMD Phenom II X6 1055T, 1GB RAM, 22" LCD-Monitor um €336,72 (statt: €366,--) bei Rabo Networks Shop
30.07.2014, 00:44 -8.00% Komplettsystem AMD Phenom II X6 1055T, 1GB RAM, 20" LCD-Monitor um €331,20 (statt: €360,--) bei Rabo Networks Shop
30.07.2014, 00:44 -8.00% Komplettsystem AMD Phenom II X6 1055T, 1GB RAM, 19" LCD-Monitor um €311,88 (statt: €339,--) bei Rabo Networks Shop
30.07.2014, 00:44 -8.00% Komplettsystem AMD Phenom II X6 1055T, 1GB RAM um €237,36 (statt: €258,--) bei Rabo Networks Shop
30.07.2014, 00:44 -8.00% Komplettsystem AMD Phenom II X6 1055T, 16GB RAM, 24" LCD-Monitor um €446,20 (statt: €485,--) bei Rabo Networks Shop
30.07.2014, 00:44 -8.00% Komplettsystem AMD Phenom II X6 1055T, 16GB RAM, 22" LCD-Monitor um €418,60 (statt: €455,--) bei Rabo Networks Shop
30.07.2014, 00:44 -8.00% Komplettsystem AMD Phenom II X6 1055T, 16GB RAM, 20" LCD-Monitor um €397,44 (statt: €432,--) bei Rabo Networks Shop
30.07.2014, 00:44 -8.00% Komplettsystem AMD Phenom II X6 1055T, 16GB RAM, 19" LCD-Monitor um €381,80 (statt: €415,--) bei Rabo Networks Shop
30.07.2014, 00:44 -8.00% Komplettsystem AMD Phenom II X6 1055T, 16GB RAM um €320,16 (statt: €348,--) bei Rabo Networks Shop
30.07.2014, 00:44 -8.00% Komplettsystem AMD Phenom II X6 1055T, 12GB RAM, 24" LCD-Monitor um €427,80 (statt: €465,--) bei Rabo Networks Shop
30.07.2014, 00:44 -8.00% Komplettsystem AMD Phenom II X6 1055T, 12GB RAM, 22" LCD-Monitor um €400,20 (statt: €435,--) bei Rabo Networks Shop
30.07.2014, 00:44 -8.00% Komplettsystem AMD Phenom II X6 1055T, 12GB RAM, 20" LCD-Monitor um €381,80 (statt: €415,--) bei Rabo Networks Shop
30.07.2014, 00:44 -8.00% Komplettsystem AMD Phenom II X6 1055T, 12GB RAM, 19" LCD-Monitor um €363,40 (statt: €395,--) bei Rabo Networks Shop
30.07.2014, 00:44 -8.00% Komplettsystem AMD Phenom II X6 1055T, 12GB RAM um €302,68 (statt: €329,--) bei Rabo Networks Shop
30.07.2014, 00:44 -8.00% Komplettsystem AMD Phenom II X4 965, 8GB RAM um €256,68 (statt: €279,--) bei Rabo Networks Shop
30.07.2014, 00:44 -2.24% Komplettsystem AMD Phenom II X4 955, 8GB RAM um €253,-- (statt: €258,80) bei Rabo Networks Shop
30.07.2014, 00:44 -8.00% Komplettsystem AMD Phenom II X4 955, 3GB RAM, 19" LCD-Monitor um €297,16 (statt: €323,--) bei Rabo Networks Shop
30.07.2014, 00:44 -8.00% Komplettsystem AMD Phenom II X4 955, 3GB RAM um €247,48 (statt: €269,--) bei Rabo Networks Shop
30.07.2014, 00:44 -3.78% Komplettsystem AMD Phenom II X4 955, 2GB RAM, 24" LCD-Monitor um €339,48 (statt: €352,80) bei Rabo Networks Shop
30.07.2014, 00:44 -8.00% Komplettsystem AMD Phenom II X4 955, 2GB RAM, 20" LCD-Monitor um €310,96 (statt: €338,--) bei Rabo Networks Shop
30.07.2014, 00:44 -1.78% Komplettsystem AMD Phenom II X4 955, 2GB RAM, 19" LCD-Monitor um €293,48 (statt: €298,80) bei Rabo Networks Shop
30.07.2014, 00:44 -8.00% Komplettsystem AMD Phenom II X4 955, 1GB RAM, 20" LCD-Monitor um €304,52 (statt: €331,--) bei Rabo Networks Shop
30.07.2014, 00:44 -4.47% Komplettsystem AMD Phenom II X4 945, 8GB RAM, 24" LCD-Monitor um €398,36 (statt: €417,--) bei Rabo Networks Shop
30.07.2014, 00:44 -1.44% Komplettsystem AMD Phenom II X4 945, 8GB RAM, 22" LCD-Monitor um €363,40 (statt: €368,70) bei Rabo Networks Shop
30.07.2014, 00:44 -3.55% Komplettsystem AMD Phenom II X4 945, 4GB RAM, 22" LCD-Monitor um €324,76 (statt: €336,70) bei Rabo Networks Shop
30.07.2014, 00:44 -8.00% Komplettsystem AMD Phenom II X4 840, 8GB RAM, 24" LCD-Monitor um €383,64 (statt: €417,--) bei Rabo Networks Shop
30.07.2014, 00:44 -8.00% Komplettsystem AMD Phenom II X4 840, 8GB RAM, 22" LCD-Monitor um €348,68 (statt: €379,--) bei Rabo Networks Shop
30.07.2014, 00:44 -8.00% Komplettsystem AMD Phenom II X4 840, 8GB RAM, 19" LCD-Monitor um €326,60 (statt: €355,--) bei Rabo Networks Shop
30.07.2014, 00:44 -8.00% Komplettsystem AMD Phenom II X4 840, 6GB RAM, 24" LCD-Monitor um €370,76 (statt: €403,--) bei Rabo Networks Shop
30.07.2014, 00:44 -8.00% Komplettsystem AMD Phenom II X4 840, 6GB RAM, 22" LCD-Monitor um €343,16 (statt: €373,--) bei Rabo Networks Shop
30.07.2014, 00:44 -8.00% Komplettsystem AMD Phenom II X4 840, 6GB RAM, 19" LCD-Monitor um €315,56 (statt: €343,--) bei Rabo Networks Shop
30.07.2014, 00:44 -8.00% Komplettsystem AMD Phenom II X4 840, 6GB RAM um €238,28 (statt: €259,--) bei Rabo Networks Shop
30.07.2014, 00:44 -8.00% Komplettsystem AMD Phenom II X4 840, 4GB RAM, 24" LCD-Monitor um €348,68 (statt: €379,--) bei Rabo Networks Shop
30.07.2014, 00:44 -8.00% Komplettsystem AMD Phenom II X4 840, 4GB RAM, 22" LCD-Monitor um €321,08 (statt: €349,--) bei Rabo Networks Shop
30.07.2014, 00:44 -8.00% Komplettsystem AMD Phenom II X4 840, 4GB RAM, 19" LCD-Monitor um €293,48 (statt: €319,--) bei Rabo Networks Shop
30.07.2014, 00:44 -8.00% Komplettsystem AMD Phenom II X4 840, 4GB RAM um €225,40 (statt: €245,--) bei Rabo Networks Shop
30.07.2014, 00:44 -8.00% Komplettsystem AMD Phenom II X4 840, 3GB RAM, 24" LCD-Monitor um €345,-- (statt: €375,--) bei Rabo Networks Shop
30.07.2014, 00:44 -8.00% Komplettsystem AMD Phenom II X4 840, 3GB RAM, 22" LCD-Monitor um €324,76 (statt: €353,--) bei Rabo Networks Shop
30.07.2014, 00:44 -8.00% Komplettsystem AMD Phenom II X4 840, 3GB RAM, 19" LCD-Monitor um €297,16 (statt: €323,--) bei Rabo Networks Shop
30.07.2014, 00:44 -8.00% Komplettsystem AMD Phenom II X4 840, 3GB RAM um €234,60 (statt: €255,--) bei Rabo Networks Shop
30.07.2014, 00:44 -8.00% Komplettsystem AMD Phenom II X4 840, 2GB RAM, 24" LCD-Monitor um €321,08 (statt: €349,--) bei Rabo Networks Shop
30.07.2014, 00:44 -8.00% Komplettsystem AMD Phenom II X4 840, 2GB RAM, 22" LCD-Monitor um €302,68 (statt: €329,--) bei Rabo Networks Shop
30.07.2014, 00:44 -8.00% Komplettsystem AMD Phenom II X4 840, 2GB RAM um €210,68 (statt: €229,--) bei Rabo Networks Shop
30.07.2014, 00:44 -8.00% Komplettsystem AMD Phenom II X4 840, 1GB RAM, 24" LCD-Monitor um €345,-- (statt: €375,--) bei Rabo Networks Shop
30.07.2014, 00:44 -8.00% Komplettsystem AMD Phenom II X4 840, 1GB RAM, 22" LCD-Monitor um €302,68 (statt: €329,--) bei Rabo Networks Shop
30.07.2014, 00:44 -8.00% Komplettsystem AMD Phenom II X4 840, 1GB RAM, 19" LCD-Monitor um €299,-- (statt: €325,--) bei Rabo Networks Shop
30.07.2014, 00:44 -8.00% Komplettsystem AMD Phenom II X4 840, 1GB RAM um €210,68 (statt: €229,--) bei Rabo Networks Shop
30.07.2014, 00:44 -2.71% Komplettsystem AMD Phenom II X4 840, 16GB RAM, 24" LCD-Monitor um €495,88 (statt: €509,70) bei Rabo Networks Shop
30.07.2014, 00:44 -1.97% Komplettsystem AMD Phenom II X4 840, 12GB RAM, 24" LCD-Monitor um €468,28 (statt: €477,70) bei Rabo Networks Shop
30.07.2014, 00:44 -1.71% Komplettsystem AMD Phenom II X4 840, 12GB RAM, 22" LCD-Monitor um €421,36 (statt: €428,70) bei Rabo Networks Shop
30.07.2014, 00:44 -8.00% Komplettsystem AMD Phenom II X2 555, 2GB RAM um €180,22 (statt: €195,90) bei Rabo Networks Shop
30.07.2014, 00:44 -8.00% Komplettsystem AMD Phenom II X2 550, 4GB RAM um €164,68 (statt: €179,--) bei Rabo Networks Shop
30.07.2014, 00:44 -2.67% Komplettsystem AMD FX-8120, 3GB RAM, 19" LCD-Monitor um €335,80 (statt: €345,--) bei Rabo Networks Shop
30.07.2014, 00:44 -1.06% Komplettsystem AMD FX-8120, 3GB RAM um €262,20 (statt: €265,--) bei Rabo Networks Shop
30.07.2014, 00:44 -1.83% Komplettsystem AMD FX-8120, 2GB RAM, 22" LCD-Monitor um €354,20 (statt: €360,80) bei Rabo Networks Shop
30.07.2014, 00:44 -3.14% Komplettsystem AMD FX-8120, 2GB RAM, 20" LCD-Monitor um €348,68 (statt: €360,--) bei Rabo Networks Shop
30.07.2014, 00:44 -2.01% Komplettsystem AMD FX-8120, 2GB RAM, 19" LCD-Monitor um €331,20 (statt: €338,--) bei Rabo Networks Shop
30.07.2014, 00:44 -1.61% Komplettsystem AMD FX-6100, 8GB RAM, 22" LCD-Monitor um €354,20 (statt: €360,--) bei Rabo Networks Shop
30.07.2014, 00:44 -1.59% Komplettsystem AMD FX-6100, 4GB RAM, 24" LCD-Monitor um €367,08 (statt: €373,--) bei Rabo Networks Shop
30.07.2014, 00:44 -1.04% Komplettsystem AMD FX-6100, 3GB RAM, 24" LCD-Monitor um €366,16 (statt: €370,--) bei Rabo Networks Shop
30.07.2014, 00:44 -1.97% Komplettsystem AMD FX-6100, 2GB RAM, 24" LCD-Monitor um €358,80 (statt: €366,--) bei Rabo Networks Shop
30.07.2014, 00:44 -1.35% Komplettsystem AMD FX-6100, 16GB RAM, 24" LCD-Monitor um €437,-- (statt: €443,--) bei Rabo Networks Shop
30.07.2014, 00:44 -1.35% Komplettsystem AMD FX-6100, 16GB RAM, 22" LCD-Monitor um €409,40 (statt: €415,--) bei Rabo Networks Shop
30.07.2014, 00:44 -1.19% Komplettsystem AMD FX-6100, 16GB RAM, 20" LCD-Monitor um €400,20 (statt: €405,--) bei Rabo Networks Shop
30.07.2014, 00:44 -1.04% Komplettsystem AMD FX-6100, 12GB RAM, 24" LCD-Monitor um €418,60 (statt: €423,--) bei Rabo Networks Shop
30.07.2014, 00:44 -2.88% Komplettsystem AMD FX-4170, 8GB RAM, 24" LCD-Monitor um €383,64 (statt: €395,--) bei Rabo Networks Shop
30.07.2014, 00:44 -3.22% Komplettsystem AMD FX-4170, 8GB RAM, 22" LCD-Monitor um €354,20 (statt: €366,--) bei Rabo Networks Shop
30.07.2014, 00:44 -3.10% Komplettsystem AMD FX-4170, 8GB RAM, 20" LCD-Monitor um €345,92 (statt: €357,--) bei Rabo Networks Shop
30.07.2014, 00:44 -2.27% Komplettsystem AMD FX-4170, 8GB RAM, 19" LCD-Monitor um €329,36 (statt: €337,--) bei Rabo Networks Shop
30.07.2014, 00:44 -2.46% Komplettsystem AMD FX-4170, 6GB RAM, 24" LCD-Monitor um €372,60 (statt: €382,--) bei Rabo Networks Shop
30.07.2014, 00:44 -2.27% Komplettsystem AMD FX-4170, 6GB RAM, 22" LCD-Monitor um €345,-- (statt: €353,--) bei Rabo Networks Shop
30.07.2014, 00:44 -2.10% Komplettsystem AMD FX-4170, 6GB RAM, 20" LCD-Monitor um €335,80 (statt: €343,--) bei Rabo Networks Shop
30.07.2014, 00:44 -2.01% Komplettsystem AMD FX-4170, 6GB RAM, 19" LCD-Monitor um €317,40 (statt: €323,90) bei Rabo Networks Shop
30.07.2014, 00:44 -2.11% Komplettsystem AMD FX-4170, 4GB RAM, 24" LCD-Monitor um €367,08 (statt: €375,--) bei Rabo Networks Shop
30.07.2014, 00:44 -2.18% Komplettsystem AMD FX-4170, 4GB RAM, 22" LCD-Monitor um €340,40 (statt: €348,--) bei Rabo Networks Shop
30.07.2014, 00:44 -2.01% Komplettsystem AMD FX-4170, 4GB RAM, 20" LCD-Monitor um €331,20 (statt: €338,--) bei Rabo Networks Shop
30.07.2014, 00:44 -2.23% Komplettsystem AMD FX-4170, 4GB RAM, 19" LCD-Monitor um €311,88 (statt: €319,--) bei Rabo Networks Shop
30.07.2014, 00:44 -3.86% Komplettsystem AMD FX-4170, 3GB RAM, 24" LCD-Monitor um €363,40 (statt: €378,--) bei Rabo Networks Shop
30.07.2014, 00:44 -4.03% Komplettsystem AMD FX-4170, 3GB RAM, 22" LCD-Monitor um €333,96 (statt: €348,--) bei Rabo Networks Shop
30.07.2014, 00:44 -3.37% Komplettsystem AMD FX-4170, 3GB RAM, 20" LCD-Monitor um €326,60 (statt: €338,--) bei Rabo Networks Shop
30.07.2014, 00:44 -1.91% Komplettsystem AMD FX-4170, 3GB RAM, 19" LCD-Monitor um €310,96 (statt: €317,--) bei Rabo Networks Shop
30.07.2014, 00:44 -1.32% Komplettsystem AMD FX-4170, 3GB RAM um €244,72 (statt: €248,--) bei Rabo Networks Shop
30.07.2014, 00:44 -3.81% Komplettsystem AMD FX-4170, 2GB RAM, 24" LCD-Monitor um €358,80 (statt: €373,--) bei Rabo Networks Shop
30.07.2014, 00:44 -3.17% Komplettsystem AMD FX-4170, 2GB RAM, 22" LCD-Monitor um €332,12 (statt: €343,--) bei Rabo Networks Shop
30.07.2014, 00:44 -2.47% Komplettsystem AMD FX-4170, 2GB RAM, 20" LCD-Monitor um €324,76 (statt: €333,--) bei Rabo Networks Shop
30.07.2014, 00:44 -2.12% Komplettsystem AMD FX-4170, 2GB RAM, 19" LCD-Monitor um €306,36 (statt: €313,--) bei Rabo Networks Shop
30.07.2014, 00:44 -2.89% Komplettsystem AMD FX-4170, 16GB RAM, 24" LCD-Monitor um €437,-- (statt: €450,--) bei Rabo Networks Shop
30.07.2014, 00:44 -2.76% Komplettsystem AMD FX-4170, 16GB RAM, 22" LCD-Monitor um €409,40 (statt: €421,--) bei Rabo Networks Shop
30.07.2014, 00:44 -3.32% Komplettsystem AMD FX-4170, 16GB RAM, 20" LCD-Monitor um €399,28 (statt: €413,--) bei Rabo Networks Shop
30.07.2014, 00:44 -2.10% Komplettsystem AMD FX-4170, 16GB RAM, 19" LCD-Monitor um €381,80 (statt: €390,--) bei Rabo Networks Shop
30.07.2014, 00:44 -3.33% Komplettsystem AMD FX-4170, 12GB RAM, 24" LCD-Monitor um €418,60 (statt: €433,--) bei Rabo Networks Shop
30.07.2014, 00:44 -2.52% Komplettsystem AMD FX-4170, 12GB RAM, 22" LCD-Monitor um €392,84 (statt: €403,--) bei Rabo Networks Shop
30.07.2014, 00:44 -2.88% Komplettsystem AMD FX-4170, 12GB RAM, 20" LCD-Monitor um €383,64 (statt: €395,--) bei Rabo Networks Shop
30.07.2014, 00:44 -2.57% Komplettsystem AMD FX-4170, 12GB RAM, 19" LCD-Monitor um €363,40 (statt: €373,--) bei Rabo Networks Shop
30.07.2014, 00:44 -3.62% Komplettsystem AMD FX-4100, 8GB RAM, 19" LCD-Monitor um €303,60 (statt: €315,--) bei Rabo Networks Shop
30.07.2014, 00:44 -3.73% Komplettsystem AMD FX-4100, 8GB RAM um €228,16 (statt: €237,--) bei Rabo Networks Shop
30.07.2014, 00:44 -2.47% Komplettsystem AMD FX-4100, 8GB RAM, 24" LCD-Monitor um €356,96 (statt: €366,--) bei Rabo Networks Shop
30.07.2014, 00:44 -4.00% Komplettsystem AMD FX-4100, 8GB RAM, 22" LCD-Monitor um €331,20 (statt: €345,--) bei Rabo Networks Shop
30.07.2014, 00:44 -4.70% Komplettsystem AMD FX-4100, 6GB RAM, 24" LCD-Monitor um €345,-- (statt: €362,--) bei Rabo Networks Shop
30.07.2014, 00:44 -3.55% Komplettsystem AMD FX-4100, 6GB RAM, 22" LCD-Monitor um €319,24 (statt: €331,--) bei Rabo Networks Shop
30.07.2014, 00:44 -3.86% Komplettsystem AMD FX-4100, 6GB RAM, 20" LCD-Monitor um €310,04 (statt: €322,50) bei Rabo Networks Shop
30.07.2014, 00:44 -2.79% Komplettsystem AMD FX-4100, 6GB RAM, 19" LCD-Monitor um €291,64 (statt: €300,--) bei Rabo Networks Shop
30.07.2014, 00:44 -3.85% Komplettsystem AMD FX-4100, 4GB RAM, 24" LCD-Monitor um €341,32 (statt: €355,--) bei Rabo Networks Shop
30.07.2014, 00:44 -3.78% Komplettsystem AMD FX-4100, 4GB RAM, 22" LCD-Monitor um €314,64 (statt: €327,--) bei Rabo Networks Shop
30.07.2014, 00:44 -4.23% Komplettsystem AMD FX-4100, 4GB RAM, 20" LCD-Monitor um €303,60 (statt: €317,--) bei Rabo Networks Shop
30.07.2014, 00:44 -4.28% Komplettsystem AMD FX-4100, 4GB RAM, 19" LCD-Monitor um €284,28 (statt: €297,--) bei Rabo Networks Shop
30.07.2014, 00:44 -2.80% Komplettsystem AMD FX-4100, 4GB RAM um €223,56 (statt: €230,--) bei Rabo Networks Shop
30.07.2014, 00:44 -4.37% Komplettsystem AMD FX-4100, 3GB RAM, 24" LCD-Monitor um €339,48 (statt: €355,--) bei Rabo Networks Shop
30.07.2014, 00:44 -4.04% Komplettsystem AMD FX-4100, 3GB RAM, 22" LCD-Monitor um €311,88 (statt: €325,--) bei Rabo Networks Shop
30.07.2014, 00:44 -3.92% Komplettsystem AMD FX-4100, 3GB RAM, 20" LCD-Monitor um €303,60 (statt: €316,--) bei Rabo Networks Shop
30.07.2014, 00:44 -3.96% Komplettsystem AMD FX-4100, 3GB RAM, 19" LCD-Monitor um €284,28 (statt: €296,--) bei Rabo Networks Shop
30.07.2014, 00:44 -3.05% Komplettsystem AMD FX-4100, 2GB RAM, 22" LCD-Monitor um €308,20 (statt: €317,90) bei Rabo Networks Shop
30.07.2014, 00:44 -3.86% Komplettsystem AMD FX-4100, 2GB RAM, 20" LCD-Monitor um €299,-- (statt: €311,--) bei Rabo Networks Shop
30.07.2014, 00:44 -3.57% Komplettsystem AMD FX-4100, 2GB RAM, 19" LCD-Monitor um €280,60 (statt: €291,--) bei Rabo Networks Shop
30.07.2014, 00:44 -3.69% Komplettsystem AMD FX-4100, 16GB RAM, 24" LCD-Monitor um €411,24 (statt: €427,--) bei Rabo Networks Shop
30.07.2014, 00:44 -3.99% Komplettsystem AMD FX-4100, 16GB RAM, 20" LCD-Monitor um €374,44 (statt: €390,--) bei Rabo Networks Shop
30.07.2014, 00:44 -4.27% Komplettsystem AMD FX-4100, 16GB RAM, 19" LCD-Monitor um €354,20 (statt: €370,--) bei Rabo Networks Shop
30.07.2014, 00:44 -1.14% Komplettsystem AMD FX-4100, 16GB RAM um €291,64 (statt: €295,--) bei Rabo Networks Shop
30.07.2014, 00:44 -1.61% Komplettsystem AMD FX-4100, 12GB RAM, 20" LCD-Monitor um €354,20 (statt: €360,--) bei Rabo Networks Shop
30.07.2014, 00:44 -3.01% Komplettsystem AMD FX-4100, 12GB RAM, 19" LCD-Monitor um €339,48 (statt: €350,--) bei Rabo Networks Shop
30.07.2014, 00:44 -1.08% Komplettsystem AMD FX-4100, 12GB RAM um €276,-- (statt: €279,--) bei Rabo Networks Shop
30.07.2014, 00:44 -7.07% Komplettsystem AMD Athlon II X4 630, 8GB RAM, 24" LCD-Monitor um €367,08 (statt: €395,--) bei Rabo Networks Shop
30.07.2014, 00:44 -7.48% Komplettsystem AMD Athlon II X4 630, 8GB RAM, 22" LCD-Monitor um €326,60 (statt: €353,--) bei Rabo Networks Shop
30.07.2014, 00:44 -8.00% Komplettsystem AMD Athlon II X4 630, 8GB RAM, 20" LCD-Monitor um €329,36 (statt: €358,--) bei Rabo Networks Shop
30.07.2014, 00:44 -6.93% Komplettsystem AMD Athlon II X4 630, 8GB RAM, 19" LCD-Monitor um €321,08 (statt: €345,--) bei Rabo Networks Shop
30.07.2014, 00:44 -6.92% Komplettsystem AMD Athlon II X4 630, 8GB RAM um €237,36 (statt: €255,--) bei Rabo Networks Shop
30.07.2014, 00:44 -4.65% Komplettsystem AMD Athlon II X4 630, 6GB RAM, 24" LCD-Monitor um €367,08 (statt: €385,--) bei Rabo Networks Shop
30.07.2014, 00:44 -8.00% Komplettsystem AMD Athlon II X4 630, 6GB RAM, 20" LCD-Monitor um €357,88 (statt: €389,--) bei Rabo Networks Shop
30.07.2014, 00:44 -3.98% Komplettsystem AMD Athlon II X4 630, 6GB RAM, 19" LCD-Monitor um €329,36 (statt: €343,--) bei Rabo Networks Shop
30.07.2014, 00:44 -3.27% Komplettsystem AMD Athlon II X4 630, 6GB RAM um €244,72 (statt: €253,--) bei Rabo Networks Shop
30.07.2014, 00:44 -7.51% Komplettsystem AMD Athlon II X4 630, 4GB RAM, 24" LCD-Monitor um €345,-- (statt: €373,--) bei Rabo Networks Shop
30.07.2014, 00:44 -8.00% Komplettsystem AMD Athlon II X4 630, 4GB RAM, 22" LCD-Monitor um €302,68 (statt: €329,--) bei Rabo Networks Shop
30.07.2014, 00:44 -8.00% Komplettsystem AMD Athlon II X4 630, 4GB RAM, 20" LCD-Monitor um €306,36 (statt: €333,--) bei Rabo Networks Shop
30.07.2014, 00:44 -6.85% Komplettsystem AMD Athlon II X4 630, 4GB RAM, 19" LCD-Monitor um €297,16 (statt: €319,--) bei Rabo Networks Shop
30.07.2014, 00:44 -4.18% Komplettsystem AMD Athlon II X4 630, 4GB RAM um €207,92 (statt: €217,--) bei Rabo Networks Shop
30.07.2014, 00:44 -6.25% Komplettsystem AMD Athlon II X4 630, 3GB RAM, 24" LCD-Monitor um €345,-- (statt: €368,--) bei Rabo Networks Shop
30.07.2014, 00:44 -6.09% Komplettsystem AMD Athlon II X4 630, 3GB RAM, 22" LCD-Monitor um €317,40 (statt: €338,--) bei Rabo Networks Shop
30.07.2014, 00:44 -8.00% Komplettsystem AMD Athlon II X4 630, 3GB RAM, 20" LCD-Monitor um €311,88 (statt: €339,--) bei Rabo Networks Shop
30.07.2014, 00:44 -7.42% Komplettsystem AMD Athlon II X4 630, 3GB RAM, 19" LCD-Monitor um €293,48 (statt: €317,--) bei Rabo Networks Shop
30.07.2014, 00:44 -6.67% Komplettsystem AMD Athlon II X4 630, 2GB RAM, 24" LCD-Monitor um €322,-- (statt: €345,--) bei Rabo Networks Shop
30.07.2014, 00:44 -8.00% Komplettsystem AMD Athlon II X4 630, 2GB RAM, 22" LCD-Monitor um €287,96 (statt: €313,--) bei Rabo Networks Shop
30.07.2014, 00:44 -8.00% Komplettsystem AMD Athlon II X4 630, 2GB RAM, 20" LCD-Monitor um €278,76 (statt: €303,--) bei Rabo Networks Shop
30.07.2014, 00:44 -4.77% Komplettsystem AMD Athlon II X4 630, 2GB RAM, 19" LCD-Monitor um €271,40 (statt: €285,--) bei Rabo Networks Shop
30.07.2014, 00:44 -5.28% Komplettsystem AMD Athlon II X4 630, 2GB RAM um €192,28 (statt: €203,--) bei Rabo Networks Shop
30.07.2014, 00:44 -8.00% Komplettsystem AMD Athlon II X4 630, 1GB RAM, 24" LCD-Monitor um €324,76 (statt: €353,--) bei Rabo Networks Shop
30.07.2014, 00:44 -7.94% Komplettsystem AMD Athlon II X4 630, 1GB RAM, 22" LCD-Monitor um €280,60 (statt: €304,80) bei Rabo Networks Shop
30.07.2014, 00:44 -8.00% Komplettsystem AMD Athlon II X4 630, 1GB RAM, 20" LCD-Monitor um €274,16 (statt: €298,--) bei Rabo Networks Shop
30.07.2014, 00:44 -8.00% Komplettsystem AMD Athlon II X4 630, 1GB RAM, 19" LCD-Monitor um €265,88 (statt: €289,--) bei Rabo Networks Shop
30.07.2014, 00:44 -5.23% Komplettsystem AMD Athlon II X4 630, 1GB RAM um €188,60 (statt: €199,--) bei Rabo Networks Shop
30.07.2014, 00:44 -2.07% Komplettsystem AMD Athlon II X4 630, 16GB RAM, 24" LCD-Monitor um €440,68 (statt: €450,--) bei Rabo Networks Shop
30.07.2014, 00:44 -8.00% Komplettsystem AMD Athlon II X4 630, 16GB RAM, 20" LCD-Monitor um €367,08 (statt: €399,--) bei Rabo Networks Shop
30.07.2014, 00:44 -4.65% Komplettsystem AMD Athlon II X4 630, 16GB RAM, 19" LCD-Monitor um €367,08 (statt: €385,--) bei Rabo Networks Shop
30.07.2014, 00:44 -1.62% Komplettsystem AMD Athlon II X4 630, 16GB RAM um €311,88 (statt: €317,--) bei Rabo Networks Shop
30.07.2014, 00:44 -1.08% Komplettsystem AMD Athlon II X4 630, 12GB RAM, 22" LCD-Monitor um €394,68 (statt: €399,--) bei Rabo Networks Shop
30.07.2014, 00:44 -8.00% Komplettsystem AMD Athlon II X4 630, 12GB RAM, 20" LCD-Monitor um €367,08 (statt: €399,--) bei Rabo Networks Shop
30.07.2014, 00:44 -8.00% Komplettsystem AMD Athlon II X2 255, 4GB RAM um €168,26 (statt: €182,90) bei Rabo Networks Shop
30.07.2014, 00:44 -4.05% Komplettsystem AMD Athlon II X2 250, 4GB RAM um €183,08 (statt: €190,80) bei Rabo Networks Shop
30.07.2014, 00:44 -4.65% Komplettsystem AMD Athlon II X2 250, 3GB RAM, 20" LCD-Monitor um €262,20 (statt: €275,--) bei Rabo Networks Shop
30.07.2014, 00:44 -8.00% Komplettsystem AMD Athlon II X2 250, 3GB RAM, 19" LCD-Monitor um €229,08 (statt: €249,--) bei Rabo Networks Shop
30.07.2014, 00:44 -8.00% Komplettsystem AMD Athlon II X2 250, 3GB RAM um €159,16 (statt: €173,--) bei Rabo Networks Shop
30.07.2014, 00:44 -8.00% Komplettsystem AMD Athlon II X2 250, 2GB RAM, 22" LCD-Monitor um €251,16 (statt: €273,--) bei Rabo Networks Shop
30.07.2014, 00:44 -8.00% Komplettsystem AMD Athlon II X2 250, 2GB RAM, 20" LCD-Monitor um €241,96 (statt: €263,--) bei Rabo Networks Shop
30.07.2014, 00:44 -8.00% Komplettsystem AMD Athlon II X2 250, 2GB RAM, 19" LCD-Monitor um €223,56 (statt: €243,--) bei Rabo Networks Shop
30.07.2014, 00:44 -7.10% Komplettsystem AMD Athlon II X2 250, 1GB RAM, 24" LCD-Monitor um €283,36 (statt: €305,--) bei Rabo Networks Shop
30.07.2014, 00:44 -7.22% Komplettsystem AMD Athlon II X2 250, 1GB RAM, 22" LCD-Monitor um €241,96 (statt: €260,80) bei Rabo Networks Shop
30.07.2014, 00:44 -8.00% Komplettsystem AMD Athlon II X2 250, 1GB RAM, 20" LCD-Monitor um €237,36 (statt: €258,--) bei Rabo Networks Shop
30.07.2014, 00:44 -8.00% Komplettsystem AMD Athlon II X2 250, 1GB RAM, 19" LCD-Monitor um €219,78 (statt: €238,90) bei Rabo Networks Shop
30.07.2014, 00:44 -8.00% Komplettsystem AMD Athlon II X2 240, 2GB RAM um €155,48 (statt: €169,--) bei Rabo Networks Shop
30.07.2014, 00:44 -7.64% Komplettsystem AMD Athlon II X2 220, 8GB RAM, 22" LCD-Monitor um €303,60 (statt: €328,70) bei Rabo Networks Shop
30.07.2014, 00:44 -8.00% Komplettsystem AMD Athlon II X2 220, 8GB RAM, 19" LCD-Monitor um €284,28 (statt: €309,--) bei Rabo Networks Shop
30.07.2014, 00:44 -8.00% Komplettsystem AMD Athlon II X2 220, 8GB RAM um €207,-- (statt: €225,--) bei Rabo Networks Shop
30.07.2014, 00:44 -8.00% Komplettsystem AMD Athlon II X2 220, 6GB RAM, 24" LCD-Monitor um €333,96 (statt: €363,--) bei Rabo Networks Shop
30.07.2014, 00:44 -8.00% Komplettsystem AMD Athlon II X2 220, 6GB RAM, 22" LCD-Monitor um €293,48 (statt: €319,--) bei Rabo Networks Shop
30.07.2014, 00:44 -8.00% Komplettsystem AMD Athlon II X2 220, 6GB RAM, 19" LCD-Monitor um €275,08 (statt: €299,--) bei Rabo Networks Shop
30.07.2014, 00:44 -8.00% Komplettsystem AMD Athlon II X2 220, 6GB RAM um €214,36 (statt: €233,--) bei Rabo Networks Shop
30.07.2014, 00:44 -8.00% Komplettsystem AMD Athlon II X2 220, 4GB RAM, 24" LCD-Monitor um €317,40 (statt: €345,--) bei Rabo Networks Shop
30.07.2014, 00:44 -8.00% Komplettsystem AMD Athlon II X2 220, 4GB RAM, 22" LCD-Monitor um €271,40 (statt: €295,--) bei Rabo Networks Shop
30.07.2014, 00:44 -8.00% Komplettsystem AMD Athlon II X2 220, 4GB RAM, 19" LCD-Monitor um €232,76 (statt: €253,--) bei Rabo Networks Shop
30.07.2014, 00:44 -8.00% Komplettsystem AMD Athlon II X2 220, 4GB RAM um €179,40 (statt: €195,--) bei Rabo Networks Shop
30.07.2014, 00:44 -8.00% Komplettsystem AMD Athlon II X2 220, 3GB RAM, 24" LCD-Monitor um €293,48 (statt: €319,--) bei Rabo Networks Shop
30.07.2014, 00:44 -8.00% Komplettsystem AMD Athlon II X2 220, 3GB RAM, 22" LCD-Monitor um €262,20 (statt: €285,--) bei Rabo Networks Shop
30.07.2014, 00:44 -8.00% Komplettsystem AMD Athlon II X2 220, 3GB RAM, 20" LCD-Monitor um €256,68 (statt: €279,--) bei Rabo Networks Shop
30.07.2014, 00:44 -8.00% Komplettsystem AMD Athlon II X2 220, 3GB RAM, 19" LCD-Monitor um €229,08 (statt: €249,--) bei Rabo Networks Shop
30.07.2014, 00:44 -8.00% Komplettsystem AMD Athlon II X2 220, 3GB RAM um €188,60 (statt: €205,--) bei Rabo Networks Shop
30.07.2014, 00:44 -8.00% Komplettsystem AMD Athlon II X2 220, 2GB RAM, 24" LCD-Monitor um €280,60 (statt: €305,--) bei Rabo Networks Shop
30.07.2014, 00:44 -8.00% Komplettsystem AMD Athlon II X2 220, 2GB RAM, 22" LCD-Monitor um €251,16 (statt: €273,--) bei Rabo Networks Shop
30.07.2014, 00:44 -8.00% Komplettsystem AMD Athlon II X2 220, 2GB RAM, 20" LCD-Monitor um €247,48 (statt: €269,--) bei Rabo Networks Shop
30.07.2014, 00:44 -8.00% Komplettsystem AMD Athlon II X2 220, 2GB RAM, 19" LCD-Monitor um €219,88 (statt: €239,--) bei Rabo Networks Shop
30.07.2014, 00:44 -7.95% Komplettsystem AMD Athlon II X2 220, 2GB RAM um €160,08 (statt: €173,90) bei Rabo Networks Shop
30.07.2014, 00:44 -8.00% Komplettsystem AMD Athlon II X2 220, 1GB RAM, 24" LCD-Monitor um €293,48 (statt: €319,--) bei Rabo Networks Shop
30.07.2014, 00:44 -8.00% Komplettsystem AMD Athlon II X2 220, 1GB RAM, 22" LCD-Monitor um €235,52 (statt: €256,--) bei Rabo Networks Shop
30.07.2014, 00:44 -8.00% Komplettsystem AMD Athlon II X2 220, 1GB RAM, 20" LCD-Monitor um €216,20 (statt: €235,--) bei Rabo Networks Shop
30.07.2014, 00:44 -8.00% Komplettsystem AMD Athlon II X2 220, 1GB RAM, 19" LCD-Monitor um €216,20 (statt: €235,--) bei Rabo Networks Shop
30.07.2014, 00:44 -8.00% Komplettsystem AMD Athlon II X2 220, 1GB RAM um €155,48 (statt: €169,--) bei Rabo Networks Shop
30.07.2014, 00:44 -7.48% Komplettsystem AMD Athlon II X2 215, 8GB RAM, 24" LCD-Monitor um €328,44 (statt: €355,--) bei Rabo Networks Shop
30.07.2014, 00:44 -6.85% Komplettsystem AMD Athlon II X2 215, 8GB RAM, 22" LCD-Monitor um €297,16 (statt: €319,--) bei Rabo Networks Shop
30.07.2014, 00:44 -6.93% Komplettsystem AMD Athlon II X2 215, 8GB RAM, 19" LCD-Monitor um €279,22 (statt: €300,--) bei Rabo Networks Shop
30.07.2014, 00:44 -7.17% Komplettsystem AMD Athlon II X2 215, 8GB RAM um €207,-- (statt: €223,--) bei Rabo Networks Shop
30.07.2014, 00:44 -5.90% Komplettsystem AMD Athlon II X2 215, 6GB RAM, 24" LCD-Monitor um €329,36 (statt: €350,--) bei Rabo Networks Shop
30.07.2014, 00:44 -6.87% Komplettsystem AMD Athlon II X2 215, 6GB RAM, 22" LCD-Monitor um €294,30 (statt: €316,--) bei Rabo Networks Shop
30.07.2014, 00:44 -7.06% Komplettsystem AMD Athlon II X2 215, 6GB RAM, 19" LCD-Monitor um €272,22 (statt: €292,90) bei Rabo Networks Shop
30.07.2014, 00:44 -5.48% Komplettsystem AMD Athlon II X2 215, 6GB RAM um €207,-- (statt: €219,--) bei Rabo Networks Shop
30.07.2014, 00:44 -7.46% Komplettsystem AMD Athlon II X2 215, 4GB RAM, 24" LCD-Monitor um €317,40 (statt: €343,--) bei Rabo Networks Shop
30.07.2014, 00:44 -2.17% Komplettsystem AMD Athlon II X2 215, 4GB RAM, 22" LCD-Monitor um €293,48 (statt: €300,--) bei Rabo Networks Shop
30.07.2014, 00:44 -6.66% Komplettsystem AMD Athlon II X2 215, 4GB RAM, 19" LCD-Monitor um €256,68 (statt: €275,--) bei Rabo Networks Shop
30.07.2014, 00:44 -6.37% Komplettsystem AMD Athlon II X2 215, 3GB RAM, 24" LCD-Monitor um €317,40 (statt: €339,--) bei Rabo Networks Shop
30.07.2014, 00:44 -5.60% Komplettsystem AMD Athlon II X2 215, 3GB RAM, 19" LCD-Monitor um €253,-- (statt: €268,--) bei Rabo Networks Shop
30.07.2014, 00:44 -1.72% Komplettsystem AMD Athlon II X2 215, 3GB RAM um €201,48 (statt: €205,--) bei Rabo Networks Shop
30.07.2014, 00:44 -7.43% Komplettsystem AMD Athlon II X2 215, 2GB RAM, 24" LCD-Monitor um €299,-- (statt: €323,--) bei Rabo Networks Shop
30.07.2014, 00:44 -6.44% Komplettsystem AMD Athlon II X2 215, 2GB RAM, 22" LCD-Monitor um €276,-- (statt: €295,--) bei Rabo Networks Shop
30.07.2014, 00:44 -6.96% Komplettsystem AMD Athlon II X2 215, 2GB RAM, 19" LCD-Monitor um €247,48 (statt: €266,--) bei Rabo Networks Shop
30.07.2014, 00:44 -8.00% Komplettsystem AMD Athlon II X2 215, 16GB RAM, 24" LCD-Monitor um €435,16 (statt: €473,--) bei Rabo Networks Shop
30.07.2014, 00:44 -8.00% Komplettsystem AMD Athlon II X2 215, 16GB RAM, 22" LCD-Monitor um €391,-- (statt: €425,--) bei Rabo Networks Shop
30.07.2014, 00:44 -8.00% Komplettsystem AMD Athlon II X2 215, 16GB RAM, 19" LCD-Monitor um €385,48 (statt: €419,--) bei Rabo Networks Shop
30.07.2014, 00:44 -8.00% Komplettsystem AMD Athlon II X2 215, 12GB RAM, 24" LCD-Monitor um €400,20 (statt: €435,--) bei Rabo Networks Shop
30.07.2014, 00:44 -8.00% Komplettsystem AMD Athlon II X2 215, 12GB RAM, 22" LCD-Monitor um €354,20 (statt: €385,--) bei Rabo Networks Shop
30.07.2014, 00:44 -8.00% Komplettsystem AMD Athlon II X2 215, 12GB RAM, 19" LCD-Monitor um €349,60 (statt: €380,--) bei Rabo Networks Shop
30.07.2014, 00:44 -8.00% Komplettsystem AMD Athlon II X2 215, 12GB RAM um €262,20 (statt: €285,--) bei Rabo Networks Shop
30.07.2014, 00:44 -8.00% Komplettsystem AMD Athlon II X2 215, 1GB RAM, 24" LCD-Monitor um €293,48 (statt: €319,--) bei Rabo Networks Shop
30.07.2014, 00:44 -3.16% Komplettsystem AMD Athlon II X2 215, 1GB RAM, 22" LCD-Monitor um €276,-- (statt: €285,--) bei Rabo Networks Shop
30.07.2014, 00:44 -6.61% Komplettsystem AMD Athlon II X2 215, 1GB RAM, 19" LCD-Monitor um €247,48 (statt: €265,--) bei Rabo Networks Shop
30.07.2014, 00:44 -7.09% Komplettsystem AMD A6-3650, 2GB RAM, 19" LCD-Monitor um €281,52 (statt: €303,--) bei Rabo Networks Shop
30.07.2014, 00:44 -1.79% Komplettsystem AMD A6-3650, 2GB RAM um €187,58 (statt: €191,--) bei Rabo Networks Shop
30.07.2014, 00:44 -6.72% Komplettsystem AMD A6-3650, 1GB RAM, 24" LCD-Monitor um €333,96 (statt: €358,--) bei Rabo Networks Shop
30.07.2014, 00:44 -4.77% Komplettsystem AMD A6-3650, 1GB RAM, 22" LCD-Monitor um €306,36 (statt: €321,70) bei Rabo Networks Shop
30.07.2014, 00:44 -7.16% Komplettsystem AMD A6-3650, 1GB RAM, 20" LCD-Monitor um €294,30 (statt: €317,--) bei Rabo Networks Shop
30.07.2014, 00:44 -8.00% Komplettsystem AMD A6-3650, 1GB RAM, 19" LCD-Monitor um €274,16 (statt: €298,--) bei Rabo Networks Shop
30.07.2014, 00:44 -2.52% Komplettsystem AMD A6-3650, 1GB RAM um €216,20 (statt: €221,80) bei Rabo Networks Shop
30.07.2014, 00:44 -7.00% Komplettsystem AMD A6-3500, 8GB RAM, 24" LCD-Monitor um €342,24 (statt: €368,--) bei Rabo Networks Shop
30.07.2014, 00:44 -6.64% Komplettsystem AMD A6-3500, 8GB RAM, 22" LCD-Monitor um €314,64 (statt: €337,--) bei Rabo Networks Shop
30.07.2014, 00:44 -8.00% Komplettsystem AMD A6-3500, 8GB RAM, 20" LCD-Monitor um €304,52 (statt: €331,--) bei Rabo Networks Shop
30.07.2014, 00:44 -7.41% Komplettsystem AMD A6-3500, 8GB RAM, 19" LCD-Monitor um €287,04 (statt: €310,--) bei Rabo Networks Shop
30.07.2014, 00:44 -2.80% Komplettsystem AMD A6-3500, 8GB RAM um €223,56 (statt: €230,--) bei Rabo Networks Shop
30.07.2014, 00:44 -7.48% Komplettsystem AMD A6-3500, 6GB RAM, 24" LCD-Monitor um €326,60 (statt: €353,--) bei Rabo Networks Shop
30.07.2014, 00:44 -8.00% Komplettsystem AMD A6-3500, 6GB RAM, 22" LCD-Monitor um €302,68 (statt: €329,--) bei Rabo Networks Shop
30.07.2014, 00:44 -8.00% Komplettsystem AMD A6-3500, 6GB RAM, 20" LCD-Monitor um €293,48 (statt: €319,--) bei Rabo Networks Shop
30.07.2014, 00:44 -8.00% Komplettsystem AMD A6-3500, 6GB RAM, 19" LCD-Monitor um €271,40 (statt: €295,--) bei Rabo Networks Shop
30.07.2014, 00:44 -5.96% Komplettsystem AMD A6-3500, 6GB RAM um €211,60 (statt: €225,--) bei Rabo Networks Shop
30.07.2014, 00:44 -6.68% Komplettsystem AMD A6-3500, 4GB RAM, 24" LCD-Monitor um €324,76 (statt: €348,--) bei Rabo Networks Shop
30.07.2014, 00:44 -6.85% Komplettsystem AMD A6-3500, 4GB RAM, 22" LCD-Monitor um €297,16 (statt: €319,--) bei Rabo Networks Shop
30.07.2014, 00:44 -8.00% Komplettsystem AMD A6-3500, 4GB RAM, 20" LCD-Monitor um €287,04 (statt: €312,--) bei Rabo Networks Shop
30.07.2014, 00:44 -5.74% Komplettsystem AMD A6-3500, 4GB RAM, 19" LCD-Monitor um €268,64 (statt: €285,--) bei Rabo Networks Shop
30.07.2014, 00:44 -6.27% Komplettsystem AMD A6-3500, 4GB RAM um €199,64 (statt: €213,--) bei Rabo Networks Shop
30.07.2014, 00:44 -5.87% Komplettsystem AMD A6-3500, 3GB RAM, 24" LCD-Monitor um €324,76 (statt: €345,--) bei Rabo Networks Shop
30.07.2014, 00:44 -8.00% Komplettsystem AMD A6-3500, 3GB RAM, 22" LCD-Monitor um €297,16 (statt: €323,--) bei Rabo Networks Shop
30.07.2014, 00:44 -5.74% Komplettsystem AMD A6-3500, 3GB RAM, 19" LCD-Monitor um €268,64 (statt: €285,--) bei Rabo Networks Shop
30.07.2014, 00:44 -7.17% Komplettsystem AMD A6-3500, 3GB RAM um €205,16 (statt: €221,--) bei Rabo Networks Shop
30.07.2014, 00:44 -6.66% Komplettsystem AMD A6-3500, 2GB RAM, 24" LCD-Monitor um €320,16 (statt: €343,--) bei Rabo Networks Shop
30.07.2014, 00:44 -3.75% Komplettsystem AMD A6-3500, 2GB RAM, 22" LCD-Monitor um €291,64 (statt: €303,--) bei Rabo Networks Shop
30.07.2014, 00:44 -8.00% Komplettsystem AMD A6-3500, 2GB RAM, 20" LCD-Monitor um €283,36 (statt: €308,--) bei Rabo Networks Shop
30.07.2014, 00:44 -7.03% Komplettsystem AMD A6-3500, 2GB RAM, 19" LCD-Monitor um €264,96 (statt: €285,--) bei Rabo Networks Shop
30.07.2014, 00:44 -8.00% Komplettsystem AMD A6-3500, 1GB RAM, 24" LCD-Monitor um €311,88 (statt: €339,--) bei Rabo Networks Shop
30.07.2014, 00:44 -5.24% Komplettsystem AMD A6-3500, 1GB RAM, 22" LCD-Monitor um €284,28 (statt: €300,--) bei Rabo Networks Shop
30.07.2014, 00:44 -1.53% Komplettsystem AMD A6-3500, 1GB RAM um €195,96 (statt: €199,--) bei Rabo Networks Shop
30.07.2014, 00:44 -5.61% Komplettsystem AMD A6-3500, 16GB RAM, 24" LCD-Monitor um €399,28 (statt: €423,--) bei Rabo Networks Shop
30.07.2014, 00:44 -8.00% Komplettsystem AMD A6-3500, 16GB RAM, 20" LCD-Monitor um €363,40 (statt: €395,--) bei Rabo Networks Shop
30.07.2014, 00:44 -5.27% Komplettsystem AMD A6-3500, 12GB RAM, 24" LCD-Monitor um €383,64 (statt: €405,--) bei Rabo Networks Shop
30.07.2014, 00:44 -1.06% Komplettsystem AMD A6-3500, 12GB RAM, 22" LCD-Monitor um €354,20 (statt: €358,--) bei Rabo Networks Shop
30.07.2014, 00:44 -8.00% Komplettsystem AMD A6-3500, 12GB RAM, 20" LCD-Monitor um €345,-- (statt: €375,--) bei Rabo Networks Shop
30.07.2014, 00:44 -6.15% Komplettsystem AMD A6-3500, 12GB RAM, 19" LCD-Monitor um €326,60 (statt: €348,--) bei Rabo Networks Shop
30.07.2014, 00:44 -5.15% Komplettsystem AMD A4-3400, 8GB RAM, 24" LCD-Monitor um €336,72 (statt: €355,--) bei Rabo Networks Shop
30.07.2014, 00:44 -1.53% Komplettsystem AMD A4-3400, 8GB RAM, 22" LCD-Monitor um €308,20 (statt: €313,--) bei Rabo Networks Shop
30.07.2014, 00:44 -7.11% Komplettsystem AMD A4-3400, 8GB RAM, 20" LCD-Monitor um €299,-- (statt: €321,90) bei Rabo Networks Shop
30.07.2014, 00:44 -5.53% Komplettsystem AMD A4-3400, 8GB RAM, 19" LCD-Monitor um €281,52 (statt: €298,--) bei Rabo Networks Shop
30.07.2014, 00:44 -5.32% Komplettsystem AMD A4-3400, 6GB RAM, 24" LCD-Monitor um €324,76 (statt: €343,--) bei Rabo Networks Shop
30.07.2014, 00:44 -5.06% Komplettsystem AMD A4-3400, 6GB RAM, 22" LCD-Monitor um €297,16 (statt: €313,--) bei Rabo Networks Shop
30.07.2014, 00:44 -6.81% Komplettsystem AMD A4-3400, 6GB RAM, 20" LCD-Monitor um €287,04 (statt: €308,--) bei Rabo Networks Shop
30.07.2014, 00:44 -5.74% Komplettsystem AMD A4-3400, 6GB RAM, 19" LCD-Monitor um €268,64 (statt: €285,--) bei Rabo Networks Shop
30.07.2014, 00:44 -3.23% Komplettsystem AMD A4-3400, 6GB RAM um €205,16 (statt: €212,--) bei Rabo Networks Shop
30.07.2014, 00:44 -3.86% Komplettsystem AMD A4-3400, 4GB RAM, 24" LCD-Monitor um €320,16 (statt: €333,--) bei Rabo Networks Shop
30.07.2014, 00:44 -1.14% Komplettsystem AMD A4-3400, 4GB RAM, 22" LCD-Monitor um €291,64 (statt: €295,--) bei Rabo Networks Shop
30.07.2014, 00:44 -6.79% Komplettsystem AMD A4-3400, 4GB RAM, 20" LCD-Monitor um €282,44 (statt: €303,--) bei Rabo Networks Shop
30.07.2014, 00:44 -5.03% Komplettsystem AMD A4-3400, 4GB RAM, 19" LCD-Monitor um €264,96 (statt: €279,--) bei Rabo Networks Shop
30.07.2014, 00:44 -5.25% Komplettsystem AMD A4-3400, 3GB RAM, 24" LCD-Monitor um €317,40 (statt: €335,--) bei Rabo Networks Shop
30.07.2014, 00:44 -5.62% Komplettsystem AMD A4-3400, 3GB RAM, 22" LCD-Monitor um €291,64 (statt: €309,--) bei Rabo Networks Shop
30.07.2014, 00:44 -6.17% Komplettsystem AMD A4-3400, 3GB RAM, 20" LCD-Monitor um €282,44 (statt: €301,--) bei Rabo Networks Shop
30.07.2014, 00:44 -6.02% Komplettsystem AMD A4-3400, 3GB RAM, 19" LCD-Monitor um €262,20 (statt: €279,--) bei Rabo Networks Shop
30.07.2014, 00:44 -3.78% Komplettsystem AMD A4-3400, 2GB RAM, 24" LCD-Monitor um €314,64 (statt: €327,--) bei Rabo Networks Shop
30.07.2014, 00:44 -10.68% Komplettsystem AMD A4-3400, 2GB RAM, 20" LCD-Monitor um €276,-- (statt: €309,--) bei Rabo Networks Shop
30.07.2014, 00:44 -5.98% Komplettsystem AMD A4-3400, 2GB RAM, 19" LCD-Monitor um €256,68 (statt: €273,--) bei Rabo Networks Shop
30.07.2014, 00:44 -6.68% Komplettsystem AMD A4-3400, 16GB RAM, 24" LCD-Monitor um €389,16 (statt: €417,--) bei Rabo Networks Shop
30.07.2014, 00:44 -8.00% Komplettsystem AMD A4-3400, 16GB RAM, 20" LCD-Monitor um €351,44 (statt: €382,--) bei Rabo Networks Shop
30.07.2014, 00:44 -2.45% Komplettsystem AMD A4-3400, 16GB RAM, 19" LCD-Monitor um €339,48 (statt: €348,--) bei Rabo Networks Shop
30.07.2014, 00:44 -8.00% Komplettsystem AMD A4-3400, 12GB RAM, 20" LCD-Monitor um €333,96 (statt: €363,--) bei Rabo Networks Shop
30.07.2014, 00:44 -4.04% Komplettsystem AMD A4-3400, 12GB RAM, 19" LCD-Monitor um €311,88 (statt: €325,--) bei Rabo Networks Shop
30.07.2014, 00:44 -15.00% Komplettsystem AMD A4-3300, 8GB RAM, 24" LCD-Monitor um €291,54 (statt: €343,--) bei Rabo Networks Shop
30.07.2014, 00:44 -15.11% Komplettsystem AMD A4-3300, 8GB RAM, 22" LCD-Monitor um €264,86 (statt: €312,--) bei Rabo Networks Shop
30.07.2014, 00:44 -10.83% Komplettsystem AMD A4-3300, 8GB RAM, 20" LCD-Monitor um €289,80 (statt: €325,--) bei Rabo Networks Shop
30.07.2014, 00:44 -19.69% Komplettsystem AMD A4-3300, 8GB RAM, 19" LCD-Monitor um €240,94 (statt: €300,--) bei Rabo Networks Shop
30.07.2014, 00:44 -6.32% Komplettsystem AMD A4-3300, 8GB RAM um €173,78 (statt: €185,50) bei Rabo Networks Shop
30.07.2014, 00:44 -13.62% Komplettsystem AMD A4-3300, 6GB RAM, 24" LCD-Monitor um €284,18 (statt: €329,--) bei Rabo Networks Shop
30.07.2014, 00:44 -15.88% Komplettsystem AMD A4-3300, 6GB RAM, 22" LCD-Monitor um €256,58 (statt: €305,--) bei Rabo Networks Shop
30.07.2014, 00:44 -8.00% Komplettsystem AMD A4-3300, 6GB RAM, 20" LCD-Monitor um €276,-- (statt: €300,--) bei Rabo Networks Shop
30.07.2014, 00:44 -15.54% Komplettsystem AMD A4-3300, 6GB RAM, 19" LCD-Monitor um €238,18 (statt: €282,--) bei Rabo Networks Shop
30.07.2014, 00:44 -21.74% Komplettsystem AMD A4-3300, 6GB RAM um €168,26 (statt: €215,--) bei Rabo Networks Shop
30.07.2014, 00:44 -14.26% Komplettsystem AMD A4-3300, 4GB RAM, 24" LCD-Monitor um €278,66 (statt: €325,--) bei Rabo Networks Shop
30.07.2014, 00:44 -13.43% Komplettsystem AMD A4-3300, 4GB RAM, 22" LCD-Monitor um €251,06 (statt: €290,--) bei Rabo Networks Shop
30.07.2014, 00:44 -8.00% Komplettsystem AMD A4-3300, 4GB RAM, 20" LCD-Monitor um €273,24 (statt: €297,--) bei Rabo Networks Shop
30.07.2014, 00:44 -16.73% Komplettsystem AMD A4-3300, 4GB RAM, 19" LCD-Monitor um €228,98 (statt: €275,--) bei Rabo Networks Shop
30.07.2014, 00:44 -10.55% Komplettsystem AMD A4-3300, 4GB RAM um €161,82 (statt: €180,90) bei Rabo Networks Shop
30.07.2014, 00:44 -15.58% Komplettsystem AMD A4-3300, 3GB RAM, 24" LCD-Monitor um €277,74 (statt: €329,--) bei Rabo Networks Shop
30.07.2014, 00:44 -16.06% Komplettsystem AMD A4-3300, 3GB RAM, 22" LCD-Monitor um €250,14 (statt: €298,--) bei Rabo Networks Shop
30.07.2014, 00:44 -8.00% Komplettsystem AMD A4-3300, 3GB RAM, 20" LCD-Monitor um €267,62 (statt: €290,90) bei Rabo Networks Shop
30.07.2014, 00:44 -17.07% Komplettsystem AMD A4-3300, 3GB RAM, 19" LCD-Monitor um €228,06 (statt: €275,--) bei Rabo Networks Shop
30.07.2014, 00:44 -13.03% Komplettsystem AMD A4-3300, 3GB RAM um €160,90 (statt: €185,--) bei Rabo Networks Shop
30.07.2014, 00:44 -15.53% Komplettsystem AMD A4-3300, 2GB RAM, 24" LCD-Monitor um €269,46 (statt: €319,--) bei Rabo Networks Shop
30.07.2014, 00:44 -11.38% Komplettsystem AMD A4-3300, 2GB RAM, 22" LCD-Monitor um €243,70 (statt: €275,--) bei Rabo Networks Shop
30.07.2014, 00:44 -8.00% Komplettsystem AMD A4-3300, 2GB RAM, 20" LCD-Monitor um €265,78 (statt: €288,90) bei Rabo Networks Shop
30.07.2014, 00:44 -16.34% Komplettsystem AMD A4-3300, 2GB RAM, 19" LCD-Monitor um €222,54 (statt: €266,--) bei Rabo Networks Shop
30.07.2014, 00:44 -11.21% Komplettsystem AMD A4-3300, 2GB RAM um €155,38 (statt: €175,--) bei Rabo Networks Shop
30.07.2014, 00:44 -10.74% Komplettsystem AMD A4-3300, 1GB RAM um €156,21 (statt: €175,--) bei Rabo Networks Shop
30.07.2014, 00:44 -18.04% Komplettsystem AMD A4-3300, 16GB RAM, 24" LCD-Monitor um €323,74 (statt: €395,--) bei Rabo Networks Shop
30.07.2014, 00:44 -14.86% Komplettsystem AMD A4-3300, 16GB RAM, 22" LCD-Monitor um €297,98 (statt: €350,--) bei Rabo Networks Shop
30.07.2014, 00:44 -8.00% Komplettsystem AMD A4-3300, 16GB RAM, 20" LCD-Monitor um €347,76 (statt: €378,--) bei Rabo Networks Shop
30.07.2014, 00:44 -19.16% Komplettsystem AMD A4-3300, 16GB RAM, 19" LCD-Monitor um €274,06 (statt: €339,--) bei Rabo Networks Shop
30.07.2014, 00:44 -17.24% Komplettsystem AMD A4-3300, 16GB RAM um €206,90 (statt: €250,--) bei Rabo Networks Shop
30.07.2014, 00:44 -15.98% Komplettsystem AMD A4-3300, 12GB RAM, 24" LCD-Monitor um €310,86 (statt: €370,--) bei Rabo Networks Shop
30.07.2014, 00:44 -13.88% Komplettsystem AMD A4-3300, 12GB RAM, 22" LCD-Monitor um €284,18 (statt: €330,--) bei Rabo Networks Shop
30.07.2014, 00:44 -8.00% Komplettsystem AMD A4-3300, 12GB RAM, 20" LCD-Monitor um €331,20 (statt: €360,--) bei Rabo Networks Shop
30.07.2014, 00:44 -20.97% Komplettsystem AMD A4-3300, 12GB RAM, 19" LCD-Monitor um €258,42 (statt: €327,--) bei Rabo Networks Shop
30.07.2014, 00:44 -15.24% Komplettsystem AMD A4-3300, 12GB RAM um €194,94 (statt: €230,--) bei Rabo Networks Shop
30.07.2014, 00:44 -8.01% Gainward GeForce GT 440, 1GB GDDR5, VGA, DVI, HDMI (1770) um €69,82 (statt: €75,90) bei Rabo Networks Shop
30.07.2014, 00:44 -6.54% Lenovo 0B47074 um €94,28 (statt: €100,88) bei Spiele-und-Abenteuer
30.07.2014, 00:44 -4.57% Sandberg USB Mini DVD Burner, USB 2.0 (A/S 133-66) um €33,40 (statt: €35,--) bei Spiele-und-Abenteuer
30.07.2014, 00:44 -5.51% HP 613386-041 Tastatur um €34,50 (statt: €36,51) bei Spiele-und-Abenteuer
30.07.2014, 00:44 -5.00% HP 750GB 3G SATA 7.2K 3.5" MDL HDD (458930-B21) um €177,02 (statt: €186,34) bei Spiele-und-Abenteuer
30.07.2014, 00:44 -4.60% HP 490306-001 Li-Ionen-Akku um €72,85 (statt: €76,36) bei Spiele-und-Abenteuer
30.07.2014, 00:44 -5.02% HP 454668-001 Li-Ionen-Akku um €89,58 (statt: €94,31) bei Spiele-und-Abenteuer
30.07.2014, 00:44 -1.49% Logitech Cooling Pad N120 weiß, Notebook-Kühler (939-000341) um €37,67 (statt: €38,24) bei Spiele-und-Abenteuer
30.07.2014, 00:44 -13.64% ADATA Value DIMM 4GB, DDR3-1333, CL9 (AD3U1333C4G9-S) um €50,06 (statt: €57,97) bei Spiele-und-Abenteuer
30.07.2014, 00:44 -6.32% ADATA Value DIMM 4GB, DDR3-1333, CL9 (AD3U1333C4G9-R) um €50,99 (statt: €54,43) bei Spiele-und-Abenteuer
30.07.2014, 00:44 -15.11% Luxa2 H1 Telefonhalter um €33,87 (statt: €39,90) bei Spiele-und-Abenteuer
30.07.2014, 00:44 -7.46% HP GE262AA um €155,96 (statt: €168,53) bei Spiele-und-Abenteuer
30.07.2014, 00:44 -15.17% IOGEAR GCS932UB, 2-fach um €82,45 (statt: €97,20) bei Spiele-und-Abenteuer
30.07.2014, 00:44 -6.89% Kingston KTH-MLG4/2G um €76,86 (statt: €82,55) bei Spiele-und-Abenteuer
30.07.2014, 00:44 -4.08% Lenovo IBM 0A36290 ThinkPad 84+ Li-Ionen-Akku um €72,85 (statt: €75,95) bei Spiele-und-Abenteuer
30.07.2014, 00:44 -1.00% Sebamed Sport Dusche 2in1 200ml um €2,96 (statt: €2,99) bei Bodfeld-Apotheke | MeinPaket
30.07.2014, 00:44 -11.46% Sebamed Pflege Shampoo 200ml um €4,17 (statt: €4,71) bei Bodfeld-Apotheke | MeinPaket
30.07.2014, 00:44 -1.46% Sebamed Handwaschcreme 200ml um €4,72 (statt: €4,79) bei Bodfeld-Apotheke | MeinPaket
30.07.2014, 00:44 -2.61% Sebamed Body Milk 200ml um €3,73 (statt: €3,83) bei Bodfeld-Apotheke | MeinPaket
30.07.2014, 00:44 -2.23% Tetesept Prosta Sabal-Kürbis Kapseln, 90 Stück um €5,70 (statt: €5,83) bei Bodfeld-Apotheke | MeinPaket
30.07.2014, 00:43 -2.20% Philips Saeco Lirika Macchiato (10004477) um €542,80 (statt: €555,--) bei My-Solution.de
30.07.2014, 00:43 -2.32% ghd Pink Cherry BlossomAir Haartrockner um €112,24 (statt: €114,90) bei My-Solution.de
30.07.2014, 00:43 -8.79% Liebherr CBP 4013 um €1057,08 (statt: €1159,--) bei My-Solution.de
30.07.2014, 00:43 -13.44% Sonia Rykiel Le Parfum Eau de Toilette 50ml um €146,28 (statt: €169,--) bei Duftwelt-Hamburg | MeinPaket
30.07.2014, 00:43 -9.30% Braun 7000 Series Syncro Kombipack (215592) um €32,19 (statt: €35,49) bei Ersatzteilpartner24.de
30.07.2014, 00:43 -3.24% Hudora HD 100 Schaukel (64010) um €34,03 (statt: €35,17) bei Altus-Toys | MeinPaket
30.07.2014, 00:43 -19.20% Kempa Storm Handballschuhe (200839702/200839701) um €13,30 (statt: €16,46) bei Outlet46.de
30.07.2014, 00:43 -16.59% K-Swiss Moulton (Junior) um €17,90 (statt: €21,46) bei Outlet46.de
30.07.2014, 00:43 -6.20% Asics Gel-Fujitrabuco (Damen) um €45,50 (statt: €48,51) bei Outlet46.de
30.07.2014, 00:43 -8.00% Yeti VIB 600 Mumienschlafsack um €380,79 (statt: €413,91) bei terrific.de | Meinpaket
30.07.2014, 00:43 -4.35% Yeti VIB 400 Mumienschlafsack um €364,23 (statt: €380,79) bei terrific.de | Meinpaket
30.07.2014, 00:43 -2.34% Yeti VIB 400 Mumienschlafsack um €380,79 (statt: €389,90) bei terrific.de | Meinpaket
30.07.2014, 00:43 -2.86% Yeti VIB 250 Mumienschlafsack um €281,43 (statt: €289,71) bei terrific.de | Meinpaket
30.07.2014, 00:43 -8.00% Yeti Passion Three Mumienschlafsack um €405,63 (statt: €440,90) bei terrific.de | Meinpaket
30.07.2014, 00:43 -17.47% The North Face 100 Glacier Hose (Herren) um €40,40 (statt: €48,95) bei terrific.de | Meinpaket
30.07.2014, 00:43 -2.29% Tatonka Fischerstuhl um €54,72 (statt: €56,--) bei terrific.de | Meinpaket
30.07.2014, 00:43 -2.41% Tatonka First Aid Sterile um €31,23 (statt: €32,--) bei terrific.de | Meinpaket
30.07.2014, 00:43 -2.27% Tatonka First Aid School um €7,74 (statt: €7,92) bei terrific.de | Meinpaket
30.07.2014, 00:43 -1.07% Tatonka First Aid S um €14,79 (statt: €14,95) bei terrific.de | Meinpaket
30.07.2014, 00:43 -2.32% Tatonka First Aid Pack um €42,98 (statt: €44,--) bei terrific.de | Meinpaket
30.07.2014, 00:43 -3.49% Salewa Midway III Kuppelzelt (5070) um €143,80 (statt: €149,--) bei terrific.de | Meinpaket
30.07.2014, 00:43 -8.01% Primus Wide mouth Alu 0.6l Trinkflasche um €10,68 (statt: €11,61) bei terrific.de | Meinpaket
30.07.2014, 00:43 -7.99% Primus Wide mouth Alu 1l Trinkflasche um €12,33 (statt: €13,40) bei terrific.de | Meinpaket
30.07.2014, 00:43 -1.01% Primus Alu 0.6l Trinkflasche um €9,85 (statt: €9,95) bei terrific.de | Meinpaket
30.07.2014, 00:43 -2.02% Primus Alu 1l Trinkflasche um €10,68 (statt: €10,90) bei terrific.de | Meinpaket
30.07.2014, 00:43 -8.01% Primus Litech Super Kochtopf Set (P-733310) um €49,59 (statt: €53,91) bei terrific.de | Meinpaket
30.07.2014, 00:43 -8.00% Primus Power Cook Gaskocher um €49,59 (statt: €53,90) bei terrific.de | Meinpaket
30.07.2014, 00:43 -4.80% Primus OmniLite Ti Mehrstoffkocher um €190,35 (statt: €199,95) bei terrific.de | Meinpaket
30.07.2014, 00:43 -7.48% Primus Omnifuel Mehrstoffkocher um €157,23 (statt: €169,95) bei terrific.de | Meinpaket
30.07.2014, 00:43 -8.01% Primus MultiFuel EX Mehrstoffkocher um €132,39 (statt: €143,91) bei terrific.de | Meinpaket
30.07.2014, 00:43 -1.50% Primus Gravity II EF Gaskocher um €57,87 (statt: €58,75) bei terrific.de | Meinpaket
30.07.2014, 00:43 -8.00% Primus Express Spider Gaskocher um €45,45 (statt: €49,40) bei terrific.de | Meinpaket
30.07.2014, 00:43 -3.38% Primus Express Gaskocher um €28,89 (statt: €29,90) bei terrific.de | Meinpaket
30.07.2014, 00:43 -8.01% Primus Easy Fuel Gaskocher um €74,43 (statt: €80,91) bei terrific.de | Meinpaket
30.07.2014, 00:43 -8.00% Primus Express Ti Gaskocher um €45,45 (statt: €49,40) bei terrific.de | Meinpaket
30.07.2014, 00:43 -8.00% Patagonia Triolet Hose lang (Herren) um €234,79 (statt: €255,21) bei terrific.de | Meinpaket
30.07.2014, 00:43 -8.11% Nalgene Oasis Rot 1l Trinkflasche um €7,36 (statt: €8,01) bei terrific.de | Meinpaket
30.07.2014, 00:43 -8.11% Nalgene Oasis Grau 1l Trinkflasche um €7,36 (statt: €8,01) bei terrific.de | Meinpaket
30.07.2014, 00:43 -8.11% Nalgene Oasis Blau 1l Trinkflasche um €7,36 (statt: €8,01) bei terrific.de | Meinpaket
30.07.2014, 00:43 -8.02% MSR Stowaway Kochtopf (versch. Größen) um €13,99 (statt: €15,21) bei terrific.de | Meinpaket
30.07.2014, 00:43 -2.88% Mountain Equipment Matrix I Mumienschlafsack um €182,07 (statt: €187,46) bei terrific.de | Meinpaket
30.07.2014, 00:43 -19.49% Mountain Equipment Helium Solo Bag Mumienschlafsack um €160,18 (statt: €198,95) bei terrific.de | Meinpaket
30.07.2014, 00:43 -9.43% Mountain Equipment Classic 500 Mumienschlafsack um €208,26 (statt: €229,95) bei terrific.de | Meinpaket
30.07.2014, 00:43 -8.01% Meindl Laredo Men GTX (Herren) um €137,90 (statt: €149,90) bei terrific.de | Meinpaket
30.07.2014, 00:43 -2.37% Lowa Renegade II LL Lo (Herren) um €126,87 (statt: €129,95) bei terrific.de | Meinpaket
30.07.2014, 00:43 -8.01% Houdini Lounge Hose (Herren) um €78,57 (statt: €85,41) bei terrific.de | Meinpaket
30.07.2014, 00:43 -1.88% Hanwag Tingri (Herren) um €186,12 (statt: €189,69) bei terrific.de | Meinpaket
30.07.2014, 00:43 -1.60% Hanwag Lhasa (Herren) um €211,51 (statt: €214,95) bei terrific.de | Meinpaket
30.07.2014, 00:43 -8.00% Haglöfs Stem Tight Hose (Herren) um €54,72 (statt: €59,48) bei terrific.de | Meinpaket
30.07.2014, 00:43 -8.01% Fjällräven Sipora MT Hose (Herren) um €119,50 (statt: €129,90) bei terrific.de | Meinpaket
30.07.2014, 00:43 -6.64% Cocoon Insect Shield TravelSheet Innenschlafsack Seide um €67,62 (statt: €72,43) bei terrific.de | Meinpaket
30.07.2014, 00:43 -7.18% Cocoon Tropic Traveler Seide Deckenschlafsack um €101,48 (statt: €109,33) bei terrific.de | Meinpaket
30.07.2014, 00:43 -5.79% Cocoon TravelSheet Innenschlafsack biologische Baumwolle um €22,77 (statt: €24,17) bei terrific.de | Meinpaket
30.07.2014, 00:43 -5.80% Cocoon MummyLine Innenschlafsack biologische Baumwolle um €21,92 (statt: €23,27) bei terrific.de | Meinpaket
30.07.2014, 00:43 -8.01% Cocoon Insect Shield TravelSheet Innenschlafsack ägyptische Baumwolle um €33,77 (statt: €36,71) bei terrific.de | Meinpaket
30.07.2014, 00:43 -8.03% Cocoon Insect Shield TravelSheet Innenschlafsack Baumwolle um €27,84 (statt: €30,27) bei terrific.de | Meinpaket
30.07.2014, 00:43 -2.54% CamelBak eddy Navy 1l Trinkflasche um €16,47 (statt: €16,90) bei terrific.de | Meinpaket
30.07.2014, 00:43 -2.54% CamelBak eddy Charcoal 1l Trinkflasche um €16,47 (statt: €16,90) bei terrific.de | Meinpaket
30.07.2014, 00:43 -1.20% CamelBak eddy Sunset 0.75l Trinkflasche um €14,82 (statt: €15,--) bei terrific.de | Meinpaket
30.07.2014, 00:43 -1.20% CamelBak eddy Clear 0.75l Trinkflasche um €14,82 (statt: €15,--) bei terrific.de | Meinpaket
30.07.2014, 00:43 -6.42% Black Diamond Shot um €35,56 (statt: €38,--) bei terrific.de | Meinpaket
30.07.2014, 00:43 -8.00% Bergans Fjellcamp Kuppelzelt (6033) um €673,21 (statt: €731,76) bei terrific.de | Meinpaket
30.07.2014, 00:43 -8.00% Bergans Kompakt 4-Personen Tunnelzelt (6005) um €308,84 (statt: €335,70) bei terrific.de | Meinpaket
30.07.2014, 00:43 -6.82% Bergans Kompakt 3-Personen Tunnelzelt (6003) um €285,08 (statt: €305,96) bei terrific.de | Meinpaket
30.07.2014, 00:43 -6.83% Bergans Kompakt 2-Personen Tunnelzelt (6002) um €205,86 (statt: €220,96) bei terrific.de | Meinpaket
30.07.2014, 00:43 -6.92% Bergans Compact Light 2 Tunnelzelt (6012) um €277,15 (statt: €297,76) bei terrific.de | Meinpaket
30.07.2014, 00:43 -8.00% Arc'teryx Stingray Hose (Herren) um €273,15 (statt: €296,91) bei terrific.de | Meinpaket
30.07.2014, 00:43 -6.60% Philips HX6982 Sonicare FlexCare um €119,59 (statt: €128,04) bei digital-versand.de Online GmbH
30.07.2014, 00:43 -2.19% Canon EOS 100D schwarz mit Objektiv EF-S 18-55mm 3.5-5.6 IS STM (8576B022) um €450,79 (statt: €460,87) bei digital-versand.de Online GmbH
30.07.2014, 00:43 -2.12% Philips PowerTouch PT725/16 Akku-/Netzrasierer um €48,38 (statt: €49,43) bei digital-versand.de Online GmbH
30.07.2014, 00:43 -9.40% Philips HX6018/05 Sonicare Pro Results Ersatzbürste, 8er-Pack um €36,23 (statt: €39,99) bei digital-versand.de Online GmbH
30.07.2014, 00:43 -4.48% DeLonghi ESAM5500 Perfecta Cappuccino um €526,32 (statt: €551,--) bei digital-versand.de Online GmbH
30.07.2014, 00:43 -12.50% Logitech Harmony 650 (915-000116) um €52,24 (statt: €59,70) bei digital-versand.de Online GmbH
30.07.2014, 00:43 -3.87% Logitech Harmony Ultimate (915-000203) um €209,75 (statt: €218,20) bei digital-versand.de Online GmbH
30.07.2014, 00:43 -10.66% Logitech UE Smart Radio um €124,10 (statt: €138,90) bei digital-versand.de Online GmbH
30.07.2014, 00:43 -10.70% Logitech Harmony 650 (915-000116) um €59,70 (statt: €66,85) bei digital-versand.de Online GmbH
30.07.2014, 00:43 -29.07% JVC UX-N5 schwarz um €275,90 (statt: €389,--) bei digital-versand.de Online GmbH
30.07.2014, 00:43 -1.85% Sanitas SWB50 Wärmeunterbett um €27,59 (statt: €28,11) bei digital-versand.de Online GmbH
30.07.2014, 00:43 -10.17% Braun Oral-B Aufsteckbürsten Sonic Complete, 2er-Pack (SR18-2) um €6,89 (statt: €7,67) bei digital-versand.de Online GmbH
30.07.2014, 00:43 -2.25% Braun Series 5 HC5050 Haarschneider Akku-/Netzbetrieb um €31,27 (statt: €31,99) bei digital-versand.de Online GmbH
30.07.2014, 00:43 -18.22% Braun 7961 WD Silk-epil 7 Skin Spa Epilator Akkubetrieb um €91,99 (statt: €112,49) bei digital-versand.de Online GmbH
30.07.2014, 00:43 -4.09% Braun Oral-B Aufsteckbürsten Stages Power Kids, 4er-Pack (68341) um €11,03 (statt: €11,50) bei digital-versand.de Online GmbH
30.07.2014, 00:43 -2.48% Braun Oral-B Professional Care 550 (062066) um €24,37 (statt: €24,99) bei digital-versand.de Online GmbH
30.07.2014, 00:43 -12.65% Braun FG1100 SilkFinish Präzisionstrimmer Batteriebetrieb um €12,22 (statt: €13,99) bei digital-versand.de Online GmbH
30.07.2014, 00:43 -54.37% Rollei 9x Tele Lens 4/4S (20858) um €6,84 (statt: €14,99) bei digital-versand.de Online GmbH
30.07.2014, 00:43 -7.59% Carat DCL2 Kameratasche um €18,39 (statt: €19,90) bei digital-versand.de Online GmbH
30.07.2014, 00:43 -6.98% Vantage Ledertasche (verschiedene Modelle) um €9,19 (statt: €9,88) bei digital-versand.de Online GmbH
30.07.2014, 00:43 -40.32% Vantage DCL7 Ledertasche (49626) um €9,19 (statt: €15,40) bei digital-versand.de Online GmbH
30.07.2014, 00:43 -1.21% Kingston DataTraveler Vault Privacy Edition 64GB, USB 3.0 (DTVP30/64GB) um €151,14 (statt: €152,99) bei digital-versand.de Online GmbH
30.07.2014, 00:43 -4.82% Kingston HyperX Beast DIMM XMP Kit 16GB, DDR3-2400, CL11-13-13 (KHX24C11T3K2/16X) um €137,53 (statt: €144,49) bei digital-versand.de Online GmbH
30.07.2014, 00:43 -7.58% Kingston HyperX Beast DIMM XMP Kit 16GB, DDR3-2133, CL11-12-11 (KHX21C11T3K2/16X) um €140,01 (statt: €151,49) bei digital-versand.de Online GmbH
30.07.2014, 00:43 -2.68% Kingston DataTraveler WorkSpace 64GB, USB 3.0 (DTWS/64GBBK) um €112,78 (statt: €115,88) bei digital-versand.de Online GmbH
30.07.2014, 00:43 -11.72% Kingston HyperX blu. red DIMM 2GB, DDR3-1600, CL9-9-9-27 (KHX16C9B1R/2) um €26,67 (statt: €30,21) bei digital-versand.de Online GmbH
30.07.2014, 00:43 -5.89% Kingston KTA-MP1333/8G um €81,77 (statt: €86,89) bei digital-versand.de Online GmbH
30.07.2014, 00:43 -11.65% Kingston HyperX blu. DIMM 2GB, DDR3-1600, CL9-9-9-27 (KHX1600C9AD3B1/2G) um €26,76 (statt: €30,29) bei digital-versand.de Online GmbH
30.07.2014, 00:43 -9.97% Hoya Filter Pol Circular 52mm (Y1POLC052) um €15,99 (statt: €17,76) bei digital-versand.de Online GmbH
30.07.2014, 00:43 -8.01% Zoot Ultra Speed (Damen) um €45,95 (statt: €49,95) bei Sportschuh-Outlet | MeinPaket
30.07.2014, 00:43 -8.01% Zoot Ultra Speed (Herren) um €45,95 (statt: €49,95) bei Sportschuh-Outlet | MeinPaket
30.07.2014, 00:43 -26.37% Zoot Ultra Race 3.0 (Herren) um €55,15 (statt: €74,90) bei Sportschuh-Outlet | MeinPaket
30.07.2014, 00:43 -8.01% Zoot Ultra Kapilani (Herren) um €36,75 (statt: €39,95) bei Sportschuh-Outlet | MeinPaket
30.07.2014, 00:43 -8.01% Zoot Ultra Kapilani (Damen) um €36,75 (statt: €39,95) bei Sportschuh-Outlet | MeinPaket
30.07.2014, 00:43 -16.68% Zoot Ultra Kane (Herren) um €45,95 (statt: €55,15) bei Sportschuh-Outlet | MeinPaket
30.07.2014, 00:43 -8.01% Zoot Ultra Kane (Herren) um €55,15 (statt: €59,95) bei Sportschuh-Outlet | MeinPaket
30.07.2014, 00:43 -8.01% Zoot Ultra Kane (Damen) um €45,95 (statt: €49,95) bei Sportschuh-Outlet | MeinPaket
30.07.2014, 00:43 -21.10% Zoot Ultra Kalani 2.0 (Herren) um €55,15 (statt: €69,90) bei Sportschuh-Outlet | MeinPaket
30.07.2014, 00:43 -43.45% Zoot Energy 3.0 (Herren) um €36,75 (statt: €64,99) bei Sportschuh-Outlet | MeinPaket
30.07.2014, 00:43 -30.03% Zoot Advantage 3.0 (Herren) um €32,15 (statt: €45,95) bei Sportschuh-Outlet | MeinPaket
30.07.2014, 00:43 -13.61% Zoot Advantage 3.0 (Herren) um €45,95 (statt: €53,19) bei Sportschuh-Outlet | MeinPaket
30.07.2014, 00:43 -4.45% Vibram FiveFingers KSO Treksport (Herren) um €79,07 (statt: €82,75) bei Sportschuh-Outlet | MeinPaket
30.07.2014, 00:43 -5.35% Vibram FiveFingers KSO Treksport (Herren) um €82,75 (statt: €87,43) bei Sportschuh-Outlet | MeinPaket
30.07.2014, 00:43 -8.01% Vibram FiveFingers Sprint (Junior) um €45,95 (statt: €49,95) bei Sportschuh-Outlet | MeinPaket
30.07.2014, 00:43 -6.09% Vibram FiveFingers KSO (Junior) um €45,95 (statt: €48,93) bei Sportschuh-Outlet | MeinPaket
30.07.2014, 00:43 -5.27% Vibram FiveFingers Komodo Sport (Herren) um €82,75 (statt: €87,35) bei Sportschuh-Outlet | MeinPaket
30.07.2014, 00:43 -8.00% Vibram FiveFingers Komodo Sport LS (Herren) um €91,95 (statt: €99,95) bei Sportschuh-Outlet | MeinPaket
30.07.2014, 00:43 -8.00% Vibram FiveFingers Komodo Sport (Herren) um €87,35 (statt: €94,95) bei Sportschuh-Outlet | MeinPaket
30.07.2014, 00:43 -12.43% Vibram FiveFingers Flow (Herren) um €91,95 (statt: €105,--) bei Sportschuh-Outlet | MeinPaket
30.07.2014, 00:43 -44.79% Vibram FiveFingers Classic (Herren) um €55,15 (statt: €99,90) bei Sportschuh-Outlet | MeinPaket
30.07.2014, 00:43 -5.27% Vibram FiveFingers Bikila (Herren) um €82,75 (statt: €87,35) bei Sportschuh-Outlet | MeinPaket
30.07.2014, 00:43 -2.89% Vibram FiveFingers Bikila (Herren) um €87,35 (statt: €89,95) bei Sportschuh-Outlet | MeinPaket
30.07.2014, 00:43 -8.01% Saucony Velocity Spike 3 Distance (Herren) um €36,75 (statt: €39,95) bei Sportschuh-Outlet | MeinPaket
30.07.2014, 00:43 -8.01% Saucony ProGrid Xodus 3.0 (Damen) um €55,15 (statt: €59,95) bei Sportschuh-Outlet | MeinPaket
30.07.2014, 00:43 -35.11% Saucony ProGrid Xodus 2.0 (Herren) um €55,15 (statt: €84,99) bei Sportschuh-Outlet | MeinPaket
30.07.2014, 00:43 -3.92% Saucony ProGrid Ride 5 (Herren) um €73,55 (statt: €76,55) bei Sportschuh-Outlet | MeinPaket
30.07.2014, 00:43 -8.01% Saucony ProGrid Ride 2 (Herren) um €73,55 (statt: €79,95) bei Sportschuh-Outlet | MeinPaket
30.07.2014, 00:43 -8.01% Saucony Peregrine 2 (Herren) um €64,35 (statt: €69,95) bei Sportschuh-Outlet | MeinPaket
30.07.2014, 00:43 -8.00% Saucony ProGrid Paramount 3 (Herren) um €101,15 (statt: €109,95) bei Sportschuh-Outlet | MeinPaket
30.07.2014, 00:43 -34.34% Saucony ProGrid Mirage (Herren) um €64,35 (statt: €98,--) bei Sportschuh-Outlet | MeinPaket
30.07.2014, 00:43 -10.31% Saucony ProGrid Hurricane 11 (Herren) um €71,71 (statt: €79,95) bei Sportschuh-Outlet | MeinPaket
30.07.2014, 00:43 -28.49% Saucony ProGrid Guide 5 (Herren) um €64,35 (statt: €89,99) bei Sportschuh-Outlet | MeinPaket
30.07.2014, 00:43 -16.72% Saucony Xodus 4.0 GTX (Herren) um €82,75 (statt: €99,36) bei Sportschuh-Outlet | MeinPaket
30.07.2014, 00:43 -2.30% Saucony Power Grid Triumph 9 (Damen) um €78,15 (statt: €79,99) bei Sportschuh-Outlet | MeinPaket
30.07.2014, 00:43 -26.44% Saucony Powergrid Cortana (Herren) um €73,55 (statt: €99,99) bei Sportschuh-Outlet | MeinPaket
30.07.2014, 00:43 -29.89% Saucony Cortana 2 (Herren) um €73,55 (statt: €104,90) bei Sportschuh-Outlet | MeinPaket
30.07.2014, 00:43 -3.23% Saucony Hattori (Herren) um €55,15 (statt: €56,99) bei Sportschuh-Outlet | MeinPaket
30.07.2014, 00:43 -8.01% Saucony Endorphin Spike LD2 (Herren) um €36,75 (statt: €39,95) bei Sportschuh-Outlet | MeinPaket
30.07.2014, 00:43 -49.91% Salomon XR Crossmax Guidance (Herren) um €68,95 (statt: €137,65) bei Sportschuh-Outlet | MeinPaket
30.07.2014, 00:43 -8.01% Salomon Kalalau LTR (Herren) um €59,75 (statt: €64,95) bei Sportschuh-Outlet | MeinPaket
30.07.2014, 00:43 -1.08% Reebok Zig Nano Fly 2 (Herren) um €50,55 (statt: €51,10) bei Sportschuh-Outlet | MeinPaket
30.07.2014, 00:43 -8.01% Reebok ZigFuel um €55,15 (statt: €59,95) bei Sportschuh-Outlet | MeinPaket
30.07.2014, 00:43 -8.01% Reebok ZigEnergy um €55,15 (statt: €59,95) bei Sportschuh-Outlet | MeinPaket
30.07.2014, 00:43 -7.01% Reebok Zig Nano Fly 2 (Herren) um €51,10 (statt: €54,95) bei Sportschuh-Outlet | MeinPaket
30.07.2014, 00:43 -16.91% Reebok Premier Zigblaze ST um €51,10 (statt: €61,50) bei Sportschuh-Outlet | MeinPaket
30.07.2014, 00:43 -19.55% Nike Lunarelite+ 2 (Herren) um €64,35 (statt: €79,99) bei Sportschuh-Outlet | MeinPaket
30.07.2014, 00:43 -8.00% Nike Lunar Safari Fuse (Herren) um €96,55 (statt: €104,95) bei Sportschuh-Outlet | MeinPaket
30.07.2014, 00:43 -15.11% Nike Air Max 97 um €110,35 (statt: €129,99) bei Sportschuh-Outlet | MeinPaket
30.07.2014, 00:43 -14.58% New Balance M 890 SB2 (Herren) um €59,75 (statt: €69,95) bei Sportschuh-Outlet | MeinPaket
30.07.2014, 00:43 -3.61% New Balance M 880 BS (Herren) um €59,75 (statt: €61,99) bei Sportschuh-Outlet | MeinPaket
30.07.2014, 00:43 -16.30% New Balance M 620 (Herren) um €45,95 (statt: €54,90) bei Sportschuh-Outlet | MeinPaket
30.07.2014, 00:43 -8.01% Karhu Stable Fulcrum Ride (Herren) um €55,15 (statt: €59,95) bei Sportschuh-Outlet | MeinPaket
30.07.2014, 00:43 -8.01% Karhu Forward Fulcrum Ride (Herren) um €55,15 (statt: €59,95) bei Sportschuh-Outlet | MeinPaket
30.07.2014, 00:43 -1.50% Brooks Dyad 6 (Herren) um €55,15 (statt: €55,99) bei Sportschuh-Outlet | MeinPaket
30.07.2014, 00:43 -8.01% Asics Gel-Vista um €55,15 (statt: €59,95) bei Sportschuh-Outlet | MeinPaket
30.07.2014, 00:43 -8.01% Asics Gel-Beyond MT Volleyballschuh um €45,95 (statt: €49,95) bei Sportschuh-Outlet | MeinPaket
30.07.2014, 00:43 -18.19% adidas Supernova Glide (Herren) um €73,55 (statt: €89,90) bei Sportschuh-Outlet | MeinPaket
30.07.2014, 00:43 -7.92% adidas Supernova Glide 3 (Herren) um €45,95 (statt: €49,90) bei Sportschuh-Outlet | MeinPaket
30.07.2014, 00:43 -58.23% adidas Glove CC7 Handballschuhe um €54,28 (statt: €129,95) bei Sportschuh-Outlet | MeinPaket
30.07.2014, 00:43 -16.30% adidas adizero Tempo 4 (Herren) um €55,15 (statt: €65,89) bei Sportschuh-Outlet | MeinPaket
30.07.2014, 00:43 -8.07% adidas adiSTAR Ride 2 (Herren) um €55,15 (statt: €59,99) bei Sportschuh-Outlet | MeinPaket
30.07.2014, 00:43 -32.11% adidas 6-3-1 CC Handballschuhe (Herren) um €54,28 (statt: €79,95) bei Sportschuh-Outlet | MeinPaket
30.07.2014, 00:43 -8.02% Huawei G7300 um €45,90 (statt: €49,90) bei Mobil Planet GmbH Shop
30.07.2014, 00:43 -7.86% Mobistel EL460 dual grün um €55,19 (statt: €59,90) bei D.A.S.S. GmbH
30.07.2014, 00:43 -1.30% Mobistel EL460 dual blau um €68,99 (statt: €69,90) bei D.A.S.S. GmbH
30.07.2014, 00:43 -44.85% Sweex HD Webcam Jade, USB 2.0 (WC065) um €18,30 (statt: €33,18) bei komplettmobil.com
30.07.2014, 00:43 -2.58% Samsung S5260 Star II ceramic white um €64,30 (statt: €66,--) bei komplettmobil.com
30.07.2014, 00:43 -7.07% Samsung S5230 pink um €82,70 (statt: €88,99) bei komplettmobil.com
30.07.2014, 00:43 -18.46% Samsung Galaxy Note N7000 16GB rosa um €459,90 (statt: €564,05) bei komplettmobil.com
30.07.2014, 00:43 -8.01% Samsung C3330 Champ 2 um €64,30 (statt: €69,90) bei komplettmobil.com
30.07.2014, 00:43 -20.31% Nokia C3-00 golden white um €119,50 (statt: €149,95) bei komplettmobil.com
30.07.2014, 00:43 -14.38% Nokia C2-02 Touch and Type chrome black um €64,30 (statt: €75,10) bei komplettmobil.com
30.07.2014, 00:43 -2.36% Nokia Asha 305 silber-weiß um €78,10 (statt: €79,99) bei komplettmobil.com
30.07.2014, 00:43 -35.67% Nokia 1800 orchid red um €32,10 (statt: €49,90) bei komplettmobil.com
30.07.2014, 00:43 -29.49% Nokia 1616 schwarz um €27,50 (statt: €39,--) bei komplettmobil.com
30.07.2014, 00:43 -18.24% LG Electronics KP500 schwarz um €73,50 (statt: €89,90) bei komplettmobil.com
30.07.2014, 00:43 -34.11% Emtec The Farm Range M318 Cow 4GB, USB 2.0 (EKMMD4GM318) um €11,86 (statt: €18,--) bei komplettmobil.com
30.07.2014, 00:43 -29.70% Emtec The Safari Range M323 Elefant 4GB, USB 2.0 (EKMMD4GM323) um €11,86 (statt: €16,87) bei komplettmobil.com
30.07.2014, 00:43 -12.92% Emtec The Safari Range M322 Affe 4GB, USB 2.0 (EKMMD4GM322) um €11,86 (statt: €13,62) bei komplettmobil.com
30.07.2014, 00:43 -8.01% Samsung Rex 70 S3800 blau um €64,30 (statt: €69,90) bei komplettmobil.com
30.07.2014, 00:43 -8.01% Samsung Galaxy 550 i5500 weiß um €91,90 (statt: €99,90) bei komplettmobil.com
30.07.2014, 00:43 -8.01% Sony Ericsson W205 pink um €64,30 (statt: €69,90) bei komplettmobil.com
30.07.2014, 00:43 -8.01% Sony Ericsson W205 creamy white um €64,30 (statt: €69,90) bei komplettmobil.com
30.07.2014, 00:43 -9.52% Alcatel One Touch OT-903D schwarz um €55,10 (statt: €60,90) bei komplettmobil.com
30.07.2014, 00:43 -8.01% Alcatel One Touch OT-903D weiß um €66,14 (statt: €71,90) bei komplettmobil.com
30.07.2014, 00:43 -8.01% Alcatel One Touch OT-908 um €87,30 (statt: €94,90) bei komplettmobil.com
30.07.2014, 00:43 -22.94% Nokia 206 gelb um €55,10 (statt: €71,50) bei komplettmobil.com
30.07.2014, 00:43 -9.23% Nokia Asha 205 weiß orange um €55,10 (statt: €60,70) bei komplettmobil.com
30.07.2014, 00:43 -8.02% Nokia 109 blau um €36,70 (statt: €39,90) bei komplettmobil.com
30.07.2014, 00:43 -3.52% Nokia Asha 306 rot um €59,70 (statt: €61,88) bei komplettmobil.com
30.07.2014, 00:43 -12.61% Nokia Asha 202 grau um €87,30 (statt: €99,90) bei komplettmobil.com
30.07.2014, 00:43 -7.09% Nokia 100 phantom black um €36,70 (statt: €39,50) bei komplettmobil.com
30.07.2014, 00:43 -2.71% Nokia C2-01 silber um €82,70 (statt: €85,--) bei komplettmobil.com
30.07.2014, 00:43 -14.59% Nokia C1-01 dark grey um €59,70 (statt: €69,90) bei komplettmobil.com
30.07.2014, 00:43 -3.97% Logitech S315i weiß (984-000084) um €55,10 (statt: €57,38) bei komplettmobil.com
30.07.2014, 00:43 -6.96% LG Electronics GD510 Pop silver um €73,50 (statt: €79,--) bei komplettmobil.com
30.07.2014, 00:43 -13.15% Alcatel One Touch OT-990 um €110,30 (statt: €127,--) bei komplettmobil.com
30.07.2014, 00:43 -8.56% Alcatel One Touch OT-217D schwarz um €16,46 (statt: €18,--) bei komplettmobil.com
30.07.2014, 00:43 -2.97% Doppelherz Abführ-Kapseln, 30 Stück um €2,29 (statt: €2,36) bei Nelsan GmbH & Co. KG Drogerie & Sanitätshaus
30.07.2014, 00:43 -28.61% Panasonic Standard Power LR20SPS, Alkali, 1.5V, 2er-Pack um €2,67 (statt: €3,74) bei cablecorner24 Shop
30.07.2014, 00:43 -8.11% Panasonic SR927, Silberoxid, 1.55V um €1,70 (statt: €1,85) bei cablecorner24 Shop
30.07.2014, 00:43 -10.72% ATEN KA7970, KVM-Kabel 4.5m um €25,23 (statt: €28,26) bei cablecorner24 Shop
30.07.2014, 00:43 -52.63% Netzwerkkabel ausgekreuzt RJ-45 7.0m/7.5m doppelt geschirmt schwarz (Cat6) um €3,15 (statt: €6,65) bei cablecorner24 Shop
30.07.2014, 00:43 -1.72% Diverse Switch 16-Port Gigabit Ethernet um €61,89 (statt: €62,97) bei cablecorner24 Shop
30.07.2014, 00:43 -1.39% InLine 32308I, 8-Port um €25,52 (statt: €25,88) bei cablecorner24 Shop
30.07.2014, 00:43 -1.36% InLine Netzwerkkabel Cat6 Verlegekabel 100m, AWG27, PVC, CU, grün (76499G) um €59,52 (statt: €60,34) bei cablecorner24 Shop
30.07.2014, 00:43 -15.17% Diverse USB 3.0 Kabel A/B 0.5m um €1,51 (statt: €1,78) bei cablecorner24 Shop
30.07.2014, 00:43 -1.96% Diverse USB 3.0 Kabel A/A 1.0m um €1,50 (statt: €1,53) bei cablecorner24 Shop
30.07.2014, 00:43 -64.71% Netzwerkkabel RJ-45 25m ungeschirmt rot (Cat6) um €4,09 (statt: €11,59) bei cablecorner24 Shop
30.07.2014, 00:43 -13.30% Netzwerkkabel RJ-45 25m doppelt geschirmt grün (Cat6) um €10,82 (statt: €12,48) bei cablecorner24 Shop
30.07.2014, 00:43 -10.37% Netzwerkkabel RJ-45 25m ungeschirmt schwarz (bis Cat5e) um €2,42 (statt: €2,70) bei cablecorner24 Shop
30.07.2014, 00:43 -3.21% Netzwerkkabel RJ-45 25m ungeschirmt rot (bis Cat5e) um €3,02 (statt: €3,12) bei cablecorner24 Shop
30.07.2014, 00:43 -7.42% Netzwerkkabel RJ-45 25m ungeschirmt rot (bis Cat5e) um €3,12 (statt: €3,37) bei cablecorner24 Shop
30.07.2014, 00:43 -40.10% Netzwerkkabel RJ-45 25m ungeschirmt grau (bis Cat5e) um €2,33 (statt: €3,89) bei cablecorner24 Shop
30.07.2014, 00:43 -40.50% Netzwerkkabel RJ-45 25m ungeschirmt gelb (bis Cat5e) um €3,10 (statt: €5,21) bei cablecorner24 Shop
30.07.2014, 00:43 -9.16% Netzwerkkabel RJ-45 25m einfach geschirmt violett (bis Cat5e) um €3,67 (statt: €4,04) bei cablecorner24 Shop
30.07.2014, 00:43 -18.02% Netzwerkkabel RJ-45 25m einfach geschirmt rot (bis Cat5e) um €3,32 (statt: €4,05) bei cablecorner24 Shop
30.07.2014, 00:43 -2.91% Netzwerkkabel RJ-45 25m einfach geschirmt grün (bis Cat5e) um €3,67 (statt: €3,78) bei cablecorner24 Shop
30.07.2014, 00:43 -30.11% Netzwerkkabel RJ-45 25m einfach geschirmt gelb (bis Cat5e) um €3,32 (statt: €4,75) bei cablecorner24 Shop
30.07.2014, 00:43 -2.65% Netzwerkkabel RJ-45 25m einfach geschirmt blau (bis Cat5e) um €3,67 (statt: €3,77) bei cablecorner24 Shop
30.07.2014, 00:43 -1.01% Netzwerkkabel RJ-45 1.5m doppelt geschirmt schwarz (Cat6) um €0,98 (statt: €0,99) bei cablecorner24 Shop
30.07.2014, 00:43 -8.41% Netzwerkkabel RJ-45 1.5m doppelt geschirmt grau (Cat6) um €0,98 (statt: €1,07) bei cablecorner24 Shop
30.07.2014, 00:43 -8.55% Netzwerkkabel RJ-45 7.0m/7.5m doppelt geschirmt weiß (Cat6) um €2,14 (statt: €2,34) bei cablecorner24 Shop
30.07.2014, 00:43 -8.15% Netzwerkkabel RJ-45 7.0m/7.5m doppelt geschirmt schwarz (Cat6) um €2,14 (statt: €2,33) bei cablecorner24 Shop
30.07.2014, 00:43 -8.62% Netzwerkkabel RJ-45 7.0m/7.5m doppelt geschirmt rot (Cat6) um €2,12 (statt: €2,32) bei cablecorner24 Shop
30.07.2014, 00:43 -7.73% Netzwerkkabel RJ-45 7.0m/7.5m doppelt geschirmt blau (Cat6) um €2,15 (statt: €2,33) bei cablecorner24 Shop
30.07.2014, 00:43 -1.20% Netzwerkkabel RJ-45 5.0m doppelt geschirmt rot (Cat6) um €1,65 (statt: €1,67) bei cablecorner24 Shop
30.07.2014, 00:43 -7.43% Netzwerkkabel RJ-45 5.0m doppelt geschirmt blau (Cat6) um €1,62 (statt: €1,75) bei cablecorner24 Shop
30.07.2014, 00:43 -21.58% Netzwerkkabel RJ-45 2.0m doppelt geschirmt orange (Cat6) um €1,09 (statt: €1,39) bei cablecorner24 Shop
30.07.2014, 00:43 -13.73% Netzwerkkabel RJ-45 10m doppelt geschirmt weiß (Cat6) um €2,64 (statt: €3,06) bei cablecorner24 Shop
30.07.2014, 00:43 -7.04% Netzwerkkabel RJ-45 10m doppelt geschirmt rot (Cat6) um €2,64 (statt: €2,84) bei cablecorner24 Shop
30.07.2014, 00:43 -1.52% Netzwerkkabel RJ-45 10m doppelt geschirmt grün (Cat6) um €2,59 (statt: €2,63) bei cablecorner24 Shop
30.07.2014, 00:43 -9.38% Netzwerkkabel RJ-45 10m doppelt geschirmt gelb (Cat6) um €2,61 (statt: €2,88) bei cablecorner24 Shop
30.07.2014, 00:43 -10.70% Netzwerkkabel RJ-45 20m ungeschirmt rot (Cat6) um €3,59 (statt: €4,02) bei cablecorner24 Shop
30.07.2014, 00:43 -7.30% Netzwerkkabel RJ-45 10m ungeschirmt rot (Cat6) um €2,16 (statt: €2,33) bei cablecorner24 Shop
30.07.2014, 00:43 -36.24% Netzwerkkabel RJ-45 7.0m/7.5m ungeschirmt orange (bis Cat5e) um €0,95 (statt: €1,49) bei cablecorner24 Shop
30.07.2014, 00:43 -8.02% Diverse DVI/Komponenten Adapter um €2,18 (statt: €2,37) bei cablecorner24 Shop
30.07.2014, 00:43 -5.60% Diverse Dual Link DVI Kabel 15m um €14,34 (statt: €15,19) bei cablecorner24 Shop
30.07.2014, 00:43 -1.40% Netzwerkkabel RJ-45 7.0m/7.5m doppelt geschirmt grau (Cat6) um €2,12 (statt: €2,15) bei cablecorner24 Shop
30.07.2014, 00:43 -13.35% Netzwerkkabel RJ-45 50m einfach geschirmt violett (bis Cat5e) um €8,31 (statt: €9,59) bei cablecorner24 Shop
30.07.2014, 00:43 -11.19% Netzwerkkabel RJ-45 15m einfach geschirmt violett (bis Cat5e) um €2,62 (statt: €2,95) bei cablecorner24 Shop
30.07.2014, 00:43 -4.83% Netzwerkkabel RJ-45 10m einfach geschirmt violett (bis Cat5e) um €1,97 (statt: €2,07) bei cablecorner24 Shop
30.07.2014, 00:43 -20.46% Netzwerkkabel RJ-45 30m doppelt geschirmt weiß (bis Cat5e) um €4,82 (statt: €6,06) bei cablecorner24 Shop
30.07.2014, 00:43 -10.42% Netzwerkkabel RJ-45 30m einfach geschirmt rot (bis Cat5e) um €4,47 (statt: €4,99) bei cablecorner24 Shop
30.07.2014, 00:43 -3.14% DeLOCK SVGA Stecker/Stecker Kabel 50m (84373) um €31,16 (statt: €32,17) bei cablecorner24 Shop
30.07.2014, 00:43 -4.89% Clicktronic Advanced Koaxial Antennenkabel 1m (70599) um €25,66 (statt: €26,98) bei cablecorner24 Shop
30.07.2014, 00:43 -53.85% Netzwerkkabel ausgekreuzt RJ-45 7.0m/7.5m ungeschirmt weiß (bis Cat5e) um €1,02 (statt: €2,21) bei cablecorner24 Shop
30.07.2014, 00:43 -49.81% Netzwerkkabel ausgekreuzt RJ-45 20m ungeschirmt weiß (bis Cat5e) um €2,67 (statt: €5,32) bei cablecorner24 Shop
30.07.2014, 00:43 -1.83% Netzwerkkabel ausgekreuzt RJ-45 15m ungeschirmt weiß (bis Cat5e) um €2,15 (statt: €2,19) bei cablecorner24 Shop
30.07.2014, 00:43 -5.18% Netzwerkkabel RJ-45 20m doppelt geschirmt schwarz (Cat6) um €7,51 (statt: €7,92) bei cablecorner24 Shop
30.07.2014, 00:43 -42.17% Netzwerkkabel RJ-45 7.0m/7.5m doppelt geschirmt schwarz (bis Cat5e) um €1,44 (statt: €2,49) bei cablecorner24 Shop
30.07.2014, 00:43 -21.68% Netzwerkkabel RJ-45 5.0m doppelt geschirmt schwarz (bis Cat5e) um €1,12 (statt: €1,43) bei cablecorner24 Shop
30.07.2014, 00:43 -8.09% Netzwerkkabel RJ-45 15m ungeschirmt schwarz (bis Cat5e) um €1,59 (statt: €1,73) bei cablecorner24 Shop
30.07.2014, 00:43 -5.56% Netzwerkkabel RJ-45 7.0m/7.5m ungeschirmt weiß (Cat6) um €1,87 (statt: €1,98) bei cablecorner24 Shop
30.07.2014, 00:43 -21.13% Netzwerkkabel RJ-45 30m ungeschirmt weiß (bis Cat5e) um €2,80 (statt: €3,55) bei cablecorner24 Shop
30.07.2014, 00:43 -51.65% Netzwerkkabel ausgekreuzt RJ-45 3.0m ungeschirmt grau (Cat6) um €1,17 (statt: €2,42) bei cablecorner24 Shop
30.07.2014, 00:43 -1.06% Netzwerkkabel ausgekreuzt RJ-45 3.0m doppelt geschirmt grau (Cat6) um €1,86 (statt: €1,88) bei cablecorner24 Shop
30.07.2014, 00:43 -22.14% Netzwerkkabel RJ-45 15m ungeschirmt grün (Cat6) um €3,13 (statt: €4,02) bei cablecorner24 Shop
30.07.2014, 00:43 -10.00% Netzwerkkabel RJ-45 15m ungeschirmt grau (Cat6) um €3,15 (statt: €3,50) bei cablecorner24 Shop
30.07.2014, 00:43 -17.01% Netzwerkkabel RJ-45 15m ungeschirmt blau (Cat6) um €2,78 (statt: €3,35) bei cablecorner24 Shop
30.07.2014, 00:43 -6.05% Netzwerkkabel RJ-45 10m ungeschirmt rot (Cat6) um €2,33 (statt: €2,48) bei cablecorner24 Shop
30.07.2014, 00:43 -4.45% Netzwerkkabel RJ-45 10m ungeschirmt grün (Cat6) um €2,36 (statt: €2,47) bei cablecorner24 Shop
30.07.2014, 00:43 -3.55% Netzwerkkabel RJ-45 7.0m/7.5m ungeschirmt grün (Cat6) um €1,90 (statt: €1,97) bei cablecorner24 Shop
30.07.2014, 00:43 -4.55% Netzwerkkabel RJ-45 7.0m/7.5m ungeschirmt gelb (Cat6) um €1,89 (statt: €1,98) bei cablecorner24 Shop
30.07.2014, 00:43 -8.64% Netzwerkkabel RJ-45 20m ungeschirmt rot (Cat6) um €4,02 (statt: €4,40) bei cablecorner24 Shop
30.07.2014, 00:43 -7.11% Netzwerkkabel RJ-45 20m ungeschirmt grün (Cat6) um €4,05 (statt: €4,36) bei cablecorner24 Shop
30.07.2014, 00:43 -4.43% Netzwerkkabel RJ-45 20m ungeschirmt grau (Cat6) um €3,88 (statt: €4,06) bei cablecorner24 Shop
30.07.2014, 00:43 -7.46% Netzwerkkabel RJ-45 20m ungeschirmt gelb (Cat6) um €3,97 (statt: €4,29) bei cablecorner24 Shop
30.07.2014, 00:43 -18.91% Netzwerkkabel RJ-45 20m ungeschirmt blau (Cat6) um €3,56 (statt: €4,39) bei cablecorner24 Shop
30.07.2014, 00:43 -7.62% Netzwerkkabel RJ-45 7.0m/7.5m ungeschirmt rot (bis Cat5e) um €0,97 (statt: €1,05) bei cablecorner24 Shop
30.07.2014, 00:43 -35.57% Netzwerkkabel RJ-45 7.0m/7.5m ungeschirmt grün (bis Cat5e) um €0,96 (statt: €1,49) bei cablecorner24 Shop
30.07.2014, 00:43 -28.89% Netzwerkkabel RJ-45 7.0m/7.5m ungeschirmt gelb (bis Cat5e) um €0,96 (statt: €1,35) bei cablecorner24 Shop
30.07.2014, 00:43 -37.88% Netzwerkkabel RJ-45 50m ungeschirmt grün (bis Cat5e) um €5,92 (statt: €9,53) bei cablecorner24 Shop
30.07.2014, 00:43 -33.25% Netzwerkkabel RJ-45 50m ungeschirmt gelb (bis Cat5e) um €5,40 (statt: €8,09) bei cablecorner24 Shop
30.07.2014, 00:43 -2.56% Netzwerkkabel RJ-45 5.0m ungeschirmt rot (bis Cat5e) um €0,76 (statt: €0,78) bei cablecorner24 Shop
30.07.2014, 00:43 -11.62% Netzwerkkabel RJ-45 30m ungeschirmt grün (bis Cat5e) um €3,88 (statt: €4,39) bei cablecorner24 Shop
30.07.2014, 00:43 -20.39% Netzwerkkabel RJ-45 30m ungeschirmt gelb (bis Cat5e) um €3,63 (statt: €4,56) bei cablecorner24 Shop
30.07.2014, 00:43 -19.54% Netzwerkkabel RJ-45 30m ungeschirmt blau (bis Cat5e) um €3,50 (statt: €4,35) bei cablecorner24 Shop
30.07.2014, 00:43 -4.50% Netzwerkkabel RJ-45 20m ungeschirmt rot (bis Cat5e) um €2,12 (statt: €2,22) bei cablecorner24 Shop
30.07.2014, 00:43 -38.13% Netzwerkkabel RJ-45 20m ungeschirmt grün (bis Cat5e) um €1,85 (statt: €2,99) bei cablecorner24 Shop
30.07.2014, 00:43 -29.13% Netzwerkkabel RJ-45 20m ungeschirmt gelb (bis Cat5e) um €2,19 (statt: €3,09) bei cablecorner24 Shop
30.07.2014, 00:43 -16.67% Netzwerkkabel RJ-45 20m ungeschirmt blau (bis Cat5e) um €1,85 (statt: €2,22) bei cablecorner24 Shop
30.07.2014, 00:43 -39.36% Netzwerkkabel RJ-45 15m ungeschirmt grün (bis Cat5e) um €1,51 (statt: €2,49) bei cablecorner24 Shop
30.07.2014, 00:43 -30.13% Netzwerkkabel RJ-45 15m ungeschirmt gelb (bis Cat5e) um €1,67 (statt: €2,39) bei cablecorner24 Shop
30.07.2014, 00:43 -31.08% Netzwerkkabel RJ-45 15m ungeschirmt blau (bis Cat5e) um €1,73 (statt: €2,51) bei cablecorner24 Shop
30.07.2014, 00:43 -29.21% Netzwerkkabel RJ-45 10m ungeschirmt gelb (bis Cat5e) um €1,26 (statt: €1,78) bei cablecorner24 Shop
30.07.2014, 00:43 -18.87% Netzwerkkabel RJ-45 5.0m doppelt geschirmt blau (bis Cat5e) um €1,29 (statt: €1,59) bei cablecorner24 Shop
30.07.2014, 00:43 -16.23% Netzwerkkabel RJ-45 5.0m doppelt geschirmt grün (bis Cat5e) um €1,29 (statt: €1,54) bei cablecorner24 Shop
30.07.2014, 00:43 -5.66% Diverse Ersatzakkus für iPod touch (versch. Ausführungen) um €4,83 (statt: €5,12) bei cablecorner24 Shop
30.07.2014, 00:43 -10.79% MS-Tech MS-N90NB Notebook-Netzteil, 90W um €6,20 (statt: €6,95) bei cablecorner24 Shop
30.07.2014, 00:43 -21.61% Wentronic Composite Audio Kabel 10m (52508) um €7,80 (statt: €9,95) bei cablecorner24 Shop
30.07.2014, 00:43 -7.95% Diverse HDMI Kabel 2.5m um €1,39 (statt: €1,51) bei cablecorner24 Shop
30.07.2014, 00:43 -10.64% Diverse USB 2.0 Kabel A/Mini-B 5-polig 4.5m/5m um €1,26 (statt: €1,41) bei cablecorner24 Shop
30.07.2014, 00:43 -19.47% Diverse Cinch Kabel 20m um €1,53 (statt: €1,90) bei cablecorner24 Shop
30.07.2014, 00:43 -7.98% Netzwerkkabel RJ-45 7.0m/7.5m einfach geschirmt gelb (bis Cat5e) um €1,50 (statt: €1,63) bei cablecorner24 Shop
30.07.2014, 00:43 -6.27% Netzwerkkabel RJ-45 20m ungeschirmt grün (bis Cat5e) um €2,99 (statt: €3,19) bei cablecorner24 Shop
30.07.2014, 00:43 -6.69% Netzwerkkabel RJ-45 15m ungeschirmt blau (bis Cat5e) um €2,51 (statt: €2,69) bei cablecorner24 Shop
30.07.2014, 00:43 -8.38% Netzwerkkabel RJ-45 10m doppelt geschirmt weiß (Cat6) um €3,06 (statt: €3,34) bei cablecorner24 Shop
30.07.2014, 00:43 -8.73% Digitus USB 2.0 zu Seriell Adapter (DA-70128/DA-70146/DA-70156) um €7,74 (statt: €8,48) bei cablecorner24 Shop
30.07.2014, 00:43 -40.98% Netzwerkkabel ausgekreuzt RJ-45 5.0m ungeschirmt grau (bis Cat5e) um €1,08 (statt: €1,83) bei cablecorner24 Shop
30.07.2014, 00:43 -30.11% Netzwerkkabel RJ-45 3.0m doppelt geschirmt schwarz (Cat6) um €1,30 (statt: €1,86) bei cablecorner24 Shop
30.07.2014, 00:43 -1.71% Tecxus Photo Batteries CR2, Lithium, 3V (23603) um €1,72 (statt: €1,75) bei cablecorner24 Shop
30.07.2014, 00:43 -1.15% Diverse USB 2.0 Kabel A/A 1.5m/1.8m/2m um €0,86 (statt: €0,87) bei cablecorner24 Shop
30.07.2014, 00:43 -4.92% Diverse HDMI Splitter 2-fach um €4,25 (statt: €4,47) bei cablecorner24 Shop
30.07.2014, 00:43 -3.59% Ansmann Alkaline 9V-Block 6LF22, Alkali, 1.5V (1515-0000) um €1,61 (statt: €1,67) bei cablecorner24 Shop
30.07.2014, 00:43 -1.52% Ansmann X-Power 9V E-Block 6LF22, Alkali, 9V (5015643) um €1,95 (statt: €1,98) bei cablecorner24 Shop
30.07.2014, 00:43 -10.93% Jansport Beamer um €57,85 (statt: €64,95) bei Taschen-Tante.de Shop
30.07.2014, 00:43 -6.53% Speedminton Set S 100 um €55,15 (statt: €59,--) bei Trekkinglager.de | MeinPaket
30.07.2014, 00:43 -6.13% Ferrino Yukon Mumienschlafsack (Junior) um €45,95 (statt: €48,95) bei Trekkinglager.de | MeinPaket
30.07.2014, 00:43 -7.39% Fjällräven Abisko W Two Seasons Reg Mumienschlafsack (Damen) um €137,95 (statt: €148,95) bei Trekkinglager.de | MeinPaket
30.07.2014, 00:43 -1.08% Robens Appalachian 1100 Mumienschlafsack um €91,95 (statt: €92,95) bei Trekkinglager.de | MeinPaket
30.07.2014, 00:43 -5.65% Jack Wolfskin Harry um €36,75 (statt: €38,95) bei Trekkinglager.de | MeinPaket
30.07.2014, 00:43 -2.59% Jack Wolfskin Flux um €41,36 (statt: €42,46) bei Trekkinglager.de | MeinPaket
30.07.2014, 00:43 -6.84% Jack Wolfskin Mountaineer 30 um €73,55 (statt: €78,95) bei Trekkinglager.de | MeinPaket
30.07.2014, 00:43 -5.15% Wiley X Tobi um €119,46 (statt: €125,95) bei Trekkinglager.de | MeinPaket
30.07.2014, 00:43 -1.49% Wiley X Revolvr um €82,70 (statt: €83,95) bei Trekkinglager.de | MeinPaket
30.07.2014, 00:43 -3.10% Mountain Equipment Chill Slackline 15m um €73,55 (statt: €75,90) bei Trekkinglager.de | MeinPaket
30.07.2014, 00:43 -4.55% VauDe Snow Cloud 350 Mumienschlafsack um €76,31 (statt: €79,95) bei Trekkinglager.de | MeinPaket
30.07.2014, 00:43 -1.98% Salewa Via Ferrata Vario Hüftgurt (803) um €45,95 (statt: €46,88) bei Trekkinglager.de | MeinPaket
30.07.2014, 00:43 -6.92% Netzwerkkabel ausgekreuzt RJ-45 0.5m einfach geschirmt grau (Cat6) um €3,63 (statt: €3,90) bei DIMAXA GmbH | MeinPaket
30.07.2014, 00:43 -4.77% Zenec ZE-NC2051D um €999,-- (statt: €1049,--) bei ARS24.com | MeinPaket
30.07.2014, 00:43 -5.01% Zenec ZE-NC3131D um €949,-- (statt: €999,--) bei ARS24.com | MeinPaket
30.07.2014, 00:43 -27.52% Kenwood DNX521DAB um €869,-- (statt: €1199,--) bei ARS24.com | MeinPaket
30.07.2014, 00:43 -19.52% Katinkas Soft Cover Wave für Samsung Galaxy S4 weiß (2108054612) um €6,43 (statt: €7,99) bei media-shopping24.de
30.07.2014, 00:43 -19.52% Katinkas Hard Cover Granite für Samsung Galaxy S4 weiß (2108054572) um €6,43 (statt: €7,99) bei media-shopping24.de
30.07.2014, 00:43 -7.00% ThermaCell Mosquito Repellent Patio Moskitoleuchte um €34,40 (statt: €36,99) bei Livingtools GmbH
30.07.2014, 00:43 -20.62% McCheck Profi Handgerät Metalldetektor um €24,79 (statt: €31,23) bei Elektroheld Shop
30.07.2014, 00:43 -17.09% Diverse LED-Lampen, Sockel G4, weiß (12V) um €1,65 (statt: €1,99) bei Elektroheld Shop
30.07.2014, 00:43 -24.18% Diverse USB 3.0 Kabel A/Micro-B 3m um €1,38 (statt: €1,82) bei Elektroheld Shop
30.07.2014, 00:43 -23.23% Diverse Halogenlampen, Sockel G9, 40W (230V) um €0,76 (statt: €0,99) bei Elektroheld Shop
30.07.2014, 00:43 -9.09% Diverse CR2032 Knopfzelle, Lithium, 3V, 5er-Pack um €0,90 (statt: €0,99) bei Elektroheld Shop
30.07.2014, 00:43 -6.30% LG Electronics Optimus L4 II E440 weiß um €64,35 (statt: €68,68) bei gsm-and-more
30.07.2014, 00:43 -7.52% Robens Trailhead 1000 Mumienschlafsack um €52,25 (statt: €56,50) bei camppartner24 GmbH | MeinPaket
30.07.2014, 00:43 -19.42% Robens Far Away 900 Mumienschlafsack um €57,77 (statt: €71,69) bei camppartner24 GmbH | MeinPaket
30.07.2014, 00:43 -18.30% Robens Far Away 700 Mumienschlafsack um €52,25 (statt: €63,95) bei camppartner24 GmbH | MeinPaket
30.07.2014, 00:43 -3.56% Robens Klondike Gruppenzelt um €538,15 (statt: €558,--) bei camppartner24 GmbH | MeinPaket
30.07.2014, 00:43 -2.36% Outwell Wohnraum Teppich für das Concorde M Familienzelt um €70,79 (statt: €72,50) bei camppartner24 GmbH | MeinPaket
30.07.2014, 00:43 -14.56% Outwell Zeltunterlage für das Nevada LP Familienzelt um €50,41 (statt: €59,--) bei camppartner24 GmbH | MeinPaket
30.07.2014, 00:43 -15.48% Outwell Zeltunterlage für das Biscayne 5 Familienzelt um €54,09 (statt: €64,--) bei camppartner24 GmbH | MeinPaket
30.07.2014, 00:43 -13.43% Outwell Zeltunterlage für das Concorde M Familienzelt um €40,43 (statt: €46,70) bei camppartner24 GmbH | MeinPaket
30.07.2014, 00:43 -8.83% Meindl Nebraska Mid XCR (Herren) um €101,15 (statt: €110,95) bei Wildnissport
30.07.2014, 00:43 -4.89% Meindl Capri (Herren) um €82,75 (statt: €87,--) bei Wildnissport
30.07.2014, 00:43 -2.74% Lowa Renegade 2 GTX Lo (Damen) um €101,15 (statt: €104,--) bei Wildnissport
30.07.2014, 00:43 -2.28% Lowa Albula GTX (Damen) um €156,35 (statt: €160,--) bei Wildnissport
30.07.2014, 00:43 -2.37% Hanwag Yukon (Herren) um €174,75 (statt: €179,--) bei Wildnissport
30.07.2014, 00:43 -11.05% Legamaster Motorleinwand (verschiedene Modelle) um €722,29 (statt: €812,--) bei POV GmbH Shop
30.07.2014, 00:43 -13.75% Rexel RLWM26 (2103026) um €4136,32 (statt: €4795,80) bei POV GmbH Shop
30.07.2014, 00:43 -7.93% Rexel Auto+ 500X (2103500) um €820,64 (statt: €891,30) bei POV GmbH Shop
30.07.2014, 00:43 -8.93% GBC SureBind 500 (4400401) um €1046,04 (statt: €1148,65) bei POV GmbH Shop
30.07.2014, 00:43 -7.40% Rexel Mercury RLSM9 (2102452) um €2220,88 (statt: €2398,34) bei POV GmbH Shop
30.07.2014, 00:42 -29.41% Panasonic PT-CW230 um €714,-- (statt: €1011,50) bei Projektor AG | MeinPaket
30.07.2014, 00:42 -8.01% Ferrino Travel Deckenschlafsack (Junior) um €35,83 (statt: €38,95) bei Kraxel.com Handels GmbH
30.07.2014, 00:42 -3.16% Robens Buzzard Tunnelzelt um €260,31 (statt: €268,80) bei Kraxel.com Handels GmbH
30.07.2014, 00:42 -2.13% Outwell Birdland 3 Familienzelt um €311,88 (statt: €318,66) bei Kraxel.com Handels GmbH
30.07.2014, 00:42 -2.13% Outwell Illinois 6 Familienzelt um €643,08 (statt: €657,06) bei Kraxel.com Handels GmbH
30.07.2014, 00:42 -2.13% Outwell Cleveland 5 Familienzelt um €633,78 (statt: €647,57) bei Kraxel.com Handels GmbH
30.07.2014, 00:42 -2.12% Outwell Georgia 5P Familienzelt um €919,08 (statt: €938,95) bei Kraxel.com Handels GmbH
30.07.2014, 00:42 -1.34% Outwell Vermont XLP Familienzelt um €1241,08 (statt: €1257,94) bei Kraxel.com Handels GmbH
30.07.2014, 00:42 -2.13% Outwell Comfort 300 Mumienschlafsack um €59,75 (statt: €61,05) bei Kraxel.com Handels GmbH
30.07.2014, 00:42 -2.13% Robens Trail Radar 1100 Mumienschlafsack um €59,75 (statt: €61,05) bei Kraxel.com Handels GmbH
30.07.2014, 00:42 -1.10% Robens Lite 500 Mumienschlafsack um €118,63 (statt: €119,95) bei Kraxel.com Handels GmbH
30.07.2014, 00:42 -2.13% Outwell Cooltime M Summer Kühltasche um €19,32 (statt: €19,74) bei Kraxel.com Handels GmbH
30.07.2014, 00:42 -2.13% Nordisk Faxe 2 Firstzelt um €386,35 (statt: €394,75) bei Kraxel.com Handels GmbH
30.07.2014, 00:42 -2.13% Nordisk Telemark 1 LW Tunnelzelt um €364,27 (statt: €372,19) bei Kraxel.com Handels GmbH
30.07.2014, 00:42 -2.13% Nordisk Telemark 1 ULW Tunnelzelt um €455,35 (statt: €465,25) bei Kraxel.com Handels GmbH
30.07.2014, 00:42 -9.65% Nordisk Nordland 2 PU Tunnelzelt um €206,90 (statt: €229,--) bei Kraxel.com Handels GmbH
30.07.2014, 00:42 -2.13% Nordisk Nordland 3 PU Tunnelzelt um €257,55 (statt: €263,15) bei Kraxel.com Handels GmbH
30.07.2014, 00:42 -1.42% Nordisk Reisa 6 PU Familienzelt um €620,95 (statt: €629,90) bei Kraxel.com Handels GmbH
30.07.2014, 00:42 -6.59% Nordisk Finnmark 2 SI Kuppelzelt um €364,27 (statt: €389,95) bei Kraxel.com Handels GmbH
30.07.2014, 00:42 -3.72% Nordisk Trollheimen 2 SI Geodätzelt um €413,95 (statt: €429,95) bei Kraxel.com Handels GmbH
30.07.2014, 00:42 -6.38% Nordisk Svalbard 1 SI Tunnelzelt um €215,23 (statt: €229,90) bei Kraxel.com Handels GmbH
30.07.2014, 00:42 -2.13% Nordisk Nordland 2 SI Tunnelzelt um €367,08 (statt: €375,06) bei Kraxel.com Handels GmbH
30.07.2014, 00:42 -2.18% Grand Canyon Texas 195 Mumienschlafsack um €22,90 (statt: €23,41) bei Kraxel.com Handels GmbH
30.07.2014, 00:42 -2.13% Coleman Fusion Lite Mumienschlafsack um €22,95 (statt: €23,45) bei Kraxel.com Handels GmbH
30.07.2014, 00:42 -2.13% Yeti Down Decke um €202,30 (statt: €206,71) bei Kraxel.com Handels GmbH
30.07.2014, 00:42 -2.13% Lestra Meije 800 Mumienschlafsack um €321,08 (statt: €328,06) bei Kraxel.com Handels GmbH
30.07.2014, 00:42 -2.13% Lestra Chamonix L Mumienschlafsack um €105,75 (statt: €108,05) bei Kraxel.com Handels GmbH
30.07.2014, 00:42 -2.19% Campingaz Camp'Bistro Gaskocher um €18,30 (statt: €18,71) bei Kraxel.com Handels GmbH
30.07.2014, 00:42 -2.16% Coleman Nucleus X580 Mumienschlafsack um €36,70 (statt: €37,51) bei Kraxel.com Handels GmbH
30.07.2014, 00:42 -16.38% Targus Notepac 15.4" Tragetasche schwarz (CN01) um €16,75 (statt: €20,03) bei Lapado
30.07.2014, 00:42 -3.34% Canon CanoScan LiDE 110 (4507B010) um €57,07 (statt: €59,04) bei Lapado
30.07.2014, 00:42 -3.32% Targus Eco Spruce 15.6" Rucksack schwarz (TBB013EU) um €34,98 (statt: €36,18) bei Lapado
30.07.2014, 00:42 -3.13% Gigabyte GA-B75M-HD3 um €52,69 (statt: €54,39) bei Lapado
30.07.2014, 00:42 -3.02% Gigabyte GA-B75-D3V Rev. 1.0 um €60,06 (statt: €61,93) bei Lapado
30.07.2014, 00:42 -2.16% Philips SHP2000 um €12,23 (statt: €12,50) bei Lapado
30.07.2014, 00:41 -9.69% Sony FWD-S55H2 (LCD) um €4397,-- (statt: €4869,03) bei notebooksandmore.de
30.07.2014, 00:41 -15.95% Lenovo 4X20E75080 ThinkPad 10 Netzteil um €41,-- (statt: €48,78) bei notebooksandmore.de
30.07.2014, 00:41 -7.94% Lenovo 0C19534 um €119,-- (statt: €129,26) bei notebooksandmore.de
30.07.2014, 00:41 -2.78% HP AK875AA Netzteil 180W um €35,-- (statt: €36,--) bei notebooksandmore.de
30.07.2014, 00:41 -26.23% Toshiba PX1872E-1NAC Micro-USB to USB Host Adapter um €9,-- (statt: €12,20) bei notebooksandmore.de
30.07.2014, 00:41 -22.54% Philips Pocket Memo DPM8100 Digitales Diktiergerät um €409,-- (statt: €528,--) bei notebooksandmore.de
30.07.2014, 00:41 -2.86% NEC UM330W (60003392) um €1143,-- (statt: €1176,71) bei notebooksandmore.de
30.07.2014, 00:41 -3.64% bintec elmeg RT3002 um €899,-- (statt: €933,--) bei notebooksandmore.de
30.07.2014, 00:39 -3.29% Microsoft: Office 2010 Professional, EDU (deutsch) (PC) (T6D-00014) um €88,94 (statt: €91,97) bei Mindfactory
30.07.2014, 00:39 -8.90% Microsoft: Office 2010 Professional, EDU (deutsch) (PC) (T6D-00014) um €91,97 (statt: €100,96) bei VibuOnline
30.07.2014, 00:38 -8.78% Rummikub Fortuna Ergänzungsset für 5 & 6 Spieler um €10,49 (statt: €11,50) bei Elfen.de
30.07.2014, 00:38 -7.50% Clicktronic Casual Toslink Kabel 1m (70366) um €11,84 (statt: €12,80) bei anobo.de
30.07.2014, 00:38 -3.97% Streacom NC1 CK schwarz (ST-NC1B-CK) um €76,97 (statt: €80,15) bei anobo.de
30.07.2014, 00:38 -3.63% Streacom NC1 CK silber (ST-NC1S-CK) um €76,97 (statt: €79,87) bei anobo.de
30.07.2014, 00:38 -3.63% Streacom NC1 GK schwarz (ST-NC1B-GK) um €76,97 (statt: €79,87) bei anobo.de
30.07.2014, 00:38 -3.63% Streacom NC1 GK silber (ST-NC1S-GK) um €76,97 (statt: €79,87) bei anobo.de
30.07.2014, 00:38 -2.42% Ozone Onda ST Gaming Headset um €25,02 (statt: €25,64) bei anobo.de
30.07.2014, 00:38 -2.41% BitFenix Phenom M weiß (BFC-PHM-300-WWXKK-RP) um €74,97 (statt: €76,82) bei anobo.de
30.07.2014, 00:38 -3.01% BitFenix Phenom M schwarz (BFC-PHM-300-KKXKK-RP) um €74,97 (statt: €77,30) bei anobo.de
30.07.2014, 00:38 -1.23% Scythe Kama Bay AMP 2000 Rev.B (SDAR-2100) um €46,42 (statt: €47,--) bei anobo.de
30.07.2014, 00:38 -2.87% Phanteks PH-TC14CS_BL blau um €69,97 (statt: €72,04) bei anobo.de
30.07.2014, 00:38 -1.96% Phanteks PH-TC14PE_OR orange um €69,97 (statt: €71,37) bei anobo.de
30.07.2014, 00:38 -1.21% Belkin Sync- und Ladekabel für iPod und iPhone weiß (F8Z328eaWHT) um €5,71 (statt: €5,78) bei anobo.de
30.07.2014, 00:38 -3.46% Clicktronic Advanced High Speed HDMI Kabel mit Ethernet Typ A/Typ D (Micro) 1m (70526) um €30,96 (statt: €32,07) bei anobo.de
30.07.2014, 00:38 -1.04% Clicktronic Advanced Flachkabel High Speed HDMI mit Ethernet 1m (70512) um €29,38 (statt: €29,69) bei anobo.de
30.07.2014, 00:38 -8.35% Clicktronic Casual Komponenten Kabel, 20m (70430) um €54,75 (statt: €59,74) bei anobo.de
30.07.2014, 00:38 -1.25% TeamGroup Server DIMM Kit 8GB, DDR3-1600, CL11-11-11-28, reg ECC (T4D6R05H32002) um €68,97 (statt: €69,84) bei anobo.de
30.07.2014, 00:38 -1.94% TeamGroup Server DIMM Kit 8GB, DDR3-1600, CL11-11-11-28, ECC (T4D4C05H32043) um €78,97 (statt: €80,53) bei anobo.de
30.07.2014, 00:38 -3.90% TeamGroup Ultra L5 SSD 240GB, SATA 6Gb/s (T253L5240GMC101) um €94,97 (statt: €98,82) bei anobo.de
30.07.2014, 00:38 -1.15% Team Group MP1 Series 128GB, mSATA 6Gb/s (TM38P1128GMC101) um €72,97 (statt: €73,82) bei anobo.de
30.07.2014, 00:38 -2.26% iconBIT NetTAB Mercury LX blau um €89,97 (statt: €92,05) bei anobo.de
30.07.2014, 00:38 -2.25% Lian Li PC-Q33A silber, Mini-DTX/Mini-ITX um €76,97 (statt: €78,74) bei anobo.de
30.07.2014, 00:38 -1.55% Lian Li CR-26U3B schwarz Cardreader, USB 3.0 um €23,56 (statt: €23,93) bei anobo.de
30.07.2014, 00:38 -1.72% Plextor M5M 128GB, mSATA 6Gb/s (PX-128M5M) um €74,99 (statt: €76,30) bei anobo.de
30.07.2014, 00:38 -3.51% Xigmatek Aquila weiß mit Sichtfenster (CCD-14AWW-U01) um €77,97 (statt: €80,81) bei anobo.de
30.07.2014, 00:38 -1.46% Sea Sonic G-Series G-450 450W ATX 2.3 (SSR-450RM) um €72,88 (statt: €73,96) bei anobo.de
30.07.2014, 00:38 -5.29% Palit GeForce GTX 650 OC, 1GB GDDR5, VGA, DVI, Mini HDMI (NE5X650S1301-1071F) um €71,41 (statt: €75,40) bei anobo.de
30.07.2014, 00:38 -3.75% Impactics D1NU-USB silber (D1NU-USB-S) um €93,97 (statt: €97,63) bei anobo.de
30.07.2014, 00:38 -1.50% Corsair Flash Voyager Mini 16GB, USB 3.0 (CMFMINI3-16GB) um €13,13 (statt: €13,33) bei anobo.de
30.07.2014, 00:38 -1.45% TeamGroup Elite Series DIMM Kit (ohne HS) 8GB, DDR3-1600, CL11-11-11-28 (TED38G1600C11DC01) um €73,97 (statt: €75,06) bei anobo.de
30.07.2014, 00:38 -5.12% Label the cable Basic Klettbinder 5er Set schwarz (LTC 1111) um €4,08 (statt: €4,30) bei anobo.de
30.07.2014, 00:38 -1.04% Jamara District (037060/037190) um €81,97 (statt: €82,83) bei anobo.de
30.07.2014, 00:38 -4.36% Sony ICF-C1PJ silber um €49,40 (statt: €51,65) bei anobo.de
30.07.2014, 00:38 -6.67% Her um €13,99 (statt: €14,99) bei Elfen.de
30.07.2014, 00:38 -10.55% City of Remnants um €43,49 (statt: €48,62) bei Elfen.de
30.07.2014, 00:37 -2.39% Samsung C3520 La Fleur Edition um €42,95 (statt: €44,--) bei hardwareversand.de
30.07.2014, 00:37 -29.09% Edimax GS-1016, 16-Port um €45,-- (statt: €63,46) bei notebooksbilliger.de
30.07.2014, 00:37 -4.00% Behringer U-Phorie UMC22, USB 2.0 um €72,-- (statt: €75,--) bei rockshop.de
30.07.2014, 00:37 -7.06% Behringer HPS5000 schwarz um €25,-- (statt: €26,90) bei rockshop.de
30.07.2014, 00:37 -1.68% Ascopharm SovitaMed Sabal-Kürbis Kapseln, 200 Stück um €12,28 (statt: €12,49) bei Aliva-Apotheke
30.07.2014, 00:37 -2.23% Ascopharm SovitaMed Ginseng K Kapseln, 120 Stück um €26,31 (statt: €26,91) bei Aliva-Apotheke
30.07.2014, 00:37 -2.13% Ascopharm SovitaMed Ginseng Kapseln, 200 Stück um €9,64 (statt: €9,85) bei Aliva-Apotheke
30.07.2014, 00:37 -2.24% Ascopharm SovitaCare Visiofit Premium Kapseln, 920 Stück um €21,82 (statt: €22,32) bei Aliva-Apotheke
30.07.2014, 00:37 -2.23% Ascopharm SovitaCare Lutein Kapseln, 90 Stück um €13,16 (statt: €13,46) bei Aliva-Apotheke
30.07.2014, 00:37 -2.24% Ascopharm SovitaCare Kürbiskernöl und Blumenpollen Kapseln, 100 Stück um €8,71 (statt: €8,91) bei Aliva-Apotheke
30.07.2014, 00:37 -2.31% Ascopharm SovitaCare Calcium + D3 Tabletten, 100 Stück um €3,39 (statt: €3,47) bei Aliva-Apotheke
30.07.2014, 00:37 -2.25% Ascopharm SovitaActive Magnesium-Calcium Tabletten, 300 Stück um €6,51 (statt: €6,66) bei Aliva-Apotheke
30.07.2014, 00:37 -2.20% Ascopharm SovitaActive Lecithin Kapseln, 200 Stück um €8,01 (statt: €8,19) bei Aliva-Apotheke
30.07.2014, 00:37 -2.15% Ascopharm SovitaActive Kreatin plus Tabletten, 75 Stück um €4,09 (statt: €4,18) bei Aliva-Apotheke
30.07.2014, 00:37 -2.23% Ascopharm SovitaActive Gelenk-Komplex Kapseln, 60 Stück um €17,51 (statt: €17,91) bei Aliva-Apotheke
30.07.2014, 00:37 -7.42% Sebamed Anti-Pickel Gel 10ml um €4,99 (statt: €5,39) bei Aliva-Apotheke
30.07.2014, 00:37 -3.32% Rhinospray plus ätherische Öle Nasenspray, 10ml um €3,49 (statt: €3,61) bei Aliva-Apotheke
30.07.2014, 00:37 -2.66% Linola Fett Creme, 50ml um €5,49 (statt: €5,64) bei Aliva-Apotheke
30.07.2014, 00:37 -2.22% Dr. Hauschka Zitronen Lemongrass Duschbalsam 200ml um €8,36 (statt: €8,55) bei Aliva-Apotheke
30.07.2014, 00:37 -2.22% Dr. Hauschka Rosmarin Beinlotion 100ml um €14,52 (statt: €14,85) bei Aliva-Apotheke
30.07.2014, 00:37 -2.22% Dr. Hauschka After Sun Lotion 100ml um €11,44 (statt: €11,70) bei Aliva-Apotheke
30.07.2014, 00:37 -2.22% Allpresan Fuß spezial PLUS Repair Schaum-Creme, 35ml um €3,96 (statt: €4,05) bei Aliva-Apotheke
30.07.2014, 00:37 -1.55% Polo Ralph Lauren PH 4076 um €111,25 (statt: €113,--) bei brille-im-internet.de
30.07.2014, 00:37 -1.49% Polo Ralph Lauren PH 3076 um €129,05 (statt: €131,--) bei brille-im-internet.de
30.07.2014, 00:37 -11.00% Jaguar 37327 um €124,51 (statt: €139,90) bei brille-im-internet.de
30.07.2014, 00:37 -11.00% Jaguar 37326 um €106,71 (statt: €119,90) bei brille-im-internet.de
30.07.2014, 00:37 -2.62% Guess GU 7228 um €133,41 (statt: €137,--) bei brille-im-internet.de
30.07.2014, 00:35 -6.30% Acer Aspire V3-772G-747a321.26TBDWakk (NX.M8SEG.007) um €1364,30 (statt: €1456,--) bei We Office You | MeinPaket
30.07.2014, 00:35 -3.01% Acer Aspire V3-772G-747a8G1TMakk, 8GB RAM, 1TB, GeForce GTX 760M, Windows 8 (NX.M8SEG.001) um €901,08 (statt: €929,--) bei We Office You | MeinPaket
30.07.2014, 00:35 -11.53% Microsoft: Visio 2013 Standard, ESD (deutsch) (PC) (AAA-02340) um €277,93 (statt: €314,16) bei We Office You | MeinPaket
30.07.2014, 00:35 -2.48% Microsoft: Office 2013 Home and Business, PKC (polnisch) (PC) (T5D-01753) um €197,96 (statt: €203,--) bei We Office You | MeinPaket
30.07.2014, 00:35 -25.76% Microsoft: Windows 7 Professional 32Bit inkl. Service Pack 1, DSP/SB, 1er-Pack (deutsch) (PC) (FQC-04621) um €73,50 (statt: €99,--) bei We Office You | MeinPaket
30.07.2014, 00:35 -5.49% Microsoft: Windows Server 2008 Standard non-OSB/DSP/SB, inkl. 5 CAL (deutsch) (PC) (P73-04710) um €613,40 (statt: €649,--) bei We Office You | MeinPaket
30.07.2014, 00:35 -2.49% Microsoft: Office 2007 Home and Student, 3 User CAL (deutsch) (PC) (79G-00044) um €116,04 (statt: €119,--) bei We Office You | MeinPaket
30.07.2014, 00:35 -9.38% Corel: CorelDraw Graphics Suite X6 Home & Student, 3 User (deutsch) (PC) (CDHSX6DEMBEU) um €76,93 (statt: €84,89) bei We Office You | MeinPaket
30.07.2014, 00:35 -1.22% Corel: CorelDraw Graphics Suite X5 Home & Student, 3 User (deutsch) (PC) (CDHSX5DEMB) um €68,16 (statt: €69,--) bei We Office You | MeinPaket
30.07.2014, 00:35 -1.80% AVG: Internet Security 2014, 1 User, 1 Jahr (deutsch) (PC) um €12,57 (statt: €12,80) bei We Office You | MeinPaket
30.07.2014, 00:35 -8.03% Philips Living Colors Mini Stimmungslicht Soccer Edition (69150/55) um €27,50 (statt: €29,90) bei DC-Markt
30.07.2014, 00:35 -4.84% Bose Lifestyle RoomMate (versch. Farben) um €55,19 (statt: €58,--) bei Der Fernseh-Doktor
30.07.2014, 00:34 -1.87% Kempa Hurricane Handballschuhe (200846901) um €29,39 (statt: €29,95) bei Abseits Sportswear GmbH Shop
30.07.2014, 00:34 -1.48% Technics SL-1210MK5 Turntable schwarz um €1999,-- (statt: €2029,--) bei Recordcase.de | Meinpaket
30.07.2014, 00:34 -9.09% Ortofon Pro S OM Set um €52,-- (statt: €57,20) bei Recordcase.de | Meinpaket
30.07.2014, 00:34 -9.09% Ortofon Pro OM Set um €53,-- (statt: €58,30) bei Recordcase.de | Meinpaket
30.07.2014, 00:34 -6.38% Ortofon DJ S OM um €44,-- (statt: €47,--) bei Recordcase.de | Meinpaket
30.07.2014, 00:34 -1.17% Omnitronic M-80 USB um €59,-- (statt: €59,70) bei Recordcase.de | Meinpaket
30.07.2014, 00:34 -14.59% Omnitronic EG-50A Paar schwarz um €199,-- (statt: €233,--) bei Recordcase.de | Meinpaket
30.07.2014, 00:34 -16.90% Omnitronic EG-40 Paar weiß um €118,-- (statt: €142,--) bei Recordcase.de | Meinpaket
30.07.2014, 00:34 -10.17% Omnitronic EG-30 Paar weiß um €106,-- (statt: €118,--) bei Recordcase.de | Meinpaket
30.07.2014, 00:34 -14.34% Omnitronic DMS-1150 CD-Turntable um €454,-- (statt: €530,--) bei Recordcase.de | Meinpaket
30.07.2014, 00:34 -14.52% Omnitronic PSM-6.5A Paar um €465,-- (statt: €544,--) bei Recordcase.de | Meinpaket
30.07.2014, 00:34 -8.53% seca 856 Elektronische Küchenwaage um €141,68 (statt: €154,90) bei waagenwelt
30.07.2014, 00:34 -3.16% Eureka Wild Basin 6 Alu Familienzelt um €367,95 (statt: €379,95) bei dein-klettershop.de
30.07.2014, 00:34 -8.01% MSR Alpine 4 Kochtopfset um €55,15 (statt: €59,95) bei dein-klettershop.de
30.07.2014, 00:34 -5.81% Black Diamond Icon Stirnlampe um €67,06 (statt: €71,20) bei dein-klettershop.de
30.07.2014, 00:34 -3.87% Therm-a-Rest NeoAir Dream Large um €159,11 (statt: €165,51) bei dein-klettershop.de
30.07.2014, 00:34 -20.44% Singing Rock Dyneema Expressschlinge (versch. Längen) um €1,79 (statt: €2,25) bei dein-klettershop.de
30.07.2014, 00:34 -17.86% AustriAlpin Vampir 3 um €114,95 (statt: €139,95) bei dein-klettershop.de
30.07.2014, 00:34 -5.38% AustriAlpin Micro um €12,83 (statt: €13,56) bei dein-klettershop.de
30.07.2014, 00:34 -2.25% Eureka Outside Inn+ TC Familienzelt um €781,95 (statt: €799,95) bei dein-klettershop.de
30.07.2014, 00:34 -12.91% Eureka Sphinx 5+ BTC Familienzelt um €653,15 (statt: €749,95) bei dein-klettershop.de
30.07.2014, 00:34 -14.90% Eureka K2 XT Geodätzelt um €510,55 (statt: €599,95) bei dein-klettershop.de
30.07.2014, 00:34 -8.00% Singing Rock Expert 2 Industriegurt um €154,56 (statt: €168,--) bei dein-klettershop.de
30.07.2014, 00:34 -8.01% Singing Rock Twin Roll Seilrolle um €59,75 (statt: €64,95) bei dein-klettershop.de
30.07.2014, 00:34 -1.23% Singing Rock Wurfbeutel (versch. Modelle) um €12,83 (statt: €12,99) bei dein-klettershop.de
30.07.2014, 00:34 -8.01% Singing Rock Top Canyon Hüftgurt um €39,51 (statt: €42,95) bei dein-klettershop.de
30.07.2014, 00:34 -6.91% Singing Rock Bandschlinge um €2,56 (statt: €2,75) bei dein-klettershop.de
30.07.2014, 00:34 -3.01% Singing Rock Easy Lift Seilrolle um €183,95 (statt: €189,66) bei dein-klettershop.de
30.07.2014, 00:34 -1.43% Singing Rock Bandschlinge um €2,75 (statt: €2,79) bei dein-klettershop.de
30.07.2014, 00:34 -8.01% Singing Rock Hornet Tube um €13,79 (statt: €14,99) bei dein-klettershop.de
30.07.2014, 00:34 -8.01% Singing Rock Torca Hüftgurt um €44,11 (statt: €47,95) bei dein-klettershop.de
30.07.2014, 00:34 -3.40% Kong Futura Mini Steigklemme um €96,55 (statt: €99,95) bei dein-klettershop.de
30.07.2014, 00:34 -1.99% Outwell Whitecove 5 Familienzelt um €449,88 (statt: €459,--) bei dein-klettershop.de
30.07.2014, 00:34 -16.36% Outwell Birdland 4 Familienzelt um €367,08 (statt: €438,90) bei dein-klettershop.de
30.07.2014, 00:34 -2.00% Outwell Birdland 5 Familienzelt um €390,99 (statt: €398,95) bei dein-klettershop.de
30.07.2014, 00:34 -8.00% Outwell Newgate 3 Familienzelt um €597,08 (statt: €649,--) bei dein-klettershop.de
30.07.2014, 00:34 -8.01% Slackline Tools Bodenanker um €55,15 (statt: €59,95) bei dein-klettershop.de
30.07.2014, 00:34 -2.37% Slackline Tools Soft `n Slack Set 18m um €105,75 (statt: €108,32) bei dein-klettershop.de
30.07.2014, 00:34 -8.59% Slackline Tools Clip `n Slack Set 10m um €69,87 (statt: €76,44) bei dein-klettershop.de
30.07.2014, 00:34 -8.01% Inook VXm (Herren) um €55,15 (statt: €59,95) bei dein-klettershop.de
30.07.2014, 00:34 -8.00% Inook Odalys um €110,39 (statt: €119,99) bei dein-klettershop.de
30.07.2014, 00:34 -8.01% Singing Rock ISC RP066 Seilrolle um €45,95 (statt: €49,95) bei dein-klettershop.de
30.07.2014, 00:34 -5.55% Salewa 999 Explorer Alpindonna (5390) um €78,65 (statt: €83,27) bei dein-klettershop.de
30.07.2014, 00:34 -8.01% Elliot Brasil Hüftgurt um €27,55 (statt: €29,95) bei dein-klettershop.de
30.07.2014, 00:34 -8.01% Salewa 999 Explorer (5389) um €73,55 (statt: €79,95) bei dein-klettershop.de
30.07.2014, 00:34 -8.00% Salewa 999 Blade Alpindonna (5388) um €82,75 (statt: €89,95) bei dein-klettershop.de
30.07.2014, 00:34 -11.07% Salewa Cordillera VI Kuppelzelt um €266,75 (statt: €299,95) bei dein-klettershop.de
30.07.2014, 00:34 -12.17% Salewa Grand Corona V Familienzelt um €193,19 (statt: €219,95) bei dein-klettershop.de
30.07.2014, 00:34 -7.71% Salewa Via Ferrata Lite Hüftgurt (792) um €25,75 (statt: €27,90) bei dein-klettershop.de
30.07.2014, 00:34 -10.24% Salewa Midway V Kuppelzelt um €147,15 (statt: €163,93) bei dein-klettershop.de
30.07.2014, 00:34 -7.70% Salewa Midway VI Familienzelt um €266,75 (statt: €289,--) bei dein-klettershop.de
30.07.2014, 00:34 -8.04% Skylotec clipZ-Wire um €10,07 (statt: €10,95) bei dein-klettershop.de
30.07.2014, 00:34 -8.00% Edelrid Cable Rent um €119,55 (statt: €129,95) bei dein-klettershop.de
30.07.2014, 00:34 -8.01% Edelrid Cable Kit 4.3 stretch um €73,55 (statt: €79,95) bei dein-klettershop.de
30.07.2014, 00:34 -8.01% Edelrid Cable Lite 2.3 stretch um €64,35 (statt: €69,95) bei dein-klettershop.de
30.07.2014, 00:34 -2.41% Edelrid Cable Ultralight 2.1 um €73,55 (statt: €75,37) bei dein-klettershop.de
30.07.2014, 00:34 -8.00% Edelrid Vertik Plus CL Industriegurt um €257,55 (statt: €279,95) bei dein-klettershop.de
30.07.2014, 00:34 -1.49% Edelrid Mega Jul Tube (71784) um €25,71 (statt: €26,10) bei dein-klettershop.de
30.07.2014, 00:34 -8.00% Edelrid Freedom Einfachseil 9.8mm um €38,63 (statt: €41,99) bei dein-klettershop.de
30.07.2014, 00:34 -3.94% VauDe Space II Kuppelzelt um €456,27 (statt: €475,--) bei dein-klettershop.de
30.07.2014, 00:34 -7.06% Edelrid Joker Kinder-Hüftgurt (71608) um €40,43 (statt: €43,50) bei dein-klettershop.de
30.07.2014, 00:34 -11.53% High Peak Salerno 5 Familienzelt um €229,99 (statt: €259,96) bei dein-klettershop.de
30.07.2014, 00:34 -8.17% High Peak Sorrento 6 Familienzelt um €183,95 (statt: €200,31) bei dein-klettershop.de
30.07.2014, 00:34 -4.05% High Peak Ontario 3 Kuppelzelt um €36,75 (statt: €38,30) bei dein-klettershop.de
30.07.2014, 00:34 -8.00% Inook Freestep um €91,95 (statt: €99,95) bei dein-klettershop.de
30.07.2014, 00:34 -8.00% Inook e-move light um €121,42 (statt: €131,98) bei dein-klettershop.de
30.07.2014, 00:34 -8.00% Inook e-move um €121,42 (statt: €131,98) bei dein-klettershop.de
30.07.2014, 00:34 -5.16% Petzl Top Croll Industriegurt um €78,15 (statt: €82,40) bei dein-klettershop.de
30.07.2014, 00:34 -8.03% Petzl Footape Trittschlinge um €14,67 (statt: €15,95) bei dein-klettershop.de
30.07.2014, 00:34 -7.20% Sonoro Elements (AU-4000) (versch. Farben) um €101,15 (statt: €109,--) bei Morava GmbH Shop
30.07.2014, 00:34 -5.90% Mandarina Duck All Of Me Women Eau de Toilette 100ml um €16,42 (statt: €17,45) bei Xergia GmbH
30.07.2014, 00:34 -8.01% Salvatore Ferragamo Tuscan Soul Eau de Toilette 125ml um €32,75 (statt: €35,60) bei Xergia GmbH
30.07.2014, 00:34 -4.18% Moschino Femme Eau de Toilette 45ml um €26,35 (statt: €27,50) bei Xergia GmbH
30.07.2014, 00:34 -2.98% Rancé Eau de Noblesse Eau de Toilette 50ml um €54,28 (statt: €55,95) bei Xergia GmbH
30.07.2014, 00:34 -2.98% Rancé Eau de La Couronne Eau de Toilette 50ml um €54,28 (statt: €55,95) bei Xergia GmbH
30.07.2014, 00:34 -7.92% Rancé Eau de France Eau de Toilette 50ml um €51,52 (statt: €55,95) bei Xergia GmbH
30.07.2014, 00:34 -2.98% Rancé Eau Sublime Eau de Toilette 50ml um €54,28 (statt: €55,95) bei Xergia GmbH
30.07.2014, 00:34 -3.22% Rancé Eau de Noblesse Eau de Toilette 100ml um €75,44 (statt: €77,95) bei Xergia GmbH
30.07.2014, 00:34 -3.22% Rancé Eau de La Couronne Eau de Toilette 100ml um €75,44 (statt: €77,95) bei Xergia GmbH
30.07.2014, 00:34 -7.94% Rancé Eau de France Eau de Toilette 100ml um €71,76 (statt: €77,95) bei Xergia GmbH
30.07.2014, 00:34 -3.22% Rancé Eau Sublime Eau de Toilette 100ml um €75,44 (statt: €77,95) bei Xergia GmbH
30.07.2014, 00:34 -8.04% George Gina & Lucy Think Wild Eau de Toilette 30ml um €16,69 (statt: €18,15) bei Xergia GmbH
30.07.2014, 00:34 -8.00% Hello Kitty Flowers Eau de Toilette 15ml um €11,73 (statt: €12,75) bei Xergia GmbH
30.07.2014, 00:34 -7.93% Puma Red & White Woman Eau de Toilette 20ml um €7,31 (statt: €7,94) bei Xergia GmbH
30.07.2014, 00:34 -8.01% Historiae Orangerie du Roy Eau de Toilette 100ml um €36,66 (statt: €39,85) bei Xergia GmbH
30.07.2014, 00:34 -1.25% Beckham Intimately Yours Women Eau de Toilette 30ml um €12,60 (statt: €12,76) bei Xergia GmbH
30.07.2014, 00:34 -8.08% Alyssa Ashley White Musk Body Lotion 250ml um €6,71 (statt: €7,30) bei Xergia GmbH
30.07.2014, 00:34 -3.12% Jean Paul Gaultier Ma Dame Eau de Toilette 30ml um €20,19 (statt: €20,84) bei Xergia GmbH
30.07.2014, 00:34 -6.06% Davidoff Cool Water Game Woman Eau de Toilette 50ml um €16,28 (statt: €17,33) bei Xergia GmbH
30.07.2014, 00:34 -8.04% Davidoff Cool Water Wave Eau de Toilette 30ml um €14,76 (statt: €16,05) bei Xergia GmbH
30.07.2014, 00:34 -8.02% Davidoff Cool Water Wave Eau de Toilette 50ml um €17,43 (statt: €18,95) bei Xergia GmbH
30.07.2014, 00:34 -1.00% Yves Saint Laurent In Love again Eau de Toilette 80ml um €72,17 (statt: €72,90) bei Xergia GmbH
30.07.2014, 00:34 -8.04% Zaitsev Maroussia Eau de Toilette 30ml um €9,38 (statt: €10,20) bei Xergia GmbH
30.07.2014, 00:34 -2.01% Guerlain La Petite Robe Noire Eau de Parfum 30ml um €39,51 (statt: €40,32) bei Xergia GmbH
30.07.2014, 00:34 -2.79% Guerlain Aqua Allegoria Lys Soleia Eau de Toilette 75ml um €35,92 (statt: €36,95) bei Xergia GmbH
30.07.2014, 00:34 -2.01% Guerlain Aqua Allegoria Herba Fresca Eau de Toilette 75ml um €38,91 (statt: €39,71) bei Xergia GmbH
30.07.2014, 00:34 -8.02% Salvador Dalí Laguna Maravilla Eau de Toilette 100ml um €23,50 (statt: €25,55) bei Xergia GmbH
30.07.2014, 00:34 -1.77% Salvador Dalí Laguna Maravilla Eau de Toilette 50ml um €16,65 (statt: €16,95) bei Xergia GmbH
30.07.2014, 00:34 -6.38% FCUK FCUK Her Eau de Toilette 100ml um €12,92 (statt: €13,80) bei Xergia GmbH
30.07.2014, 00:34 -2.32% Naomi Campbell Seductive Elixir Eau de Toilette 50ml um €12,65 (statt: €12,95) bei Xergia GmbH
30.07.2014, 00:34 -8.03% Hugo Boss XX Eau de Toilette 60ml um €27,96 (statt: €30,40) bei Xergia GmbH
30.07.2014, 00:34 -8.07% Tom Tailor Speedlife Woman Body Lotion 200ml um €2,62 (statt: €2,85) bei Xergia GmbH
30.07.2014, 00:34 -8.00% Creed Silver Mountain Water Eau de Toilette 75ml um €116,70 (statt: €126,85) bei Xergia GmbH
30.07.2014, 00:31 -5.42% Mattel Barbie Family Glam Haus (R4186) um €50,60 (statt: €53,50) bei Erik Koslowski Shop
30.07.2014, 00:31 -50.00% Gaerne G.Nemy MTB um €44,95 (statt: €89,90) bei Koffer-direkt.de
30.07.2014, 00:31 -6.92% Omnitronic PM-404 (10006817) um €87,40 (statt: €93,90) bei JSEMSP
30.07.2014, 00:31 -7.51% Omnitronic HS-105 um €33,02 (statt: €35,70) bei JSEMSP
30.07.2014, 00:31 -5.59% Omnitronic CFL-3242 analog Mixer (10060375) um €657,80 (statt: €696,72) bei JSEMSP
30.07.2014, 00:31 -4.55% Omnitronic TM-250 Taschensender (130750**) (versch. Frequenzen) um €38,18 (statt: €40,--) bei JSEMSP
30.07.2014, 00:31 -4.76% Omnitronic HS-1100 um €40,02 (statt: €42,02) bei JSEMSP
30.07.2014, 00:31 -9.95% Martina Gebhardt Young & Active Body Lotion 150ml um €13,57 (statt: €15,07) bei OASIS Versand | MeinPaket
30.07.2014, 00:31 -4.83% Sante Kur Shampoo Bio-Ginkgo & Olive 950ml um €8,27 (statt: €8,69) bei OASIS Versand | MeinPaket
30.07.2014, 00:31 -1.54% Lavera Basis Sensitiv Mint Zahncreme 75ml um €1,92 (statt: €1,95) bei OASIS Versand | MeinPaket
30.07.2014, 00:31 -29.35% Bauer Skate Vapor X 30 (Senior) um €45,90 (statt: €64,97) bei kays shop Shop
30.07.2014, 00:31 -3.62% HTC One (M8) 16GB mit Branding um €486,68 (statt: €504,95) bei kamago
30.07.2014, 00:31 -17.82% SLV FN-Light Multi-Mirror 50W GU5.3/MR16 14° (535514) um €0,83 (statt: €1,01) bei KS Licht- u. Elektrotechnik GmbH Shop
30.07.2014, 00:31 -4.64% Just Mobile Highway Autoladegerät (CC-188) um €23,82 (statt: €24,98) bei artvoll.de
30.07.2014, 00:31 -3.51% Makita VC2010L Nass-/Trockensauger um €198,72 (statt: €205,95) bei Handelspunkt- Hohmann
30.07.2014, 00:31 -2.70% Bruder Profi-Serie Fliegl 3-Seitenkipper mit Aufsteckbordwand (02203) um €18,39 (statt: €18,90) bei 4little GmbH Shop
30.07.2014, 00:31 -7.92% LEGO - Creator 3in1 - Jagdflugzeug (6912) um €9,19 (statt: €9,98) bei 4little GmbH Shop
30.07.2014, 00:31 -3.17% Lässig Mini Backpack Wildlife Rhino Kinderrucksack (LMBP188) um €18,35 (statt: €18,95) bei 4little GmbH Shop
30.07.2014, 00:31 -2.91% Lässig Mini Backpack Wildlife Giraffe Kinderrucksack (LMBP186) um €18,35 (statt: €18,90) bei 4little GmbH Shop
30.07.2014, 00:31 -11.61% Theo Klein Arztkoffer, mittel (4383) um €11,04 (statt: €12,49) bei 4little GmbH Shop
30.07.2014, 00:31 -4.67% playmobil - 1.2.3 - Cabrio (6790) um €5,51 (statt: €5,78) bei 4little GmbH Shop
30.07.2014, 00:31 -6.57% playmobil - 1.2.3 - Reisebus (6773) um €11,95 (statt: €12,79) bei 4little GmbH Shop
30.07.2014, 00:31 -8.00% playmobil - Princess - Pegasus-Kutsche beim Königspavillion (5052) um €27,59 (statt: €29,99) bei 4little GmbH Shop
30.07.2014, 00:31 -13.76% Mattel Planes Rückzieh-Action Flieger El Chup (X9512) um €13,79 (statt: €15,99) bei 4little GmbH Shop
30.07.2014, 00:31 -7.08% Mattel Planes Rückzieh-Action Flieger Bravo (X9510) um €13,79 (statt: €14,84) bei 4little GmbH Shop
30.07.2014, 00:31 -13.76% Mattel Planes Rückzieh-Action Flieger Dusty (X9506) um €13,79 (statt: €15,99) bei 4little GmbH Shop
30.07.2014, 00:31 -8.00% Helix Precision P234 um €256,68 (statt: €279,--) bei Cardesign Kempe Shop
30.07.2014, 00:31 -8.02% AFK Wm-900.1 Waffeleisen um €20,64 (statt: €22,44) bei 1A Handelsagentur
30.07.2014, 00:31 -21.49% AEG Electrolux Arctis 60110 GS2 Tisch-Gefrierschrank um €408,43 (statt: €520,25) bei 1A Handelsagentur
30.07.2014, 00:31 -24.07% Exquisit KS16A+ um €244,67 (statt: €322,25) bei 1A Handelsagentur
30.07.2014, 00:30 -17.17% Nokia Asha 205 Dual-SIM rosa um €53,26 (statt: €64,30) bei Handy Deutschland GmbH Shop
30.07.2014, 00:30 -2.65% Technaxx MusicMan Grenade Soundstation X4 violett um €22,07 (statt: €22,67) bei hidden-audio | MeinPaket
30.07.2014, 00:30 -2.65% Technaxx MusicMan Grenade Soundstation X4 schwarz um €22,07 (statt: €22,67) bei hidden-audio | MeinPaket
30.07.2014, 00:30 -2.65% Technaxx MusicMan Grenade Soundstation X4 gold um €22,07 (statt: €22,67) bei hidden-audio | MeinPaket
30.07.2014, 00:30 -3.20% Technaxx MusicMan Grenade Soundstation X4 blau um €22,07 (statt: €22,80) bei hidden-audio | MeinPaket
30.07.2014, 00:30 -5.09% Klipsch HD Theater SB 20 Soundprojektor um €449,88 (statt: €474,--) bei hidden-audio | MeinPaket
30.07.2014, 00:30 -3.40% JBL Cinema SB400 um €367,08 (statt: €379,99) bei hidden-audio | MeinPaket
30.07.2014, 00:30 -7.45% Dynavox VT-100 (versch. Farben) um €155,48 (statt: €168,--) bei hidden-audio | MeinPaket
30.07.2014, 00:30 -4.64% Dynavox VR-70E II um €495,88 (statt: €520,--) bei hidden-audio | MeinPaket
30.07.2014, 00:30 -8.00% Cocktail Audio X30 silber um €919,08 (statt: €999,--) bei hidden-audio | MeinPaket
30.07.2014, 00:30 -5.14% Cocktail Audio X10 um €275,08 (statt: €290,--) bei hidden-audio | MeinPaket
30.07.2014, 00:30 -6.08% Canton Movie 1050 (versch. Farben) um €449,88 (statt: €478,99) bei hidden-audio | MeinPaket
30.07.2014, 00:30 -3.72% Canton Movie 1005 (versch. Farben) um €238,28 (statt: €247,48) bei hidden-audio | MeinPaket
30.07.2014, 00:30 -1.00% Canton Movie 1005 (versch. Farben) um €247,48 (statt: €249,99) bei hidden-audio | MeinPaket
30.07.2014, 00:30 -1.42% Canton DM 900 weiß um €689,08 (statt: €699,--) bei hidden-audio | MeinPaket
30.07.2014, 00:30 -13.49% Thierry Mugler Alien Eau Extraordinaire Refillable Eau de Toilette 90ml um €69,12 (statt: €79,90) bei Parfumstore | MeinPaket
30.07.2014, 00:30 -14.02% Thierry Mugler Alien Eau Extraordinaire Refillable Eau de Toilette 60ml um €51,16 (statt: €59,50) bei Parfumstore | MeinPaket
30.07.2014, 00:30 -5.09% Yves Saint Laurent Opium Duftset um €42,66 (statt: €44,95) bei Parfumstore | MeinPaket
30.07.2014, 00:30 -49.55% Nokia Lumia 710 schwarz rot um €78,20 (statt: €155,--) bei handyliga.de
30.07.2014, 00:30 -4.32% Lupus Electronics LupusNight LE139 (10104) um €114,05 (statt: €119,20) bei XXL-Technik | MeinPaket
30.07.2014, 00:30 -4.32% Lupus Electronics Lupusec XT1, Funk-Glasbruchmelder (12011) um €152,32 (statt: €159,20) bei XXL-Technik | MeinPaket
30.07.2014, 00:30 -1.23% Marmitek BoomBoom 80 Bluetooth Receiver um €30,57 (statt: €30,95) bei XXL-Technik | MeinPaket
30.07.2014, 00:30 -3.86% Marmitek IR Eye um €9,47 (statt: €9,85) bei XXL-Technik | MeinPaket
30.07.2014, 00:30 -4.34% Marmitek BoomBoom 152 weiß um €34,39 (statt: €35,95) bei XXL-Technik | MeinPaket
30.07.2014, 00:30 -4.32% Marmitek BoomBoom 150 schwarz um €34,35 (statt: €35,90) bei XXL-Technik | MeinPaket
30.07.2014, 00:30 -2.11% Marmitek BoomBoom 75 um €30,57 (statt: €31,23) bei XXL-Technik | MeinPaket
30.07.2014, 00:30 -2.12% Marmitek Speaker Anywhere 350 um €51,62 (statt: €52,74) bei XXL-Technik | MeinPaket
30.07.2014, 00:30 -4.33% Marmitek Easy Icon 10RF um €68,79 (statt: €71,90) bei XXL-Technik | MeinPaket
30.07.2014, 00:30 -1.59% Marmitek Speaker Anywhere200 um €68,84 (statt: €69,95) bei XXL-Technik | MeinPaket
30.07.2014, 00:30 -4.34% Elro SA68G, Funk-Außensirene um €12,34 (statt: €12,90) bei XXL-Technik | MeinPaket
30.07.2014, 00:30 -4.33% ELRO DH250 Luftentfeuchter um €42,-- (statt: €43,90) bei XXL-Technik | MeinPaket
30.07.2014, 00:30 -4.32% Elro CCD474Z um €172,13 (statt: €179,90) bei XXL-Technik | MeinPaket
30.07.2014, 00:30 -4.32% Indexa 6000 JK-06 Kit (36004) um €430,46 (statt: €449,90) bei XXL-Technik | MeinPaket
30.07.2014, 00:30 -4.32% Indexa 6000 CF (36017) um €146,29 (statt: €152,90) bei XXL-Technik | MeinPaket
30.07.2014, 00:30 -31.11% Hi-Fun Hi-Bomb weiß um €19,22 (statt: €27,90) bei XXL-Technik | MeinPaket
30.07.2014, 00:30 -31.11% Hi-Fun Hi-Bomb rot um €19,22 (statt: €27,90) bei XXL-Technik | MeinPaket
30.07.2014, 00:30 -41.26% Hi-Fun Hi-Bomb schwarz um €19,22 (statt: €32,72) bei XXL-Technik | MeinPaket
30.07.2014, 00:30 -31.11% Hi-Fun Hi-Tube silber um €19,22 (statt: €27,90) bei XXL-Technik | MeinPaket
30.07.2014, 00:30 -22.81% Hi-Fun Hi-Tube schwarz um €19,22 (statt: €24,90) bei XXL-Technik | MeinPaket
30.07.2014, 00:30 -2.39% Lupus Electronics Lupusnet 10915, Wandhalterung um €60,47 (statt: €61,95) bei XXL-Technik | MeinPaket
30.07.2014, 00:30 -3.67% Vornado 573 Bodenventilator um €36,26 (statt: €37,64) bei XXL-Technik | MeinPaket
30.07.2014, 00:30 -1.42% Modern Electronics Vistadoor VDV-610, Außenstation um €325,22 (statt: €329,90) bei XXL-Technik | MeinPaket
30.07.2014, 00:30 -4.32% Schabus SHT227, Wassermelder um €66,88 (statt: €69,90) bei XXL-Technik | MeinPaket
30.07.2014, 00:30 -1.48% ABUS Security-Center TVIP11552 um €239,10 (statt: €242,70) bei XXL-Technik | MeinPaket
30.07.2014, 00:30 -4.33% Scala SC140 Inhalationsgerät um €42,-- (statt: €43,90) bei XXL-Technik | MeinPaket
30.07.2014, 00:30 -4.32% Indexa GA 90-230, Gasmelder um €109,94 (statt: €114,90) bei XXL-Technik | MeinPaket
30.07.2014, 00:30 -2.95% First Alert FireAngel WST-630, Brandmelder um €26,69 (statt: €27,50) bei XXL-Technik | MeinPaket
30.07.2014, 00:30 -2.52% Lupus Electronics Lupustec LE800D1 1TB, Netzwerk-Videorecorder um €372,10 (statt: €381,70) bei XXL-Technik | MeinPaket
30.07.2014, 00:30 -4.32% Lupus Electronics Lupustec LE808D1, Netzwerk-Videorecorder um €381,95 (statt: €399,20) bei XXL-Technik | MeinPaket
30.07.2014, 00:30 -4.20% Lupus Electronics Lupustec LE816D1, Netzwerk-Videorecorder um €535,71 (statt: €559,21) bei XXL-Technik | MeinPaket
30.07.2014, 00:30 -4.33% Albrecht MAX-treme schwarz um €47,74 (statt: €49,90) bei XXL-Technik | MeinPaket
30.07.2014, 00:30 -4.56% Wortmann 6-87-M110S-4RF1 Li-Ionen-Akku um €75,10 (statt: €78,69) bei ElectroDeal24 | MeinPaket
30.07.2014, 00:30 -3.67% Wortmann 6-87-M110S-4D42 Li-Ionen-Akku um €87,84 (statt: €91,19) bei ElectroDeal24 | MeinPaket
30.07.2014, 00:30 -38.22% Toshiba PA3822E-1AC3 Netzteil um €19,09 (statt: €30,90) bei ElectroDeal24 | MeinPaket
30.07.2014, 00:30 -1.84% Cherry G85-23100 eVolution Stream XT Corded MultiMedia Keyboard, PS/2 & USB (verschiedene Layouts) um €16,53 (statt: €16,84) bei ElectroDeal24 | MeinPaket
30.07.2014, 00:30 -19.70% Cherry J82-16004LUNDE-2 Business Keyboard, USB, DE um €7,62 (statt: €9,49) bei ElectroDeal24 | MeinPaket
30.07.2014, 00:30 -7.09% SK hynix SO-DIMM 8GB, DDR3-1600, CL11-11-11 (HMT41GS6MFR8C-PB) um €70,52 (statt: €75,90) bei ElectroDeal24 | MeinPaket
30.07.2014, 00:30 -19.13% SK hynix DIMM 8GB, DDR3-1333, CL10, ECC (HMT41GU7MFR8C-H9) um €95,47 (statt: €118,05) bei ElectroDeal24 | MeinPaket
30.07.2014, 00:30 -43.90% Netzwerkkabel RJ-45 2.0m doppelt geschirmt weiß (bis Cat5e) um €0,92 (statt: €1,64) bei ElectroDeal24 | MeinPaket
30.07.2014, 00:30 -4.94% Netzwerkkabel RJ-45 1.0m doppelt geschirmt weiß (bis Cat5e) um €0,77 (statt: €0,81) bei ElectroDeal24 | MeinPaket
30.07.2014, 00:30 -11.67% Netzwerkkabel RJ-45 5.0m doppelt geschirmt transparent/silber (bis Cat5e) um €1,59 (statt: €1,80) bei ElectroDeal24 | MeinPaket
30.07.2014, 00:30 -1.24% Netzwerkkabel RJ-45 5.0m doppelt geschirmt rot (bis Cat5e) um €1,59 (statt: €1,61) bei ElectroDeal24 | MeinPaket
30.07.2014, 00:30 -4.41% Netzwerkkabel RJ-45 0.5m doppelt geschirmt rosa (bis Cat5e) um €0,65 (statt: €0,68) bei ElectroDeal24 | MeinPaket
30.07.2014, 00:30 -3.75% Netzwerkkabel RJ-45 1.0m doppelt geschirmt orange (bis Cat5e) um €0,77 (statt: €0,80) bei ElectroDeal24 | MeinPaket
30.07.2014, 00:30 -24.34% Netzwerkkabel RJ-45 3.0m doppelt geschirmt gelb (bis Cat5e) um €1,15 (statt: €1,52) bei ElectroDeal24 | MeinPaket
30.07.2014, 00:30 -3.64% Netzwerkkabel RJ-45 0.25m/0.3m doppelt geschirmt braun (bis Cat5e) um €0,53 (statt: €0,55) bei ElectroDeal24 | MeinPaket
30.07.2014, 00:30 -14.97% Netzwerkkabel RJ-45 5.0m doppelt geschirmt blau (bis Cat5e) um €1,59 (statt: €1,87) bei ElectroDeal24 | MeinPaket
30.07.2014, 00:30 -5.26% InLine Netzwerkkabel Cat6 Verlegekabel 100m, AWG27, PVC, CU, grün (76499G) um €60,34 (statt: €63,69) bei ElectroDeal24 | MeinPaket
30.07.2014, 00:30 -3.75% FSP Fortron/Source FSP300-60GHT 300W TFX12V um €31,82 (statt: €33,06) bei ElectroDeal24 | MeinPaket
30.07.2014, 00:30 -7.47% FSP Fortron/Source FSP400-62PFG 400W ATX 2.0 um €49,65 (statt: €53,66) bei ElectroDeal24 | MeinPaket
30.07.2014, 00:30 -11.62% Logitech K200 Keyboard, USB (verschiedene Layouts) um €9,28 (statt: €10,50) bei ElectroDeal24 | MeinPaket
30.07.2014, 00:30 -10.16% ATEN 2L-5202U, KVM-Kabel 1.8m um €5,13 (statt: €5,71) bei ElectroDeal24 | MeinPaket
30.07.2014, 00:30 -3.38% Lenovo IBM 0A36287 Thinkpad Li-Ionen-Akku 66+ um €108,21 (statt: €112,--) bei ElectroDeal24 | MeinPaket
30.07.2014, 00:30 -40.49% Trust Soft Sleeve for Galaxy Tab (17775) um €7,73 (statt: €12,99) bei ElectroDeal24 | MeinPaket
30.07.2014, 00:30 -1.87% Triton Ausziehschublade für Tastatur und Maus schwarz, 2HE (RAB-UP-X29-A1) um €93,61 (statt: €95,39) bei ElectroDeal24 | MeinPaket
30.07.2014, 00:30 -6.58% Triton Schwerlastschienen schwarz 680mm (RAB-NL-X03-X1) um €14,76 (statt: €15,80) bei ElectroDeal24 | MeinPaket
30.07.2014, 00:30 -11.66% Triton Bürstenleiste, 300x70mm (RAX-MS-X16-X1) um €3,56 (statt: €4,03) bei ElectroDeal24 | MeinPaket
30.07.2014, 00:30 -8.67% Triton Fachboden perforiert hellgrau 1HE 750mm (RAC-UP-750-A1) um €27,48 (statt: €30,09) bei ElectroDeal24 | MeinPaket
30.07.2014, 00:30 -11.58% Dicota Security Lock Pro Masterkey (D30868) um €29,09 (statt: €32,90) bei ElectroDeal24 | MeinPaket
30.07.2014, 00:30 -1.18% Seagate Constellation ES SED 128 2TB, SAS 6Gb/s (ST32000445SS) um €150,21 (statt: €152,--) bei ElectroDeal24 | MeinPaket
30.07.2014, 00:30 -34.37% Golla Willie schwarz (CG1079) um €9,95 (statt: €15,16) bei ElectroDeal24 | MeinPaket
30.07.2014, 00:30 -32.97% Panasonic Evolta Platinum LR03-AAA, Alkali, 1.5V, 4er-Pack (LR03EGE/4BP) um €1,83 (statt: €2,73) bei ElectroDeal24 | MeinPaket
30.07.2014, 00:30 -12.67% Panasonic CR2450, Knopfzelle, Lithium, 3V um €1,31 (statt: €1,50) bei ElectroDeal24 | MeinPaket
30.07.2014, 00:30 -10.92% Otterbox Commuter HTC One (M8) weiß/grau (77-40655) um €20,40 (statt: €22,90) bei ElectroDeal24 | MeinPaket
30.07.2014, 00:30 -6.56% LiteOn DS-8A1P Slim, IDE um €36,91 (statt: €39,50) bei ElectroDeal24 | MeinPaket
30.07.2014, 00:30 -9.55% Intel Wireless-AC 3160 + Bluetooth, PCIe Mini Card (3160.HMWG) um €12,60 (statt: €13,93) bei ElectroDeal24 | MeinPaket
30.07.2014, 00:30 -2.45% Intel Server System P4304BTLSHCNR um €445,55 (statt: €456,75) bei ElectroDeal24 | MeinPaket
30.07.2014, 00:30 -1.62% Kensington Slim Type Tastatur, USB, DE (K72357DE) um €20,04 (statt: €20,37) bei ElectroDeal24 | MeinPaket
30.07.2014, 00:30 -17.80% Sony NHAAB2E, NiMH, 2500mAh, 2er-Pack um €4,11 (statt: €5,--) bei ElectroDeal24 | MeinPaket
30.07.2014, 00:30 -4.41% Zotac GeForce GTX 660 Synergy Edition, 2GB GDDR5, 2x DVI, HDMI, DisplayPort (ZT-60904-10M) um €142,29 (statt: €148,85) bei ElectroDeal24 | MeinPaket
30.07.2014, 00:30 -64.24% HP ED06 Mini Li-Ionen-Akku (WY164AA) um €34,96 (statt: €97,77) bei ElectroDeal24 | MeinPaket
30.07.2014, 00:30 -3.61% HP PR06 Li-Ionen-Akku (QK646AA) um €34,96 (statt: €36,27) bei ElectroDeal24 | MeinPaket
30.07.2014, 00:30 -1.03% Dell 312-0196 Li-Ionen-Akku um €36,61 (statt: €36,99) bei ElectroDeal24 | MeinPaket
30.07.2014, 00:30 -19.03% Kompatibler Akku zu HTC BA-S530 um €7,49 (statt: €9,25) bei ElectroDeal24 | MeinPaket
30.07.2014, 00:30 -1.36% Kompatibler Akku zu HTC BA-S540 um €5,81 (statt: €5,89) bei ElectroDeal24 | MeinPaket
30.07.2014, 00:30 -75.13% ASUS 90-NEA1B1000 Li-Ionen-Akku um €35,76 (statt: €143,79) bei ElectroDeal24 | MeinPaket
30.07.2014, 00:30 -13.32% HP EG415AA Li-Ionen-Akku um €19,26 (statt: €22,22) bei ElectroDeal24 | MeinPaket
30.07.2014, 00:30 -1.82% GP Batteries CR2025, Knopfzelle, Lithium, 3V um €0,54 (statt: €0,55) bei ElectroDeal24 | MeinPaket
30.07.2014, 00:30 -1.82% GP Batteries CR2016, Knopfzelle, Lithium, 3V um €0,54 (statt: €0,55) bei ElectroDeal24 | MeinPaket
30.07.2014, 00:30 -5.51% FSP Fortron/Source FSP400-60GHN(85) 400W ATX 2.2 um €43,35 (statt: €45,88) bei ElectroDeal24 | MeinPaket
30.07.2014, 00:30 -1.37% Compucase HEC-300FB-2RK 300W TFX12V 2.3 um €33,03 (statt: €33,49) bei ElectroDeal24 | MeinPaket
30.07.2014, 00:30 -1.03% Palit GeForce GT 630 (GK208), 2GB DDR3, VGA, DVI, HDMI, passiv gekühlt, PCIe 2.0 x8 (NEAT6300HD46H) um €45,16 (statt: €45,63) bei ElectroDeal24 | MeinPaket
30.07.2014, 00:30 -3.86% Aten UE2120H USB 2.0 4-port Hub um €30,89 (statt: €32,13) bei ElectroDeal24 | MeinPaket
30.07.2014, 00:30 -1.67% ATEN CS52A, 2-fach um €35,30 (statt: €35,90) bei ElectroDeal24 | MeinPaket
30.07.2014, 00:30 -9.26% ATEN UH284, 4-port, USB 2.0 um €8,82 (statt: €9,72) bei ElectroDeal24 | MeinPaket
30.07.2014, 00:30 -9.25% ATEN 2L-5305P, KVM-Kabel 5m um €14,43 (statt: €15,90) bei ElectroDeal24 | MeinPaket
30.07.2014, 00:30 -15.11% Genius KB-110X schwarz, USB, DE (31300711103) um €5,73 (statt: €6,75) bei ElectroDeal24 | MeinPaket
30.07.2014, 00:30 -7.98% Waterkant Deichkönig Schutzhülle für MacBook Pro 13" Retina, grau/grün (485174) um €46,38 (statt: €50,40) bei ElectroDeal24 | MeinPaket
30.07.2014, 00:30 -4.02% LogiLink Smile Hub rot, 4-port (UA0140) um €2,39 (statt: €2,49) bei ElectroDeal24 | MeinPaket
30.07.2014, 00:30 -9.32% LogiLink WL0035A, 5dBi, 2.4GHz um €2,53 (statt: €2,79) bei ElectroDeal24 | MeinPaket
30.07.2014, 00:30 -2.76% Titan DC-K8J825Z/N um €3,17 (statt: €3,26) bei ElectroDeal24 | MeinPaket
30.07.2014, 00:30 -3.25% Toshiba TransMemory-Mini schwarz 32GB, USB 2.0 (THNU32SIPBLACK(BL5) um €13,11 (statt: €13,55) bei ElectroDeal24 | MeinPaket
30.07.2014, 00:30 -7.03% HP H2P64AA um €40,35 (statt: €43,40) bei ElectroDeal24 | MeinPaket
30.07.2014, 00:30 -3.72% HP KT293ET/KT293AA um €37,29 (statt: €38,73) bei ElectroDeal24 | MeinPaket
30.07.2014, 00:30 -7.03% Toshiba PA5037U-1M4G SO-DIMM 4GB DDR3-1600 um €40,35 (statt: €43,40) bei ElectroDeal24 | MeinPaket
30.07.2014, 00:30 -3.63% HP VH641AA um €40,35 (statt: €41,87) bei ElectroDeal24 | MeinPaket
30.07.2014, 00:30 -7.12% HP QP013AA um €76,13 (statt: €81,97) bei ElectroDeal24 | MeinPaket
30.07.2014, 00:30 -7.03% IBM 55Y3711 um €40,35 (statt: €43,40) bei ElectroDeal24 | MeinPaket
30.07.2014, 00:30 -3.64% Mustang PremiumLine DIMM 4GB, DDR2-800, CL6, ECC (M4512728606ND) um €145,12 (statt: €150,60) bei ElectroDeal24 | MeinPaket
30.07.2014, 00:30 -4.16% Toshiba PA3918U-1M4G um €40,35 (statt: €42,10) bei ElectroDeal24 | MeinPaket
30.07.2014, 00:30 -6.55% IBM 43R1969 um €29,53 (statt: €31,60) bei ElectroDeal24 | MeinPaket
30.07.2014, 00:30 -3.53% HP VH641AA um €41,87 (statt: €43,40) bei ElectroDeal24 | MeinPaket
30.07.2014, 00:30 -24.32% IBM 43R1987 um €14,-- (statt: €18,50) bei ElectroDeal24 | MeinPaket
30.07.2014, 00:30 -6.54% IBM 55Y3708 um €41,87 (statt: €44,80) bei ElectroDeal24 | MeinPaket
30.07.2014, 00:30 -11.44% IBM 55Y3710 um €23,29 (statt: €26,30) bei ElectroDeal24 | MeinPaket
30.07.2014, 00:30 -5.13% Mustang Black Line DIMM 4GB, DDR2-800, CL5 (M45126486X6ND-H) um €100,56 (statt: €106,--) bei ElectroDeal24 | MeinPaket
30.07.2014, 00:30 -45.36% Maxflash Team Swiss 4GB, USB 2.0 (PD4GTCHM-R) um €6,12 (statt: €11,20) bei ElectroDeal24 | MeinPaket
30.07.2014, 00:30 -45.36% Maxflash Team South Africa 4GB, USB 2.0 (PD4GTRM-R) um €6,12 (statt: €11,20) bei ElectroDeal24 | MeinPaket
30.07.2014, 00:30 -38.80% Maxflash Team Portugal 4GB, USB 2.0 (PD4GTPM-R) um €6,12 (statt: €10,--) bei ElectroDeal24 | MeinPaket
30.07.2014, 00:30 -43.85% Maxflash Team USA 4GB, USB 2.0 (PD4GTUM-R) um €6,12 (statt: €10,90) bei ElectroDeal24 | MeinPaket
30.07.2014, 00:30 -45.36% Maxflash Team Brasil 4GB, USB 2.0 (PD4GTBM-R) um €6,12 (statt: €11,20) bei ElectroDeal24 | MeinPaket
30.07.2014, 00:30 -45.36% Maxflash Team England 4GB, USB 2.0 (PD4GTEM-R) um €6,12 (statt: €11,20) bei ElectroDeal24 | MeinPaket
30.07.2014, 00:30 -45.36% Maxflash Team Netherland 4GB, USB 2.0 (PD4GTNM-R) um €6,12 (statt: €11,20) bei ElectroDeal24 | MeinPaket
30.07.2014, 00:30 -45.36% Maxflash Team Spain 4GB, USB 2.0 (PD4GTSM-R) um €6,12 (statt: €11,20) bei ElectroDeal24 | MeinPaket
30.07.2014, 00:30 -45.36% Maxflash Team Italy 4GB, USB 2.0 (PD4GTIM-R) um €6,12 (statt: €11,20) bei ElectroDeal24 | MeinPaket
30.07.2014, 00:30 -45.36% Maxflash Team France 4GB, USB 2.0 (PD4GTFM-R) um €6,12 (statt: €11,20) bei ElectroDeal24 | MeinPaket
30.07.2014, 00:30 -47.69% Maxflash Team Germany 4GB, USB 2.0 (PD4GTGM-R) um €6,12 (statt: €11,70) bei ElectroDeal24 | MeinPaket
30.07.2014, 00:30 -3.53% Toshiba PA3677U-1M4G um €41,87 (statt: €43,40) bei ElectroDeal24 | MeinPaket
30.07.2014, 00:30 -14.69% HP AT912AA um €23,29 (statt: €27,30) bei ElectroDeal24 | MeinPaket
30.07.2014, 00:30 -7.57% Memorysolution X8DTG-DF 2GB um €38,82 (statt: €42,--) bei ElectroDeal24 | MeinPaket
30.07.2014, 00:30 -3.96% Memorysolution X8DTG-DF 4GB um €52,82 (statt: €55,--) bei ElectroDeal24 | MeinPaket
30.07.2014, 00:30 -23.64% Mustang DIMM 512MB, DDR-400, CL3 (M2064645306N) um €17,18 (statt: €22,50) bei ElectroDeal24 | MeinPaket
30.07.2014, 00:30 -14.45% Mustang DIMM 1GB, DDR-400, CL3 (M2128645306N) um €31,31 (statt: €36,60) bei ElectroDeal24 | MeinPaket
30.07.2014, 00:30 -23.47% Maxflash 8GB, USB 2.0 (PD8GM-R) um €5,74 (statt: €7,50) bei ElectroDeal24 | MeinPaket
30.07.2014, 00:30 -16.97% Maxflash 4GB, USB 2.0 (PD4GM-R) um €4,60 (statt: €5,54) bei ElectroDeal24 | MeinPaket
30.07.2014, 00:30 -2.30% Memorysolution MS4096AC413 um €66,83 (statt: €68,40) bei ElectroDeal24 | MeinPaket
30.07.2014, 00:30 -36.04% Memorysolution MS2048AC413 um €37,29 (statt: €58,30) bei ElectroDeal24 | MeinPaket
30.07.2014, 00:30 -2.30% Memorysolution MS4096AC410 um €66,83 (statt: €68,40) bei ElectroDeal24 | MeinPaket
30.07.2014, 00:30 -36.04% Memorysolution MS2048AC410 um €37,29 (statt: €58,30) bei ElectroDeal24 | MeinPaket
30.07.2014, 00:30 -9.04% Memorysolution MS1024AC410 um €34,11 (statt: €37,50) bei ElectroDeal24 | MeinPaket
30.07.2014, 00:30 -57.19% Nanya SO-DIMM 256MB, DDR2-533, CL4 (NT256T64UH4A0FN-37B) um €3,81 (statt: €8,90) bei ElectroDeal24 | MeinPaket
30.07.2014, 00:30 -13.52% Memorysolution MS512AC101 um €24,82 (statt: €28,70) bei ElectroDeal24 | MeinPaket
30.07.2014, 00:30 -5.73% Memorysolution MS2048AC376 um €45,06 (statt: €47,80) bei ElectroDeal24 | MeinPaket
30.07.2014, 00:30 -9.04% Memorysolution MS1024AC376 um €34,11 (statt: €37,50) bei ElectroDeal24 | MeinPaket
30.07.2014, 00:30 -5.29% Memorysolution MS1024FSC060 um €32,58 (statt: €34,40) bei ElectroDeal24 | MeinPaket
30.07.2014, 00:30 -9.75% Memorysolution MS1024AC-NB1 um €32,58 (statt: €36,10) bei ElectroDeal24 | MeinPaket
30.07.2014, 00:30 -4.89% Memorysolution MS1024AC355 um €49,65 (statt: €52,20) bei ElectroDeal24 | MeinPaket
30.07.2014, 00:30 -13.52% Memorysolution MS512AC094 um €24,82 (statt: €28,70) bei ElectroDeal24 | MeinPaket
30.07.2014, 00:30 -9.75% Memorysolution MS1024TOS036 um €32,58 (statt: €36,10) bei ElectroDeal24 | MeinPaket
30.07.2014, 00:30 -13.52% Memorysolution MS512AC085 um €24,82 (statt: €28,70) bei ElectroDeal24 | MeinPaket
30.07.2014, 00:30 -10.26% Memorysolution MS1024FSC042 um €31,05 (statt: €34,60) bei ElectroDeal24 | MeinPaket
30.07.2014, 00:30 -13.12% Memorysolution MS1024CO041 um €32,58 (statt: €37,50) bei ElectroDeal24 | MeinPaket
30.07.2014, 00:30 -15.57% Memorysolution MS256AC044-1 um €34,11 (statt: €40,40) bei ElectroDeal24 | MeinPaket
30.07.2014, 00:30 -9.75% Memorysolution MS1024AC066 um €32,58 (statt: €36,10) bei ElectroDeal24 | MeinPaket
30.07.2014, 00:30 -9.75% Memorysolution MS1024AC070 um €32,58 (statt: €36,10) bei ElectroDeal24 | MeinPaket
30.07.2014, 00:30 -8.31% Memorysolution MS512AC045 um €35,76 (statt: €39,--) bei ElectroDeal24 | MeinPaket
30.07.2014, 00:30 -8.31% Memorysolution MS512DE056 um €35,76 (statt: €39,--) bei ElectroDeal24 | MeinPaket
30.07.2014, 00:30 -9.75% Memorysolution MS512AC337 um €32,58 (statt: €36,10) bei ElectroDeal24 | MeinPaket
30.07.2014, 00:30 -15.57% Memorysolution MS256AC043 um €34,11 (statt: €40,40) bei ElectroDeal24 | MeinPaket
30.07.2014, 00:30 -9.54% Memorysolution MS256EP736 um €33,47 (statt: €37,--) bei ElectroDeal24 | MeinPaket
30.07.2014, 00:30 -19.11% InLine High Speed HDMI Kabel mit Ethernet schwarz/gold 0.5m (17555P) um €3,81 (statt: €4,71) bei ElectroDeal24 | MeinPaket
30.07.2014, 00:30 -25.88% InLine USB 3.0 Adapter, Buchse A auf Buchse A (35300X) um €1,26 (statt: €1,70) bei ElectroDeal24 | MeinPaket
30.07.2014, 00:30 -6.78% Diverse USB 2.0 Kabel A/Micro-B 3m um €1,10 (statt: €1,18) bei ElectroDeal24 | MeinPaket
30.07.2014, 00:30 -10.23% InLine USB 2.0 zu USB 3.0 Adapter, USB 3.0 19-Pin auf USB 2.0 Pfostenstecker intern (33449L) um €4,30 (statt: €4,79) bei ElectroDeal24 | MeinPaket
30.07.2014, 00:30 -7.12% InLine mini SAS (SFF-8088) Kabel, 0.5m (27623A) um €23,10 (statt: €24,87) bei ElectroDeal24 | MeinPaket
30.07.2014, 00:30 -10.23% InLine USB 3.0 Adapter, 2x Buchse A auf Pfostenanschluss (33444A) um €4,30 (statt: €4,79) bei ElectroDeal24 | MeinPaket
30.07.2014, 00:30 -10.22% InLine VGA-Kabel Stecker/Stecker, geschraubt, 10m (17707E) um €5,71 (statt: €6,36) bei ElectroDeal24 | MeinPaket
30.07.2014, 00:30 -1.55% InLine Bluetooth Tastatur und Alu-Cover für iPad, schwarz (55370) um €14,65 (statt: €14,88) bei ElectroDeal24 | MeinPaket
30.07.2014, 00:30 -7.69% Inline 2-fach DisplayPort Splitter (65008) um €60,97 (statt: €66,05) bei ElectroDeal24 | MeinPaket
30.07.2014, 00:30 -6.31% InLine 33380B Netzwerkadapter, 1x 1000Base-T, USB 3.0 um €19,14 (statt: €20,43) bei ElectroDeal24 | MeinPaket
30.07.2014, 00:30 -8.26% InLine USB-Hub 4-Port schwarz, USB 3.0, intern (33395B) um €17,88 (statt: €19,49) bei ElectroDeal24 | MeinPaket
30.07.2014, 00:30 -10.18% InLine USB-Hub 4-Port beige, USB 3.0, Multifunktionspanel (33395H) um €16,59 (statt: €18,47) bei ElectroDeal24 | MeinPaket
30.07.2014, 00:30 -5.57% InLine USB 3.0 Adapter, Buchse A auf Micro-B Stecker (35300S) um €2,71 (statt: €2,87) bei ElectroDeal24 | MeinPaket
30.07.2014, 00:30 -19.41% InLine USB 3.0 Adapter, Stecker A auf Buchse A 90° gewinkelt oben (35300R) um €1,91 (statt: €2,37) bei ElectroDeal24 | MeinPaket
30.07.2014, 00:30 -5.84% InLine High Speed HDMI Kabel 1m (17601E) um €2,58 (statt: €2,74) bei ElectroDeal24 | MeinPaket
30.07.2014, 00:30 -10.29% InLine USB 2.0 zu USB 3.0 Adapter, USB 2.0 Mainboard auf USB 3.0 intern (33449K) um €4,88 (statt: €5,44) bei ElectroDeal24 | MeinPaket
30.07.2014, 00:30 -24.14% InLine Wechselstecker für Fujitsu Siemens auf Universal-Netzteile, M23 20V, weiß (26611L) um €1,10 (statt: €1,45) bei ElectroDeal24 | MeinPaket
30.07.2014, 00:30 -20.29% InLine Wechselstecker für Fujitsu Siemens auf Universal-Netzteile, M23 20V, schwarz (26611K) um €1,10 (statt: €1,38) bei ElectroDeal24 | MeinPaket
30.07.2014, 00:30 -7.78% InLine Staubschutz für DisplayPort Stecker 50 Stück (59948I) um €6,76 (statt: €7,33) bei ElectroDeal24 | MeinPaket
30.07.2014, 00:30 -10.02% InLine HDMI (Stecker) auf DVI (Buchse) Adapter 0.2m (17670I) um €3,77 (statt: €4,19) bei ElectroDeal24 | MeinPaket
30.07.2014, 00:30 -1.85% InLine 60603I um €23,31 (statt: €23,75) bei ElectroDeal24 | MeinPaket
30.07.2014, 00:30 -9.03% InLine Wechselstecker für IBM, Lenovo auf Universal-Netzteile, M11 20V, weiß (26611D) um €2,52 (statt: €2,77) bei ElectroDeal24 | MeinPaket
30.07.2014, 00:30 -9.03% InLine Wechselstecker für IBM, Lenovo auf Universal-Netzteile, M11 20V, schwarz (26611C) um €2,52 (statt: €2,77) bei ElectroDeal24 | MeinPaket
30.07.2014, 00:30 -10.11% InLine Kabel Clips Set (59990A) um €5,69 (statt: €6,33) bei ElectroDeal24 | MeinPaket
30.07.2014, 00:30 -3.47% Diverse Steckdosenleisten, 4-fach um €2,78 (statt: €2,88) bei ElectroDeal24 | MeinPaket
30.07.2014, 00:30 -10.18% InLine High Speed HDMI Kabel mit Ethernet flexibel 3m (17003W) um €6,44 (statt: €7,17) bei ElectroDeal24 | MeinPaket
30.07.2014, 00:30 -10.19% InLine High Speed HDMI Kabel mit Ethernet flexibel 2m (17002W) um €5,64 (statt: €6,28) bei ElectroDeal24 | MeinPaket
30.07.2014, 00:30 -10.19% InLine High Speed HDMI Kabel mit Ethernet flexibel 1m (17001W) um €4,76 (statt: €5,30) bei ElectroDeal24 | MeinPaket
30.07.2014, 00:30 -2.81% InLine USB 2.0 Repeaterkabel 20m (34613I) um €22,83 (statt: €23,49) bei ElectroDeal24 | MeinPaket
30.07.2014, 00:30 -26.72% InLine USB 2.0 Adapterkabel, USB-A Buchse auf Mini 5-Pol Stecker 0.2m (33500C) um €0,96 (statt: €1,31) bei ElectroDeal24 | MeinPaket
30.07.2014, 00:30 -10.06% InLine USB 3.0 Adapter, 2x Buchse A auf Pfostenanschluss (33444I) um €4,38 (statt: €4,87) bei ElectroDeal24 | MeinPaket
30.07.2014, 00:30 -11.57% InLine Kabelschelle 25mm rund, 50 Stück, weiß (44022B) um €1,91 (statt: €2,16) bei ElectroDeal24 | MeinPaket
30.07.2014, 00:30 -3.49% InLine Kabelschelle 10mm rund, 100 Stück, weiß (44021B) um €0,83 (statt: €0,86) bei ElectroDeal24 | MeinPaket
30.07.2014, 00:30 -3.85% InLine Kabelschelle 8mm rund, 100 Stück, weiß (44020B) um €0,75 (statt: €0,78) bei ElectroDeal24 | MeinPaket
30.07.2014, 00:30 -11.59% InLine Kabelschelle 20mm rund, 50 Stück, weiß (44022) um €1,22 (statt: €1,38) bei ElectroDeal24 | MeinPaket
30.07.2014, 00:30 -3.49% InLine Kabelschelle 10mm eckig, 100 Stück, weiß (44021) um €0,83 (statt: €0,86) bei ElectroDeal24 | MeinPaket
30.07.2014, 00:30 -4.35% InLine Kabelschelle 8mm eckig, 100 Stück, weiß (44020) um €0,66 (statt: €0,69) bei ElectroDeal24 | MeinPaket
30.07.2014, 00:30 -11.63% InLine Kabeldurchführung Nylon IP68 18-25mm, 10 Stück, grau (44014) um €5,70 (statt: €6,45) bei ElectroDeal24 | MeinPaket
30.07.2014, 00:30 -11.72% InLine USB 2.0 Flachkabel Verlängerung Stecker A auf Buchse A 2m (34620F) um €2,11 (statt: €2,39) bei ElectroDeal24 | MeinPaket
30.07.2014, 00:30 -5.99% InLine LWL Duplex Kabel, LC/ST 50/125µm, OM4, 1m (88501P) um €7,38 (statt: €7,85) bei ElectroDeal24 | MeinPaket
30.07.2014, 00:30 -5.23% InLine USB 2.0 Pinheader Pfostenstecker/Pfostenbuchse Verlängerung 0.6m (33440J) um €2,72 (statt: €2,87) bei ElectroDeal24 | MeinPaket
30.07.2014, 00:30 -10.11% InLine High Speed HDMI Flachkabel mit Ethernet 5m (17005F) um €10,58 (statt: €11,77) bei ElectroDeal24 | MeinPaket
30.07.2014, 00:30 -9.17% InLine High Speed HDMI Flachkabel mit Ethernet 3m (17003F) um €8,12 (statt: €8,94) bei ElectroDeal24 | MeinPaket
30.07.2014, 00:30 -8.26% InLine Twist-Kabelbinder, 26-30mm, 100 Stück, schwarz (59966W) um €6,22 (statt: €6,78) bei ElectroDeal24 | MeinPaket
30.07.2014, 00:30 -6.27% InLine Twist-Kabelbinder, 18-22mm, 100 Stück, schwarz (59966V) um €3,29 (statt: €3,51) bei ElectroDeal24 | MeinPaket
30.07.2014, 00:30 -10.74% InLine Twist-Kabelbinder, 10-13mm, 100 Stück, schwarz (59966U) um €2,41 (statt: €2,70) bei ElectroDeal24 | MeinPaket
30.07.2014, 00:30 -7.88% InLine Twist-Kabelbinder, 18-22mm, 100 Stück, natur (59966Q) um €3,39 (statt: €3,68) bei ElectroDeal24 | MeinPaket
30.07.2014, 00:30 -17.94% InLine Twist-Kabelbinder, 3.5-5mm, 100 Stück, schwarz (59966T) um €2,15 (statt: €2,62) bei ElectroDeal24 | MeinPaket
30.07.2014, 00:30 -4.75% InLine Twist-Kabelbinder, 26-30mm, 100 Stück, natur (59966S) um €6,22 (statt: €6,53) bei ElectroDeal24 | MeinPaket
30.07.2014, 00:30 -7.72% InLine Twist-Kabelbinder, 10-13mm, 100 Stück, natur (59966P) um €2,39 (statt: €2,59) bei ElectroDeal24 | MeinPaket
30.07.2014, 00:30 -7.55% Fibre Channel Kabel 35m (versch. Stecker) um €22,78 (statt: €24,64) bei ElectroDeal24 | MeinPaket
30.07.2014, 00:30 -11.30% InLine LWL Duplex Kabel, LC/ST 50/125µm, OM3, 1m (88501O) um €6,36 (statt: €7,17) bei ElectroDeal24 | MeinPaket
30.07.2014, 00:30 -1.20% InLine Twist-Kabelbinder, 10-13mm, 10 Stück, schwarz (59966J) um €0,82 (statt: €0,83) bei ElectroDeal24 | MeinPaket
30.07.2014, 00:30 -21.53% InLine Kugelkabelbinder, 100mm, 100 Stück, natur (59977A) um €1,13 (statt: €1,44) bei ElectroDeal24 | MeinPaket
30.07.2014, 00:30 -5.69% InLine Super Slim High Speed HDMI Kabel mit Ethernet 1m (17001S) um €3,81 (statt: €4,04) bei ElectroDeal24 | MeinPaket
30.07.2014, 00:30 -11.98% InLine VGA-Kabel Stecker/Buchse, 1.0m (17737) um €1,69 (statt: €1,92) bei ElectroDeal24 | MeinPaket
30.07.2014, 00:30 -11.68% InLine VGA-Kabel Stecker/Buchse, 10m (17736) um €5,67 (statt: €6,42) bei ElectroDeal24 | MeinPaket
30.07.2014, 00:30 -11.72% InLine VGA-Kabel Stecker/Stecker, 10m (17712E) um €5,80 (statt: €6,57) bei ElectroDeal24 | MeinPaket
30.07.2014, 00:30 -11.72% InLine VGA-Kabel Stecker/Stecker, 5.0m (17712D) um €4,37 (statt: €4,95) bei ElectroDeal24 | MeinPaket
30.07.2014, 00:30 -11.90% InLine VGA-Kabel Stecker/Stecker, 1.0m (17712C) um €2,22 (statt: €2,52) bei ElectroDeal24 | MeinPaket
30.07.2014, 00:30 -3.12% InLine Cinch Kabel 3m gelb (89937D) um €0,93 (statt: €0,96) bei ElectroDeal24 | MeinPaket
30.07.2014, 00:30 -4.00% InLine Cinch Kabel 1m gelb (89937C) um €0,72 (statt: €0,75) bei ElectroDeal24 | MeinPaket
30.07.2014, 00:30 -3.77% InLine Cinch Kabel 0.5m gelb (89937B) um €0,51 (statt: €0,53) bei ElectroDeal24 | MeinPaket
30.07.2014, 00:30 -4.35% Netzwerkkabel ausgekreuzt RJ-45 0.25m doppelt geschirmt schwarz (Cat6) um €0,66 (statt: €0,69) bei ElectroDeal24 | MeinPaket
30.07.2014, 00:30 -11.76% Netzwerkkabel ausgekreuzt RJ-45 2.0m doppelt geschirmt schwarz (Cat6) um €1,35 (statt: €1,53) bei ElectroDeal24 | MeinPaket
30.07.2014, 00:30 -2.33% Netzwerkkabel ausgekreuzt RJ-45 0.25m einfach geschirmt grau (bis Cat5e) um €0,42 (statt: €0,43) bei ElectroDeal24 | MeinPaket
30.07.2014, 00:30 -11.78% Netzwerkkabel ausgekreuzt RJ-45 25m einfach geschirmt grau (bis Cat5e) um €4,12 (statt: €4,67) bei ElectroDeal24 | MeinPaket
30.07.2014, 00:30 -11.74% InLine Kabelbinder, 450mm, 4.8mm, 100 Stück, natur (59964O) um €3,91 (statt: €4,43) bei ElectroDeal24 | MeinPaket
30.07.2014, 00:30 -18.84% InLine SATA -> Slim-SATA, Adapter (29612) um €4,74 (statt: €5,84) bei ElectroDeal24 | MeinPaket
30.07.2014, 00:30 -5.18% InLine USB 3.0 Adapter, Stecker A auf Buchse B 90° gewinkelt rechts (35300M) um €4,21 (statt: €4,44) bei ElectroDeal24 | MeinPaket
30.07.2014, 00:30 -13.99% InLine USB 3.0 Adapter, Stecker A auf Buchse B (35300J) um €3,75 (statt: €4,36) bei ElectroDeal24 | MeinPaket
30.07.2014, 00:30 -12.52% InLine USB 3.0 Adapter, Buchse B auf Micro-B Stecker (35300F) um €6,43 (statt: €7,35) bei ElectroDeal24 | MeinPaket
30.07.2014, 00:30 -13.99% InLine USB 3.0 Adapter, Buchse A auf Buchse B (35300E) um €3,75 (statt: €4,36) bei ElectroDeal24 | MeinPaket
30.07.2014, 00:30 -9.79% InLine SAS Slotblech, 1x SFF-8088, low profile (27650) um €24,88 (statt: €27,58) bei ElectroDeal24 | MeinPaket
30.07.2014, 00:30 -6.67% InLine High Speed HDMI Kabel mit Ethernet 5m (17005P) um €7,56 (statt: €8,10) bei ElectroDeal24 | MeinPaket
30.07.2014, 00:30 -9.34% Diverse Netzteiltester um €2,62 (statt: €2,89) bei ElectroDeal24 | MeinPaket
30.07.2014, 00:30 -13.18% InLine USB 3.0 Adapter, Buchse A auf Stecker B (35300D) um €4,61 (statt: €5,31) bei ElectroDeal24 | MeinPaket
30.07.2014, 00:30 -19.82% InLine USB 3.0 Adapter, Buchse A auf Stecker A (35300B) um €2,71 (statt: €3,38) bei ElectroDeal24 | MeinPaket
30.07.2014, 00:30 -3.26% InLine 3.5mm Klinke Verlängerungskabel weiß 1m (99934W) um €0,89 (statt: €0,92) bei ElectroDeal24 | MeinPaket
30.07.2014, 00:30 -11.59% InLine Cinch Kabel 10m schwarz (89937X) um €2,06 (statt: €2,33) bei ElectroDeal24 | MeinPaket
30.07.2014, 00:30 -11.76% InLine HDMI Kabel weiß 2m (17602U) um €4,65 (statt: €5,27) bei ElectroDeal24 | MeinPaket
30.07.2014, 00:30 -11.94% Inline SATA Buchse auf 2x SATA Stecker Y-Kabel mit Sicherheitslasche 0.15m (29683A) um €2,36 (statt: €2,68) bei ElectroDeal24 | MeinPaket
30.07.2014, 00:30 -11.59% Titan TTC-CSC03 VGA-Kühler um €2,06 (statt: €2,33) bei ElectroDeal24 | MeinPaket
30.07.2014, 00:30 -3.60% Inline SATA Buchse auf 2x SATA Stecker (5.25") Y-Kabel, gewinkelt 0.15m (29684) um €3,21 (statt: €3,33) bei ElectroDeal24 | MeinPaket
30.07.2014, 00:30 -12.04% Netzwerkkabel RJ-45 0.5m doppelt geschirmt rosa (Cat6) um €0,95 (statt: €1,08) bei ElectroDeal24 | MeinPaket
30.07.2014, 00:30 -3.64% Netzwerkkabel RJ-45 0.25m/0.3m doppelt geschirmt rosa (bis Cat5e) um €0,53 (statt: €0,55) bei ElectroDeal24 | MeinPaket
30.07.2014, 00:30 -11.31% InLine LWL Duplex Kabel, LC/ST 50/125µm, OM3, 3m (88503O) um €7,76 (statt: €8,75) bei ElectroDeal24 | MeinPaket
30.07.2014, 00:30 -12.05% Netzwerkkabel RJ-45 7.0m/7.5m doppelt geschirmt gelb (Cat6) um €1,46 (statt: €1,66) bei ElectroDeal24 | MeinPaket
30.07.2014, 00:30 -12.05% Netzwerkkabel RJ-45 10m doppelt geschirmt grau (Cat6) um €1,46 (statt: €1,66) bei ElectroDeal24 | MeinPaket
30.07.2014, 00:30 -3.92% Netzwerkkabel RJ-45 1.5m doppelt geschirmt transparent/silber (bis Cat5e) um €0,98 (statt: €1,02) bei ElectroDeal24 | MeinPaket
30.07.2014, 00:30 -4.04% Netzwerkkabel RJ-45 1.5m doppelt geschirmt braun (bis Cat5e) um €0,95 (statt: €0,99) bei ElectroDeal24 | MeinPaket
30.07.2014, 00:30 -3.26% Netzwerkkabel RJ-45 1.5m doppelt geschirmt schwarz (bis Cat5e) um €0,89 (statt: €0,92) bei ElectroDeal24 | MeinPaket
30.07.2014, 00:30 -14.66% InLine USB 2.0 Adapter, 2x USB-A (Buchse) auf Pfostenanschluss (33440I) um €3,55 (statt: €4,16) bei ElectroDeal24 | MeinPaket
30.07.2014, 00:30 -4.72% InLine LWL Duplex Kabel, LC/LC 50/125µm, OM3, 3m (88543O) um €8,27 (statt: €8,68) bei ElectroDeal24 | MeinPaket
30.07.2014, 00:30 -8.82% InLine 40054I, PCI um €10,85 (statt: €11,90) bei ElectroDeal24 | MeinPaket
30.07.2014, 00:30 -1.78% Diverse Switch 16-Port Gigabit Ethernet um €62,97 (statt: €64,11) bei ElectroDeal24 | MeinPaket
30.07.2014, 00:30 -6.13% InLine 32308I, 8-Port um €25,88 (statt: €27,57) bei ElectroDeal24 | MeinPaket
30.07.2014, 00:30 -14.59% InLine USB 2.0 Adapter, Stecker A auf eSATA Buchse (76628I) um €6,09 (statt: €7,13) bei ElectroDeal24 | MeinPaket
30.07.2014, 00:30 -4.11% InLine Netzwerkkabel Cat6 Verlegekabel 100m, AWG27, PVC, CU, gelb (76499Y) um €57,23 (statt: €59,68) bei ElectroDeal24 | MeinPaket
30.07.2014, 00:30 -5.58% InLine Netzwerkkabel Cat6 Verlegekabel 100m, AWG27, PVC, CU, weiß (76499W) um €57,15 (statt: €60,53) bei ElectroDeal24 | MeinPaket
30.07.2014, 00:30 -9.25% InLine Netzwerkkabel Cat6 Verlegekabel 100m, AWG27, PVC, CU, schwarz (76499S) um €55,24 (statt: €60,87) bei ElectroDeal24 | MeinPaket
30.07.2014, 00:30 -3.55% InLine Netzwerkkabel Cat6 Verlegekabel 100m, AWG27, PVC, CU, violett (76499P) um €58,92 (statt: €61,09) bei ElectroDeal24 | MeinPaket
30.07.2014, 00:30 -11.81% InLine LWL Duplex Kabel, ST/SC, 9/125µm, 5m (82505A) um €5,08 (statt: €5,76) bei ElectroDeal24 | MeinPaket
30.07.2014, 00:30 -4.07% InLine LWL Duplex Kabel, ST/SC, 9/125µm, 10m (82510A) um €6,36 (statt: €6,63) bei ElectroDeal24 | MeinPaket
30.07.2014, 00:30 -6.95% InLine LWL Duplex Kabel, ST/SC, 9/125µm, 15m (82515A) um €7,63 (statt: €8,20) bei ElectroDeal24 | MeinPaket
30.07.2014, 00:30 -11.85% Hama Hardcase Square 60L Kameratasche schwarz (103775) um €3,05 (statt: €3,46) bei ElectroDeal24 | MeinPaket
30.07.2014, 00:30 -7.46% Ansmann Alkaline Micro AAA LR03, Alkali, 1.5V, 20er-Pack (5015538) um €2,73 (statt: €2,95) bei ElectroDeal24 | MeinPaket
30.07.2014, 00:30 -11.54% InLine HDMI/DVI Kabel 1m (17661P) um €3,68 (statt: €4,16) bei ElectroDeal24 | MeinPaket
30.07.2014, 00:30 -8.00% InLine High Speed HDMI Kabel 1.5m (17611P) um €3,68 (statt: €4,--) bei ElectroDeal24 | MeinPaket
30.07.2014, 00:30 -9.66% InLine High Speed HDMI Kabel 1m (17601P) um €3,18 (statt: €3,52) bei ElectroDeal24 | MeinPaket
30.07.2014, 00:30 -4.25% InLine High Speed HDMI Kabel 10m (17610P) um €15,55 (statt: €16,24) bei ElectroDeal24 | MeinPaket
30.07.2014, 00:30 -10.11% InLine High Speed HDMI Kabel 7.5m (17607P) um €12,63 (statt: €14,05) bei ElectroDeal24 | MeinPaket
30.07.2014, 00:30 -10.61% InLine High Speed HDMI Kabel 5m (17605P) um €7,16 (statt: €8,01) bei ElectroDeal24 | MeinPaket
30.07.2014, 00:30 -15.62% InLine Micro-USB Adapter, Micro-B Stecker auf Buchse B, bulk (31601) um €2,16 (statt: €2,56) bei ElectroDeal24 | MeinPaket
30.07.2014, 00:30 -8.16% InLine VGA-Kabel Stecker/Stecker, 7.0m (17723B) um €6,53 (statt: €7,11) bei ElectroDeal24 | MeinPaket
30.07.2014, 00:30 -9.51% Inline SATA Adapter, SATA Buchse auf SATA Buchse (27500B) um €3,52 (statt: €3,89) bei ElectroDeal24 | MeinPaket
30.07.2014, 00:30 -14.52% Inline eSATA Adapter, eSATA Buchse auf eSATA Buchse (27500A) um €3,65 (statt: €4,27) bei ElectroDeal24 | MeinPaket
30.07.2014, 00:30 -4.93% Inline SATA Adapter, eSATA Buchse auf SATA Buchse (27500) um €4,63 (statt: €4,87) bei ElectroDeal24 | MeinPaket
30.07.2014, 00:30 -20.51% InLine Schraubenset für Mainboard metrisch, 10-teilig (77784M) um €1,86 (statt: €2,34) bei ElectroDeal24 | MeinPaket
30.07.2014, 00:30 -10.86% InLine VGA-Kabel Stecker/Buchse, 15m (17711B) um €11,98 (statt: €13,44) bei ElectroDeal24 | MeinPaket
30.07.2014, 00:30 -11.61% Netzwerkkabel ausgekreuzt RJ-45 7.0m/7.5m einfach geschirmt grau (bis Cat5e) um €0,99 (statt: €1,12) bei ElectroDeal24 | MeinPaket
30.07.2014, 00:30 -10.94% InLine VGA-Kabel Stecker/Stecker, 3.0m (17712A) um €2,85 (statt: €3,20) bei ElectroDeal24 | MeinPaket
30.07.2014, 00:30 -6.36% InLine VGA-Kabel Stecker/Stecker, 15m (17713B) um €12,37 (statt: €13,21) bei ElectroDeal24 | MeinPaket
30.07.2014, 00:30 -12.24% InLine Cinch Kabel 5m gelb (89937L) um €1,29 (statt: €1,47) bei ElectroDeal24 | MeinPaket
30.07.2014, 00:30 -11.57% Netzwerkkabel ausgekreuzt RJ-45 5.0m einfach geschirmt grau (Cat6) um €2,98 (statt: €3,37) bei ElectroDeal24 | MeinPaket
30.07.2014, 00:30 -12.00% InLine 3.5mm Klinke Stecker/Stecker schwarz 5m (99936B) um €1,32 (statt: €1,50) bei ElectroDeal24 | MeinPaket
30.07.2014, 00:30 -1.43% InLine HDMI/DVI Kabel 10m (17666E) um €17,94 (statt: €18,20) bei ElectroDeal24 | MeinPaket
30.07.2014, 00:30 -22.58% InLine Slotblech mit 9-pol Sub D Aussparung, Low Profile, bulk (33208A) um €0,96 (statt: €1,24) bei ElectroDeal24 | MeinPaket
30.07.2014, 00:30 -5.18% InLine HDMI/DVI Kabel 3m (17663E) um €4,94 (statt: €5,21) bei ElectroDeal24 | MeinPaket
30.07.2014, 00:30 -2.37% InLine High Speed HDMI Kabel 10m (17610E) um €18,91 (statt: €19,37) bei ElectroDeal24 | MeinPaket
30.07.2014, 00:30 -11.54% InLine High Speed HDMI Kabel 3m (17603E) um €4,37 (statt: €4,94) bei ElectroDeal24 | MeinPaket
30.07.2014, 00:30 -11.34% InLine WLAN R-SMA Stecker, Crimpversion, Gold Kontakte, für RG 174/U Kabel (40813) um €1,72 (statt: €1,94) bei ElectroDeal24 | MeinPaket
30.07.2014, 00:30 -11.68% InLine WLAN SMA Buchse zu SMA Buchse (40810) um €1,74 (statt: €1,97) bei ElectroDeal24 | MeinPaket
30.07.2014, 00:30 -12.35% InLine PS/2 Verlängerung Stecker auf Buchse 2m, PC99, schwarz/violett (13342W) um €1,49 (statt: €1,70) bei ElectroDeal24 | MeinPaket
30.07.2014, 00:30 -12.17% InLine PS/2 Verlängerung Stecker auf Buchse 2m, PC99, schwarz/grün (13342H) um €1,66 (statt: €1,89) bei ElectroDeal24 | MeinPaket
30.07.2014, 00:30 -4.34% ATEN UCE60 USB-Extender, USB 1.1 um €6,62 (statt: €6,92) bei ElectroDeal24 | MeinPaket
30.07.2014, 00:30 -29.00% InLine USB 2.0 Adapter, Stecker A auf Buchse B (33443A) um €0,71 (statt: €1,--) bei ElectroDeal24 | MeinPaket
30.07.2014, 00:30 -23.08% InLine USB 2.0 Adapter, Buchse A auf Mini 5-pol Stecker (33500B) um €0,80 (statt: €1,04) bei ElectroDeal24 | MeinPaket
30.07.2014, 00:30 -5.44% InLine LWL Duplex Kabel, LC/SC 50/125µm, 3m (88643) um €7,13 (statt: €7,54) bei ElectroDeal24 | MeinPaket
30.07.2014, 00:30 -5.35% InLine High Speed HDMI Kabel 5m (17605) um €5,66 (statt: €5,98) bei ElectroDeal24 | MeinPaket
30.07.2014, 00:30 -6.31% InLine LWL Duplex Kabel, LC/ST 50/125µm, 10m (88510) um €10,69 (statt: €11,41) bei ElectroDeal24 | MeinPaket
30.07.2014, 00:30 -4.61% InLine LWL Duplex Kabel, LC/ST 50/125µm, 20m (88520) um €14,89 (statt: €15,61) bei ElectroDeal24 | MeinPaket
30.07.2014, 00:30 -12.18% InLine PS/2 Verlängerung Stecker auf Buchse 2m, PC99, grau/grün (13342G) um €1,37 (statt: €1,56) bei ElectroDeal24 | MeinPaket
30.07.2014, 00:30 -11.35% Ansmann X-Power Mignon AA LR6, Alkali, 1.5V, 4er-Pack Shrink (5015681) um €1,25 (statt: €1,41) bei ElectroDeal24 | MeinPaket
30.07.2014, 00:30 -30.77% InLine USB 2.0 Adapter, Buchse B auf Buchse B (33400) um €0,90 (statt: €1,30) bei ElectroDeal24 | MeinPaket
30.07.2014, 00:30 -25.35% InLine USB 2.0 Adapter, Buchse A auf Buchse B (33500) um €1,06 (statt: €1,42) bei ElectroDeal24 | MeinPaket
30.07.2014, 00:30 -28.68% InLine USB 2.0 Adapter, Buchse A auf Buchse A (33300) um €0,92 (statt: €1,29) bei ElectroDeal24 | MeinPaket
30.07.2014, 00:30 -25.96% InLine USB 2.0 Adapter, Buchse A auf Stecker B (33442) um €0,77 (statt: €1,04) bei ElectroDeal24 | MeinPaket
30.07.2014, 00:30 -2.53% Netzwerkkabel RJ-45 1.0m doppelt geschirmt blau (bis Cat5e) um €0,77 (statt: €0,79) bei ElectroDeal24 | MeinPaket
30.07.2014, 00:30 -5.66% InLine LWL Duplex Kabel, ST/SC, 50/125µm, 5m (82505) um €7,50 (statt: €7,95) bei ElectroDeal24 | MeinPaket
30.07.2014, 00:30 -4.72% InLine LWL Duplex Kabel, SC/SC 50/125µm, 3m (83503) um €6,87 (statt: €7,21) bei ElectroDeal24 | MeinPaket
30.07.2014, 00:30 -6.42% InLine LWL Duplex Kabel, SC/SC 50/125µm, 10m (83510) um €9,92 (statt: €10,60) bei ElectroDeal24 | MeinPaket
30.07.2014, 00:30 -11.34% InLine 3.5mm Klinke Verlängerungskabel schwarz 5m (99935) um €1,72 (statt: €1,94) bei ElectroDeal24 | MeinPaket
30.07.2014, 00:30 -12.00% InLine PS/2 Verlängerung Stecker auf Buchse 2m, weiß (13342) um €1,32 (statt: €1,50) bei ElectroDeal24 | MeinPaket
30.07.2014, 00:30 -1.20% Allnet ALL1579, USB 2.0 um €6,57 (statt: €6,65) bei ElectroDeal24 | MeinPaket
30.07.2014, 00:30 -11.74% InLine VGA-Kabel Stecker/Buchse, 2.0m (17732) um €2,48 (statt: €2,81) bei ElectroDeal24 | MeinPaket
30.07.2014, 00:30 -6.77% InLine VGA-Kabel Stecker/Buchse, 5.0m (17735) um €3,72 (statt: €3,99) bei ElectroDeal24 | MeinPaket
30.07.2014, 00:30 -7.56% InLine VGA-Kabel Stecker/Stecker, 2.0m (17712) um €2,69 (statt: €2,91) bei ElectroDeal24 | MeinPaket
30.07.2014, 00:30 -6.90% InLine VGA-Kabel Stecker/Buchse, 20m (17721) um €20,77 (statt: €22,31) bei ElectroDeal24 | MeinPaket
30.07.2014, 00:30 -3.16% Diverse RS-232-Kabel 9-pol-Stecker/9-pol-Buchse um €0,92 (statt: €0,95) bei ElectroDeal24 | MeinPaket
30.07.2014, 00:30 -2.03% Diverse Netzteiltester um €2,89 (statt: €2,95) bei ElectroDeal24 | MeinPaket
30.07.2014, 00:30 -4.01% DeLOCK Einbausatz 3.5" für 2x 2.5" SATA HDD (18164) um €12,93 (statt: €13,47) bei ElectroDeal24 | MeinPaket
30.07.2014, 00:30 -5.56% Delock 87588 um €8,16 (statt: €8,64) bei ElectroDeal24 | MeinPaket
30.07.2014, 00:30 -7.17% DeLOCK USB 2.0 Hub, 4-port (87461) um €4,14 (statt: €4,46) bei ElectroDeal24 | MeinPaket
30.07.2014, 00:30 -1.02% DeLock 86229 Medien Konverter, 100Base-T auf 100Base-FX um €29,21 (statt: €29,51) bei ElectroDeal24 | MeinPaket
30.07.2014, 00:30 -4.63% DeLock interne 200mm I-PEX 701 Notebook-Antenne 3dBi, 2.4GHz (86151) um €3,50 (statt: €3,67) bei ElectroDeal24 | MeinPaket
30.07.2014, 00:30 -4.63% DeLock interne 85mm I-PEX 803 Notebook-Antenne 3dBi, 2.4GHz (86137) um €3,50 (statt: €3,67) bei ElectroDeal24 | MeinPaket
30.07.2014, 00:30 -1.81% DeLOCK SATA All-in-One Kabel 0.3m, Slimline (Buchse) (84390) um €2,71 (statt: €2,76) bei ElectroDeal24 | MeinPaket
30.07.2014, 00:30 -6.23% DeLOCK DVI-D Dual Link Kabel 1.8m (84345) um €9,79 (statt: €10,44) bei ElectroDeal24 | MeinPaket
30.07.2014, 00:30 -25.45% DeLOCK SATA Kabel rot 0.7m mit Arretierung, gerade/gerade (84301) um €0,82 (statt: €1,10) bei ElectroDeal24 | MeinPaket
30.07.2014, 00:30 -13.25% DeLOCK RS-232-Kabel 9-pol-Stecker/9-pol-Buchse, 5m (84016) um €2,16 (statt: €2,49) bei ElectroDeal24 | MeinPaket
30.07.2014, 00:30 -5.82% DeLOCK USB 2.0 Kabel A/Micro-B 1m, gewinkelt 90° (83147) um €1,78 (statt: €1,89) bei ElectroDeal24 | MeinPaket
30.07.2014, 00:30 -5.20% DeLock mini SAS (SFF-8087) auf 4x SATA, 1m (83074) um €11,84 (statt: €12,49) bei ElectroDeal24 | MeinPaket
30.07.2014, 00:30 -14.79% DeLOCK DisplayPort Verlängerungskabel 2m (82997) um €5,53 (statt: €6,49) bei ElectroDeal24 | MeinPaket
30.07.2014, 00:30 -5.43% DeLOCK High Speed HDMI Kabel mit Ethernet und gewinkeltem Stecker grün 5m (82954) um €6,62 (statt: €7,--) bei ElectroDeal24 | MeinPaket
30.07.2014, 00:30 -5.21% DeLOCK USB 3.0 Y-Kabel, 2x A/Micro-B (82909) um €5,64 (statt: €5,95) bei ElectroDeal24 | MeinPaket
30.07.2014, 00:30 -5.68% DeLOCK SATA 6Gb/s Kabel gelb 0.1m, gerade/gerade (82797) um €0,83 (statt: €0,88) bei ElectroDeal24 | MeinPaket
30.07.2014, 00:30 -68.24% DeLOCK SATA 6Gb/s Kabel schwarz 0.1m, gerade/gerade (82780) um €0,54 (statt: €1,70) bei ElectroDeal24 | MeinPaket
30.07.2014, 00:30 -9.05% DeLOCK Premium DisplayPort Kabel 2m (82771) um €10,45 (statt: €11,49) bei ElectroDeal24 | MeinPaket
30.07.2014, 00:30 -2.69% DeLOCK USB 2.0-Kabel A/B, aktiv 15m (82734) um €14,49 (statt: €14,89) bei ElectroDeal24 | MeinPaket
30.07.2014, 00:30 -21.84% DeLOCK SATA Kabel rot 0.5m mit Arretierung, rechts/unten (82627) um €0,68 (statt: €0,87) bei ElectroDeal24 | MeinPaket
30.07.2014, 00:30 -26.50% DeLOCK SATA Kabel rot 1m mit Arretierung, links/gerade (82605) um €0,86 (statt: €1,17) bei ElectroDeal24 | MeinPaket
30.07.2014, 00:30 -19.19% DeLOCK FireWire 800 IEEE-1394b Kabel 9-Pin/9-Pin, 3.0m (82600) um €4,76 (statt: €5,89) bei ElectroDeal24 | MeinPaket
30.07.2014, 00:30 -24.34% DeLOCK FireWire 800 IEEE-1394b Kabel 9-Pin/4-Pin, 1m (82588) um €2,86 (statt: €3,78) bei ElectroDeal24 | MeinPaket
30.07.2014, 00:30 -4.45% DeLOCK SVGA Stecker/Stecker Kabel 10m (82560) um €9,66 (statt: €10,11) bei ElectroDeal24 | MeinPaket
30.07.2014, 00:30 -16.46% DeLOCK SATA Kabel gelb 0.5m mit Arretierung, unten/gerade (82479) um €0,66 (statt: €0,79) bei ElectroDeal24 | MeinPaket
30.07.2014, 00:30 -6.90% DeLOCK DisplayPort/High Speed HDMI Kabel 3m (82435) um €12,-- (statt: €12,89) bei ElectroDeal24 | MeinPaket
30.07.2014, 00:30 -1.61% DeLOCK HDMI Mikro-D/VGA Adapter, schwarz (65513) um €18,39 (statt: €18,69) bei ElectroDeal24 | MeinPaket
30.07.2014, 00:30 -7.06% DeLOCK Adapter Sub-D 25-Pin Buchse auf 27-Pin-Terminalblock Adapter (65317) um €7,63 (statt: €8,21) bei ElectroDeal24 | MeinPaket
30.07.2014, 00:30 -12.04% DeLOCK Adapter Seriell, Buchse/Stecker, gewinkelt 90° (65266) um €2,63 (statt: €2,99) bei ElectroDeal24 | MeinPaket
30.07.2014, 00:30 -17.20% DeLOCK VGA Adapter, Buchse/Stecker, oben gewinkelt 90° (65247) um €3,37 (statt: €4,07) bei ElectroDeal24 | MeinPaket
30.07.2014, 00:30 -7.75% DeLOCK 61828, 2x USB 3.0 um €11,90 (statt: €12,90) bei ElectroDeal24 | MeinPaket
30.07.2014, 00:30 -6.23% DeLOCK USB 2.0 Hub, 4-port (61724) um €4,82 (statt: €5,14) bei ElectroDeal24 | MeinPaket
30.07.2014, 00:30 -15.93% Navilock TMC Kurzstabantenne 2.5mm (61688) um €8,39 (statt: €9,98) bei ElectroDeal24 | MeinPaket
30.07.2014, 00:30 -2.24% Navilock NL-601US GPS/Galileo Empfänger (61840) um €31,82 (statt: €32,55) bei ElectroDeal24 | MeinPaket
30.07.2014, 00:30 -2.57% DeLOCK Mini Speicherstick 16GB, USB 3.0 (54506) um €25,44 (statt: €26,11) bei ElectroDeal24 | MeinPaket
30.07.2014, 00:30 -17.51% DeLOCK extern/intern USB 2.0-Konverter (41820) um €3,77 (statt: €4,57) bei ElectroDeal24 | MeinPaket
30.07.2014, 00:30 -3.21% DeLOCK USB Nummernblock/Cardreader/2x USB 2.0 Port, USB (12370) um €15,99 (statt: €16,52) bei ElectroDeal24 | MeinPaket
30.07.2014, 00:30 -27.61% DeLOCK Nummernblock, USB (12369) um €7,89 (statt: €10,90) bei ElectroDeal24 | MeinPaket
30.07.2014, 00:30 -13.26% takeMS MEM-Drive Easy III 8GB, USB 3.0 (TMS8GU3EA31R03) um €11,71 (statt: €13,50) bei ElectroDeal24 | MeinPaket
30.07.2014, 00:30 -20.48% Wortmann Terra Type Cover Pad 1160, DE um €70,01 (statt: €88,04) bei ElectroDeal24 | MeinPaket
30.07.2014, 00:30 -9.29% Cherry KC 1000, schwarz, USB, ES (JK-0800ES-2) um €8,89 (statt: €9,80) bei ElectroDeal24 | MeinPaket
30.07.2014, 00:30 -20.32% Vodafone 236 um €17,02 (statt: €21,36) bei ElectroDeal24 | MeinPaket
30.07.2014, 00:30 -4.95% Hyundai BP-D125 Akku um €15,56 (statt: €16,37) bei ElectroDeal24 | MeinPaket
30.07.2014, 00:30 -34.59% Hyundai MB-D125 um €15,56 (statt: €23,79) bei ElectroDeal24 | MeinPaket
30.07.2014, 00:30 -37.72% Toshiba PA3928U-1BRS Li-Ionen-Akku um €84,03 (statt: €134,92) bei ElectroDeal24 | MeinPaket
30.07.2014, 00:30 -17.48% Apple MB771G/A Li-Polymer-Akku um €90,53 (statt: €109,71) bei ElectroDeal24 | MeinPaket
30.07.2014, 00:30 -33.72% Toshiba PA3475U-1BRS Li-Ionen-Akku um €95,77 (statt: €144,49) bei ElectroDeal24 | MeinPaket
30.07.2014, 00:30 -29.24% Kompatibler Akku zu Acer BT.A2903.001/LC.BTP05.003 um €99,05 (statt: €139,99) bei ElectroDeal24 | MeinPaket
30.07.2014, 00:30 -40.10% Acer LC.BTP00.004 Li-Ionen-Akku um €65,16 (statt: €108,79) bei ElectroDeal24 | MeinPaket
30.07.2014, 00:30 -21.92% Fujitsu 805N00042 Li-Ionen-Akku um €88,81 (statt: €113,74) bei ElectroDeal24 | MeinPaket
30.07.2014, 00:30 -20.32% Fujitsu 805N00040 Li-Ionen-Akku um €97,30 (statt: €122,11) bei ElectroDeal24 | MeinPaket
30.07.2014, 00:30 -26.27% Acer LC.BTP01.005 Li-Ionen-Akku um €82,03 (statt: €111,25) bei ElectroDeal24 | MeinPaket
30.07.2014, 00:30 -20.32% Issam Li-Ionen-Akku für Smartbook i-8640 um €103,71 (statt: €130,15) bei ElectroDeal24 | MeinPaket
30.07.2014, 00:30 -5.35% Kompatibler Akku zu Toshiba PA3395U-1BRS um €88,65 (statt: €93,66) bei ElectroDeal24 | MeinPaket
30.07.2014, 00:30 -37.21% Toshiba PA3191U-5BRS Li-Ionen-Akku um €60,64 (statt: €96,58) bei ElectroDeal24 | MeinPaket
30.07.2014, 00:30 -5.56% Kompatibler Akku zu Acer BT.A0201.001 um €97,76 (statt: €103,52) bei ElectroDeal24 | MeinPaket
30.07.2014, 00:30 -20.38% Kompatibler Akku zu LG Electronics IP-750A um €18,05 (statt: €22,67) bei ElectroDeal24 | MeinPaket
30.07.2014, 00:30 -4.95% Nokia 1112 um €15,56 (statt: €16,37) bei ElectroDeal24 | MeinPaket
30.07.2014, 00:30 -28.23% Canon Selphy CP-710 (0325A008) um €63,95 (statt: €89,10) bei ElectroDeal24 | MeinPaket
30.07.2014, 00:30 -2.65% Panasonic VW-VBJ10 Li-Ionen-Akku um €19,46 (statt: €19,99) bei ElectroDeal24 | MeinPaket
30.07.2014, 00:30 -11.60% LG Electronics SBPL0098301 Akku um €24,30 (statt: €27,49) bei ElectroDeal24 | MeinPaket
30.07.2014, 00:30 -34.11% Sagem my150X um €18,97 (statt: €28,79) bei ElectroDeal24 | MeinPaket
30.07.2014, 00:30 -20.38% Samsung AB394635CE Akku um €18,05 (statt: €22,67) bei ElectroDeal24 | MeinPaket
30.07.2014, 00:30 -35.47% Kompatibler Akku zu Sony NP-55/NP-66/NP-68/NP-77/NP-98 um €3,22 (statt: €4,99) bei ElectroDeal24 | MeinPaket
30.07.2014, 00:30 -4.95% Rocco Relaxx um €16,52 (statt: €17,38) bei ElectroDeal24 | MeinPaket
30.07.2014, 00:30 -18.28% Samsung AA-PLAN6AB Li-Ionen-Akku um €84,20 (statt: €103,04) bei ElectroDeal24 | MeinPaket
30.07.2014, 00:30 -43.00% T-Mobile/Telekom LG Electronics L5100 (versch. Verträge) um €17,02 (statt: €29,86) bei ElectroDeal24 | MeinPaket
30.07.2014, 00:30 -39.57% Dicota Rythm Tragbares Lautsprechersystem schwarz, 2.1 System (Z24658Z) um €15,27 (statt: €25,27) bei ElectroDeal24 | MeinPaket
30.07.2014, 00:30 -3.13% Bachmann Smart rot 3-fach, 3m (388.371) um €6,49 (statt: €6,70) bei ElectroDeal24 | MeinPaket
30.07.2014, 00:30 -5.85% Ansmann CR123A Photo Lithium 3V (5020012) um €1,93 (statt: €2,05) bei ElectroDeal24 | MeinPaket
30.07.2014, 00:30 -14.92% Ansmann WiLax Case für Apple iPhone 3G/3GS (1700-0003) um €20,36 (statt: €23,93) bei ElectroDeal24 | MeinPaket
30.07.2014, 00:30 -6.19% Varta Longlife Extra 9V, Alkali (4122-101-411) um €1,06 (statt: €1,13) bei ElectroDeal24 | MeinPaket
30.07.2014, 00:30 -1.35% Axis 5005-041, Deckenhalterung um €44,55 (statt: €45,16) bei ElectroDeal24 | MeinPaket
30.07.2014, 00:30 -1.48% LenovoEMC StorCenter px4-400d 8TB, 2x Gb LAN (70CM9001NA) um €744,72 (statt: €755,94) bei ElectroDeal24 | MeinPaket
30.07.2014, 00:30 -5.71% Lenovo ThinkPad T530, Core i5-3320M, 4GB RAM, 320GB, WXGA (N1E22GE) um €1390,43 (statt: €1474,66) bei ElectroDeal24 | MeinPaket
30.07.2014, 00:30 -6.39% HP X240 SFP+ Direct Attach Kabel, 5m (JG081C) um €159,13 (statt: €169,99) bei ElectroDeal24 | MeinPaket
30.07.2014, 00:30 -1.61% HP X240 40GBase QSFP+ Direct Attach Kabel, 5m (JG328A) um €311,88 (statt: €316,99) bei ElectroDeal24 | MeinPaket
30.07.2014, 00:30 -7.58% HP 5920AF-24XG Lüftereinschub, Luftstrom von vorne nach hinten (JG298A) um €114,56 (statt: €123,95) bei ElectroDeal24 | MeinPaket
30.07.2014, 00:30 -20.46% HP CC06XL Li-Ionen-Akku (QK642AA) um €34,52 (statt: €43,40) bei ElectroDeal24 | MeinPaket
30.07.2014, 00:30 -6.07% HP ProCurve Switch 2510-48, 48-Port, managed (J9020A) um €350,07 (statt: €372,70) bei ElectroDeal24 | MeinPaket
30.07.2014, 00:30 -2.97% D-Link DES-108, 8-Port um €12,07 (statt: €12,44) bei ElectroDeal24 | MeinPaket
30.07.2014, 00:30 -7.59% Krusell FrostCover für Apple iPhone 5C grün (89912) um €12,42 (statt: €13,44) bei ElectroDeal24 | MeinPaket
30.07.2014, 00:30 -7.78% Krusell FrostCover für Apple iPhone 5C weiß (89907) um €5,69 (statt: €6,17) bei ElectroDeal24 | MeinPaket
30.07.2014, 00:30 -43.42% Hama NaviBag S2 universell Leder (88511) um €4,47 (statt: €7,90) bei ElectroDeal24 | MeinPaket
30.07.2014, 00:30 -8.04% Netzwerkkabel RJ-45 0.5m ungeschirmt braun (bis Cat5e) um €1,83 (statt: €1,99) bei ElectroDeal24 | MeinPaket
30.07.2014, 00:30 -37.86% Netzwerkkabel RJ-45 1.5m ungeschirmt rosa (Cat6) um €4,94 (statt: €7,95) bei ElectroDeal24 | MeinPaket
30.07.2014, 00:30 -38.41% Netzwerkkabel RJ-45 1.0m ungeschirmt rosa (Cat6) um €4,25 (statt: €6,90) bei ElectroDeal24 | MeinPaket
30.07.2014, 00:30 -16.00% Netzwerkkabel ausgekreuzt RJ-45 3.0m ungeschirmt rot (Cat6) um €5,04 (statt: €6,--) bei ElectroDeal24 | MeinPaket
30.07.2014, 00:30 -7.51% Netzwerkkabel ausgekreuzt RJ-45 7.0m/7.5m ungeschirmt schwarz (Cat6) um €9,61 (statt: €10,39) bei ElectroDeal24 | MeinPaket
30.07.2014, 00:30 -36.12% Netzwerkkabel ausgekreuzt RJ-45 3.0m ungeschirmt schwarz (Cat6) um €5,04 (statt: €7,89) bei ElectroDeal24 | MeinPaket
30.07.2014, 00:30 -3.71% Netzwerkkabel ausgekreuzt RJ-45 7.0m/7.5m ungeschirmt blau (Cat6) um €9,61 (statt: €9,98) bei ElectroDeal24 | MeinPaket
30.07.2014, 00:30 -14.58% Netzwerkkabel ausgekreuzt RJ-45 7.0m/7.5m ungeschirmt blau (bis Cat5e) um €5,86 (statt: €6,86) bei ElectroDeal24 | MeinPaket
30.07.2014, 00:30 -38.60% Netzwerkkabel ausgekreuzt RJ-45 1.0m ungeschirmt blau (bis Cat5e) um €2,02 (statt: €3,29) bei ElectroDeal24 | MeinPaket
30.07.2014, 00:30 -18.01% DeLOCK USB 2.0 micro-B (Stecker) auf USB 2.0-A (Buchse) (83183) um €2,64 (statt: €3,22) bei ElectroDeal24 | MeinPaket
30.07.2014, 00:30 -36.35% Kompatibler Akku zu Toshiba PA3084U-1BRS/PA3176U-1BRS um €12,73 (statt: €20,--) bei ElectroDeal24 | MeinPaket
30.07.2014, 00:30 -10.36% Belkin Fiber Channel Kabel Multimode Duplex 1m (F2F40207-01M) um €10,56 (statt: €11,78) bei ElectroDeal24 | MeinPaket
30.07.2014, 00:30 -1.74% Belkin Fiber Channel Kabel Multimode Duplex 1m (F2F20297-01M) um €13,57 (statt: €13,81) bei ElectroDeal24 | MeinPaket
30.07.2014, 00:30 -47.35% Belkin Fiber Channel Kabel Multimode Duplex 3m (F2F402L0-03M) um €14,03 (statt: €26,65) bei ElectroDeal24 | MeinPaket
30.07.2014, 00:30 -8.90% Belkin OmniView Pro Daisy-Chain Kabel (F1D108-CBL) um €7,88 (statt: €8,65) bei ElectroDeal24 | MeinPaket
30.07.2014, 00:30 -12.43% Netzwerkkabel ausgekreuzt RJ-45 10m ungeschirmt gelb (bis Cat5e) um €3,24 (statt: €3,70) bei ElectroDeal24 | MeinPaket
30.07.2014, 00:30 -12.66% Netzwerkkabel ausgekreuzt RJ-45 3.0m ungeschirmt gelb (bis Cat5e) um €1,38 (statt: €1,58) bei ElectroDeal24 | MeinPaket
30.07.2014, 00:30 -10.53% Netzwerkkabel ausgekreuzt RJ-45 2.0m ungeschirmt gelb (bis Cat5e) um €1,02 (statt: €1,14) bei ElectroDeal24 | MeinPaket
30.07.2014, 00:30 -1.11% Intel Wireless-N 7260, PCIe Mini Card (7260.HMWNBWB) um €15,13 (statt: €15,30) bei ElectroDeal24 | MeinPaket
30.07.2014, 00:30 -6.94% Supermicro 504-203B schwarz, 1HE, 200W, Mini-ITX um €69,89 (statt: €75,10) bei ElectroDeal24 | MeinPaket
30.07.2014, 00:30 -1.05% Netzwerkkabel ausgekreuzt RJ-45 3.0m doppelt geschirmt grau (Cat6) um €1,88 (statt: €1,90) bei ElectroDeal24 | MeinPaket
30.07.2014, 00:30 -3.92% Netzwerkkabel ausgekreuzt RJ-45 0.5m doppelt geschirmt schwarz (Cat6) um €0,98 (statt: €1,02) bei ElectroDeal24 | MeinPaket
30.07.2014, 00:30 -49.47% Netzwerkkabel ausgekreuzt RJ-45 2.0m doppelt geschirmt grau (bis Cat5e) um €0,96 (statt: €1,90) bei ElectroDeal24 | MeinPaket
30.07.2014, 00:30 -57.22% Netzwerkkabel ausgekreuzt RJ-45 1.0m doppelt geschirmt grau (bis Cat5e) um €0,77 (statt: €1,80) bei ElectroDeal24 | MeinPaket
30.07.2014, 00:30 -2.93% Netzwerkkabel ausgekreuzt RJ-45 15m doppelt geschirmt grau (bis Cat5e) um €4,30 (statt: €4,43) bei ElectroDeal24 | MeinPaket
30.07.2014, 00:30 -27.01% KingSpec 64GB, IDE (KSD-PA25.1-064MJ) um €91,99 (statt: €126,03) bei CM3-Computer OHG | MeinPaket
30.07.2014, 00:30 -5.88% KingSpec 128GB, IDE (KSD-PA25.1-128MJ) um €147,19 (statt: €156,39) bei CM3-Computer OHG | MeinPaket
30.07.2014, 00:30 -43.33% KingSpec 128GB, IDE (KSD-PA25.1-128MJ) um €156,39 (statt: €275,99) bei CM3-Computer OHG | MeinPaket
30.07.2014, 00:30 -23.89% KingSpec 64GB, IDE (KSD-PA25.1-064MJ) um €126,03 (statt: €165,59) bei CM3-Computer OHG | MeinPaket
30.07.2014, 00:30 -6.89% Diverse Schnittstellenkarten 1x parallel, PC Card um €13,79 (statt: €14,81) bei CM3-Computer OHG | MeinPaket
30.07.2014, 00:30 -8.01% WESC Piccolo blau um €27,55 (statt: €29,95) bei Kiebay GbR Shop
30.07.2014, 00:30 -8.01% WESC Maraca seasonal cypress um €30,31 (statt: €32,95) bei Kiebay GbR Shop
30.07.2014, 00:30 -2.29% Philips SHO4200 O'Neill The Bend blau/gelb um €23,45 (statt: €24,--) bei Kiebay GbR Shop
30.07.2014, 00:30 -20.04% Denver MPG-4044 4GB (versch. Farben) um €18,35 (statt: €22,95) bei Kiebay GbR Shop
30.07.2014, 00:30 -4.92% Denver SP-6 violett um €18,35 (statt: €19,30) bei Kiebay GbR Shop
30.07.2014, 00:30 -4.92% Denver SP-6 rot um €18,35 (statt: €19,30) bei Kiebay GbR Shop
30.07.2014, 00:30 -6.22% Denver MC-5000 pink um €30,90 (statt: €32,95) bei Kiebay GbR Shop
30.07.2014, 00:30 -8.10% Carrera Spongebob Probrush Kids Batteriezahnbürste (9314022) um €8,17 (statt: €8,89) bei Kiebay GbR Shop
30.07.2014, 00:30 -8.00% Petra KM27.07 um €17,93 (statt: €19,49) bei Kiebay GbR Shop
30.07.2014, 00:30 -8.00% Noreve Tradition Ledercase für Cowon D2 (versch. Farben) (7802) um €12,88 (statt: €14,--) bei Babyzeiten
30.07.2014, 00:30 -2.56% Vizyon Fernbedienung (versch. Ausführungen) um €12,57 (statt: €12,90) bei Egesat GmbH Shop
30.07.2014, 00:30 -12.61% Skandika Vorzelt für das Gotland 5 Familienzelt um €95,26 (statt: €109,--) bei MAX Trader GmbH | Meinpaket
30.07.2014, 00:30 -12.60% Skandika Esbjerg Travel 4 Buszelt um €235,10 (statt: €269,--) bei MAX Trader GmbH | Meinpaket
30.07.2014, 00:30 -12.61% Skandika Drammen 4 Familienzelt um €87,35 (statt: €99,95) bei MAX Trader GmbH | Meinpaket
30.07.2014, 00:30 -12.60% Skandika Bergen 4 Familienzelt um €131,05 (statt: €149,95) bei MAX Trader GmbH | Meinpaket
30.07.2014, 00:30 -12.60% Skandika Manhattan 5 Familienzelt um €550,53 (statt: €629,90) bei MAX Trader GmbH | Meinpaket
30.07.2014, 00:30 -2.87% Skandika Vancouver Familienzelt um €567,22 (statt: €583,98) bei MAX Trader GmbH | Meinpaket
30.07.2014, 00:30 -12.60% Skandika Camper Tramp Buszelt um €152,86 (statt: €174,90) bei MAX Trader GmbH | Meinpaket
30.07.2014, 00:30 -12.60% Skandika Palermo Familienzelt um €348,72 (statt: €399,--) bei MAX Trader GmbH | Meinpaket
30.07.2014, 00:30 -12.33% Skandika Gotland 5 Familienzelt um €279,68 (statt: €319,--) bei MAX Trader GmbH | Meinpaket
30.07.2014, 00:30 -12.60% Skandika Bergamo 5 Familienzelt um €122,27 (statt: €139,90) bei MAX Trader GmbH | Meinpaket
30.07.2014, 00:30 -12.22% Skandika Canyon II Familienzelt um €202,62 (statt: €230,83) bei MAX Trader GmbH | Meinpaket
30.07.2014, 00:30 -7.01% High Peak Isola 4 Familienzelt um €232,44 (statt: €249,95) bei MAX Trader GmbH | Meinpaket
30.07.2014, 00:30 -4.48% High Peak Santiago 5 Kuppelzelt um €152,73 (statt: €159,90) bei MAX Trader GmbH | Meinpaket
30.07.2014, 00:30 -7.14% High Peak Ancona 5 Kuppelzelt um €134,55 (statt: €144,90) bei MAX Trader GmbH | Meinpaket
30.07.2014, 00:30 -12.60% High Peak Caurus 5 Familienzelt um €148,53 (statt: €169,95) bei MAX Trader GmbH | Meinpaket
30.07.2014, 00:30 -12.60% High Peak Caurus 4 Familienzelt um €139,80 (statt: €159,96) bei MAX Trader GmbH | Meinpaket
30.07.2014, 00:30 -6.31% Trussardi Skin Body Lotion 200ml um €30,59 (statt: €32,65) bei Ocean of Smells | MeinPaket
30.07.2014, 00:30 -6.27% Sonia Rykiel Eau de Toilette 50ml um €29,90 (statt: €31,90) bei Ocean of Smells | MeinPaket
30.07.2014, 00:30 -6.60% Rochas Tocadilly Eau de Toilette 100ml um €36,80 (statt: €39,40) bei Ocean of Smells | MeinPaket
30.07.2014, 00:30 -6.17% Lalique Femme Eau de Toilette 100ml um €27,96 (statt: €29,80) bei Ocean of Smells | MeinPaket
30.07.2014, 00:30 -6.16% La Perla Parfum Prive Body Lotion 200ml um €28,01 (statt: €29,85) bei Ocean of Smells | MeinPaket
30.07.2014, 00:30 -7.41% Floris London Night Scented Jasmine Bouquet Eau de Toilette 100ml um €86,48 (statt: €93,40) bei Ocean of Smells | MeinPaket
30.07.2014, 00:30 -6.43% Armand Basi In Red Eau de Toilette 50ml um €32,61 (statt: €34,85) bei Ocean of Smells | MeinPaket
30.07.2014, 00:30 -6.11% Gai Mattiolo Donna Eau de Toilette 50ml um €27,03 (statt: €28,79) bei Ocean of Smells | MeinPaket
30.07.2014, 00:30 -5.81% La Perla Blue Bain Moussant Bath & Shower Gel 200ml um €23,36 (statt: €24,80) bei Ocean of Smells | MeinPaket
30.07.2014, 00:30 -5.74% Aquolina Pink Sugar Body Gel 250ml um €23,-- (statt: €24,40) bei Ocean of Smells | MeinPaket
30.07.2014, 00:30 -7.08% Krizia Moods Woman Eau de Toilette 50ml um €55,61 (statt: €59,85) bei Ocean of Smells | MeinPaket
30.07.2014, 00:30 -7.26% Etienne Aigner In Leather Woman Duftset um €68,44 (statt: €73,80) bei Ocean of Smells | MeinPaket
30.07.2014, 00:30 -6.01% Jean-Charles Brosseau Ombre Rose Eau de Toilette 50ml um €25,66 (statt: €27,30) bei Ocean of Smells | MeinPaket
30.07.2014, 00:30 -5.58% Jean-Charles Brosseau Ombre Rose Eau de Toilette 30ml um €21,34 (statt: €22,60) bei Ocean of Smells | MeinPaket
30.07.2014, 00:30 -6.60% Costume National Intense Body Lotion 200ml um €36,24 (statt: €38,80) bei Ocean of Smells | MeinPaket
30.07.2014, 00:30 -2.49% Cacharel Liberté Eau de Toilette 75ml um €73,13 (statt: €75,--) bei Ocean of Smells | MeinPaket
30.07.2014, 00:30 -7.51% Escada Sunny Frutti Eau de Toilette 100ml um €103,77 (statt: €112,20) bei Ocean of Smells | MeinPaket
30.07.2014, 00:30 -7.45% Caron Eaux de Caron Forte Eau de Toilette 200ml um €92,41 (statt: €99,85) bei Ocean of Smells | MeinPaket
30.07.2014, 00:30 -5.81% Caron Eaux de Caron Forte Eau de Toilette 100ml um €23,36 (statt: €24,80) bei Ocean of Smells | MeinPaket
30.07.2014, 00:30 -7.63% Pierre Balmain Vent Vert Eau de Toilette 100ml um €138,41 (statt: €149,85) bei Ocean of Smells | MeinPaket
30.07.2014, 00:30 -6.16% Ted Lapidus Fou d'Elle Eau de Toilette 50ml um €28,01 (statt: €29,85) bei Ocean of Smells | MeinPaket
30.07.2014, 00:30 -6.89% Kenzo Kashâya Eau de Toilette 75ml um €45,44 (statt: €48,80) bei Ocean of Smells | MeinPaket
30.07.2014, 00:30 -6.88% Azzaro Pink Tonic Eau de Parfum 50ml um €46,-- (statt: €49,40) bei Ocean of Smells | MeinPaket
30.07.2014, 00:30 -6.90% Guerlain L'Instant de Guerlain Shimmering Body Fluid 200ml um €46,41 (statt: €49,85) bei Ocean of Smells | MeinPaket
30.07.2014, 00:30 -7.04% Berdoues Clair de Rose Eau de Toilette 80ml um €52,71 (statt: €56,70) bei Ocean of Smells | MeinPaket
30.07.2014, 00:30 -7.13% Berdoues Bal de Clochettes Eau de Toilette 80ml um €58,88 (statt: €63,40) bei Ocean of Smells | MeinPaket
30.07.2014, 00:30 -7.15% Berdoues Fleurs de Cerisier Eau de Toilette 80ml um €60,21 (statt: €64,85) bei Ocean of Smells | MeinPaket
30.07.2014, 00:30 -6.12% Salvador Dalí Dalissime Body Lotion 150ml um €27,60 (statt: €29,40) bei Ocean of Smells | MeinPaket
30.07.2014, 00:30 -7.57% Leonard De Leonard Eau de Toilette 100ml um €117,76 (statt: €127,40) bei Ocean of Smells | MeinPaket
30.07.2014, 00:30 -6.68% Oscar de la Renta Oscar Eau de Toilette 60ml um €38,96 (statt: €41,75) bei Ocean of Smells | MeinPaket
30.07.2014, 00:30 -7.00% Oscar de la Renta Red Orchid Eau de Toilette 60ml um €51,01 (statt: €54,85) bei Ocean of Smells | MeinPaket
30.07.2014, 00:30 -7.08% Oscar de la Renta Oscar Citrus Eau de Toilette 60ml um €55,61 (statt: €59,85) bei Ocean of Smells | MeinPaket
30.07.2014, 00:30 -6.05% Bijan Bijan for Women Duftset um €37,12 (statt: €39,51) bei Ocean of Smells | MeinPaket
30.07.2014, 00:30 -6.90% Valentino Very Valentino Body Cream 150ml um €46,27 (statt: €49,70) bei Ocean of Smells | MeinPaket
30.07.2014, 00:30 -6.43% Valentino Very Valentino Body Lotion 200ml um €32,47 (statt: €34,70) bei Ocean of Smells | MeinPaket
30.07.2014, 00:30 -7.45% Valentino Woman Eau de Parfum 75ml um €92,41 (statt: €99,85) bei Ocean of Smells | MeinPaket
30.07.2014, 00:30 -7.00% Valentino Vendetta pour Femme Body Lotion 150ml um €50,50 (statt: €54,30) bei Ocean of Smells | MeinPaket
30.07.2014, 00:30 -1.79% Elizabeth Taylor Passion Duftset um €36,29 (statt: €36,95) bei Ocean of Smells | MeinPaket
30.07.2014, 00:30 -6.12% Giorgio Beverly Hills Wings Duftset um €27,59 (statt: €29,39) bei Ocean of Smells | MeinPaket
30.07.2014, 00:30 -6.90% Elizabeth Taylor White Diamonds Body Cream 250ml um €46,41 (statt: €49,85) bei Ocean of Smells | MeinPaket
30.07.2014, 00:30 -6.59% Alfred Sung Sung Duftset um €36,15 (statt: €38,70) bei Ocean of Smells | MeinPaket
30.07.2014, 00:30 -5.75% Comptoir Sud Pacifique Vanille Extreme Eau de Toilette 100ml um €55,61 (statt: €59,--) bei Ocean of Smells | MeinPaket
30.07.2014, 00:30 -7.15% Comptoir Sud Pacifique Princesse Muscat Eau de Toilette 100ml um €60,26 (statt: €64,90) bei Ocean of Smells | MeinPaket
30.07.2014, 00:30 -6.88% Comptoir Sud Pacifique Le Roi Santal Eau de Toilette 150ml um €46,-- (statt: €49,40) bei Ocean of Smells | MeinPaket
30.07.2014, 00:30 -6.89% Christiane Celle Calypso Figue Eau de Toilette 100ml um €45,44 (statt: €48,80) bei Ocean of Smells | MeinPaket
30.07.2014, 00:30 -1.62% Christiane Celle Calypso Ambre Eau de Toilette 100ml um €45,44 (statt: €46,19) bei Ocean of Smells | MeinPaket
30.07.2014, 00:30 -7.78% Prescriptives Flirt Eau de Toilette 100ml um €225,76 (statt: €244,80) bei Ocean of Smells | MeinPaket
30.07.2014, 00:30 -4.30% Bijan Bijan for Woman Körperpeeling 100ml um €14,25 (statt: €14,89) bei Ocean of Smells | MeinPaket
30.07.2014, 00:30 -6.31% PowerBar Protein Plus 80% Banane 700g um €21,54 (statt: €22,99) bei vitaweb24.de Shop
30.07.2014, 00:30 -5.40% PowerBar All in One Universal Muscle Shake Schokolade 1kg um €28,37 (statt: €29,99) bei vitaweb24.de Shop
30.07.2014, 00:30 -3.13% PowerBar Muscle Up Schokolade 1.7kg um €27,51 (statt: €28,40) bei vitaweb24.de Shop
30.07.2014, 00:30 -8.16% PowerBar Muscle Up Bar Schoko-Erdnuss 90g um €2,25 (statt: €2,45) bei vitaweb24.de Shop
30.07.2014, 00:30 -8.05% PowerBar Electrolyte Drink Konzentrat Sauerkirsche 1l um €13,02 (statt: €14,16) bei vitaweb24.de Shop
30.07.2014, 00:30 -8.05% PowerBar Electrolyte Drink Konzentrat Erdbeere-Limette 1l um €13,02 (statt: €14,16) bei vitaweb24.de Shop
30.07.2014, 00:30 -5.90% PowerBar Protein Plus 92% Vanille 600g um €21,54 (statt: €22,89) bei vitaweb24.de Shop
30.07.2014, 00:30 -8.02% PowerBar Protein Plus + L-Carnitine Raspberry-Yoghurt 1.05kg (30x 35g) um €25,58 (statt: €27,81) bei vitaweb24.de Shop
30.07.2014, 00:30 -8.02% PowerBar Protein Plus + Minerals Coconut 1.05kg (30x 35g) um €23,87 (statt: €25,95) bei vitaweb24.de Shop
30.07.2014, 00:30 -8.00% PowerBar Protein Plus 30% Schokolade 825g (15x 55g) um €20,47 (statt: €22,25) bei vitaweb24.de Shop
30.07.2014, 00:30 -8.00% PowerBar Protein Plus 30% Cappuccino-Caramel-Crisp 825g (15x 55g) um €20,47 (statt: €22,25) bei vitaweb24.de Shop
30.07.2014, 00:30 -3.44% PowerBar Protein Plus 30% Caramel-Vanille-Crisp 825g (15x 55g) um €22,20 (statt: €22,99) bei vitaweb24.de Shop
30.07.2014, 00:30 -8.01% PowerBar Energize Bar Vanille 1.375kg (25x 55g) um €34,11 (statt: €37,08) bei vitaweb24.de Shop
30.07.2014, 00:30 -2.52% PowerBar Energize Bar Chocolate 1.375kg (25x 55g) um €34,11 (statt: €34,99) bei vitaweb24.de Shop
30.07.2014, 00:30 -4.93% Victorinox Presentation Master Flight 32GB, USB 2.0 (4.6078.TG32F) um €285,15 (statt: €299,95) bei 3p-Price Performance Shop
30.07.2014, 00:30 -2.37% Burton Process um €239,14 (statt: €244,95) bei the LOOM | MeinPaket
30.07.2014, 00:30 -56.52% Burton Feelgood (Damen) um €143,46 (statt: €329,95) bei the LOOM | MeinPaket
30.07.2014, 00:30 -35.62% Burton Honcho (Modell 2012/2013) um €238,21 (statt: €370,--) bei the LOOM | MeinPaket
30.07.2014, 00:30 -20.77% Burton Feelgood Smalls (Modell 2012/2013) um €154,49 (statt: €195,--) bei the LOOM | MeinPaket
30.07.2014, 00:30 -1.96% GoSystem Base Camp Gaskocher um €74,51 (statt: €76,--) bei Spreen Online GmbH
30.07.2014, 00:30 -6.13% BWT WF 8700 Tischwasserfilter um €11,95 (statt: €12,73) bei DTG dynamic-trade GmbH
30.07.2014, 00:30 -7.45% Inventum KP411S Elektro-Einzelkochplatte Autark um €36,79 (statt: €39,75) bei DTG dynamic-trade GmbH
30.07.2014, 00:30 -8.00% Inventum GF555 um €52,43 (statt: €56,99) bei DTG dynamic-trade GmbH
30.07.2014, 00:30 -5.97% Inventum ES100 Messerschärfer um €50,59 (statt: €53,80) bei DTG dynamic-trade GmbH
30.07.2014, 00:30 -8.00% Gourmet Maxx Vital Heißluft-Fritteuse um €26,68 (statt: €29,--) bei DTG dynamic-trade GmbH
30.07.2014, 00:30 -3.46% Sevylor Pointer K2 St6207-E Kajak um €547,39 (statt: €566,99) bei Spreen Online GmbH
30.07.2014, 00:30 -5.98% Explorer Iglu 3 Kuppelzelt um €48,75 (statt: €51,85) bei DTG dynamic-trade GmbH
30.07.2014, 00:30 -8.01% Landmann 13219 Pizza-Set selection um €35,83 (statt: €38,95) bei DTG dynamic-trade GmbH
30.07.2014, 00:30 -8.04% Campingaz Freez'Pack 2xM10 Kühlelemente um €1,83 (statt: €1,99) bei DTG dynamic-trade GmbH
30.07.2014, 00:30 -8.00% Dualit 88840 Stabmixer-Set um €100,28 (statt: €109,--) bei DTG dynamic-trade GmbH
30.07.2014, 00:29 -5.04% Toshiba Satellite P70-A-125 silber (PSPLPE-09603VGR) um €996,10 (statt: €1049,--) bei LocalPC.de | Meinpaket
30.07.2014, 00:29 -27.48% Sony ICD-UX543 Digitales Diktiergerät schwarz um €54,19 (statt: €74,72) bei LocalPC.de | Meinpaket
30.07.2014, 00:29 -5.74% Toshiba Satellite Pro NB10t-A-10K (PU143E-00L01NGR) um €310,10 (statt: €329,--) bei LocalPC.de | Meinpaket
30.07.2014, 00:29 -2.93% Corsair VS Series VS450 450W ATX 2.31 (CP-9020049-EU) um €31,16 (statt: €32,10) bei LocalPC.de | Meinpaket
30.07.2014, 00:29 -6.02% Western Digital Sentinel DX4000 6TB, 2x Gb LAN (WDBLGT0060KBK-EESN) um €703,93 (statt: €749,--) bei LocalPC.de | Meinpaket
30.07.2014, 00:29 -3.37% Kyocera 870LM00074 Speichermodul, 128MB um €83,09 (statt: €85,99) bei LocalPC.de | Meinpaket
30.07.2014, 00:29 -1.98% HP ProDesk 405 G1 MT, E1-2500, 4GB RAM, 500GB HDD, Windows 8.1 Pro (D5S23EA#ABD) um €357,66 (statt: €364,90) bei LocalPC.de | Meinpaket
30.07.2014, 00:29 -7.31% HP ProBook 6570b, Core i5-3230M, 4GB RAM, 500GB, Windows 8 Pro, WXGA++ (H5E74ET) um €862,03 (statt: €930,--) bei LocalPC.de | Meinpaket
30.07.2014, 00:29 -5.85% HP EliteBook 8470p, Core i5-3320M, 4GB RAM, 500GB, Radeon HD 7570M (B5W73AW) um €1342,51 (statt: €1426,--) bei LocalPC.de | Meinpaket
30.07.2014, 00:29 -1.37% Lexware: Kundenmanager 2014 (deutsch) (PC) um €134,-- (statt: €135,86) bei LocalPC.de | Meinpaket
30.07.2014, 00:29 -2.25% Lexware: Kassenbuch 2015 (deutsch) (PC) (08849-0032) um €62,49 (statt: €63,93) bei LocalPC.de | Meinpaket
30.07.2014, 00:29 -13.26% Lexware: Financial Office Pro Juli 2013 (deutsch) (PC) um €652,94 (statt: €752,75) bei LocalPC.de | Meinpaket
30.07.2014, 00:29 -2.11% Lexware: Lohnauskunft 2014, Update (deutsch) (PC) um €46,88 (statt: €47,89) bei LocalPC.de | Meinpaket
30.07.2014, 00:29 -1.96% Lexware: Kassenbuch 2014, Update (deutsch) (PC) um €39,04 (statt: €39,82) bei LocalPC.de | Meinpaket
30.07.2014, 00:29 -2.50% HP StorageWorks RDX Dockingstation, USB 3.0 (C8S07A) um €115,60 (statt: €118,56) bei LocalPC.de | Meinpaket
30.07.2014, 00:29 -7.05% Samsung ATIV Book 8 - 870Z5G, Core i7-4700HQ, 8GB RAM, 1TB, Radeon HD 7870M, Windows 8.1 Pro, silber (NP870Z5G-X03DE) um €1198,13 (statt: €1289,--) bei LocalPC.de | Meinpaket
30.07.2014, 00:29 -5.95% Samsung ATIV Book 9 Plus - 940X3G, Core i7-4500U, 8GB RAM, 256GB SSD, Windows 8.1 (NP940X3G-K08DE) um €1597,84 (statt: €1699,--) bei LocalPC.de | Meinpaket
30.07.2014, 00:29 -4.83% Samsung ATIV Book 8 - 870Z5G, Core i5-4200H, 8GB RAM, 1TB, GeForce GT 750M, Windows 8.1, silber (NP870Z5G-X02DE) um €998,29 (statt: €1049,--) bei LocalPC.de | Meinpaket
30.07.2014, 00:29 -2.73% Samsung ATIV Book 8 - 870Z5G, Core i7-4700HQ, 8GB RAM, 1TB, GeForce GT 750M, Windows 8.1, silber (NP870Z5G-X01DE) um €1098,20 (statt: €1129,--) bei LocalPC.de | Meinpaket
30.07.2014, 00:29 -23.01% Samsung ATIV Tab 5 Book Cover Schutzhülle rot (AA-BS5NBCR/E) um €37,71 (statt: €48,98) bei LocalPC.de | Meinpaket
30.07.2014, 00:29 -4.84% Samsung ATIV Book 9 - 900X3E, Core i5-3317U, 4GB RAM, 128GB SSD (NP900X3E-A03DE) um €998,19 (statt: €1049,--) bei LocalPC.de | Meinpaket
30.07.2014, 00:29 -2.48% LG Electronics BA850 um €2191,78 (statt: €2247,41) bei LocalPC.de | Meinpaket
30.07.2014, 00:29 -3.48% Wenger Jett 16" Tragetasche (GA-7683-02) um €32,15 (statt: €33,31) bei LocalPC.de | Meinpaket
30.07.2014, 00:29 -6.85% Epson 7106919 Speichermodul, 128MB um €78,15 (statt: €83,90) bei LocalPC.de | Meinpaket
30.07.2014, 00:29 -1.59% Canon 1EG Professional Gadget Bag Kameratasche (0027X678) um €66,02 (statt: €67,09) bei LocalPC.de | Meinpaket
30.07.2014, 00:29 -4.80% Corsair Vengeance Pro rot DIMM Kit 16GB, DDR3-1866, CL9-10-9-27 (CMY16GX3M2A1866C9R) um €136,74 (statt: €143,64) bei LocalPC.de | Meinpaket
30.07.2014, 00:29 -1.31% XFX XTR Series 550W ATX 2.31 (P1-550B-BEFX) um €76,70 (statt: €77,72) bei LocalPC.de | Meinpaket
30.07.2014, 00:29 -1.94% Transcend JetRAM DIMM 4GB, DDR3-1333, CL9 (JM1333KLH-4G) um €35,86 (statt: €36,57) bei LocalPC.de | Meinpaket
30.07.2014, 00:29 -3.46% Dicota Secret Display-Schutzfolien 14" Wide (D30317) um €33,19 (statt: €34,38) bei LocalPC.de | Meinpaket
30.07.2014, 00:29 -1.49% Axis T91A62, Wandhalterung (5017-621) um €169,62 (statt: €172,18) bei LocalPC.de | Meinpaket
30.07.2014, 00:29 -4.36% Belkin OmniView Pro3 4-fach (F1DA104Zea) um €162,49 (statt: €169,90) bei LocalPC.de | Meinpaket
30.07.2014, 00:29 -5.22% Tandberg LTO-4 Etiketten, 100er-Pack (1018566) um €59,70 (statt: €62,99) bei LocalPC.de | Meinpaket
30.07.2014, 00:29 -2.44% Tandberg Ultrium LTO-4 Kassette Non-Custom Label, 20er Pack (433926) um €454,25 (statt: €465,63) bei LocalPC.de | Meinpaket
30.07.2014, 00:29 -1.54% BigBen Lamborghini für Apple iPhone 4/4S (versch. Farben) um €23,61 (statt: €23,98) bei LocalPC.de | Meinpaket
30.07.2014, 00:29 -3.91% Nokia Asha 205 Dual-SIM weiß orange um €51,40 (statt: €53,49) bei LocalPC.de | Meinpaket
30.07.2014, 00:29 -2.04% Symbol LS2208 (verschiedene Modelle) um €76,34 (statt: €77,93) bei LocalPC.de | Meinpaket
30.07.2014, 00:29 -2.07% Jabra Drive Bluetooth KFZ-Freisprecheinrichtung um €30,79 (statt: €31,44) bei LocalPC.de | Meinpaket
30.07.2014, 00:29 -2.93% Dell Inspiron 15, Pentium 2127U, 4GB RAM, 500GB, Windows 8.1 Pro (3521-3646) um €407,67 (statt: €419,99) bei LocalPC.de | Meinpaket
30.07.2014, 00:29 -10.10% Dell Latitude E7240 Touch, Core i5-4350U, 4GB RAM, 128GB SSD, Windows 8 Pro (7240-5178) um €1313,05 (statt: €1460,52) bei LocalPC.de | Meinpaket
30.07.2014, 00:29 -32.98% Dell Latitude E7440, Core i5-4300U, 4GB RAM, 256GB SSD, Windows 8.1 Pro (7440-2455) um €1472,-- (statt: €2196,30) bei LocalPC.de | Meinpaket
30.07.2014, 00:29 -2.49% Dell M115HD um €369,23 (statt: €378,65) bei LocalPC.de | Meinpaket
30.07.2014, 00:29 -4.68% Logitech Ultrathin Keyboard Folio für Samsung Galaxy Tab 3 10.1, schwarz, EN (920-005811) um €54,19 (statt: €56,85) bei LocalPC.de | Meinpaket
30.07.2014, 00:29 -1.70% Logitech Keyboard Folio für iPad 2/3/4 pink, US (920-005452) um €96,83 (statt: €98,50) bei LocalPC.de | Meinpaket
30.07.2014, 00:29 -3.25% Logitech Keyboard Folio für iPad 2/3/4 pink, DE (920-005446) um €96,74 (statt: €99,99) bei LocalPC.de | Meinpaket
30.07.2014, 00:29 -1.61% Logitech T400 Zone Touch Mouse weiß, USB (910-003679) um €36,11 (statt: €36,70) bei LocalPC.de | Meinpaket
30.07.2014, 00:29 -1.62% Logitech K810 Bluetooth Illuminated Keyboard, USB, US (920-004321) um €91,42 (statt: €92,93) bei LocalPC.de | Meinpaket
30.07.2014, 00:29 -47.29% Logitech Ultrathin Keyboard Cover, schwarz, US (920-004224) um €62,72 (statt: €119,--) bei LocalPC.de | Meinpaket
30.07.2014, 00:29 -7.70% Logitech K760 Wireless Solar Keyboard, USB, US (920-003877) um €77,44 (statt: €83,90) bei LocalPC.de | Meinpaket
30.07.2014, 00:29 -21.94% Logitech K750 Wireless Solar Keyboard für Mac schwarz, USB, DE (920-003480) um €42,15 (statt: €54,--) bei LocalPC.de | Meinpaket
30.07.2014, 00:29 -12.96% Otterbox Commuter für HTC One blau um €17,32 (statt: €19,90) bei LocalPC.de | Meinpaket
30.07.2014, 00:29 -3.06% Origin Storage HP-DV3-2000X6 Li-Ionen-Akku um €79,49 (statt: €82,--) bei LocalPC.de | Meinpaket
30.07.2014, 00:29 -1.40% Origin Storage DL-STXPS13 Li-Ionen-Akku um €76,90 (statt: €77,99) bei LocalPC.de | Meinpaket
30.07.2014, 00:29 -3.63% Origin Storage DL-E4300X3 Li-Ionen-Akku um €52,87 (statt: €54,86) bei LocalPC.de | Meinpaket
30.07.2014, 00:29 -3.63% Origin Storage AS-K50 Li-Ionen-Akku um €57,92 (statt: €60,10) bei LocalPC.de | Meinpaket
30.07.2014, 00:29 -3.63% Origin Storage HP-PB4530SX6 Li-Ionen-Akku um €57,92 (statt: €60,10) bei LocalPC.de | Meinpaket
30.07.2014, 00:29 -16.10% Origin Storage IB-T410X9 Li-Ionen-Akku um €54,86 (statt: €65,39) bei LocalPC.de | Meinpaket
30.07.2014, 00:29 -2.06% Origin Storage DL-S1735 Li-Ionen-Akku um €61,69 (statt: €62,99) bei LocalPC.de | Meinpaket
30.07.2014, 00:29 -3.12% Origin Storage IB-X200H Li-Ionen-Akku um €78,22 (statt: €80,74) bei LocalPC.de | Meinpaket
30.07.2014, 00:29 -1.80% Origin Storage MC-MBK13A Li-Polymer-Akku um €69,72 (statt: €71,--) bei LocalPC.de | Meinpaket
30.07.2014, 00:29 -1.28% Origin Storage PA-CF18 Li-Ionen-Akku um €63,17 (statt: €63,99) bei LocalPC.de | Meinpaket
30.07.2014, 00:29 -3.54% ZEBRA 105934-053 Netzteil um €78,17 (statt: €81,04) bei LocalPC.de | Meinpaket
30.07.2014, 00:29 -3.63% Zebra Schutztasche für RW 220 (AK18026-001) um €46,94 (statt: €48,71) bei LocalPC.de | Meinpaket
30.07.2014, 00:29 -1.42% Adobe: Technical Communication Suite 5.0 (deutsch) (PC) (65228832) um €2193,36 (statt: €2225,--) bei LocalPC.de | Meinpaket
30.07.2014, 00:29 -2.23% Adobe: Photoshop Elements 12.0 und Premiere Elements 12.0, Update (englisch) (PC/MAC) (65226473) um €90,27 (statt: €92,33) bei LocalPC.de | Meinpaket
30.07.2014, 00:29 -1.90% Adobe: Photoshop Elements 12.0 und Premiere Elements 12.0 (französisch) (PC/MAC) (65226252) um €108,93 (statt: €111,04) bei LocalPC.de | Meinpaket
30.07.2014, 00:29 -1.83% Adobe: Photoshop Elements 12.0 und Premiere Elements 12.0 (englisch) (PC/MAC) (65226191) um €108,93 (statt: €110,96) bei LocalPC.de | Meinpaket
30.07.2014, 00:29 -2.39% Adobe: Premiere Elements 12.0 (englisch) (PC/MAC) (65225409) um €73,02 (statt: €74,81) bei LocalPC.de | Meinpaket
30.07.2014, 00:29 -3.50% Adobe: Photoshop Elements 12.0 (französisch) (PC/MAC) (65224946) um €73,02 (statt: €75,67) bei LocalPC.de | Meinpaket
30.07.2014, 00:29 -19.80% Adobe: Photoshop Elements 12.0, Update (französisch) (PC/MAC) (65224916) um €59,35 (statt: €74,--) bei LocalPC.de | Meinpaket
30.07.2014, 00:29 -1.38% Adobe: Photoshop Elements 12.0 (englisch) (PC/MAC) um €73,02 (statt: €74,04) bei LocalPC.de | Meinpaket
30.07.2014, 00:29 -2.83% Adobe: Photoshop Lightroom 5.0, Update (englisch) (PC/MAC) (65215225) um €65,59 (statt: €67,50) bei LocalPC.de | Meinpaket
30.07.2014, 00:29 -1.72% Adobe: Photoshop Lightroom 5.0 (französisch) (PC/MAC) (65215140) um €115,11 (statt: €117,12) bei LocalPC.de | Meinpaket
30.07.2014, 00:29 -4.71% Adobe: Photoshop Lightroom 5.0, Update (französisch) (PC/MAC) (65215010) um €65,59 (statt: €68,83) bei LocalPC.de | Meinpaket
30.07.2014, 00:29 -3.15% Adobe: Acrobat Pro 11, EDU (englisch) (PC) (65194964) um €81,25 (statt: €83,89) bei LocalPC.de | Meinpaket
30.07.2014, 00:29 -2.24% IBM System x3100 M4, Xeon E3-1220 v2, 4GB RAM, 1TB HDD (2582KFG) um €513,01 (statt: €524,79) bei LocalPC.de | Meinpaket
30.07.2014, 00:29 -12.69% IBM System x3250 M4, Xeon E3-1230 V2, 4GB RAM (2583KHG) um €758,69 (statt: €869,--) bei LocalPC.de | Meinpaket
30.07.2014, 00:29 -3.84% Lenovo IBM UltraNav Keyboard (verschiedene Anschlüsse/Layouts) um €103,95 (statt: €108,10) bei LocalPC.de | Meinpaket
30.07.2014, 00:29 -1.94% Intel Core i7-4800MQ, 4x 2.70GHz, Sockel-947, boxed (BX80647I74800MQ) um €322,02 (statt: €328,39) bei LocalPC.de | Meinpaket
30.07.2014, 00:29 -2.67% Nuance: OmniPage 18.0 Ultimate, EDU (deutsch) (PC) (E709G-F02-19.0) um €73,73 (statt: €75,75) bei LocalPC.de | Meinpaket
30.07.2014, 00:29 -1.54% Nuance: Dragon Dictate 3.0, Wireless (deutsch) (MAC) (S601G-WN9-3.0) um €172,20 (statt: €174,89) bei LocalPC.de | Meinpaket
30.07.2014, 00:29 -5.66% Nuance: Dragon NaturallySpeaking Home 12.0, Inkl. Headset (französisch) (PC) (K409F-W00-12.0) um €54,35 (statt: €57,61) bei LocalPC.de | Meinpaket
30.07.2014, 00:29 -3.53% Nuance: Dragon NaturallySpeaking Premium 12.0, Inkl. Headset, EDU (deutsch) (PC) (K609G-F02-12.0) um €58,84 (statt: €60,99) bei LocalPC.de | Meinpaket
30.07.2014, 00:29 -8.11% NEC NP02CV Kabelabdeckung (60003218) um €73,62 (statt: €80,12) bei LocalPC.de | Meinpaket
30.07.2014, 00:29 -39.11% Panasonic KX-TU321 um €49,20 (statt: €80,80) bei LocalPC.de | Meinpaket
30.07.2014, 00:29 -3.60% Panasonic DMW-CZ18 Kameratasche um €32,67 (statt: €33,89) bei LocalPC.de | Meinpaket
30.07.2014, 00:29 -1.43% Panasonic CF-VZSU1428W Li-Ionen-Akku um €209,43 (statt: €212,46) bei LocalPC.de | Meinpaket
30.07.2014, 00:29 -5.23% Toshiba TLP-LP20 Ersatzlampe um €295,31 (statt: €311,60) bei LocalPC.de | Meinpaket
30.07.2014, 00:29 -3.53% Sony SNCA-PMFIX1, Masthalterung um €54,19 (statt: €56,17) bei LocalPC.de | Meinpaket
30.07.2014, 00:29 -1.33% Panasonic CF-VZSU48U Li-Ionen-Akku um €157,07 (statt: €159,19) bei LocalPC.de | Meinpaket
30.07.2014, 00:29 -8.63% Panasonic CF-VZSU30BU Li-Ionen-Akku um €157,07 (statt: €171,90) bei LocalPC.de | Meinpaket
30.07.2014, 00:29 -5.44% Canon SC-2000 Tragetasche (9389A001) um €50,97 (statt: €53,90) bei LocalPC.de | Meinpaket
30.07.2014, 00:29 -3.67% Wacom Bamboo Stift (EP-150E) um €30,94 (statt: €32,12) bei LocalPC.de | Meinpaket
30.07.2014, 00:29 -3.47% Sony ICD-PX240 Digitales Diktiergerät um €34,47 (statt: €35,71) bei LocalPC.de | Meinpaket
30.07.2014, 00:29 -3.38% Sony Ultrium LTO-6 Kassette (LTX2500GN) um €40,35 (statt: €41,76) bei LocalPC.de | Meinpaket
30.07.2014, 00:29 -1.25% Sony ICD-PX333D Digitales Diktiergerät um €62,63 (statt: €63,42) bei LocalPC.de | Meinpaket
30.07.2014, 00:29 -1.02% Sony ICD-SX733D Digitales Diktiergerät um €161,86 (statt: €163,52) bei LocalPC.de | Meinpaket
30.07.2014, 00:29 -1.34% Sony ICD-PX333M Digitales Diktiergerät um €45,04 (statt: €45,65) bei LocalPC.de | Meinpaket
30.07.2014, 00:29 -1.25% Sony ICD-PX333 Digitales Diktiergerät um €39,40 (statt: €39,90) bei LocalPC.de | Meinpaket
30.07.2014, 00:29 -1.50% Sony ICD-SX733 Digitales Diktiergerät um €126,67 (statt: €128,60) bei LocalPC.de | Meinpaket
30.07.2014, 00:29 -3.56% Sony ICD-UX533 Digitales Diktiergerät silber um €66,85 (statt: €69,32) bei LocalPC.de | Meinpaket
30.07.2014, 00:29 -3.56% Sony ICD-UX533 Digitales Diktiergerät schwarz um €66,85 (statt: €69,32) bei LocalPC.de | Meinpaket
30.07.2014, 00:29 -1.22% Sony ICD-UX532 Digitales Diktiergerät silber um €54,19 (statt: €54,86) bei LocalPC.de | Meinpaket
30.07.2014, 00:29 -3.63% Sony TMR-PJ2 3D-Transmitter um €59,51 (statt: €61,75) bei LocalPC.de | Meinpaket
30.07.2014, 00:29 -12.45% Sony ICD-LX30 Digitales Diktiergerät um €70,37 (statt: €80,38) bei LocalPC.de | Meinpaket
30.07.2014, 00:29 -18.31% Sony PK-F30LA1 Objektivadapter um €32,66 (statt: €39,98) bei LocalPC.de | Meinpaket
30.07.2014, 00:29 -1.01% Sony LMP-E190 Ersatzlampe um €162,38 (statt: €164,03) bei LocalPC.de | Meinpaket
30.07.2014, 00:29 -2.07% Maxell BD-RE DL 50GB 2x, 1er-Pack um €17,53 (statt: €17,90) bei LocalPC.de | Meinpaket
30.07.2014, 00:29 -1.13% Sony LMP-C150 Ersatzlampe um €154,89 (statt: €156,66) bei LocalPC.de | Meinpaket
30.07.2014, 00:29 -3.90% Sapphire Radeon HD 7850 Dual-X, 2GB GDDR5, 2x DVI, HDMI, DisplayPort, lite retail (11200-25-20G) um €141,46 (statt: €147,20) bei LocalPC.de | Meinpaket
30.07.2014, 00:29 -2.89% Sapphire Radeon R9 280X Dual-X OC Battlefield 4 Edition, 870MHz, 3GB GDDR5, 2x DVI, HDMI, DisplayPort, lite retail (11221-00-25G) um €260,20 (statt: €267,95) bei LocalPC.de | Meinpaket
30.07.2014, 00:29 -36.52% Sapphire Radeon R9 270X Dual-X Battlefield 4 Edition, 2GB GDDR5, 2x DVI, HDMI, DisplayPort, lite retail (11217-01-25G) um €167,59 (statt: €264,--) bei LocalPC.de | Meinpaket
30.07.2014, 00:29 -2.17% Sapphire aktiver Mini DisplayPort/Single-Link DVI Adapter (44000-04-20G) um €96,52 (statt: €98,66) bei LocalPC.de | Meinpaket
30.07.2014, 00:29 -1.19% AMD FirePro W600, 2GB GDDR5, 6x Mini DisplayPort (100-505746) um €420,40 (statt: €425,45) bei LocalPC.de | Meinpaket
30.07.2014, 00:29 -13.27% Sapphire Radeon HD 7770 GHz Edition FleX, 1GB GDDR5, 2x DVI, HDMI, DisplayPort (11201-12-20G) um €104,07 (statt: €119,99) bei LocalPC.de | Meinpaket
30.07.2014, 00:29 -1.90% ATI FirePro 3D V4800, 1GB GDDR5, DVI, 2x DisplayPort (100-505606) um €139,45 (statt: €142,15) bei LocalPC.de | Meinpaket
30.07.2014, 00:29 -2.98% Gigabyte Aivia Osmium, MX-Brown, USB um €96,32 (statt: €99,28) bei LocalPC.de | Meinpaket
30.07.2014, 00:29 -33.21% Gigabyte Fly um €30,35 (statt: €45,44) bei LocalPC.de | Meinpaket
30.07.2014, 00:29 -6.98% Gigabyte Radeon R9 270X WindForce 3X OC Battlefield 4 Edition, 4GB GDDR5, 2x DVI, HDMI, DisplayPort (GV-R927XOC-4GD-GA) um €209,20 (statt: €224,90) bei LocalPC.de | Meinpaket
30.07.2014, 00:29 -8.72% Gigabyte GeForce GTX 650 WindForce 2X OC, 2GB GDDR5, VGA, 2x DVI, HDMI (GV-N650WF2-2GI) um €95,75 (statt: €104,90) bei LocalPC.de | Meinpaket
30.07.2014, 00:29 -6.28% Gigabyte GeForce GTX 650 Ti Windforce 2X, 2GB GDDR5, VGA, 2x DVI, HDMI (GV-N65TOC-2GI) um €125,49 (statt: €133,90) bei LocalPC.de | Meinpaket
30.07.2014, 00:29 -8.82% Gigabyte GeForce GTX 650 OC, 2GB GDDR5, VGA, 2x DVI, HDMI (GV-N650OC-2GI) um €91,04 (statt: €99,85) bei LocalPC.de | Meinpaket
30.07.2014, 00:29 -9.01% Gigabyte GeForce GT 620, 1GB DDR3, VGA, DVI, HDMI (GV-N620D3-1GL) um €42,31 (statt: €46,50) bei LocalPC.de | Meinpaket
30.07.2014, 00:29 -14.43% Gigabyte Radeon HD 7770 GHz Edition OC, 1GB GDDR5, DVI, HDMI, 2x Mini DisplayPort (GV-R777OC-1GD) um €78,66 (statt: €91,93) bei LocalPC.de | Meinpaket
30.07.2014, 00:29 -3.41% Gigabyte GeForce GTX 690, 2x 2GB GDDR5, 3x DVI, Mini DisplayPort (GV-N690D5-4GD-B) um €855,83 (statt: €886,--) bei LocalPC.de | Meinpaket
30.07.2014, 00:29 -19.21% Gigabyte Pulse 650W ATX 2.31 (GZ-EFS65A-C3) um €65,33 (statt: €80,86) bei LocalPC.de | Meinpaket
30.07.2014, 00:29 -16.38% Gigabyte Pulse 550W ATX 2.31 (GZ-EFS55A-C3) um €62,64 (statt: €74,91) bei LocalPC.de | Meinpaket
30.07.2014, 00:29 -3.52% Gigabyte Pulse 450W ATX 2.31 (GZ-EFS45A-C3) um €61,48 (statt: €63,72) bei LocalPC.de | Meinpaket
30.07.2014, 00:29 -15.82% Gigabyte GreenMax 650W ATX 2.2 (GE-X650A-C1) um €69,07 (statt: €82,05) bei LocalPC.de | Meinpaket
30.07.2014, 00:29 -17.60% Gigabyte SuperB E470C1 470W ATX 2.3 (24EPG-E40AC1-39R) um €36,23 (statt: €43,97) bei LocalPC.de | Meinpaket
30.07.2014, 00:29 -6.10% MSI CX70-i740M281W7H (001758-SKU1) um €750,26 (statt: €799,--) bei LocalPC.de | Meinpaket
30.07.2014, 00:29 -4.03% MSI Wind Top AE2212-B33224G1T0S8MGMX (00AC9211-SKU1) um €766,81 (statt: €799,--) bei LocalPC.de | Meinpaket
30.07.2014, 00:29 -1.37% ZyXEL XGS3700-24, 24-Port, managed (XGS3700-24-ZZ0101F) um €1185,87 (statt: €1202,37) bei LocalPC.de | Meinpaket
30.07.2014, 00:29 -3.63% ZyXEL E-iCard Commtouch Content Filter Lizenz für USG 20, 1 Jahr (USG20-CC1-ZZ0101F) um €34,76 (statt: €36,07) bei LocalPC.de | Meinpaket
30.07.2014, 00:29 -1.39% ZyXEL E-iCard Commtouch Anti-Spam Lizenz für USG 50, 1 Jahr (USG50-CS1-ZZ0101F) um €107,48 (statt: €108,99) bei LocalPC.de | Meinpaket
30.07.2014, 00:29 -2.04% ZyXEL E-iCard Commtouch Anti-Spam Lizenz für USG 20, 1 Jahr (USG20-CS1-ZZ0101F) um €79,34 (statt: €80,99) bei LocalPC.de | Meinpaket
30.07.2014, 00:29 -8.00% ZyXEL NWA-5560-N (NWA-5560-N-EU0201F) um €1553,87 (statt: €1689,--) bei LocalPC.de | Meinpaket
30.07.2014, 00:29 -2.10% ZyXEL P-794H (91-003-237001B) um €313,61 (statt: €320,34) bei LocalPC.de | Meinpaket
30.07.2014, 00:29 -2.55% ZyXEL E-iCard ZyXEL Anti-Virus Lizenz für USG 50, 2 Jahre (91-995-236001B) um €88,28 (statt: €90,59) bei LocalPC.de | Meinpaket
30.07.2014, 00:29 -1.43% ZyXEL E-iCard Kaspersky Anti-Virus Lizenz für USG 50, 2 Jahre (91-995-234001B) um €133,06 (statt: €134,99) bei LocalPC.de | Meinpaket
30.07.2014, 00:29 -2.55% ZyXEL E-iCard ZyXEL Anti-Virus Lizenz für USG 50, 1 Jahr (91-995-235001B) um €47,34 (statt: €48,58) bei LocalPC.de | Meinpaket
30.07.2014, 00:29 -2.54% ZyXEL E-iCard Kaspersky Anti-Virus Lizenz für USG 50, 1 Jahr (91-995-233001B) um €83,16 (statt: €85,33) bei LocalPC.de | Meinpaket
30.07.2014, 00:29 -2.26% ZyXEL E-iCard IDP Lizenz für USG 50, 2 Jahre (91-995-238001B) um €70,37 (statt: €72,--) bei LocalPC.de | Meinpaket
30.07.2014, 00:29 -3.33% ZyXEL E-iCard IDP Lizenz für USG 50, 1 Jahr (91-995-237001B) um €43,50 (statt: €45,--) bei LocalPC.de | Meinpaket
30.07.2014, 00:29 -1.12% ZyXEL E-iCard Kaspersky Anti-Virus Lizenz für USG 100, 2 Jahre (91-995-154001B) um €152,26 (statt: €153,99) bei LocalPC.de | Meinpaket
30.07.2014, 00:29 -6.43% ZyXEL P-660H-D1 (91-004-582001B) um €39,13 (statt: €41,82) bei LocalPC.de | Meinpaket
30.07.2014, 00:29 -7.14% BenQ GP10 (9H.J3F77.19E) um €398,35 (statt: €429,--) bei LocalPC.de | Meinpaket
30.07.2014, 00:29 -1.60% BenQ 5J.J3A10.001 Wandhalterung um €117,91 (statt: €119,83) bei LocalPC.de | Meinpaket
30.07.2014, 00:29 -33.76% ASUS X550LB-XO030A (90NB02F2-M03470) um €528,67 (statt: €798,08) bei LocalPC.de | Meinpaket
30.07.2014, 00:29 -5.02% ASUS N56JN-CN023H (90NB04Z1-M00250) um €853,83 (statt: €899,--) bei LocalPC.de | Meinpaket
30.07.2014, 00:29 -1.18% ASUS X550LB-XX048H (90NB02G2-M02040) um €653,19 (statt: €660,99) bei LocalPC.de | Meinpaket
30.07.2014, 00:29 -4.17% ASUS GTX650 TI-1GD5, GeForce GTX 650 Ti, 1GB GDDR5, VGA, 2x DVI, HDMI (90YV03B2-M0NA00) um €112,47 (statt: €117,36) bei LocalPC.de | Meinpaket
30.07.2014, 00:29 -21.90% ASUS HD7770-1GD5, Radeon HD 7770 GHz Edition, 1GB GDDR5, DVI, HDMI, DisplayPort (90-C1CSL0-L0UAY0BZ) um €91,34 (statt: €116,95) bei LocalPC.de | Meinpaket
30.07.2014, 00:29 -15.54% ASUS HD7750-T-1GD5, Radeon HD 7750, 1GB GDDR5, DVI, HDMI, DisplayPort (90-C1CS12-L0UAY0BZ) um €83,53 (statt: €98,90) bei LocalPC.de | Meinpaket
30.07.2014, 00:29 -9.39% ASUS HD7770-DCT-1GD5 DirectCU TOP, Radeon HD 7770 GHz Edition, 1GB GDDR5, 2x DVI, HDMI, DisplayPort (90-C1CS70-L0UAY0BZ) um €101,30 (statt: €111,80) bei LocalPC.de | Meinpaket
30.07.2014, 00:29 -1.09% PowerColor Radeon R7 250X, 1GB GDDR5, VGA, DVI, HDMI (AXR7 250X 1GBD5-HE) um €78,99 (statt: €79,86) bei LocalPC.de | Meinpaket
30.07.2014, 00:29 -3.34% PowerColor Radeon HD 6450 Go! Green UEFI, 1GB DDR3 (AX6450 1GBK3-SHE) um €30,11 (statt: €31,15) bei LocalPC.de | Meinpaket
30.07.2014, 00:29 -2.46% PowerColor Radeon HD 6570, 1GB DDR3, VGA, DVI, HDMI (AX6570 1GBK3-H) um €43,21 (statt: €44,30) bei LocalPC.de | Meinpaket
30.07.2014, 00:29 -1.30% PowerColor Radeon HD 6570, 2GB DDR3, VGA, DVI, HDMI (AX6570 2GBK3-H) um €50,76 (statt: €51,43) bei LocalPC.de | Meinpaket
30.07.2014, 00:29 -21.29% Enermax Revolution87+ 650W ATX 2.4 (ERV650AWT-G) um €102,31 (statt: €129,98) bei LocalPC.de | Meinpaket
30.07.2014, 00:29 -4.78% Acer Aspire V3-772G-747a8G50Makk, 1920x1080, GeForce GTX 760M, Windows 8.1 (NX.M8SEG.037) um €951,27 (statt: €999,--) bei LocalPC.de | Meinpaket
30.07.2014, 00:29 -1.47% Packard Bell EasyNote TE69KB-23804G1TMnsk (NX.C2CEG.027) um €337,19 (statt: €342,21) bei LocalPC.de | Meinpaket
30.07.2014, 00:29 -5.86% Packard Bell oneTwo S A4291 GE (DQ.U86EG.002) um €422,70 (statt: €449,--) bei LocalPC.de | Meinpaket
30.07.2014, 00:29 -1.26% Qnap Single Power Supply, 350W Netzteil (SP-8BAY-PSU) um €93,73 (statt: €94,93) bei LocalPC.de | Meinpaket
30.07.2014, 00:29 -2.02% Thecus N4510U PRO-R, 2x Gb LAN, 1HE um €801,22 (statt: €817,71) bei LocalPC.de | Meinpaket
30.07.2014, 00:29 -7.51% Acer Veriton L6620G, Core i5-3470S, 4GB RAM, 500GB HDD, Windows 8 Pro (DT.VFVEG.002) um €792,41 (statt: €856,79) bei LocalPC.de | Meinpaket
30.07.2014, 00:29 -3.92% Acer Veriton N2110G, AMD T56N, 2GB RAM, 8GB SSD, Windows (DT.VFTEH.007) um €337,92 (statt: €351,69) bei LocalPC.de | Meinpaket
30.07.2014, 00:29 -3.93% Acer Aspire Z3-605, Core i5-3337U, 8GB RAM, 1TB HDD, Windows 8 (DQ.SQQEG.002) um €940,54 (statt: €979,--) bei LocalPC.de | Meinpaket
30.07.2014, 00:29 -6.10% Acer TravelMate P253-M-53234G50Mnk (NX.V7VEG.028) um €590,63 (statt: €629,--) bei LocalPC.de | Meinpaket
30.07.2014, 00:29 -9.88% Acer X1340WH (MR.JF411.00L) um €404,65 (statt: €449,--) bei LocalPC.de | Meinpaket
30.07.2014, 00:29 -3.59% Acer TravelMate P273-MG-53238G75Mnks (NX.V89EG.004) um €727,38 (statt: €754,45) bei LocalPC.de | Meinpaket
30.07.2014, 00:29 -9.59% Acer TravelMate P633-M-53214G50ikk, UMTS, Windows 7 Professional (NX.V7TEG.001) um €908,03 (statt: €1004,40) bei LocalPC.de | Meinpaket
30.07.2014, 00:29 -14.14% Synology DiskStation DS213, Gb LAN um €265,32 (statt: €309,--) bei LocalPC.de | Meinpaket
30.07.2014, 00:29 -1.83% Synology 90-2GSR01Z81 um €37,99 (statt: €38,70) bei LocalPC.de | Meinpaket
30.07.2014, 00:29 -8.79% Synology DiskStation DS2411+, 2x Gb LAN um €1277,72 (statt: €1400,92) bei LocalPC.de | Meinpaket
30.07.2014, 00:29 -4.70% Sony Vaio Fit 15E weiß (SVF1532J1E/W) um €643,30 (statt: €675,--) bei LocalPC.de | Meinpaket
30.07.2014, 00:29 -1.15% Sony Vaio Fit 15A schwarz (SVF15N2X2E/B) um €1274,15 (statt: €1289,--) bei LocalPC.de | Meinpaket
30.07.2014, 00:29 -1.91% Sony Vaio Fit 15A schwarz (SVF15N2Z2E/B) um €1568,40 (statt: €1599,--) bei LocalPC.de | Meinpaket
30.07.2014, 00:29 -8.87% Sony Vaio Fit 15A silber (SVF15N1E2E/S) um €812,85 (statt: €892,--) bei LocalPC.de | Meinpaket
30.07.2014, 00:29 -1.74% Sony Vaio Fit 15A silber (SVF15N1L2E/S) um €981,63 (statt: €999,01) bei LocalPC.de | Meinpaket
30.07.2014, 00:29 -1.31% Linksys LGS308, 8-port, smart managed (LGS308-EU) um €76,91 (statt: €77,93) bei LocalPC.de | Meinpaket
30.07.2014, 00:29 -1.29% Linksys LGS124, 24-port (LGS124-EU) um €132,20 (statt: €133,93) bei LocalPC.de | Meinpaket
30.07.2014, 00:29 -1.24% Linksys PoE Injector (LACPI30-EU) um €59,01 (statt: €59,75) bei LocalPC.de | Meinpaket
30.07.2014, 00:29 -1.08% Linksys LRT214 VPN Router um €160,03 (statt: €161,77) bei LocalPC.de | Meinpaket
30.07.2014, 00:29 -4.07% Linksys EA6700 (EA6700-EW/EA6700-CE/EA6700-UK) um €137,99 (statt: €143,84) bei LocalPC.de | Meinpaket
30.07.2014, 00:29 -3.48% Inter-Tech Combat Power CP Modular 650W ATX 2.2 (88882083) um €37,41 (statt: €38,76) bei LocalPC.de | Meinpaket
30.07.2014, 00:29 -1.84% Inter-Tech FP-750W 750W ATX 2.2 (88882017) um €36,74 (statt: €37,43) bei LocalPC.de | Meinpaket
30.07.2014, 00:29 -10.87% be quiet! TFX Power 300W TFX12V 2.3 (TFX-300W/BN136) um €43,23 (statt: €48,50) bei LocalPC.de | Meinpaket
30.07.2014, 00:29 -1.23% Acronis: Backup 11.5 for PC, AAP (englisch) (PC) (PCWNBPENS) um €60,91 (statt: €61,67) bei LocalPC.de | Meinpaket
30.07.2014, 00:29 -6.96% Acronis: vmProtect 9.0, AAP (deutsch) (PC) um €418,59 (statt: €449,89) bei LocalPC.de | Meinpaket
30.07.2014, 00:29 -2.20% EVGA SuperNOVA 750 G2 750W ATX 2.3 (220-G2-0750-XR) um €91,39 (statt: €93,45) bei LocalPC.de | Meinpaket
30.07.2014, 00:29 -10.03% EVGA 500W ATX 2.3 (100-W1-0500-KR) um €33,19 (statt: €36,89) bei LocalPC.de | Meinpaket
30.07.2014, 00:29 -23.55% EVGA GeForce GTX 650 Ti SSC, 2GB GDDR5, 2x DVI, Mini HDMI (02G-P4-3653) um €135,59 (statt: €177,35) bei LocalPC.de | Meinpaket
30.07.2014, 00:29 -42.48% EVGA GeForce GTX 650 Ti, 2GB GDDR5, 2x DVI, Mini HDMI (02G-P4-3651) um €127,69 (statt: €222,--) bei LocalPC.de | Meinpaket
30.07.2014, 00:29 -5.12% EVGA GeForce GT 640 (GK107) Single-Slot, 2GB DDR3 (891MHz), 2x DVI, Mini HDMI (02G-P4-2645) um €77,28 (statt: €81,45) bei LocalPC.de | Meinpaket
30.07.2014, 00:29 -8.28% EVGA GeForce GT 640 (GK107) Single-Slot, 2GB DDR3 (667MHz), 2x DVI, Mini HDMI (02G-P4-2641) um €76,59 (statt: €83,50) bei LocalPC.de | Meinpaket
30.07.2014, 00:29 -7.42% EVGA GeForce GT 630 (GF108), 2GB DDR3, 2x DVI, Mini HDMI (02G-P3-2639) um €54,91 (statt: €59,31) bei LocalPC.de | Meinpaket
30.07.2014, 00:29 -2.60% EVGA GeForce GT 620, 1GB DDR3, 2x DVI, Mini HDMI (01G-P3-2621) um €44,21 (statt: €45,39) bei LocalPC.de | Meinpaket
30.07.2014, 00:29 -1.81% EVGA PCoIP Host Card HD03, 2x Mini DisplayPort, RJ45 (512-IP-HD03) um €334,46 (statt: €340,64) bei LocalPC.de | Meinpaket
30.07.2014, 00:29 -1.09% Fujitsu mini SAS x4 (SFF-8088) auf InfiniBand (SFF-8470) Kabel, 2m (S26361-F3246-L203/D:KBSAS1I-1S-2M) um €37,22 (statt: €37,63) bei LocalPC.de | Meinpaket
30.07.2014, 00:29 -2.01% Fujitsu Esprimo P410 E85+, Pentium G2030, 2GB RAM, 250GB HDD, FreeDOS (P0410P8215DE) um €279,18 (statt: €284,90) bei LocalPC.de | Meinpaket
30.07.2014, 00:29 -9.36% Fujitsu Esprimo P410 E85+, Pentium G2120, 4GB RAM, 500GB HDD, Windows 8.1 Pro (P0410P7241DE) um €384,32 (statt: €424,03) bei LocalPC.de | Meinpaket
30.07.2014, 00:29 -14.33% Fujitsu Esprimo P410 E85+, Pentium G2030, 2GB RAM, 500GB HDD, Windows 8.1 Pro (P0410P7221DE) um €349,27 (statt: €407,67) bei LocalPC.de | Meinpaket
30.07.2014, 00:29 -3.91% Fujitsu Lifebook S792, Core i5-3230M, 4GB RAM, 500GB, UMTS (S7920M0076DE) um €1178,98 (statt: €1227,--) bei LocalPC.de | Meinpaket
30.07.2014, 00:29 -3.86% Fujitsu Lifebook E782, Core i7-3540M, 8GB RAM, 256GB SSD, Windows 8 Pro (E7820M0084DE) um €1535,30 (statt: €1597,--) bei LocalPC.de | Meinpaket
30.07.2014, 00:29 -3.45% Fujitsu Lifebook E753, Core i5-3230M, 4GB RAM, 500GB (E7530MXE11DE) um €1040,33 (statt: €1077,52) bei LocalPC.de | Meinpaket
30.07.2014, 00:29 -3.97% Fujitsu Lifebook E743, Core i5-3230M, 4GB RAM, 500GB (E7430MXE11DE) um €1064,-- (statt: €1107,96) bei LocalPC.de | Meinpaket
30.07.2014, 00:29 -3.41% Fujitsu Lifebook E743, Core i5-3230M, 4GB RAM, 500GB (E7430M55A1DE) um €945,64 (statt: €979,--) bei LocalPC.de | Meinpaket
30.07.2014, 00:29 -2.56% Fujitsu Lifebook E733, Core i5-3230M, 4GB RAM, 500GB (E7330MXE11DE) um €1063,38 (statt: €1091,35) bei LocalPC.de | Meinpaket
30.07.2014, 00:29 -1.84% Fujitsu Celsius H720, Core i7-3740QM, 8GB RAM, 256GB SSD, WUXGA, UMTS, Windows 8 Pro (H7200WXP41DE) um €2129,17 (statt: €2169,10) bei LocalPC.de | Meinpaket
30.07.2014, 00:29 -1.30% Fujitsu Celsius H720, Core i7-3630QM, 8GB RAM, 500GB, WUXGA, UMTS, Windows 8 Pro (H7200WXG41DE) um €1655,76 (statt: €1677,55) bei LocalPC.de | Meinpaket
30.07.2014, 00:29 -10.97% Toshiba Satellite Pro C70-A-155 schwarz (PSCEBE-004009GR) um €619,-- (statt: €695,30) bei LocalPC.de | Meinpaket
30.07.2014, 00:29 -15.71% Toshiba Tecra R950-1G4 (PT534E-06Y01UGR) um €723,16 (statt: €857,99) bei LocalPC.de | Meinpaket
30.07.2014, 00:29 -4.93% Toshiba Tecra R950-192 (PT530E-04302SGR) um €1487,63 (statt: €1564,85) bei LocalPC.de | Meinpaket
30.07.2014, 00:29 -39.14% Fujitsu Prestige Case Mini 13.3" Tragetasche (S26391-F1191-L151) um €39,55 (statt: €64,99) bei LocalPC.de | Meinpaket
30.07.2014, 00:29 -7.75% Toshiba HG5d 256GB, mSATA 6Gb/s (THNSNH256GMCT) um €161,39 (statt: €174,94) bei LocalPC.de | Meinpaket
30.07.2014, 00:29 -3.61% Hama USB-KFZ-Ladegerät 2fach für iPod und iPhone schwarz (00104844) um €481,18 (statt: €499,19) bei LocalPC.de | Meinpaket
30.07.2014, 00:29 -25.65% Xilence TFX Slimline 80mm Lüfter 300W TFX12V (SPS-XP300.TFX.R3) um €33,11 (statt: €44,53) bei LocalPC.de | Meinpaket
30.07.2014, 00:29 -1.73% Sharkoon WPM700 Bronze 700W ATX 2.3 um €57,80 (statt: €58,82) bei LocalPC.de | Meinpaket
30.07.2014, 00:29 -19.24% Sharkoon SHA450-12EUP 450W ATX 2.2 (0455) um €33,12 (statt: €41,01) bei LocalPC.de | Meinpaket
30.07.2014, 00:29 -7.97% bintec elmeg RS232j (5510000331) um €345,10 (statt: €374,97) bei LocalPC.de | Meinpaket
30.07.2014, 00:29 -1.29% bintec elmeg W1002n (5510000165) um €335,56 (statt: €339,95) bei LocalPC.de | Meinpaket
30.07.2014, 00:29 -2.43% Ultron Silent Force 450W ATX 2.2 (50430) um €31,70 (statt: €32,49) bei LocalPC.de | Meinpaket
30.07.2014, 00:29 -3.63% V7 Videoseven DIMM 8GB, DDR3-1600, CL11 (V73T8GNAJKI) um €65,01 (statt: €67,46) bei LocalPC.de | Meinpaket
30.07.2014, 00:29 -18.23% V7 Videoseven SO-DIMM 8GB, DDR3-1333, CL9 (V73V8GNZJII) um €65,65 (statt: €80,29) bei LocalPC.de | Meinpaket
30.07.2014, 00:29 -3.63% V7 Videoseven DIMM 4GB, DDR3-1600, CL11 (V73T4GNABKI) um €35,62 (statt: €36,96) bei LocalPC.de | Meinpaket
30.07.2014, 00:29 -3.60% V7 Videoseven SO-DIMM 4GB, DDR3-1066, CL7 (V73V4GNYBGI) um €38,60 (statt: €40,04) bei LocalPC.de | Meinpaket
30.07.2014, 00:29 -2.56% V7 Videoseven V7EP-VZSU18 Li-Ionen-Akku um €81,69 (statt: €83,84) bei LocalPC.de | Meinpaket
30.07.2014, 00:29 -5.71% V7 Videoseven V7EP-VZSU30 Li-Ionen-Akku um €56,48 (statt: €59,90) bei LocalPC.de | Meinpaket
30.07.2014, 00:29 -3.50% V7 Videoseven V7EL-57Y6454 Li-Ionen-Akku um €45,53 (statt: €47,18) bei LocalPC.de | Meinpaket
30.07.2014, 00:29 -3.55% V7 Videoseven V7EH-169C3 Li-Ionen-Akku um €63,02 (statt: €65,34) bei LocalPC.de | Meinpaket
30.07.2014, 00:29 -3.54% V7 Videoseven V7EH-CC06 Li-Ionen-Akku um €63,02 (statt: €65,33) bei LocalPC.de | Meinpaket
30.07.2014, 00:29 -5.99% V7 Videoseven V7EH-EB192C Li-Ionen-Akku um €60,07 (statt: €63,90) bei LocalPC.de | Meinpaket
30.07.2014, 00:29 -3.54% V7 Videoseven V7EH-581191 Li-Ionen-Akku um €68,86 (statt: €71,39) bei LocalPC.de | Meinpaket
30.07.2014, 00:29 -3.54% V7 Videoseven V7EH-KS52612C Li-Ionen-Akku um €66,56 (statt: €69,--) bei LocalPC.de | Meinpaket
30.07.2014, 00:29 -6.16% V7 Videoseven V7EGW-AS09C31 Li-Ionen-Akku um €44,95 (statt: €47,90) bei LocalPC.de | Meinpaket
30.07.2014, 00:29 -6.34% V7 Videoseven V7ED-OW3Y7C Li-Ionen-Akku um €56,10 (statt: €59,90) bei LocalPC.de | Meinpaket
30.07.2014, 00:29 -3.51% V7 Videoseven V7ED-F287H Li-Ionen-Akku um €57,19 (statt: €59,27) bei LocalPC.de | Meinpaket
30.07.2014, 00:29 -3.53% V7 Videoseven V7ED-T112C6C Li-Ionen-Akku um €68,84 (statt: €71,36) bei LocalPC.de | Meinpaket
30.07.2014, 00:29 -3.80% V7 Videoseven V7ED-KM9659C Li-Ionen-Akku um €80,71 (statt: €83,90) bei LocalPC.de | Meinpaket
30.07.2014, 00:29 -3.54% V7 Videoseven V7ED-KM887 Li-Ionen-Akku um €68,86 (statt: €71,39) bei LocalPC.de | Meinpaket
30.07.2014, 00:29 -4.15% V7 Videoseven V7ED-KM9739C Li-Ionen-Akku um €85,21 (statt: €88,90) bei LocalPC.de | Meinpaket
30.07.2014, 00:29 -3.56% V7 Videoseven V7ED-TK330 Li-Ionen-Akku um €68,80 (statt: €71,34) bei LocalPC.de | Meinpaket
30.07.2014, 00:29 -4.91% V7 Videoseven V7ED-PU5639C Li-Ionen-Akku um €80,73 (statt: €84,90) bei LocalPC.de | Meinpaket
30.07.2014, 00:29 -3.66% V7 Videoseven V7ED-1M215 Li-Ionen-Akku um €76,01 (statt: €78,90) bei LocalPC.de | Meinpaket
30.07.2014, 00:29 -7.37% V7 Videoseven V7ED-W1193 Li-Ionen-Akku um €67,53 (statt: €72,90) bei LocalPC.de | Meinpaket
30.07.2014, 00:29 -6.75% V7 Videoseven V7ED-KM742 Li-Ionen-Akku um €67,98 (statt: €72,90) bei LocalPC.de | Meinpaket
30.07.2014, 00:29 -6.65% V7 Videoseven V7ED-F466C3C Li-Ionen-Akku um €43,78 (statt: €46,90) bei LocalPC.de | Meinpaket
30.07.2014, 00:29 -3.33% V7 Videoseven V7ED-GP9529C Li-Ionen-Akku um €81,11 (statt: €83,90) bei LocalPC.de | Meinpaket
30.07.2014, 00:29 -3.62% V7 Videoseven V7EH-WD548AA Li-Ionen-Akku um €68,86 (statt: €71,45) bei LocalPC.de | Meinpaket
30.07.2014, 00:29 -3.53% V7 Videoseven V7EAS-A32K52 Li-Ionen-Akku um €64,17 (statt: €66,52) bei LocalPC.de | Meinpaket
30.07.2014, 00:29 -3.62% V7 Videoseven V7EA-SA32F52 Li-Ionen-Akku um €64,17 (statt: €66,58) bei LocalPC.de | Meinpaket
30.07.2014, 00:29 -3.54% V7 Videoseven V7EAS-A32M50 Li-Ionen-Akku um €60,69 (statt: €62,92) bei LocalPC.de | Meinpaket
30.07.2014, 00:29 -6.90% V7 Videoseven V7ET-3781U Li-Ionen-Akku um €67,87 (statt: €72,90) bei LocalPC.de | Meinpaket
30.07.2014, 00:29 -2.68% V7 Videoseven V7ET-3817U9C Li-Ionen-Akku um €86,36 (statt: €88,74) bei LocalPC.de | Meinpaket
30.07.2014, 00:29 -3.55% V7 Videoseven V7EG-PB9NC6 Li-Ionen-Akku um €66,51 (statt: €68,96) bei LocalPC.de | Meinpaket
30.07.2014, 00:29 -6.48% V7 Videoseven V7EP-V7SU48U Li-Ionen-Akku um €69,11 (statt: €73,90) bei LocalPC.de | Meinpaket
30.07.2014, 00:29 -1.21% V7 Videoseven V7EL-43R92549C Li-Ionen-Akku um €80,53 (statt: €81,52) bei LocalPC.de | Meinpaket
30.07.2014, 00:29 -5.78% V7 Videoseven V7EL-43R9254 Li-Ionen-Akku um €64,92 (statt: €68,90) bei LocalPC.de | Meinpaket
30.07.2014, 00:29 -4.54% V7 Videoseven V7EL-57Y4185 Li-Ionen-Akku um €67,68 (statt: €70,90) bei LocalPC.de | Meinpaket
30.07.2014, 00:29 -7.25% V7 Videoseven V7EH-OB1D Li-Ionen-Akku um €62,05 (statt: €66,90) bei LocalPC.de | Meinpaket
30.07.2014, 00:29 -3.52% V7 Videoseven V7EH-QK646AA Li-Ionen-Akku um €53,70 (statt: €55,66) bei LocalPC.de | Meinpaket
30.07.2014, 00:29 -3.62% V7 Videoseven V7EH-PH06 Li-Ionen-Akku um €64,17 (statt: €66,58) bei LocalPC.de | Meinpaket
30.07.2014, 00:29 -3.62% V7 Videoseven V7EH-161C5 Li-Ionen-Akku um €45,53 (statt: €47,24) bei LocalPC.de | Meinpaket
30.07.2014, 00:29 -3.60% V7 Videoseven V7EH-ZP06 Li-Ionen-Akku um €51,38 (statt: €53,30) bei LocalPC.de | Meinpaket
30.07.2014, 00:29 -3.55% V7 Videoseven V7ED-4JK6R Li-Ionen-Akku um €56,02 (statt: €58,08) bei LocalPC.de | Meinpaket
30.07.2014, 00:29 -3.53% V7 Videoseven V7ED-PFF30 Li-Ionen-Akku um €64,17 (statt: €66,52) bei LocalPC.de | Meinpaket
30.07.2014, 00:29 -3.53% V7 Videoseven V7EAS-A311015B Li-Ionen-Akku um €64,17 (statt: €66,52) bei LocalPC.de | Meinpaket
30.07.2014, 00:29 -3.47% V7 Videoseven V7ET-PA3634U Li-Ionen-Akku um €58,36 (statt: €60,46) bei LocalPC.de | Meinpaket
30.07.2014, 00:29 -5.36% V7 Videoseven V7EH-GJ655AA Li-Ionen-Akku um €56,69 (statt: €59,90) bei LocalPC.de | Meinpaket
30.07.2014, 00:29 -7.03% V7 Videoseven V7ED-PT434 Li-Ionen-Akku um €63,13 (statt: €67,90) bei LocalPC.de | Meinpaket
30.07.2014, 00:29 -6.14% V7 Videoseven V7ED-FG442 Li-Ionen-Akku um €63,73 (statt: €67,90) bei LocalPC.de | Meinpaket
30.07.2014, 00:29 -1.28% V7 Videoseven VPL780-1E Ersatzlampe um €182,47 (statt: €184,84) bei LocalPC.de | Meinpaket
30.07.2014, 00:29 -27.72% V7 Videoseven VPL718-1E Ersatzlampe um €159,36 (statt: €220,47) bei LocalPC.de | Meinpaket
30.07.2014, 00:29 -35.55% V7 Videoseven VPL442-1E Ersatzlampe um €154,52 (statt: €239,76) bei LocalPC.de | Meinpaket
30.07.2014, 00:29 -47.38% V7 Videoseven VPL042-1E Ersatzlampe um €120,86 (statt: €229,68) bei LocalPC.de | Meinpaket
30.07.2014, 00:29 -20.70% V7 Videoseven VPL037-1E Ersatzlampe um €198,89 (statt: €250,82) bei LocalPC.de | Meinpaket
30.07.2014, 00:29 -50.60% V7 Videoseven VPL149-1E Ersatzlampe um €84,64 (statt: €171,35) bei LocalPC.de | Meinpaket
30.07.2014, 00:29 -36.86% V7 Videoseven VPL143-1E Ersatzlampe um €128,30 (statt: €203,20) bei LocalPC.de | Meinpaket
30.07.2014, 00:29 -35.57% V7 Videoseven VPL341-1E Ersatzlampe um €150,28 (statt: €233,24) bei LocalPC.de | Meinpaket
30.07.2014, 00:29 -2.07% V7 Videoseven VPL1468-1E Ersatzlampe um €182,18 (statt: €186,04) bei LocalPC.de | Meinpaket
30.07.2014, 00:29 -34.03% V7 Videoseven VPL299-1E Ersatzlampe um €113,39 (statt: €171,87) bei LocalPC.de | Meinpaket
30.07.2014, 00:29 -45.48% V7 Videoseven VPL614-1E Ersatzlampe um €110,32 (statt: €202,35) bei LocalPC.de | Meinpaket
30.07.2014, 00:29 -39.05% V7 Videoseven VPL808-1E Ersatzlampe um €115,82 (statt: €190,04) bei LocalPC.de | Meinpaket
30.07.2014, 00:29 -65.28% V7 Videoseven VPL590-1E Ersatzlampe um €58,26 (statt: €167,78) bei LocalPC.de | Meinpaket
30.07.2014, 00:29 -41.73% V7 Videoseven VPL570-1E Ersatzlampe um €106,06 (statt: €182,03) bei LocalPC.de | Meinpaket
30.07.2014, 00:29 -2.08% V7 Videoseven VPL1372-1E Ersatzlampe um €118,76 (statt: €121,28) bei LocalPC.de | Meinpaket
30.07.2014, 00:29 -10.42% V7 Videoseven VPL1218-1E Ersatzlampe um €109,75 (statt: €122,52) bei LocalPC.de | Meinpaket
30.07.2014, 00:29 -34.64% V7 Videoseven VPL1217-1E Ersatzlampe um €150,62</